<?xml version="1.0" encoding="UTF-8" standalone="no" ?>
<gpx xmlns="http://www.topografix.com/GPX/1/1" xmlns:xsi="http://www.w3.org/2001/XMLSchema-instance" xsi:schemaLocation="http://www.topografix.com/GPX/1/1 http://www.topografix.com/GPX/1/1/gpx.xsd" version="1.1" creator="VisuGPX - https://www.visugpx.com">
  <metadata>
    <name>Ski de fond à COURADUQUE</name>
    <desc><![CDATA[Superbe parcours et très beau temps]]></desc>
  </metadata>
  <trk>
    <name><![CDATA[Ski de fond]]></name>
    <trkseg>
      <trkpt lat="42.99103" lon="-0.20305">
        <ele>1376.3</ele>
        <time>2015-03-12T08:53:38Z</time>
      </trkpt>
      <trkpt lat="42.99103" lon="-0.20305">
        <ele>1376.3</ele>
        <time>2015-03-12T08:53:39Z</time>
      </trkpt>
      <trkpt lat="42.99117" lon="-0.20315">
        <ele>1373.4</ele>
        <time>2015-03-12T08:54:56Z</time>
      </trkpt>
      <trkpt lat="42.99117" lon="-0.20316">
        <ele>1373.3</ele>
        <time>2015-03-12T08:54:57Z</time>
      </trkpt>
      <trkpt lat="42.99125" lon="-0.20334">
        <ele>1374</ele>
        <time>2015-03-12T08:55:09Z</time>
      </trkpt>
      <trkpt lat="42.99132" lon="-0.20339">
        <ele>1374</ele>
        <time>2015-03-12T08:55:15Z</time>
      </trkpt>
      <trkpt lat="42.9914" lon="-0.20342">
        <ele>1374.3</ele>
        <time>2015-03-12T08:55:21Z</time>
      </trkpt>
      <trkpt lat="42.99149" lon="-0.20345">
        <ele>1374.2</ele>
        <time>2015-03-12T08:55:27Z</time>
      </trkpt>
      <trkpt lat="42.99156" lon="-0.20348">
        <ele>1373.7</ele>
        <time>2015-03-12T08:55:32Z</time>
      </trkpt>
      <trkpt lat="42.99164" lon="-0.20354">
        <ele>1372.5</ele>
        <time>2015-03-12T08:55:38Z</time>
      </trkpt>
      <trkpt lat="42.99171" lon="-0.20362">
        <ele>1371</ele>
        <time>2015-03-12T08:55:46Z</time>
      </trkpt>
      <trkpt lat="42.99177" lon="-0.20369">
        <ele>1371.2</ele>
        <time>2015-03-12T08:55:54Z</time>
      </trkpt>
      <trkpt lat="42.99184" lon="-0.20376">
        <ele>1372.7</ele>
        <time>2015-03-12T08:56:01Z</time>
      </trkpt>
      <trkpt lat="42.99185" lon="-0.20376">
        <ele>1373.1</ele>
        <time>2015-03-12T08:56:02Z</time>
      </trkpt>
      <trkpt lat="42.99199" lon="-0.20388">
        <ele>1377.8</ele>
        <time>2015-03-12T08:56:15Z</time>
      </trkpt>
      <trkpt lat="42.99206" lon="-0.20395">
        <ele>1379.8</ele>
        <time>2015-03-12T08:56:22Z</time>
      </trkpt>
      <trkpt lat="42.99214" lon="-0.204">
        <ele>1379.6</ele>
        <time>2015-03-12T08:56:29Z</time>
      </trkpt>
      <trkpt lat="42.99221" lon="-0.20406">
        <ele>1380.5</ele>
        <time>2015-03-12T08:56:38Z</time>
      </trkpt>
      <trkpt lat="42.99228" lon="-0.20413">
        <ele>1380.3</ele>
        <time>2015-03-12T08:56:45Z</time>
      </trkpt>
      <trkpt lat="42.99234" lon="-0.20421">
        <ele>1380</ele>
        <time>2015-03-12T08:56:51Z</time>
      </trkpt>
      <trkpt lat="42.99241" lon="-0.20428">
        <ele>1382</ele>
        <time>2015-03-12T08:56:58Z</time>
      </trkpt>
      <trkpt lat="42.99246" lon="-0.20436">
        <ele>1384.7</ele>
        <time>2015-03-12T08:57:04Z</time>
      </trkpt>
      <trkpt lat="42.99247" lon="-0.20437">
        <ele>1385</ele>
        <time>2015-03-12T08:57:05Z</time>
      </trkpt>
      <trkpt lat="42.99259" lon="-0.2045">
        <ele>1387.3</ele>
        <time>2015-03-12T08:57:16Z</time>
      </trkpt>
      <trkpt lat="42.99266" lon="-0.20456">
        <ele>1389</ele>
        <time>2015-03-12T08:57:22Z</time>
      </trkpt>
      <trkpt lat="42.99273" lon="-0.20462">
        <ele>1392.8</ele>
        <time>2015-03-12T08:57:28Z</time>
      </trkpt>
      <trkpt lat="42.99281" lon="-0.20465">
        <ele>1395.1</ele>
        <time>2015-03-12T08:57:34Z</time>
      </trkpt>
      <trkpt lat="42.99289" lon="-0.20466">
        <ele>1397.1</ele>
        <time>2015-03-12T08:57:40Z</time>
      </trkpt>
      <trkpt lat="42.99297" lon="-0.20466">
        <ele>1400.5</ele>
        <time>2015-03-12T08:57:47Z</time>
      </trkpt>
      <trkpt lat="42.99306" lon="-0.20465">
        <ele>1403.7</ele>
        <time>2015-03-12T08:57:54Z</time>
      </trkpt>
      <trkpt lat="42.99314" lon="-0.20465">
        <ele>1405.1</ele>
        <time>2015-03-12T08:57:59Z</time>
      </trkpt>
      <trkpt lat="42.99322" lon="-0.20465">
        <ele>1405.3</ele>
        <time>2015-03-12T08:58:03Z</time>
      </trkpt>
      <trkpt lat="42.99329" lon="-0.20463">
        <ele>1404.9</ele>
        <time>2015-03-12T08:58:07Z</time>
      </trkpt>
      <trkpt lat="42.99331" lon="-0.20463">
        <ele>1404.8</ele>
        <time>2015-03-12T08:58:08Z</time>
      </trkpt>
      <trkpt lat="42.99345" lon="-0.20464">
        <ele>1403.3</ele>
        <time>2015-03-12T08:58:13Z</time>
      </trkpt>
      <trkpt lat="42.99351" lon="-0.20467">
        <ele>1402.4</ele>
        <time>2015-03-12T08:58:15Z</time>
      </trkpt>
      <trkpt lat="42.99356" lon="-0.20471">
        <ele>1401.3</ele>
        <time>2015-03-12T08:58:17Z</time>
      </trkpt>
      <trkpt lat="42.99361" lon="-0.20476">
        <ele>1400</ele>
        <time>2015-03-12T08:58:19Z</time>
      </trkpt>
      <trkpt lat="42.99366" lon="-0.20481">
        <ele>1398.8</ele>
        <time>2015-03-12T08:58:21Z</time>
      </trkpt>
      <trkpt lat="42.99371" lon="-0.20486">
        <ele>1397.6</ele>
        <time>2015-03-12T08:58:23Z</time>
      </trkpt>
      <trkpt lat="42.99377" lon="-0.20494">
        <ele>1396.2</ele>
        <time>2015-03-12T08:58:26Z</time>
      </trkpt>
      <trkpt lat="42.99383" lon="-0.20502">
        <ele>1394.6</ele>
        <time>2015-03-12T08:58:30Z</time>
      </trkpt>
      <trkpt lat="42.99388" lon="-0.2051">
        <ele>1393.5</ele>
        <time>2015-03-12T08:58:34Z</time>
      </trkpt>
      <trkpt lat="42.9939" lon="-0.2052">
        <ele>1393.1</ele>
        <time>2015-03-12T08:58:37Z</time>
      </trkpt>
      <trkpt lat="42.99393" lon="-0.2053">
        <ele>1392.9</ele>
        <time>2015-03-12T08:58:41Z</time>
      </trkpt>
      <trkpt lat="42.99398" lon="-0.20538">
        <ele>1392.3</ele>
        <time>2015-03-12T08:58:45Z</time>
      </trkpt>
      <trkpt lat="42.99403" lon="-0.20547">
        <ele>1391.9</ele>
        <time>2015-03-12T08:58:49Z</time>
      </trkpt>
      <trkpt lat="42.99409" lon="-0.20554">
        <ele>1390.9</ele>
        <time>2015-03-12T08:58:53Z</time>
      </trkpt>
      <trkpt lat="42.99416" lon="-0.2056">
        <ele>1389.4</ele>
        <time>2015-03-12T08:58:57Z</time>
      </trkpt>
      <trkpt lat="42.99422" lon="-0.20567">
        <ele>1388</ele>
        <time>2015-03-12T08:59:01Z</time>
      </trkpt>
      <trkpt lat="42.99428" lon="-0.20574">
        <ele>1387.2</ele>
        <time>2015-03-12T08:59:05Z</time>
      </trkpt>
      <trkpt lat="42.99434" lon="-0.2058">
        <ele>1386.7</ele>
        <time>2015-03-12T08:59:08Z</time>
      </trkpt>
      <trkpt lat="42.99442" lon="-0.20586">
        <ele>1386.6</ele>
        <time>2015-03-12T08:59:12Z</time>
      </trkpt>
      <trkpt lat="42.99443" lon="-0.20588">
        <ele>1386.8</ele>
        <time>2015-03-12T08:59:13Z</time>
      </trkpt>
      <trkpt lat="42.99457" lon="-0.20593">
        <ele>1391.8</ele>
        <time>2015-03-12T08:59:23Z</time>
      </trkpt>
      <trkpt lat="42.99465" lon="-0.20595">
        <ele>1395</ele>
        <time>2015-03-12T08:59:28Z</time>
      </trkpt>
      <trkpt lat="42.99473" lon="-0.20595">
        <ele>1398.3</ele>
        <time>2015-03-12T08:59:34Z</time>
      </trkpt>
      <trkpt lat="42.99481" lon="-0.20597">
        <ele>1404.9</ele>
        <time>2015-03-12T08:59:43Z</time>
      </trkpt>
      <trkpt lat="42.9949" lon="-0.20596">
        <ele>1407.3</ele>
        <time>2015-03-12T08:59:49Z</time>
      </trkpt>
      <trkpt lat="42.99498" lon="-0.20594">
        <ele>1407.8</ele>
        <time>2015-03-12T08:59:54Z</time>
      </trkpt>
      <trkpt lat="42.99506" lon="-0.20592">
        <ele>1407.8</ele>
        <time>2015-03-12T08:59:59Z</time>
      </trkpt>
      <trkpt lat="42.99514" lon="-0.20589">
        <ele>1406.8</ele>
        <time>2015-03-12T09:00:03Z</time>
      </trkpt>
      <trkpt lat="42.9952" lon="-0.20585">
        <ele>1406.1</ele>
        <time>2015-03-12T09:00:06Z</time>
      </trkpt>
      <trkpt lat="42.99527" lon="-0.2058">
        <ele>1404.4</ele>
        <time>2015-03-12T09:00:11Z</time>
      </trkpt>
      <trkpt lat="42.99534" lon="-0.20573">
        <ele>1401.9</ele>
        <time>2015-03-12T09:00:16Z</time>
      </trkpt>
      <trkpt lat="42.99536" lon="-0.20572">
        <ele>1401.4</ele>
        <time>2015-03-12T09:00:17Z</time>
      </trkpt>
      <trkpt lat="42.99546" lon="-0.20562">
        <ele>1399.2</ele>
        <time>2015-03-12T09:00:23Z</time>
      </trkpt>
      <trkpt lat="42.99551" lon="-0.20554">
        <ele>1398</ele>
        <time>2015-03-12T09:00:26Z</time>
      </trkpt>
      <trkpt lat="42.99555" lon="-0.20545">
        <ele>1396.3</ele>
        <time>2015-03-12T09:00:30Z</time>
      </trkpt>
      <trkpt lat="42.99558" lon="-0.20535">
        <ele>1395.3</ele>
        <time>2015-03-12T09:00:33Z</time>
      </trkpt>
      <trkpt lat="42.99563" lon="-0.20526">
        <ele>1394.1</ele>
        <time>2015-03-12T09:00:37Z</time>
      </trkpt>
      <trkpt lat="42.99567" lon="-0.20522">
        <ele>1393.9</ele>
        <time>2015-03-12T09:00:39Z</time>
      </trkpt>
      <trkpt lat="42.99571" lon="-0.20519">
        <ele>1393.8</ele>
        <time>2015-03-12T09:00:40Z</time>
      </trkpt>
      <trkpt lat="42.99575" lon="-0.20514">
        <ele>1393.7</ele>
        <time>2015-03-12T09:00:41Z</time>
      </trkpt>
      <trkpt lat="42.9958" lon="-0.2051">
        <ele>1393.5</ele>
        <time>2015-03-12T09:00:42Z</time>
      </trkpt>
      <trkpt lat="42.99585" lon="-0.20506">
        <ele>1393.2</ele>
        <time>2015-03-12T09:00:43Z</time>
      </trkpt>
      <trkpt lat="42.99589" lon="-0.20502">
        <ele>1392.7</ele>
        <time>2015-03-12T09:00:44Z</time>
      </trkpt>
      <trkpt lat="42.99594" lon="-0.20498">
        <ele>1392</ele>
        <time>2015-03-12T09:00:45Z</time>
      </trkpt>
      <trkpt lat="42.99598" lon="-0.20495">
        <ele>1391.2</ele>
        <time>2015-03-12T09:00:46Z</time>
      </trkpt>
      <trkpt lat="42.99606" lon="-0.20489">
        <ele>1389.1</ele>
        <time>2015-03-12T09:00:48Z</time>
      </trkpt>
      <trkpt lat="42.9961" lon="-0.20486">
        <ele>1387.9</ele>
        <time>2015-03-12T09:00:49Z</time>
      </trkpt>
      <trkpt lat="42.99617" lon="-0.2048">
        <ele>1385.4</ele>
        <time>2015-03-12T09:00:51Z</time>
      </trkpt>
      <trkpt lat="42.99623" lon="-0.20474">
        <ele>1383.1</ele>
        <time>2015-03-12T09:00:53Z</time>
      </trkpt>
      <trkpt lat="42.99629" lon="-0.20466">
        <ele>1380.3</ele>
        <time>2015-03-12T09:00:56Z</time>
      </trkpt>
      <trkpt lat="42.99633" lon="-0.20458">
        <ele>1378.9</ele>
        <time>2015-03-12T09:00:59Z</time>
      </trkpt>
      <trkpt lat="42.99639" lon="-0.2045">
        <ele>1378.7</ele>
        <time>2015-03-12T09:01:02Z</time>
      </trkpt>
      <trkpt lat="42.99645" lon="-0.20444">
        <ele>1379.2</ele>
        <time>2015-03-12T09:01:05Z</time>
      </trkpt>
      <trkpt lat="42.99652" lon="-0.20443">
        <ele>1380</ele>
        <time>2015-03-12T09:01:08Z</time>
      </trkpt>
      <trkpt lat="42.99661" lon="-0.20445">
        <ele>1381.9</ele>
        <time>2015-03-12T09:01:12Z</time>
      </trkpt>
      <trkpt lat="42.99669" lon="-0.20449">
        <ele>1385.3</ele>
        <time>2015-03-12T09:01:17Z</time>
      </trkpt>
      <trkpt lat="42.99676" lon="-0.20452">
        <ele>1387.4</ele>
        <time>2015-03-12T09:01:21Z</time>
      </trkpt>
      <trkpt lat="42.99678" lon="-0.20454">
        <ele>1387.9</ele>
        <time>2015-03-12T09:01:22Z</time>
      </trkpt>
      <trkpt lat="42.99688" lon="-0.20459">
        <ele>1388.8</ele>
        <time>2015-03-12T09:01:25Z</time>
      </trkpt>
      <trkpt lat="42.99692" lon="-0.2046">
        <ele>1388.8</ele>
        <time>2015-03-12T09:01:26Z</time>
      </trkpt>
      <trkpt lat="42.99697" lon="-0.20462">
        <ele>1388.7</ele>
        <time>2015-03-12T09:01:27Z</time>
      </trkpt>
      <trkpt lat="42.99702" lon="-0.20464">
        <ele>1388.4</ele>
        <time>2015-03-12T09:01:28Z</time>
      </trkpt>
      <trkpt lat="42.9971" lon="-0.20467">
        <ele>1387.6</ele>
        <time>2015-03-12T09:01:30Z</time>
      </trkpt>
      <trkpt lat="42.99718" lon="-0.20471">
        <ele>1385.9</ele>
        <time>2015-03-12T09:01:33Z</time>
      </trkpt>
      <trkpt lat="42.99725" lon="-0.20476">
        <ele>1384.4</ele>
        <time>2015-03-12T09:01:37Z</time>
      </trkpt>
      <trkpt lat="42.99731" lon="-0.2048">
        <ele>1384.3</ele>
        <time>2015-03-12T09:01:40Z</time>
      </trkpt>
      <trkpt lat="42.99739" lon="-0.20483">
        <ele>1385.9</ele>
        <time>2015-03-12T09:01:44Z</time>
      </trkpt>
      <trkpt lat="42.99746" lon="-0.20486">
        <ele>1388.1</ele>
        <time>2015-03-12T09:01:48Z</time>
      </trkpt>
      <trkpt lat="42.99753" lon="-0.20489">
        <ele>1389.4</ele>
        <time>2015-03-12T09:01:52Z</time>
      </trkpt>
      <trkpt lat="42.9976" lon="-0.2049">
        <ele>1390.3</ele>
        <time>2015-03-12T09:01:55Z</time>
      </trkpt>
      <trkpt lat="42.99768" lon="-0.20492">
        <ele>1391.2</ele>
        <time>2015-03-12T09:01:59Z</time>
      </trkpt>
      <trkpt lat="42.99776" lon="-0.20495">
        <ele>1390.8</ele>
        <time>2015-03-12T09:02:03Z</time>
      </trkpt>
      <trkpt lat="42.99784" lon="-0.20497">
        <ele>1390.1</ele>
        <time>2015-03-12T09:02:07Z</time>
      </trkpt>
      <trkpt lat="42.99792" lon="-0.205">
        <ele>1392.8</ele>
        <time>2015-03-12T09:02:12Z</time>
      </trkpt>
      <trkpt lat="42.99799" lon="-0.20504">
        <ele>1392.8</ele>
        <time>2015-03-12T09:02:16Z</time>
      </trkpt>
      <trkpt lat="42.99807" lon="-0.20507">
        <ele>1392.9</ele>
        <time>2015-03-12T09:02:20Z</time>
      </trkpt>
      <trkpt lat="42.99815" lon="-0.20509">
        <ele>1393.3</ele>
        <time>2015-03-12T09:02:24Z</time>
      </trkpt>
      <trkpt lat="42.99816" lon="-0.20509">
        <ele>1393.4</ele>
        <time>2015-03-12T09:02:25Z</time>
      </trkpt>
      <trkpt lat="42.99831" lon="-0.20512">
        <ele>1393.1</ele>
        <time>2015-03-12T09:02:33Z</time>
      </trkpt>
      <trkpt lat="42.99839" lon="-0.20512">
        <ele>1393.2</ele>
        <time>2015-03-12T09:02:37Z</time>
      </trkpt>
      <trkpt lat="42.99847" lon="-0.20512">
        <ele>1393.6</ele>
        <time>2015-03-12T09:02:41Z</time>
      </trkpt>
      <trkpt lat="42.99855" lon="-0.20511">
        <ele>1393.2</ele>
        <time>2015-03-12T09:02:45Z</time>
      </trkpt>
      <trkpt lat="42.99863" lon="-0.20509">
        <ele>1394</ele>
        <time>2015-03-12T09:02:50Z</time>
      </trkpt>
      <trkpt lat="42.99871" lon="-0.20503">
        <ele>1395.9</ele>
        <time>2015-03-12T09:02:56Z</time>
      </trkpt>
      <trkpt lat="42.99879" lon="-0.20498">
        <ele>1396</ele>
        <time>2015-03-12T09:03:02Z</time>
      </trkpt>
      <trkpt lat="42.99888" lon="-0.205">
        <ele>1395</ele>
        <time>2015-03-12T09:03:06Z</time>
      </trkpt>
      <trkpt lat="42.99894" lon="-0.20506">
        <ele>1395.2</ele>
        <time>2015-03-12T09:03:10Z</time>
      </trkpt>
      <trkpt lat="42.99896" lon="-0.20518">
        <ele>1396</ele>
        <time>2015-03-12T09:03:18Z</time>
      </trkpt>
      <trkpt lat="42.99894" lon="-0.20529">
        <ele>1396.2</ele>
        <time>2015-03-12T09:03:25Z</time>
      </trkpt>
      <trkpt lat="42.99892" lon="-0.20541">
        <ele>1396.8</ele>
        <time>2015-03-12T09:03:31Z</time>
      </trkpt>
      <trkpt lat="42.99891" lon="-0.20543">
        <ele>1396.8</ele>
        <time>2015-03-12T09:03:32Z</time>
      </trkpt>
      <trkpt lat="42.99889" lon="-0.20562">
        <ele>1397.9</ele>
        <time>2015-03-12T09:03:41Z</time>
      </trkpt>
      <trkpt lat="42.99887" lon="-0.20573">
        <ele>1398.4</ele>
        <time>2015-03-12T09:03:45Z</time>
      </trkpt>
      <trkpt lat="42.99884" lon="-0.20582">
        <ele>1398.7</ele>
        <time>2015-03-12T09:03:48Z</time>
      </trkpt>
      <trkpt lat="42.99882" lon="-0.20591">
        <ele>1398.2</ele>
        <time>2015-03-12T09:03:51Z</time>
      </trkpt>
      <trkpt lat="42.99879" lon="-0.20602">
        <ele>1398.2</ele>
        <time>2015-03-12T09:03:54Z</time>
      </trkpt>
      <trkpt lat="42.99878" lon="-0.20611">
        <ele>1397.7</ele>
        <time>2015-03-12T09:03:56Z</time>
      </trkpt>
      <trkpt lat="42.99876" lon="-0.20621">
        <ele>1397.5</ele>
        <time>2015-03-12T09:03:58Z</time>
      </trkpt>
      <trkpt lat="42.99874" lon="-0.20631">
        <ele>1397.4</ele>
        <time>2015-03-12T09:04:00Z</time>
      </trkpt>
      <trkpt lat="42.99873" lon="-0.20637">
        <ele>1396.9</ele>
        <time>2015-03-12T09:04:01Z</time>
      </trkpt>
      <trkpt lat="42.99872" lon="-0.20644">
        <ele>1396.5</ele>
        <time>2015-03-12T09:04:02Z</time>
      </trkpt>
      <trkpt lat="42.99871" lon="-0.20651">
        <ele>1396.1</ele>
        <time>2015-03-12T09:04:03Z</time>
      </trkpt>
      <trkpt lat="42.9987" lon="-0.20658">
        <ele>1395.9</ele>
        <time>2015-03-12T09:04:04Z</time>
      </trkpt>
      <trkpt lat="42.99869" lon="-0.20665">
        <ele>1395.5</ele>
        <time>2015-03-12T09:04:05Z</time>
      </trkpt>
      <trkpt lat="42.99868" lon="-0.20672">
        <ele>1395.2</ele>
        <time>2015-03-12T09:04:06Z</time>
      </trkpt>
      <trkpt lat="42.99868" lon="-0.20679">
        <ele>1395</ele>
        <time>2015-03-12T09:04:07Z</time>
      </trkpt>
      <trkpt lat="42.99868" lon="-0.20686">
        <ele>1394.4</ele>
        <time>2015-03-12T09:04:08Z</time>
      </trkpt>
      <trkpt lat="42.99868" lon="-0.20693">
        <ele>1394</ele>
        <time>2015-03-12T09:04:09Z</time>
      </trkpt>
      <trkpt lat="42.99869" lon="-0.207">
        <ele>1393.6</ele>
        <time>2015-03-12T09:04:10Z</time>
      </trkpt>
      <trkpt lat="42.9987" lon="-0.20707">
        <ele>1393.2</ele>
        <time>2015-03-12T09:04:11Z</time>
      </trkpt>
      <trkpt lat="42.9987" lon="-0.20714">
        <ele>1392.9</ele>
        <time>2015-03-12T09:04:12Z</time>
      </trkpt>
      <trkpt lat="42.99871" lon="-0.2072">
        <ele>1392.7</ele>
        <time>2015-03-12T09:04:13Z</time>
      </trkpt>
      <trkpt lat="42.99873" lon="-0.20732">
        <ele>1391.9</ele>
        <time>2015-03-12T09:04:15Z</time>
      </trkpt>
      <trkpt lat="42.99874" lon="-0.20744">
        <ele>1391.3</ele>
        <time>2015-03-12T09:04:17Z</time>
      </trkpt>
      <trkpt lat="42.99874" lon="-0.20755">
        <ele>1391</ele>
        <time>2015-03-12T09:04:20Z</time>
      </trkpt>
      <trkpt lat="42.99874" lon="-0.20765">
        <ele>1391</ele>
        <time>2015-03-12T09:04:23Z</time>
      </trkpt>
      <trkpt lat="42.99873" lon="-0.20777">
        <ele>1391.3</ele>
        <time>2015-03-12T09:04:28Z</time>
      </trkpt>
      <trkpt lat="42.99874" lon="-0.20788">
        <ele>1392.3</ele>
        <time>2015-03-12T09:04:33Z</time>
      </trkpt>
      <trkpt lat="42.99875" lon="-0.208">
        <ele>1393</ele>
        <time>2015-03-12T09:04:38Z</time>
      </trkpt>
      <trkpt lat="42.99875" lon="-0.20803">
        <ele>1393</ele>
        <time>2015-03-12T09:04:39Z</time>
      </trkpt>
      <trkpt lat="42.99876" lon="-0.20822">
        <ele>1393</ele>
        <time>2015-03-12T09:04:47Z</time>
      </trkpt>
      <trkpt lat="42.99877" lon="-0.20833">
        <ele>1393.3</ele>
        <time>2015-03-12T09:04:52Z</time>
      </trkpt>
      <trkpt lat="42.99878" lon="-0.20844">
        <ele>1393.3</ele>
        <time>2015-03-12T09:04:57Z</time>
      </trkpt>
      <trkpt lat="42.99878" lon="-0.20856">
        <ele>1394.2</ele>
        <time>2015-03-12T09:05:02Z</time>
      </trkpt>
      <trkpt lat="42.99879" lon="-0.20868">
        <ele>1395.2</ele>
        <time>2015-03-12T09:05:08Z</time>
      </trkpt>
      <trkpt lat="42.9988" lon="-0.20879">
        <ele>1395.6</ele>
        <time>2015-03-12T09:05:14Z</time>
      </trkpt>
      <trkpt lat="42.99882" lon="-0.20891">
        <ele>1397.4</ele>
        <time>2015-03-12T09:05:20Z</time>
      </trkpt>
      <trkpt lat="42.99884" lon="-0.20902">
        <ele>1397.4</ele>
        <time>2015-03-12T09:05:26Z</time>
      </trkpt>
      <trkpt lat="42.99887" lon="-0.20912">
        <ele>1399.3</ele>
        <time>2015-03-12T09:05:31Z</time>
      </trkpt>
      <trkpt lat="42.99892" lon="-0.20921">
        <ele>1400.8</ele>
        <time>2015-03-12T09:05:37Z</time>
      </trkpt>
      <trkpt lat="42.99896" lon="-0.20931">
        <ele>1400.3</ele>
        <time>2015-03-12T09:05:43Z</time>
      </trkpt>
      <trkpt lat="42.99896" lon="-0.20933">
        <ele>1400.5</ele>
        <time>2015-03-12T09:05:44Z</time>
      </trkpt>
      <trkpt lat="42.99895" lon="-0.20952">
        <ele>1402.9</ele>
        <time>2015-03-12T09:05:54Z</time>
      </trkpt>
      <trkpt lat="42.99892" lon="-0.20961">
        <ele>1403.6</ele>
        <time>2015-03-12T09:05:59Z</time>
      </trkpt>
      <trkpt lat="42.99886" lon="-0.2097">
        <ele>1403.6</ele>
        <time>2015-03-12T09:06:03Z</time>
      </trkpt>
      <trkpt lat="42.99881" lon="-0.20979">
        <ele>1403.4</ele>
        <time>2015-03-12T09:06:07Z</time>
      </trkpt>
      <trkpt lat="42.99875" lon="-0.20987">
        <ele>1403.6</ele>
        <time>2015-03-12T09:06:11Z</time>
      </trkpt>
      <trkpt lat="42.9987" lon="-0.20994">
        <ele>1402.5</ele>
        <time>2015-03-12T09:06:14Z</time>
      </trkpt>
      <trkpt lat="42.99865" lon="-0.21003">
        <ele>1403.2</ele>
        <time>2015-03-12T09:06:17Z</time>
      </trkpt>
      <trkpt lat="42.99859" lon="-0.21011">
        <ele>1402.9</ele>
        <time>2015-03-12T09:06:20Z</time>
      </trkpt>
      <trkpt lat="42.99854" lon="-0.21017">
        <ele>1402.4</ele>
        <time>2015-03-12T09:06:22Z</time>
      </trkpt>
      <trkpt lat="42.99849" lon="-0.21022">
        <ele>1402</ele>
        <time>2015-03-12T09:06:24Z</time>
      </trkpt>
      <trkpt lat="42.99843" lon="-0.21028">
        <ele>1402.2</ele>
        <time>2015-03-12T09:06:27Z</time>
      </trkpt>
      <trkpt lat="42.99836" lon="-0.21034">
        <ele>1402.1</ele>
        <time>2015-03-12T09:06:31Z</time>
      </trkpt>
      <trkpt lat="42.99831" lon="-0.21038">
        <ele>1401.8</ele>
        <time>2015-03-12T09:06:33Z</time>
      </trkpt>
      <trkpt lat="42.99824" lon="-0.21042">
        <ele>1401.8</ele>
        <time>2015-03-12T09:06:35Z</time>
      </trkpt>
      <trkpt lat="42.99818" lon="-0.21046">
        <ele>1401.8</ele>
        <time>2015-03-12T09:06:37Z</time>
      </trkpt>
      <trkpt lat="42.99811" lon="-0.21049">
        <ele>1402.8</ele>
        <time>2015-03-12T09:06:40Z</time>
      </trkpt>
      <trkpt lat="42.99803" lon="-0.21053">
        <ele>1403.1</ele>
        <time>2015-03-12T09:06:45Z</time>
      </trkpt>
      <trkpt lat="42.99795" lon="-0.21056">
        <ele>1403.6</ele>
        <time>2015-03-12T09:06:51Z</time>
      </trkpt>
      <trkpt lat="42.99793" lon="-0.21056">
        <ele>1403.7</ele>
        <time>2015-03-12T09:06:52Z</time>
      </trkpt>
      <trkpt lat="42.99779" lon="-0.21059">
        <ele>1404.6</ele>
        <time>2015-03-12T09:07:01Z</time>
      </trkpt>
      <trkpt lat="42.99771" lon="-0.21062">
        <ele>1405</ele>
        <time>2015-03-12T09:07:07Z</time>
      </trkpt>
      <trkpt lat="42.99762" lon="-0.21065">
        <ele>1405.2</ele>
        <time>2015-03-12T09:07:13Z</time>
      </trkpt>
      <trkpt lat="42.99755" lon="-0.21068">
        <ele>1405.5</ele>
        <time>2015-03-12T09:07:18Z</time>
      </trkpt>
      <trkpt lat="42.99747" lon="-0.21071">
        <ele>1406.8</ele>
        <time>2015-03-12T09:07:23Z</time>
      </trkpt>
      <trkpt lat="42.9974" lon="-0.21076">
        <ele>1406.6</ele>
        <time>2015-03-12T09:07:28Z</time>
      </trkpt>
      <trkpt lat="42.99732" lon="-0.21081">
        <ele>1408.1</ele>
        <time>2015-03-12T09:07:33Z</time>
      </trkpt>
      <trkpt lat="42.99726" lon="-0.21087">
        <ele>1408.1</ele>
        <time>2015-03-12T09:07:38Z</time>
      </trkpt>
      <trkpt lat="42.99719" lon="-0.21093">
        <ele>1409.7</ele>
        <time>2015-03-12T09:07:44Z</time>
      </trkpt>
      <trkpt lat="42.99713" lon="-0.21098">
        <ele>1410.8</ele>
        <time>2015-03-12T09:07:48Z</time>
      </trkpt>
      <trkpt lat="42.99707" lon="-0.21104">
        <ele>1410.8</ele>
        <time>2015-03-12T09:07:52Z</time>
      </trkpt>
      <trkpt lat="42.99701" lon="-0.21111">
        <ele>1410</ele>
        <time>2015-03-12T09:07:56Z</time>
      </trkpt>
      <trkpt lat="42.99699" lon="-0.21113">
        <ele>1409.9</ele>
        <time>2015-03-12T09:07:57Z</time>
      </trkpt>
      <trkpt lat="42.9969" lon="-0.21127">
        <ele>1409.7</ele>
        <time>2015-03-12T09:08:03Z</time>
      </trkpt>
      <trkpt lat="42.99686" lon="-0.21134">
        <ele>1409.3</ele>
        <time>2015-03-12T09:08:06Z</time>
      </trkpt>
      <trkpt lat="42.9968" lon="-0.21143">
        <ele>1410.1</ele>
        <time>2015-03-12T09:08:09Z</time>
      </trkpt>
      <trkpt lat="42.99675" lon="-0.21153">
        <ele>1411.1</ele>
        <time>2015-03-12T09:08:13Z</time>
      </trkpt>
      <trkpt lat="42.99669" lon="-0.21161">
        <ele>1409.6</ele>
        <time>2015-03-12T09:08:18Z</time>
      </trkpt>
      <trkpt lat="42.99662" lon="-0.21168">
        <ele>1410.5</ele>
        <time>2015-03-12T09:08:24Z</time>
      </trkpt>
      <trkpt lat="42.99654" lon="-0.21172">
        <ele>1410.5</ele>
        <time>2015-03-12T09:08:29Z</time>
      </trkpt>
      <trkpt lat="42.99646" lon="-0.21176">
        <ele>1410.7</ele>
        <time>2015-03-12T09:08:34Z</time>
      </trkpt>
      <trkpt lat="42.99638" lon="-0.21179">
        <ele>1411.3</ele>
        <time>2015-03-12T09:08:39Z</time>
      </trkpt>
      <trkpt lat="42.9963" lon="-0.2118">
        <ele>1412.1</ele>
        <time>2015-03-12T09:08:44Z</time>
      </trkpt>
      <trkpt lat="42.99622" lon="-0.21181">
        <ele>1412.8</ele>
        <time>2015-03-12T09:08:50Z</time>
      </trkpt>
      <trkpt lat="42.99613" lon="-0.2118">
        <ele>1413.3</ele>
        <time>2015-03-12T09:08:56Z</time>
      </trkpt>
      <trkpt lat="42.99605" lon="-0.21179">
        <ele>1413.7</ele>
        <time>2015-03-12T09:09:03Z</time>
      </trkpt>
      <trkpt lat="42.99603" lon="-0.21178">
        <ele>1413.9</ele>
        <time>2015-03-12T09:09:04Z</time>
      </trkpt>
      <trkpt lat="42.99587" lon="-0.21174">
        <ele>1415.6</ele>
        <time>2015-03-12T09:09:16Z</time>
      </trkpt>
      <trkpt lat="42.99579" lon="-0.21171">
        <ele>1416.4</ele>
        <time>2015-03-12T09:09:21Z</time>
      </trkpt>
      <trkpt lat="42.99571" lon="-0.21171">
        <ele>1416.8</ele>
        <time>2015-03-12T09:09:26Z</time>
      </trkpt>
      <trkpt lat="42.99563" lon="-0.21169">
        <ele>1416.8</ele>
        <time>2015-03-12T09:09:31Z</time>
      </trkpt>
      <trkpt lat="42.99555" lon="-0.21168">
        <ele>1417</ele>
        <time>2015-03-12T09:09:35Z</time>
      </trkpt>
      <trkpt lat="42.99547" lon="-0.21167">
        <ele>1418</ele>
        <time>2015-03-12T09:09:40Z</time>
      </trkpt>
      <trkpt lat="42.99539" lon="-0.21165">
        <ele>1419</ele>
        <time>2015-03-12T09:09:45Z</time>
      </trkpt>
      <trkpt lat="42.99532" lon="-0.21165">
        <ele>1418.9</ele>
        <time>2015-03-12T09:09:49Z</time>
      </trkpt>
      <trkpt lat="42.99524" lon="-0.21166">
        <ele>1418.7</ele>
        <time>2015-03-12T09:09:54Z</time>
      </trkpt>
      <trkpt lat="42.99515" lon="-0.21165">
        <ele>1418.5</ele>
        <time>2015-03-12T09:10:00Z</time>
      </trkpt>
      <trkpt lat="42.99507" lon="-0.21164">
        <ele>1420.9</ele>
        <time>2015-03-12T09:10:06Z</time>
      </trkpt>
      <trkpt lat="42.99506" lon="-0.21163">
        <ele>1420.9</ele>
        <time>2015-03-12T09:10:07Z</time>
      </trkpt>
      <trkpt lat="42.99493" lon="-0.2115">
        <ele>1423</ele>
        <time>2015-03-12T09:10:20Z</time>
      </trkpt>
      <trkpt lat="42.99486" lon="-0.21144">
        <ele>1424.8</ele>
        <time>2015-03-12T09:10:27Z</time>
      </trkpt>
      <trkpt lat="42.99478" lon="-0.21138">
        <ele>1424.9</ele>
        <time>2015-03-12T09:10:32Z</time>
      </trkpt>
      <trkpt lat="42.99471" lon="-0.21136">
        <ele>1425.9</ele>
        <time>2015-03-12T09:10:37Z</time>
      </trkpt>
      <trkpt lat="42.99462" lon="-0.21135">
        <ele>1426.4</ele>
        <time>2015-03-12T09:10:43Z</time>
      </trkpt>
      <trkpt lat="42.99454" lon="-0.21134">
        <ele>1426.9</ele>
        <time>2015-03-12T09:10:48Z</time>
      </trkpt>
      <trkpt lat="42.99447" lon="-0.2113">
        <ele>1427.8</ele>
        <time>2015-03-12T09:10:53Z</time>
      </trkpt>
      <trkpt lat="42.99438" lon="-0.21127">
        <ele>1428</ele>
        <time>2015-03-12T09:10:59Z</time>
      </trkpt>
      <trkpt lat="42.9943" lon="-0.21124">
        <ele>1428.7</ele>
        <time>2015-03-12T09:11:04Z</time>
      </trkpt>
      <trkpt lat="42.99422" lon="-0.21123">
        <ele>1429.3</ele>
        <time>2015-03-12T09:11:10Z</time>
      </trkpt>
      <trkpt lat="42.99421" lon="-0.21123">
        <ele>1429.4</ele>
        <time>2015-03-12T09:11:11Z</time>
      </trkpt>
      <trkpt lat="42.99405" lon="-0.2112">
        <ele>1430.1</ele>
        <time>2015-03-12T09:11:23Z</time>
      </trkpt>
      <trkpt lat="42.99397" lon="-0.21119">
        <ele>1431.1</ele>
        <time>2015-03-12T09:11:29Z</time>
      </trkpt>
      <trkpt lat="42.99389" lon="-0.21116">
        <ele>1431.1</ele>
        <time>2015-03-12T09:11:35Z</time>
      </trkpt>
      <trkpt lat="42.99381" lon="-0.21113">
        <ele>1431.7</ele>
        <time>2015-03-12T09:11:41Z</time>
      </trkpt>
      <trkpt lat="42.99374" lon="-0.2111">
        <ele>1432.2</ele>
        <time>2015-03-12T09:11:47Z</time>
      </trkpt>
      <trkpt lat="42.99366" lon="-0.21106">
        <ele>1432.4</ele>
        <time>2015-03-12T09:11:53Z</time>
      </trkpt>
      <trkpt lat="42.99359" lon="-0.21103">
        <ele>1434</ele>
        <time>2015-03-12T09:11:59Z</time>
      </trkpt>
      <trkpt lat="42.99351" lon="-0.21099">
        <ele>1434.3</ele>
        <time>2015-03-12T09:12:05Z</time>
      </trkpt>
      <trkpt lat="42.99343" lon="-0.21096">
        <ele>1435.8</ele>
        <time>2015-03-12T09:12:11Z</time>
      </trkpt>
      <trkpt lat="42.99335" lon="-0.21094">
        <ele>1436.4</ele>
        <time>2015-03-12T09:12:18Z</time>
      </trkpt>
      <trkpt lat="42.99334" lon="-0.21093">
        <ele>1436.9</ele>
        <time>2015-03-12T09:12:19Z</time>
      </trkpt>
      <trkpt lat="42.99321" lon="-0.21085">
        <ele>1438.3</ele>
        <time>2015-03-12T09:12:31Z</time>
      </trkpt>
      <trkpt lat="42.99313" lon="-0.21081">
        <ele>1440.1</ele>
        <time>2015-03-12T09:12:37Z</time>
      </trkpt>
      <trkpt lat="42.99305" lon="-0.21077">
        <ele>1440.9</ele>
        <time>2015-03-12T09:12:44Z</time>
      </trkpt>
      <trkpt lat="42.99297" lon="-0.21074">
        <ele>1441.8</ele>
        <time>2015-03-12T09:12:50Z</time>
      </trkpt>
      <trkpt lat="42.99288" lon="-0.21072">
        <ele>1441.4</ele>
        <time>2015-03-12T09:12:56Z</time>
      </trkpt>
      <trkpt lat="42.99281" lon="-0.21068">
        <ele>1442.8</ele>
        <time>2015-03-12T09:13:02Z</time>
      </trkpt>
      <trkpt lat="42.99273" lon="-0.21062">
        <ele>1444.8</ele>
        <time>2015-03-12T09:13:09Z</time>
      </trkpt>
      <trkpt lat="42.99266" lon="-0.21057">
        <ele>1445.4</ele>
        <time>2015-03-12T09:13:16Z</time>
      </trkpt>
      <trkpt lat="42.99258" lon="-0.21054">
        <ele>1446.8</ele>
        <time>2015-03-12T09:13:23Z</time>
      </trkpt>
      <trkpt lat="42.99256" lon="-0.21054">
        <ele>1446.9</ele>
        <time>2015-03-12T09:13:24Z</time>
      </trkpt>
      <trkpt lat="42.99242" lon="-0.21051">
        <ele>1447.9</ele>
        <time>2015-03-12T09:13:34Z</time>
      </trkpt>
      <trkpt lat="42.99234" lon="-0.2105">
        <ele>1449.1</ele>
        <time>2015-03-12T09:13:40Z</time>
      </trkpt>
      <trkpt lat="42.99226" lon="-0.21049">
        <ele>1449.9</ele>
        <time>2015-03-12T09:13:46Z</time>
      </trkpt>
      <trkpt lat="42.99218" lon="-0.21049">
        <ele>1450.2</ele>
        <time>2015-03-12T09:13:51Z</time>
      </trkpt>
      <trkpt lat="42.9921" lon="-0.2105">
        <ele>1451.3</ele>
        <time>2015-03-12T09:13:56Z</time>
      </trkpt>
      <trkpt lat="42.99202" lon="-0.21051">
        <ele>1450.8</ele>
        <time>2015-03-12T09:14:01Z</time>
      </trkpt>
      <trkpt lat="42.99193" lon="-0.21053">
        <ele>1450.8</ele>
        <time>2015-03-12T09:14:06Z</time>
      </trkpt>
      <trkpt lat="42.99186" lon="-0.21057">
        <ele>1452</ele>
        <time>2015-03-12T09:14:11Z</time>
      </trkpt>
      <trkpt lat="42.99178" lon="-0.21063">
        <ele>1452.5</ele>
        <time>2015-03-12T09:14:17Z</time>
      </trkpt>
      <trkpt lat="42.9917" lon="-0.21066">
        <ele>1452.9</ele>
        <time>2015-03-12T09:14:24Z</time>
      </trkpt>
      <trkpt lat="42.99162" lon="-0.21071">
        <ele>1453.1</ele>
        <time>2015-03-12T09:14:29Z</time>
      </trkpt>
      <trkpt lat="42.99161" lon="-0.21071">
        <ele>1452.9</ele>
        <time>2015-03-12T09:14:30Z</time>
      </trkpt>
      <trkpt lat="42.99147" lon="-0.21077">
        <ele>1453.1</ele>
        <time>2015-03-12T09:14:38Z</time>
      </trkpt>
      <trkpt lat="42.99139" lon="-0.21082">
        <ele>1454.4</ele>
        <time>2015-03-12T09:14:43Z</time>
      </trkpt>
      <trkpt lat="42.99132" lon="-0.21087">
        <ele>1455</ele>
        <time>2015-03-12T09:14:48Z</time>
      </trkpt>
      <trkpt lat="42.99125" lon="-0.21092">
        <ele>1455.6</ele>
        <time>2015-03-12T09:14:53Z</time>
      </trkpt>
      <trkpt lat="42.99118" lon="-0.21099">
        <ele>1456.6</ele>
        <time>2015-03-12T09:14:59Z</time>
      </trkpt>
      <trkpt lat="42.99113" lon="-0.21108">
        <ele>1456.6</ele>
        <time>2015-03-12T09:15:05Z</time>
      </trkpt>
      <trkpt lat="42.99108" lon="-0.21118">
        <ele>1456.7</ele>
        <time>2015-03-12T09:15:15Z</time>
      </trkpt>
      <trkpt lat="42.99101" lon="-0.21124">
        <ele>1458.5</ele>
        <time>2015-03-12T09:17:32Z</time>
      </trkpt>
      <trkpt lat="42.991" lon="-0.21125">
        <ele>1458.5</ele>
        <time>2015-03-12T09:17:33Z</time>
      </trkpt>
      <trkpt lat="42.99089" lon="-0.21142">
        <ele>1458.9</ele>
        <time>2015-03-12T09:17:44Z</time>
      </trkpt>
      <trkpt lat="42.99085" lon="-0.21152">
        <ele>1460</ele>
        <time>2015-03-12T09:17:51Z</time>
      </trkpt>
      <trkpt lat="42.99081" lon="-0.21162">
        <ele>1460.4</ele>
        <time>2015-03-12T09:17:57Z</time>
      </trkpt>
      <trkpt lat="42.99079" lon="-0.21173">
        <ele>1460.1</ele>
        <time>2015-03-12T09:18:03Z</time>
      </trkpt>
      <trkpt lat="42.99077" lon="-0.21183">
        <ele>1461.3</ele>
        <time>2015-03-12T09:18:07Z</time>
      </trkpt>
      <trkpt lat="42.99075" lon="-0.21195">
        <ele>1461.6</ele>
        <time>2015-03-12T09:18:14Z</time>
      </trkpt>
      <trkpt lat="42.99073" lon="-0.21206">
        <ele>1462</ele>
        <time>2015-03-12T09:18:20Z</time>
      </trkpt>
      <trkpt lat="42.99069" lon="-0.21214">
        <ele>1462.5</ele>
        <time>2015-03-12T09:18:24Z</time>
      </trkpt>
      <trkpt lat="42.99063" lon="-0.21224">
        <ele>1463.4</ele>
        <time>2015-03-12T09:18:29Z</time>
      </trkpt>
      <trkpt lat="42.99058" lon="-0.21231">
        <ele>1463.4</ele>
        <time>2015-03-12T09:18:33Z</time>
      </trkpt>
      <trkpt lat="42.99052" lon="-0.21241">
        <ele>1464.3</ele>
        <time>2015-03-12T09:18:38Z</time>
      </trkpt>
      <trkpt lat="42.99051" lon="-0.21243">
        <ele>1464.1</ele>
        <time>2015-03-12T09:18:39Z</time>
      </trkpt>
      <trkpt lat="42.9904" lon="-0.21257">
        <ele>1465</ele>
        <time>2015-03-12T09:18:47Z</time>
      </trkpt>
      <trkpt lat="42.99033" lon="-0.21265">
        <ele>1465.4</ele>
        <time>2015-03-12T09:18:52Z</time>
      </trkpt>
      <trkpt lat="42.99028" lon="-0.21272">
        <ele>1466.2</ele>
        <time>2015-03-12T09:18:56Z</time>
      </trkpt>
      <trkpt lat="42.99022" lon="-0.21281">
        <ele>1467.1</ele>
        <time>2015-03-12T09:19:01Z</time>
      </trkpt>
      <trkpt lat="42.99018" lon="-0.21291">
        <ele>1467.1</ele>
        <time>2015-03-12T09:19:06Z</time>
      </trkpt>
      <trkpt lat="42.99014" lon="-0.21299">
        <ele>1467.1</ele>
        <time>2015-03-12T09:19:10Z</time>
      </trkpt>
      <trkpt lat="42.99011" lon="-0.2131">
        <ele>1467.2</ele>
        <time>2015-03-12T09:19:15Z</time>
      </trkpt>
      <trkpt lat="42.99007" lon="-0.21322">
        <ele>1467.8</ele>
        <time>2015-03-12T09:19:21Z</time>
      </trkpt>
      <trkpt lat="42.99004" lon="-0.21332">
        <ele>1468.8</ele>
        <time>2015-03-12T09:19:27Z</time>
      </trkpt>
      <trkpt lat="42.98999" lon="-0.21341">
        <ele>1469.6</ele>
        <time>2015-03-12T09:19:33Z</time>
      </trkpt>
      <trkpt lat="42.98993" lon="-0.21349">
        <ele>1471.4</ele>
        <time>2015-03-12T09:19:40Z</time>
      </trkpt>
      <trkpt lat="42.98987" lon="-0.21357">
        <ele>1472.7</ele>
        <time>2015-03-12T09:19:46Z</time>
      </trkpt>
      <trkpt lat="42.98987" lon="-0.21359">
        <ele>1472.8</ele>
        <time>2015-03-12T09:19:47Z</time>
      </trkpt>
      <trkpt lat="42.98972" lon="-0.21369">
        <ele>1474.9</ele>
        <time>2015-03-12T09:20:00Z</time>
      </trkpt>
      <trkpt lat="42.98964" lon="-0.21373">
        <ele>1475.9</ele>
        <time>2015-03-12T09:20:07Z</time>
      </trkpt>
      <trkpt lat="42.98957" lon="-0.21376">
        <ele>1476.7</ele>
        <time>2015-03-12T09:20:12Z</time>
      </trkpt>
      <trkpt lat="42.98949" lon="-0.21379">
        <ele>1476.1</ele>
        <time>2015-03-12T09:20:17Z</time>
      </trkpt>
      <trkpt lat="42.98942" lon="-0.21384">
        <ele>1476.8</ele>
        <time>2015-03-12T09:20:22Z</time>
      </trkpt>
      <trkpt lat="42.98937" lon="-0.21391">
        <ele>1477</ele>
        <time>2015-03-12T09:20:28Z</time>
      </trkpt>
      <trkpt lat="42.98932" lon="-0.21402">
        <ele>1478.3</ele>
        <time>2015-03-12T09:20:35Z</time>
      </trkpt>
      <trkpt lat="42.98929" lon="-0.21413">
        <ele>1478.9</ele>
        <time>2015-03-12T09:20:41Z</time>
      </trkpt>
      <trkpt lat="42.98926" lon="-0.21423">
        <ele>1480</ele>
        <time>2015-03-12T09:20:47Z</time>
      </trkpt>
      <trkpt lat="42.98923" lon="-0.21432">
        <ele>1480.5</ele>
        <time>2015-03-12T09:20:52Z</time>
      </trkpt>
      <trkpt lat="42.98922" lon="-0.21434">
        <ele>1480.5</ele>
        <time>2015-03-12T09:20:53Z</time>
      </trkpt>
      <trkpt lat="42.98915" lon="-0.21452">
        <ele>1481</ele>
        <time>2015-03-12T09:21:02Z</time>
      </trkpt>
      <trkpt lat="42.9891" lon="-0.21462">
        <ele>1481.1</ele>
        <time>2015-03-12T09:21:07Z</time>
      </trkpt>
      <trkpt lat="42.98906" lon="-0.21472">
        <ele>1482.2</ele>
        <time>2015-03-12T09:21:12Z</time>
      </trkpt>
      <trkpt lat="42.98902" lon="-0.21482">
        <ele>1483.4</ele>
        <time>2015-03-12T09:21:17Z</time>
      </trkpt>
      <trkpt lat="42.98898" lon="-0.21491">
        <ele>1483.4</ele>
        <time>2015-03-12T09:21:23Z</time>
      </trkpt>
      <trkpt lat="42.98894" lon="-0.21502">
        <ele>1483.7</ele>
        <time>2015-03-12T09:21:29Z</time>
      </trkpt>
      <trkpt lat="42.9889" lon="-0.21512">
        <ele>1484</ele>
        <time>2015-03-12T09:21:34Z</time>
      </trkpt>
      <trkpt lat="42.98887" lon="-0.21522">
        <ele>1484.5</ele>
        <time>2015-03-12T09:21:39Z</time>
      </trkpt>
      <trkpt lat="42.98883" lon="-0.21531">
        <ele>1485</ele>
        <time>2015-03-12T09:21:43Z</time>
      </trkpt>
      <trkpt lat="42.98878" lon="-0.21541">
        <ele>1485.5</ele>
        <time>2015-03-12T09:21:49Z</time>
      </trkpt>
      <trkpt lat="42.98872" lon="-0.21549">
        <ele>1487</ele>
        <time>2015-03-12T09:21:55Z</time>
      </trkpt>
      <trkpt lat="42.98871" lon="-0.2155">
        <ele>1487.1</ele>
        <time>2015-03-12T09:21:56Z</time>
      </trkpt>
      <trkpt lat="42.98859" lon="-0.21561">
        <ele>1487.8</ele>
        <time>2015-03-12T09:22:05Z</time>
      </trkpt>
      <trkpt lat="42.98852" lon="-0.21566">
        <ele>1488.9</ele>
        <time>2015-03-12T09:22:10Z</time>
      </trkpt>
      <trkpt lat="42.98846" lon="-0.21571">
        <ele>1489.9</ele>
        <time>2015-03-12T09:22:15Z</time>
      </trkpt>
      <trkpt lat="42.9884" lon="-0.21579">
        <ele>1489.9</ele>
        <time>2015-03-12T09:22:20Z</time>
      </trkpt>
      <trkpt lat="42.98833" lon="-0.21586">
        <ele>1489.9</ele>
        <time>2015-03-12T09:22:25Z</time>
      </trkpt>
      <trkpt lat="42.98827" lon="-0.21593">
        <ele>1491.5</ele>
        <time>2015-03-12T09:22:30Z</time>
      </trkpt>
      <trkpt lat="42.9882" lon="-0.216">
        <ele>1493</ele>
        <time>2015-03-12T09:22:36Z</time>
      </trkpt>
      <trkpt lat="42.98813" lon="-0.21606">
        <ele>1492.7</ele>
        <time>2015-03-12T09:22:41Z</time>
      </trkpt>
      <trkpt lat="42.98806" lon="-0.21612">
        <ele>1493.5</ele>
        <time>2015-03-12T09:22:46Z</time>
      </trkpt>
      <trkpt lat="42.98799" lon="-0.21618">
        <ele>1493.7</ele>
        <time>2015-03-12T09:22:51Z</time>
      </trkpt>
      <trkpt lat="42.98791" lon="-0.21623">
        <ele>1494.4</ele>
        <time>2015-03-12T09:22:56Z</time>
      </trkpt>
      <trkpt lat="42.98783" lon="-0.21627">
        <ele>1494.7</ele>
        <time>2015-03-12T09:23:01Z</time>
      </trkpt>
      <trkpt lat="42.98782" lon="-0.21628">
        <ele>1495</ele>
        <time>2015-03-12T09:23:02Z</time>
      </trkpt>
      <trkpt lat="42.98768" lon="-0.21634">
        <ele>1495</ele>
        <time>2015-03-12T09:23:10Z</time>
      </trkpt>
      <trkpt lat="42.98759" lon="-0.21636">
        <ele>1495.1</ele>
        <time>2015-03-12T09:23:15Z</time>
      </trkpt>
      <trkpt lat="42.98751" lon="-0.21637">
        <ele>1496.6</ele>
        <time>2015-03-12T09:23:21Z</time>
      </trkpt>
      <trkpt lat="42.98743" lon="-0.21639">
        <ele>1496.6</ele>
        <time>2015-03-12T09:23:26Z</time>
      </trkpt>
      <trkpt lat="42.98734" lon="-0.21639">
        <ele>1496.6</ele>
        <time>2015-03-12T09:23:31Z</time>
      </trkpt>
      <trkpt lat="42.98726" lon="-0.21637">
        <ele>1497.5</ele>
        <time>2015-03-12T09:23:36Z</time>
      </trkpt>
      <trkpt lat="42.98718" lon="-0.21634">
        <ele>1498.5</ele>
        <time>2015-03-12T09:23:41Z</time>
      </trkpt>
      <trkpt lat="42.9871" lon="-0.2163">
        <ele>1499.4</ele>
        <time>2015-03-12T09:23:46Z</time>
      </trkpt>
      <trkpt lat="42.98701" lon="-0.21627">
        <ele>1499.9</ele>
        <time>2015-03-12T09:23:51Z</time>
      </trkpt>
      <trkpt lat="42.98692" lon="-0.21627">
        <ele>1500.5</ele>
        <time>2015-03-12T09:23:55Z</time>
      </trkpt>
      <trkpt lat="42.98685" lon="-0.2163">
        <ele>1500.3</ele>
        <time>2015-03-12T09:23:57Z</time>
      </trkpt>
      <trkpt lat="42.98678" lon="-0.21631">
        <ele>1499.3</ele>
        <time>2015-03-12T09:23:59Z</time>
      </trkpt>
      <trkpt lat="42.9867" lon="-0.21636">
        <ele>1498.7</ele>
        <time>2015-03-12T09:24:01Z</time>
      </trkpt>
      <trkpt lat="42.98665" lon="-0.21642">
        <ele>1497.9</ele>
        <time>2015-03-12T09:24:03Z</time>
      </trkpt>
      <trkpt lat="42.98657" lon="-0.21647">
        <ele>1496.3</ele>
        <time>2015-03-12T09:24:07Z</time>
      </trkpt>
      <trkpt lat="42.98655" lon="-0.21647">
        <ele>1496.5</ele>
        <time>2015-03-12T09:24:08Z</time>
      </trkpt>
      <trkpt lat="42.9864" lon="-0.2165">
        <ele>1497.6</ele>
        <time>2015-03-12T09:24:16Z</time>
      </trkpt>
      <trkpt lat="42.98632" lon="-0.21654">
        <ele>1497.5</ele>
        <time>2015-03-12T09:24:22Z</time>
      </trkpt>
      <trkpt lat="42.98641" lon="-0.21656">
        <ele>1500.5</ele>
        <time>2015-03-12T09:24:37Z</time>
      </trkpt>
      <trkpt lat="42.98649" lon="-0.21653">
        <ele>1501.7</ele>
        <time>2015-03-12T09:24:45Z</time>
      </trkpt>
      <trkpt lat="42.98657" lon="-0.2165">
        <ele>1500.9</ele>
        <time>2015-03-12T09:24:52Z</time>
      </trkpt>
      <trkpt lat="42.98665" lon="-0.21648">
        <ele>1501.7</ele>
        <time>2015-03-12T09:24:59Z</time>
      </trkpt>
      <trkpt lat="42.98674" lon="-0.21647">
        <ele>1502.6</ele>
        <time>2015-03-12T09:25:04Z</time>
      </trkpt>
      <trkpt lat="42.98683" lon="-0.21647">
        <ele>1503</ele>
        <time>2015-03-12T09:25:10Z</time>
      </trkpt>
      <trkpt lat="42.98684" lon="-0.21648">
        <ele>1502.9</ele>
        <time>2015-03-12T09:25:11Z</time>
      </trkpt>
      <trkpt lat="42.98698" lon="-0.21653">
        <ele>1504.6</ele>
        <time>2015-03-12T09:25:21Z</time>
      </trkpt>
      <trkpt lat="42.98706" lon="-0.21657">
        <ele>1505.2</ele>
        <time>2015-03-12T09:25:27Z</time>
      </trkpt>
      <trkpt lat="42.98714" lon="-0.2166">
        <ele>1505.5</ele>
        <time>2015-03-12T09:25:33Z</time>
      </trkpt>
      <trkpt lat="42.98722" lon="-0.21664">
        <ele>1507.4</ele>
        <time>2015-03-12T09:25:40Z</time>
      </trkpt>
      <trkpt lat="42.9873" lon="-0.21667">
        <ele>1508.2</ele>
        <time>2015-03-12T09:25:46Z</time>
      </trkpt>
      <trkpt lat="42.98738" lon="-0.2167">
        <ele>1508.2</ele>
        <time>2015-03-12T09:25:52Z</time>
      </trkpt>
      <trkpt lat="42.98746" lon="-0.21672">
        <ele>1509.2</ele>
        <time>2015-03-12T09:25:57Z</time>
      </trkpt>
      <trkpt lat="42.98754" lon="-0.21673">
        <ele>1510.5</ele>
        <time>2015-03-12T09:26:02Z</time>
      </trkpt>
      <trkpt lat="42.98762" lon="-0.21673">
        <ele>1510</ele>
        <time>2015-03-12T09:26:07Z</time>
      </trkpt>
      <trkpt lat="42.9877" lon="-0.21674">
        <ele>1510.3</ele>
        <time>2015-03-12T09:26:12Z</time>
      </trkpt>
      <trkpt lat="42.98771" lon="-0.21673">
        <ele>1510.6</ele>
        <time>2015-03-12T09:26:13Z</time>
      </trkpt>
      <trkpt lat="42.98786" lon="-0.21672">
        <ele>1512.2</ele>
        <time>2015-03-12T09:26:23Z</time>
      </trkpt>
      <trkpt lat="42.98794" lon="-0.2167">
        <ele>1512.6</ele>
        <time>2015-03-12T09:26:28Z</time>
      </trkpt>
      <trkpt lat="42.98801" lon="-0.21666">
        <ele>1512.4</ele>
        <time>2015-03-12T09:26:33Z</time>
      </trkpt>
      <trkpt lat="42.9881" lon="-0.21663">
        <ele>1512.7</ele>
        <time>2015-03-12T09:26:38Z</time>
      </trkpt>
      <trkpt lat="42.98817" lon="-0.21661">
        <ele>1512.9</ele>
        <time>2015-03-12T09:26:43Z</time>
      </trkpt>
      <trkpt lat="42.98825" lon="-0.21658">
        <ele>1514</ele>
        <time>2015-03-12T09:26:48Z</time>
      </trkpt>
      <trkpt lat="42.98833" lon="-0.21655">
        <ele>1515</ele>
        <time>2015-03-12T09:26:54Z</time>
      </trkpt>
      <trkpt lat="42.98842" lon="-0.21654">
        <ele>1514.8</ele>
        <time>2015-03-12T09:26:59Z</time>
      </trkpt>
      <trkpt lat="42.98849" lon="-0.21656">
        <ele>1515.7</ele>
        <time>2015-03-12T09:27:03Z</time>
      </trkpt>
      <trkpt lat="42.98856" lon="-0.21659">
        <ele>1516.4</ele>
        <time>2015-03-12T09:27:07Z</time>
      </trkpt>
      <trkpt lat="42.98863" lon="-0.21665">
        <ele>1517</ele>
        <time>2015-03-12T09:27:11Z</time>
      </trkpt>
      <trkpt lat="42.9887" lon="-0.21674">
        <ele>1517.1</ele>
        <time>2015-03-12T09:27:16Z</time>
      </trkpt>
      <trkpt lat="42.98871" lon="-0.21676">
        <ele>1517.2</ele>
        <time>2015-03-12T09:27:17Z</time>
      </trkpt>
      <trkpt lat="42.98879" lon="-0.21691">
        <ele>1518.7</ele>
        <time>2015-03-12T09:27:25Z</time>
      </trkpt>
      <trkpt lat="42.98882" lon="-0.21702">
        <ele>1518.8</ele>
        <time>2015-03-12T09:27:30Z</time>
      </trkpt>
      <trkpt lat="42.98884" lon="-0.21713">
        <ele>1518.6</ele>
        <time>2015-03-12T09:27:35Z</time>
      </trkpt>
      <trkpt lat="42.98886" lon="-0.21723">
        <ele>1518.9</ele>
        <time>2015-03-12T09:27:40Z</time>
      </trkpt>
      <trkpt lat="42.98886" lon="-0.21734">
        <ele>1519.9</ele>
        <time>2015-03-12T09:27:45Z</time>
      </trkpt>
      <trkpt lat="42.98887" lon="-0.21744">
        <ele>1520.4</ele>
        <time>2015-03-12T09:27:51Z</time>
      </trkpt>
      <trkpt lat="42.98887" lon="-0.21755">
        <ele>1520.5</ele>
        <time>2015-03-12T09:27:57Z</time>
      </trkpt>
      <trkpt lat="42.98887" lon="-0.21766">
        <ele>1521.3</ele>
        <time>2015-03-12T09:28:02Z</time>
      </trkpt>
      <trkpt lat="42.98888" lon="-0.21777">
        <ele>1522</ele>
        <time>2015-03-12T09:28:08Z</time>
      </trkpt>
      <trkpt lat="42.98889" lon="-0.21789">
        <ele>1521.8</ele>
        <time>2015-03-12T09:28:14Z</time>
      </trkpt>
      <trkpt lat="42.98889" lon="-0.21801">
        <ele>1523.4</ele>
        <time>2015-03-12T09:28:20Z</time>
      </trkpt>
      <trkpt lat="42.98889" lon="-0.21803">
        <ele>1523.6</ele>
        <time>2015-03-12T09:28:21Z</time>
      </trkpt>
      <trkpt lat="42.98892" lon="-0.21821">
        <ele>1525.1</ele>
        <time>2015-03-12T09:28:29Z</time>
      </trkpt>
      <trkpt lat="42.98893" lon="-0.21831">
        <ele>1524.8</ele>
        <time>2015-03-12T09:28:33Z</time>
      </trkpt>
      <trkpt lat="42.98894" lon="-0.21842">
        <ele>1525.3</ele>
        <time>2015-03-12T09:28:38Z</time>
      </trkpt>
      <trkpt lat="42.98893" lon="-0.21853">
        <ele>1526.3</ele>
        <time>2015-03-12T09:28:43Z</time>
      </trkpt>
      <trkpt lat="42.98891" lon="-0.21865">
        <ele>1526.1</ele>
        <time>2015-03-12T09:28:49Z</time>
      </trkpt>
      <trkpt lat="42.98889" lon="-0.21875">
        <ele>1527.5</ele>
        <time>2015-03-12T09:28:55Z</time>
      </trkpt>
      <trkpt lat="42.98885" lon="-0.21886">
        <ele>1528.1</ele>
        <time>2015-03-12T09:29:01Z</time>
      </trkpt>
      <trkpt lat="42.98883" lon="-0.21896">
        <ele>1528.1</ele>
        <time>2015-03-12T09:29:07Z</time>
      </trkpt>
      <trkpt lat="42.98881" lon="-0.21907">
        <ele>1528.3</ele>
        <time>2015-03-12T09:29:13Z</time>
      </trkpt>
      <trkpt lat="42.9888" lon="-0.21918">
        <ele>1529.3</ele>
        <time>2015-03-12T09:29:19Z</time>
      </trkpt>
      <trkpt lat="42.98879" lon="-0.21929">
        <ele>1529.8</ele>
        <time>2015-03-12T09:29:24Z</time>
      </trkpt>
      <trkpt lat="42.98879" lon="-0.21931">
        <ele>1530.2</ele>
        <time>2015-03-12T09:29:25Z</time>
      </trkpt>
      <trkpt lat="42.98875" lon="-0.2195">
        <ele>1530.1</ele>
        <time>2015-03-12T09:29:34Z</time>
      </trkpt>
      <trkpt lat="42.98872" lon="-0.2196">
        <ele>1531.2</ele>
        <time>2015-03-12T09:29:39Z</time>
      </trkpt>
      <trkpt lat="42.9887" lon="-0.21971">
        <ele>1532.1</ele>
        <time>2015-03-12T09:29:44Z</time>
      </trkpt>
      <trkpt lat="42.98868" lon="-0.21981">
        <ele>1532.4</ele>
        <time>2015-03-12T09:29:49Z</time>
      </trkpt>
      <trkpt lat="42.98866" lon="-0.21991">
        <ele>1532.5</ele>
        <time>2015-03-12T09:29:54Z</time>
      </trkpt>
      <trkpt lat="42.98865" lon="-0.22001">
        <ele>1533.1</ele>
        <time>2015-03-12T09:29:59Z</time>
      </trkpt>
      <trkpt lat="42.98863" lon="-0.22011">
        <ele>1533</ele>
        <time>2015-03-12T09:30:03Z</time>
      </trkpt>
      <trkpt lat="42.98861" lon="-0.22022">
        <ele>1533</ele>
        <time>2015-03-12T09:30:06Z</time>
      </trkpt>
      <trkpt lat="42.98861" lon="-0.2203">
        <ele>1533</ele>
        <time>2015-03-12T09:30:08Z</time>
      </trkpt>
      <trkpt lat="42.98862" lon="-0.22042">
        <ele>1532.8</ele>
        <time>2015-03-12T09:30:11Z</time>
      </trkpt>
      <trkpt lat="42.98863" lon="-0.2205">
        <ele>1532.5</ele>
        <time>2015-03-12T09:30:13Z</time>
      </trkpt>
      <trkpt lat="42.98863" lon="-0.22062">
        <ele>1532.8</ele>
        <time>2015-03-12T09:30:16Z</time>
      </trkpt>
      <trkpt lat="42.98864" lon="-0.22072">
        <ele>1533.2</ele>
        <time>2015-03-12T09:30:19Z</time>
      </trkpt>
      <trkpt lat="42.98865" lon="-0.22083">
        <ele>1533.8</ele>
        <time>2015-03-12T09:30:22Z</time>
      </trkpt>
      <trkpt lat="42.98867" lon="-0.22093">
        <ele>1533.8</ele>
        <time>2015-03-12T09:30:25Z</time>
      </trkpt>
      <trkpt lat="42.98867" lon="-0.22096">
        <ele>1533.7</ele>
        <time>2015-03-12T09:30:26Z</time>
      </trkpt>
      <trkpt lat="42.98869" lon="-0.22112">
        <ele>1533.4</ele>
        <time>2015-03-12T09:30:31Z</time>
      </trkpt>
      <trkpt lat="42.98871" lon="-0.22122">
        <ele>1533.5</ele>
        <time>2015-03-12T09:30:34Z</time>
      </trkpt>
      <trkpt lat="42.98874" lon="-0.22133">
        <ele>1532.8</ele>
        <time>2015-03-12T09:30:38Z</time>
      </trkpt>
      <trkpt lat="42.98876" lon="-0.22143">
        <ele>1532.9</ele>
        <time>2015-03-12T09:30:41Z</time>
      </trkpt>
      <trkpt lat="42.98878" lon="-0.22152">
        <ele>1533.4</ele>
        <time>2015-03-12T09:30:44Z</time>
      </trkpt>
      <trkpt lat="42.98881" lon="-0.22162">
        <ele>1533.2</ele>
        <time>2015-03-12T09:30:47Z</time>
      </trkpt>
      <trkpt lat="42.98887" lon="-0.22171">
        <ele>1533.2</ele>
        <time>2015-03-12T09:30:51Z</time>
      </trkpt>
      <trkpt lat="42.98894" lon="-0.22174">
        <ele>1533.4</ele>
        <time>2015-03-12T09:30:56Z</time>
      </trkpt>
      <trkpt lat="42.98902" lon="-0.22174">
        <ele>1533.9</ele>
        <time>2015-03-12T09:30:59Z</time>
      </trkpt>
      <trkpt lat="42.98911" lon="-0.22175">
        <ele>1533.7</ele>
        <time>2015-03-12T09:31:02Z</time>
      </trkpt>
      <trkpt lat="42.98919" lon="-0.22179">
        <ele>1533.1</ele>
        <time>2015-03-12T09:31:06Z</time>
      </trkpt>
      <trkpt lat="42.98927" lon="-0.22184">
        <ele>1532.7</ele>
        <time>2015-03-12T09:31:11Z</time>
      </trkpt>
      <trkpt lat="42.98933" lon="-0.22191">
        <ele>1533</ele>
        <time>2015-03-12T09:31:15Z</time>
      </trkpt>
      <trkpt lat="42.9894" lon="-0.22197">
        <ele>1533.2</ele>
        <time>2015-03-12T09:31:20Z</time>
      </trkpt>
      <trkpt lat="42.98947" lon="-0.22203">
        <ele>1533.2</ele>
        <time>2015-03-12T09:31:24Z</time>
      </trkpt>
      <trkpt lat="42.98954" lon="-0.22211">
        <ele>1533.4</ele>
        <time>2015-03-12T09:31:28Z</time>
      </trkpt>
      <trkpt lat="42.98955" lon="-0.22213">
        <ele>1533.2</ele>
        <time>2015-03-12T09:31:29Z</time>
      </trkpt>
      <trkpt lat="42.98965" lon="-0.22229">
        <ele>1533.1</ele>
        <time>2015-03-12T09:31:37Z</time>
      </trkpt>
      <trkpt lat="42.9897" lon="-0.22237">
        <ele>1533.8</ele>
        <time>2015-03-12T09:31:40Z</time>
      </trkpt>
      <trkpt lat="42.98976" lon="-0.22244">
        <ele>1533.4</ele>
        <time>2015-03-12T09:31:44Z</time>
      </trkpt>
      <trkpt lat="42.98982" lon="-0.22249">
        <ele>1534.5</ele>
        <time>2015-03-12T09:31:47Z</time>
      </trkpt>
      <trkpt lat="42.98989" lon="-0.22256">
        <ele>1533.2</ele>
        <time>2015-03-12T09:31:51Z</time>
      </trkpt>
      <trkpt lat="42.98994" lon="-0.22263">
        <ele>1533.3</ele>
        <time>2015-03-12T09:31:55Z</time>
      </trkpt>
      <trkpt lat="42.99" lon="-0.22269">
        <ele>1533.5</ele>
        <time>2015-03-12T09:31:58Z</time>
      </trkpt>
      <trkpt lat="42.99007" lon="-0.22274">
        <ele>1533.5</ele>
        <time>2015-03-12T09:32:01Z</time>
      </trkpt>
      <trkpt lat="42.99012" lon="-0.22281">
        <ele>1533.6</ele>
        <time>2015-03-12T09:32:05Z</time>
      </trkpt>
      <trkpt lat="42.99018" lon="-0.22288">
        <ele>1533.8</ele>
        <time>2015-03-12T09:32:09Z</time>
      </trkpt>
      <trkpt lat="42.99023" lon="-0.22296">
        <ele>1533.7</ele>
        <time>2015-03-12T09:32:13Z</time>
      </trkpt>
      <trkpt lat="42.99029" lon="-0.22304">
        <ele>1534.4</ele>
        <time>2015-03-12T09:32:17Z</time>
      </trkpt>
      <trkpt lat="42.99035" lon="-0.22312">
        <ele>1534.4</ele>
        <time>2015-03-12T09:32:21Z</time>
      </trkpt>
      <trkpt lat="42.99039" lon="-0.2232">
        <ele>1534.2</ele>
        <time>2015-03-12T09:32:25Z</time>
      </trkpt>
      <trkpt lat="42.99044" lon="-0.22329">
        <ele>1534.4</ele>
        <time>2015-03-12T09:32:29Z</time>
      </trkpt>
      <trkpt lat="42.99045" lon="-0.22331">
        <ele>1534.5</ele>
        <time>2015-03-12T09:32:30Z</time>
      </trkpt>
      <trkpt lat="42.99052" lon="-0.22344">
        <ele>1534.6</ele>
        <time>2015-03-12T09:32:35Z</time>
      </trkpt>
      <trkpt lat="42.99055" lon="-0.22352">
        <ele>1534.7</ele>
        <time>2015-03-12T09:32:38Z</time>
      </trkpt>
      <trkpt lat="42.99059" lon="-0.22361">
        <ele>1534.9</ele>
        <time>2015-03-12T09:32:41Z</time>
      </trkpt>
      <trkpt lat="42.99063" lon="-0.2237">
        <ele>1534.8</ele>
        <time>2015-03-12T09:32:44Z</time>
      </trkpt>
      <trkpt lat="42.99066" lon="-0.22379">
        <ele>1535.3</ele>
        <time>2015-03-12T09:32:47Z</time>
      </trkpt>
      <trkpt lat="42.99069" lon="-0.22388">
        <ele>1536.1</ele>
        <time>2015-03-12T09:32:50Z</time>
      </trkpt>
      <trkpt lat="42.99072" lon="-0.22397">
        <ele>1535</ele>
        <time>2015-03-12T09:32:53Z</time>
      </trkpt>
      <trkpt lat="42.99076" lon="-0.22409">
        <ele>1534.8</ele>
        <time>2015-03-12T09:32:56Z</time>
      </trkpt>
      <trkpt lat="42.99079" lon="-0.22417">
        <ele>1534.2</ele>
        <time>2015-03-12T09:32:58Z</time>
      </trkpt>
      <trkpt lat="42.99082" lon="-0.22427">
        <ele>1533.4</ele>
        <time>2015-03-12T09:33:00Z</time>
      </trkpt>
      <trkpt lat="42.99084" lon="-0.22433">
        <ele>1533.5</ele>
        <time>2015-03-12T09:33:01Z</time>
      </trkpt>
      <trkpt lat="42.99086" lon="-0.22439">
        <ele>1533.5</ele>
        <time>2015-03-12T09:33:02Z</time>
      </trkpt>
      <trkpt lat="42.99087" lon="-0.22445">
        <ele>1533.5</ele>
        <time>2015-03-12T09:33:03Z</time>
      </trkpt>
      <trkpt lat="42.99089" lon="-0.22451">
        <ele>1532.7</ele>
        <time>2015-03-12T09:33:04Z</time>
      </trkpt>
      <trkpt lat="42.9909" lon="-0.22457">
        <ele>1532.2</ele>
        <time>2015-03-12T09:33:05Z</time>
      </trkpt>
      <trkpt lat="42.99092" lon="-0.22468">
        <ele>1532</ele>
        <time>2015-03-12T09:33:07Z</time>
      </trkpt>
      <trkpt lat="42.99094" lon="-0.22479">
        <ele>1532.4</ele>
        <time>2015-03-12T09:33:10Z</time>
      </trkpt>
      <trkpt lat="42.99097" lon="-0.22491">
        <ele>1532.3</ele>
        <time>2015-03-12T09:33:14Z</time>
      </trkpt>
      <trkpt lat="42.99098" lon="-0.22501">
        <ele>1532.1</ele>
        <time>2015-03-12T09:33:18Z</time>
      </trkpt>
      <trkpt lat="42.99102" lon="-0.22511">
        <ele>1532.3</ele>
        <time>2015-03-12T09:33:23Z</time>
      </trkpt>
      <trkpt lat="42.99107" lon="-0.2252">
        <ele>1532.8</ele>
        <time>2015-03-12T09:33:28Z</time>
      </trkpt>
      <trkpt lat="42.99111" lon="-0.22528">
        <ele>1533.2</ele>
        <time>2015-03-12T09:33:33Z</time>
      </trkpt>
      <trkpt lat="42.99112" lon="-0.2253">
        <ele>1533.3</ele>
        <time>2015-03-12T09:33:34Z</time>
      </trkpt>
      <trkpt lat="42.99121" lon="-0.22545">
        <ele>1533.5</ele>
        <time>2015-03-12T09:33:40Z</time>
      </trkpt>
      <trkpt lat="42.99126" lon="-0.22554">
        <ele>1533.1</ele>
        <time>2015-03-12T09:33:44Z</time>
      </trkpt>
      <trkpt lat="42.99132" lon="-0.22562">
        <ele>1532.2</ele>
        <time>2015-03-12T09:33:47Z</time>
      </trkpt>
      <trkpt lat="42.99136" lon="-0.2257">
        <ele>1532.1</ele>
        <time>2015-03-12T09:33:49Z</time>
      </trkpt>
      <trkpt lat="42.99141" lon="-0.22579">
        <ele>1532.4</ele>
        <time>2015-03-12T09:33:51Z</time>
      </trkpt>
      <trkpt lat="42.99144" lon="-0.22589">
        <ele>1531.4</ele>
        <time>2015-03-12T09:33:53Z</time>
      </trkpt>
      <trkpt lat="42.99145" lon="-0.22599">
        <ele>1530.5</ele>
        <time>2015-03-12T09:33:55Z</time>
      </trkpt>
      <trkpt lat="42.99145" lon="-0.2261">
        <ele>1529.9</ele>
        <time>2015-03-12T09:34:00Z</time>
      </trkpt>
      <trkpt lat="42.99142" lon="-0.22621">
        <ele>1530.8</ele>
        <time>2015-03-12T09:35:06Z</time>
      </trkpt>
      <trkpt lat="42.9914" lon="-0.22624">
        <ele>1530.7</ele>
        <time>2015-03-12T09:35:07Z</time>
      </trkpt>
      <trkpt lat="42.99133" lon="-0.22637">
        <ele>1528.5</ele>
        <time>2015-03-12T09:35:12Z</time>
      </trkpt>
      <trkpt lat="42.99128" lon="-0.22646">
        <ele>1527.9</ele>
        <time>2015-03-12T09:35:15Z</time>
      </trkpt>
      <trkpt lat="42.99123" lon="-0.22652">
        <ele>1527.6</ele>
        <time>2015-03-12T09:35:17Z</time>
      </trkpt>
      <trkpt lat="42.99117" lon="-0.22659">
        <ele>1527.3</ele>
        <time>2015-03-12T09:35:19Z</time>
      </trkpt>
      <trkpt lat="42.99111" lon="-0.22665">
        <ele>1527.2</ele>
        <time>2015-03-12T09:35:21Z</time>
      </trkpt>
      <trkpt lat="42.99105" lon="-0.22671">
        <ele>1527.1</ele>
        <time>2015-03-12T09:35:24Z</time>
      </trkpt>
      <trkpt lat="42.99099" lon="-0.22676">
        <ele>1526.8</ele>
        <time>2015-03-12T09:35:27Z</time>
      </trkpt>
      <trkpt lat="42.99093" lon="-0.22682">
        <ele>1526.8</ele>
        <time>2015-03-12T09:35:30Z</time>
      </trkpt>
      <trkpt lat="42.99087" lon="-0.22688">
        <ele>1527.3</ele>
        <time>2015-03-12T09:35:33Z</time>
      </trkpt>
      <trkpt lat="42.99081" lon="-0.22694">
        <ele>1528</ele>
        <time>2015-03-12T09:35:36Z</time>
      </trkpt>
      <trkpt lat="42.99073" lon="-0.22699">
        <ele>1527.5</ele>
        <time>2015-03-12T09:35:40Z</time>
      </trkpt>
      <trkpt lat="42.99066" lon="-0.22704">
        <ele>1527.1</ele>
        <time>2015-03-12T09:35:44Z</time>
      </trkpt>
      <trkpt lat="42.9906" lon="-0.22707">
        <ele>1527.3</ele>
        <time>2015-03-12T09:35:47Z</time>
      </trkpt>
      <trkpt lat="42.99052" lon="-0.2271">
        <ele>1527.6</ele>
        <time>2015-03-12T09:35:51Z</time>
      </trkpt>
      <trkpt lat="42.99044" lon="-0.22711">
        <ele>1529.1</ele>
        <time>2015-03-12T09:35:57Z</time>
      </trkpt>
      <trkpt lat="42.99035" lon="-0.2271">
        <ele>1528.2</ele>
        <time>2015-03-12T09:36:02Z</time>
      </trkpt>
      <trkpt lat="42.99028" lon="-0.22707">
        <ele>1528.5</ele>
        <time>2015-03-12T09:36:06Z</time>
      </trkpt>
      <trkpt lat="42.9902" lon="-0.22703">
        <ele>1528.8</ele>
        <time>2015-03-12T09:36:11Z</time>
      </trkpt>
      <trkpt lat="42.99019" lon="-0.22703">
        <ele>1528.9</ele>
        <time>2015-03-12T09:36:12Z</time>
      </trkpt>
      <trkpt lat="42.99006" lon="-0.22694">
        <ele>1529.5</ele>
        <time>2015-03-12T09:36:21Z</time>
      </trkpt>
      <trkpt lat="42.98999" lon="-0.22688">
        <ele>1530.8</ele>
        <time>2015-03-12T09:36:26Z</time>
      </trkpt>
      <trkpt lat="42.98992" lon="-0.22683">
        <ele>1530.9</ele>
        <time>2015-03-12T09:36:31Z</time>
      </trkpt>
      <trkpt lat="42.98984" lon="-0.22679">
        <ele>1531.9</ele>
        <time>2015-03-12T09:36:36Z</time>
      </trkpt>
      <trkpt lat="42.98977" lon="-0.22675">
        <ele>1532.6</ele>
        <time>2015-03-12T09:36:41Z</time>
      </trkpt>
      <trkpt lat="42.98969" lon="-0.22674">
        <ele>1532.8</ele>
        <time>2015-03-12T09:36:46Z</time>
      </trkpt>
      <trkpt lat="42.98961" lon="-0.22672">
        <ele>1532.6</ele>
        <time>2015-03-12T09:36:50Z</time>
      </trkpt>
      <trkpt lat="42.98953" lon="-0.22669">
        <ele>1532.9</ele>
        <time>2015-03-12T09:36:54Z</time>
      </trkpt>
      <trkpt lat="42.98946" lon="-0.22669">
        <ele>1533</ele>
        <time>2015-03-12T09:36:57Z</time>
      </trkpt>
      <trkpt lat="42.98938" lon="-0.2267">
        <ele>1534</ele>
        <time>2015-03-12T09:37:01Z</time>
      </trkpt>
      <trkpt lat="42.9893" lon="-0.22672">
        <ele>1533.8</ele>
        <time>2015-03-12T09:37:05Z</time>
      </trkpt>
      <trkpt lat="42.98922" lon="-0.22674">
        <ele>1533.7</ele>
        <time>2015-03-12T09:37:10Z</time>
      </trkpt>
      <trkpt lat="42.98914" lon="-0.22677">
        <ele>1534.1</ele>
        <time>2015-03-12T09:37:14Z</time>
      </trkpt>
      <trkpt lat="42.98912" lon="-0.22678">
        <ele>1534.1</ele>
        <time>2015-03-12T09:37:15Z</time>
      </trkpt>
      <trkpt lat="42.98899" lon="-0.22683">
        <ele>1534.3</ele>
        <time>2015-03-12T09:37:22Z</time>
      </trkpt>
      <trkpt lat="42.98891" lon="-0.22686">
        <ele>1534.8</ele>
        <time>2015-03-12T09:37:26Z</time>
      </trkpt>
      <trkpt lat="42.98882" lon="-0.22688">
        <ele>1534.4</ele>
        <time>2015-03-12T09:37:31Z</time>
      </trkpt>
      <trkpt lat="42.98875" lon="-0.2269">
        <ele>1534.2</ele>
        <time>2015-03-12T09:37:35Z</time>
      </trkpt>
      <trkpt lat="42.98868" lon="-0.22692">
        <ele>1535.1</ele>
        <time>2015-03-12T09:37:39Z</time>
      </trkpt>
      <trkpt lat="42.9886" lon="-0.22694">
        <ele>1535.4</ele>
        <time>2015-03-12T09:37:43Z</time>
      </trkpt>
      <trkpt lat="42.98852" lon="-0.22697">
        <ele>1535.8</ele>
        <time>2015-03-12T09:37:47Z</time>
      </trkpt>
      <trkpt lat="42.98845" lon="-0.22699">
        <ele>1536.4</ele>
        <time>2015-03-12T09:37:50Z</time>
      </trkpt>
      <trkpt lat="42.98838" lon="-0.22702">
        <ele>1536.2</ele>
        <time>2015-03-12T09:37:53Z</time>
      </trkpt>
      <trkpt lat="42.98831" lon="-0.22705">
        <ele>1536</ele>
        <time>2015-03-12T09:37:57Z</time>
      </trkpt>
      <trkpt lat="42.98824" lon="-0.22709">
        <ele>1537.3</ele>
        <time>2015-03-12T09:38:01Z</time>
      </trkpt>
      <trkpt lat="42.98816" lon="-0.22713">
        <ele>1537</ele>
        <time>2015-03-12T09:38:05Z</time>
      </trkpt>
      <trkpt lat="42.98808" lon="-0.22718">
        <ele>1537.6</ele>
        <time>2015-03-12T09:38:09Z</time>
      </trkpt>
      <trkpt lat="42.988" lon="-0.22723">
        <ele>1537.1</ele>
        <time>2015-03-12T09:38:13Z</time>
      </trkpt>
      <trkpt lat="42.98793" lon="-0.22728">
        <ele>1537</ele>
        <time>2015-03-12T09:38:17Z</time>
      </trkpt>
      <trkpt lat="42.98791" lon="-0.2273">
        <ele>1537.1</ele>
        <time>2015-03-12T09:38:18Z</time>
      </trkpt>
      <trkpt lat="42.98777" lon="-0.22738">
        <ele>1537.1</ele>
        <time>2015-03-12T09:38:25Z</time>
      </trkpt>
      <trkpt lat="42.98768" lon="-0.22741">
        <ele>1537.8</ele>
        <time>2015-03-12T09:38:29Z</time>
      </trkpt>
      <trkpt lat="42.98761" lon="-0.22744">
        <ele>1537.7</ele>
        <time>2015-03-12T09:38:33Z</time>
      </trkpt>
      <trkpt lat="42.98752" lon="-0.22746">
        <ele>1538.9</ele>
        <time>2015-03-12T09:38:37Z</time>
      </trkpt>
      <trkpt lat="42.98744" lon="-0.22747">
        <ele>1538.9</ele>
        <time>2015-03-12T09:38:41Z</time>
      </trkpt>
      <trkpt lat="42.98737" lon="-0.22751">
        <ele>1538.3</ele>
        <time>2015-03-12T09:38:44Z</time>
      </trkpt>
      <trkpt lat="42.9873" lon="-0.22755">
        <ele>1538.7</ele>
        <time>2015-03-12T09:38:48Z</time>
      </trkpt>
      <trkpt lat="42.98724" lon="-0.2276">
        <ele>1538.7</ele>
        <time>2015-03-12T09:38:51Z</time>
      </trkpt>
      <trkpt lat="42.98717" lon="-0.22765">
        <ele>1539.1</ele>
        <time>2015-03-12T09:38:54Z</time>
      </trkpt>
      <trkpt lat="42.9871" lon="-0.2277">
        <ele>1539.3</ele>
        <time>2015-03-12T09:38:58Z</time>
      </trkpt>
      <trkpt lat="42.98703" lon="-0.22779">
        <ele>1539.5</ele>
        <time>2015-03-12T09:39:03Z</time>
      </trkpt>
      <trkpt lat="42.98699" lon="-0.22789">
        <ele>1539.5</ele>
        <time>2015-03-12T09:39:09Z</time>
      </trkpt>
      <trkpt lat="42.98695" lon="-0.22798">
        <ele>1539.3</ele>
        <time>2015-03-12T09:39:12Z</time>
      </trkpt>
      <trkpt lat="42.98691" lon="-0.22806">
        <ele>1539.1</ele>
        <time>2015-03-12T09:39:14Z</time>
      </trkpt>
      <trkpt lat="42.98686" lon="-0.22812">
        <ele>1538.2</ele>
        <time>2015-03-12T09:39:16Z</time>
      </trkpt>
      <trkpt lat="42.98678" lon="-0.22818">
        <ele>1538.2</ele>
        <time>2015-03-12T09:39:19Z</time>
      </trkpt>
      <trkpt lat="42.98676" lon="-0.22819">
        <ele>1538.3</ele>
        <time>2015-03-12T09:39:20Z</time>
      </trkpt>
      <trkpt lat="42.98662" lon="-0.22823">
        <ele>1537.6</ele>
        <time>2015-03-12T09:39:25Z</time>
      </trkpt>
      <trkpt lat="42.98654" lon="-0.22825">
        <ele>1537.8</ele>
        <time>2015-03-12T09:39:29Z</time>
      </trkpt>
      <trkpt lat="42.98645" lon="-0.22825">
        <ele>1537.2</ele>
        <time>2015-03-12T09:39:32Z</time>
      </trkpt>
      <trkpt lat="42.98639" lon="-0.22825">
        <ele>1537</ele>
        <time>2015-03-12T09:39:34Z</time>
      </trkpt>
      <trkpt lat="42.98633" lon="-0.22826">
        <ele>1536.9</ele>
        <time>2015-03-12T09:39:36Z</time>
      </trkpt>
      <trkpt lat="42.98626" lon="-0.22828">
        <ele>1536.3</ele>
        <time>2015-03-12T09:39:38Z</time>
      </trkpt>
      <trkpt lat="42.98618" lon="-0.2283">
        <ele>1536</ele>
        <time>2015-03-12T09:39:40Z</time>
      </trkpt>
      <trkpt lat="42.9861" lon="-0.22832">
        <ele>1535.9</ele>
        <time>2015-03-12T09:39:42Z</time>
      </trkpt>
      <trkpt lat="42.98603" lon="-0.22836">
        <ele>1534.7</ele>
        <time>2015-03-12T09:39:44Z</time>
      </trkpt>
      <trkpt lat="42.98596" lon="-0.22839">
        <ele>1534.3</ele>
        <time>2015-03-12T09:39:46Z</time>
      </trkpt>
      <trkpt lat="42.98588" lon="-0.22841">
        <ele>1534.2</ele>
        <time>2015-03-12T09:39:48Z</time>
      </trkpt>
      <trkpt lat="42.98581" lon="-0.22844">
        <ele>1534.3</ele>
        <time>2015-03-12T09:39:50Z</time>
      </trkpt>
      <trkpt lat="42.98573" lon="-0.22848">
        <ele>1534.4</ele>
        <time>2015-03-12T09:39:52Z</time>
      </trkpt>
      <trkpt lat="42.98566" lon="-0.22854">
        <ele>1534.4</ele>
        <time>2015-03-12T09:39:54Z</time>
      </trkpt>
      <trkpt lat="42.98559" lon="-0.22859">
        <ele>1534</ele>
        <time>2015-03-12T09:39:56Z</time>
      </trkpt>
      <trkpt lat="42.98554" lon="-0.22864">
        <ele>1533.7</ele>
        <time>2015-03-12T09:39:58Z</time>
      </trkpt>
      <trkpt lat="42.98545" lon="-0.22867">
        <ele>1534</ele>
        <time>2015-03-12T09:40:02Z</time>
      </trkpt>
      <trkpt lat="42.98537" lon="-0.22868">
        <ele>1534.6</ele>
        <time>2015-03-12T09:40:53Z</time>
      </trkpt>
      <trkpt lat="42.98536" lon="-0.22868">
        <ele>1534.4</ele>
        <time>2015-03-12T09:40:54Z</time>
      </trkpt>
      <trkpt lat="42.9853" lon="-0.22878">
        <ele>1534.1</ele>
        <time>2015-03-12T09:44:49Z</time>
      </trkpt>
      <trkpt lat="42.98522" lon="-0.22897">
        <ele>1533.3</ele>
        <time>2015-03-12T09:46:59Z</time>
      </trkpt>
      <trkpt lat="42.98522" lon="-0.22898">
        <ele>1533.3</ele>
        <time>2015-03-12T09:47:00Z</time>
      </trkpt>
      <trkpt lat="42.98521" lon="-0.2292">
        <ele>1532.2</ele>
        <time>2015-03-12T09:47:07Z</time>
      </trkpt>
      <trkpt lat="42.9852" lon="-0.22932">
        <ele>1531.7</ele>
        <time>2015-03-12T09:47:10Z</time>
      </trkpt>
      <trkpt lat="42.98521" lon="-0.22943">
        <ele>1531.7</ele>
        <time>2015-03-12T09:47:13Z</time>
      </trkpt>
      <trkpt lat="42.98523" lon="-0.22952">
        <ele>1531.6</ele>
        <time>2015-03-12T09:47:15Z</time>
      </trkpt>
      <trkpt lat="42.98524" lon="-0.22962">
        <ele>1530.9</ele>
        <time>2015-03-12T09:47:17Z</time>
      </trkpt>
      <trkpt lat="42.98528" lon="-0.22973">
        <ele>1530.1</ele>
        <time>2015-03-12T09:47:19Z</time>
      </trkpt>
      <trkpt lat="42.9853" lon="-0.22979">
        <ele>1529.5</ele>
        <time>2015-03-12T09:47:20Z</time>
      </trkpt>
      <trkpt lat="42.98533" lon="-0.22985">
        <ele>1529</ele>
        <time>2015-03-12T09:47:21Z</time>
      </trkpt>
      <trkpt lat="42.98536" lon="-0.2299">
        <ele>1528.6</ele>
        <time>2015-03-12T09:47:22Z</time>
      </trkpt>
      <trkpt lat="42.98542" lon="-0.22999">
        <ele>1526.4</ele>
        <time>2015-03-12T09:47:24Z</time>
      </trkpt>
      <trkpt lat="42.98546" lon="-0.23007">
        <ele>1525.3</ele>
        <time>2015-03-12T09:47:26Z</time>
      </trkpt>
      <trkpt lat="42.9855" lon="-0.23014">
        <ele>1524.7</ele>
        <time>2015-03-12T09:47:28Z</time>
      </trkpt>
      <trkpt lat="42.98554" lon="-0.23022">
        <ele>1524.8</ele>
        <time>2015-03-12T09:47:30Z</time>
      </trkpt>
      <trkpt lat="42.98558" lon="-0.2303">
        <ele>1524.9</ele>
        <time>2015-03-12T09:47:32Z</time>
      </trkpt>
      <trkpt lat="42.98561" lon="-0.23039">
        <ele>1525.1</ele>
        <time>2015-03-12T09:47:34Z</time>
      </trkpt>
      <trkpt lat="42.98564" lon="-0.23048">
        <ele>1524.3</ele>
        <time>2015-03-12T09:47:36Z</time>
      </trkpt>
      <trkpt lat="42.98566" lon="-0.23057">
        <ele>1523.1</ele>
        <time>2015-03-12T09:47:38Z</time>
      </trkpt>
      <trkpt lat="42.98567" lon="-0.23067">
        <ele>1522.6</ele>
        <time>2015-03-12T09:47:40Z</time>
      </trkpt>
      <trkpt lat="42.98569" lon="-0.23077">
        <ele>1521.9</ele>
        <time>2015-03-12T09:47:42Z</time>
      </trkpt>
      <trkpt lat="42.9857" lon="-0.23088">
        <ele>1521.4</ele>
        <time>2015-03-12T09:47:44Z</time>
      </trkpt>
      <trkpt lat="42.98572" lon="-0.23099">
        <ele>1520.6</ele>
        <time>2015-03-12T09:47:46Z</time>
      </trkpt>
      <trkpt lat="42.98573" lon="-0.2311">
        <ele>1520.1</ele>
        <time>2015-03-12T09:47:48Z</time>
      </trkpt>
      <trkpt lat="42.98574" lon="-0.23117">
        <ele>1519.9</ele>
        <time>2015-03-12T09:47:49Z</time>
      </trkpt>
      <trkpt lat="42.98575" lon="-0.23123">
        <ele>1519.8</ele>
        <time>2015-03-12T09:47:50Z</time>
      </trkpt>
      <trkpt lat="42.98575" lon="-0.2313">
        <ele>1519.7</ele>
        <time>2015-03-12T09:47:51Z</time>
      </trkpt>
      <trkpt lat="42.98576" lon="-0.23137">
        <ele>1519</ele>
        <time>2015-03-12T09:47:52Z</time>
      </trkpt>
      <trkpt lat="42.98576" lon="-0.23144">
        <ele>1518.5</ele>
        <time>2015-03-12T09:47:53Z</time>
      </trkpt>
      <trkpt lat="42.98577" lon="-0.23151">
        <ele>1518.2</ele>
        <time>2015-03-12T09:47:54Z</time>
      </trkpt>
      <trkpt lat="42.98577" lon="-0.23158">
        <ele>1518</ele>
        <time>2015-03-12T09:47:55Z</time>
      </trkpt>
      <trkpt lat="42.98577" lon="-0.23166">
        <ele>1517.9</ele>
        <time>2015-03-12T09:47:56Z</time>
      </trkpt>
      <trkpt lat="42.98576" lon="-0.23174">
        <ele>1517.9</ele>
        <time>2015-03-12T09:47:57Z</time>
      </trkpt>
      <trkpt lat="42.98575" lon="-0.23182">
        <ele>1517.2</ele>
        <time>2015-03-12T09:47:58Z</time>
      </trkpt>
      <trkpt lat="42.98575" lon="-0.23189">
        <ele>1516.7</ele>
        <time>2015-03-12T09:47:59Z</time>
      </trkpt>
      <trkpt lat="42.98574" lon="-0.23197">
        <ele>1516.3</ele>
        <time>2015-03-12T09:48:00Z</time>
      </trkpt>
      <trkpt lat="42.98574" lon="-0.23203">
        <ele>1515.6</ele>
        <time>2015-03-12T09:48:01Z</time>
      </trkpt>
      <trkpt lat="42.98573" lon="-0.2321">
        <ele>1515.1</ele>
        <time>2015-03-12T09:48:02Z</time>
      </trkpt>
      <trkpt lat="42.98573" lon="-0.23222">
        <ele>1514.4</ele>
        <time>2015-03-12T09:48:04Z</time>
      </trkpt>
      <trkpt lat="42.98573" lon="-0.23233">
        <ele>1514</ele>
        <time>2015-03-12T09:48:06Z</time>
      </trkpt>
      <trkpt lat="42.98573" lon="-0.23242">
        <ele>1514</ele>
        <time>2015-03-12T09:48:08Z</time>
      </trkpt>
      <trkpt lat="42.98572" lon="-0.23251">
        <ele>1514.2</ele>
        <time>2015-03-12T09:48:10Z</time>
      </trkpt>
      <trkpt lat="42.98569" lon="-0.23261">
        <ele>1513.8</ele>
        <time>2015-03-12T09:48:13Z</time>
      </trkpt>
      <trkpt lat="42.98567" lon="-0.23272">
        <ele>1514</ele>
        <time>2015-03-12T09:48:17Z</time>
      </trkpt>
      <trkpt lat="42.98566" lon="-0.23283">
        <ele>1514</ele>
        <time>2015-03-12T09:48:22Z</time>
      </trkpt>
      <trkpt lat="42.98564" lon="-0.23293">
        <ele>1514.3</ele>
        <time>2015-03-12T09:48:26Z</time>
      </trkpt>
      <trkpt lat="42.98563" lon="-0.23304">
        <ele>1514.2</ele>
        <time>2015-03-12T09:48:30Z</time>
      </trkpt>
      <trkpt lat="42.98566" lon="-0.23313">
        <ele>1514.9</ele>
        <time>2015-03-12T09:48:33Z</time>
      </trkpt>
      <trkpt lat="42.98569" lon="-0.23321">
        <ele>1515.7</ele>
        <time>2015-03-12T09:48:36Z</time>
      </trkpt>
      <trkpt lat="42.98574" lon="-0.23329">
        <ele>1515.1</ele>
        <time>2015-03-12T09:48:40Z</time>
      </trkpt>
      <trkpt lat="42.98576" lon="-0.23341">
        <ele>1514.7</ele>
        <time>2015-03-12T09:49:57Z</time>
      </trkpt>
      <trkpt lat="42.98576" lon="-0.23341">
        <ele>1514.6</ele>
        <time>2015-03-12T09:49:58Z</time>
      </trkpt>
      <trkpt lat="42.98581" lon="-0.23354">
        <ele>1515.2</ele>
        <time>2015-03-12T09:55:02Z</time>
      </trkpt>
      <trkpt lat="42.98584" lon="-0.23369">
        <ele>1513.5</ele>
        <time>2015-03-12T09:55:06Z</time>
      </trkpt>
      <trkpt lat="42.98584" lon="-0.23378">
        <ele>1513.2</ele>
        <time>2015-03-12T09:55:08Z</time>
      </trkpt>
      <trkpt lat="42.98585" lon="-0.23388">
        <ele>1512.6</ele>
        <time>2015-03-12T09:55:10Z</time>
      </trkpt>
      <trkpt lat="42.98585" lon="-0.23399">
        <ele>1512.1</ele>
        <time>2015-03-12T09:55:12Z</time>
      </trkpt>
      <trkpt lat="42.98584" lon="-0.2341">
        <ele>1511.6</ele>
        <time>2015-03-12T09:55:14Z</time>
      </trkpt>
      <trkpt lat="42.98584" lon="-0.23416">
        <ele>1510.9</ele>
        <time>2015-03-12T09:55:15Z</time>
      </trkpt>
      <trkpt lat="42.98583" lon="-0.23422">
        <ele>1510.5</ele>
        <time>2015-03-12T09:55:16Z</time>
      </trkpt>
      <trkpt lat="42.98582" lon="-0.23429">
        <ele>1510.1</ele>
        <time>2015-03-12T09:55:17Z</time>
      </trkpt>
      <trkpt lat="42.98581" lon="-0.23435">
        <ele>1509.9</ele>
        <time>2015-03-12T09:55:18Z</time>
      </trkpt>
      <trkpt lat="42.9858" lon="-0.23441">
        <ele>1509.8</ele>
        <time>2015-03-12T09:55:19Z</time>
      </trkpt>
      <trkpt lat="42.98578" lon="-0.23453">
        <ele>1509.7</ele>
        <time>2015-03-12T09:55:21Z</time>
      </trkpt>
      <trkpt lat="42.98575" lon="-0.23465">
        <ele>1509.4</ele>
        <time>2015-03-12T09:55:23Z</time>
      </trkpt>
      <trkpt lat="42.98572" lon="-0.23475">
        <ele>1508.6</ele>
        <time>2015-03-12T09:55:25Z</time>
      </trkpt>
      <trkpt lat="42.98569" lon="-0.23486">
        <ele>1507.8</ele>
        <time>2015-03-12T09:55:27Z</time>
      </trkpt>
      <trkpt lat="42.98565" lon="-0.23496">
        <ele>1506.5</ele>
        <time>2015-03-12T09:55:29Z</time>
      </trkpt>
      <trkpt lat="42.98563" lon="-0.23502">
        <ele>1506.1</ele>
        <time>2015-03-12T09:55:30Z</time>
      </trkpt>
      <trkpt lat="42.98559" lon="-0.23507">
        <ele>1505.4</ele>
        <time>2015-03-12T09:55:31Z</time>
      </trkpt>
      <trkpt lat="42.98557" lon="-0.23514">
        <ele>1504.9</ele>
        <time>2015-03-12T09:55:32Z</time>
      </trkpt>
      <trkpt lat="42.98554" lon="-0.2352">
        <ele>1504.5</ele>
        <time>2015-03-12T09:55:33Z</time>
      </trkpt>
      <trkpt lat="42.98551" lon="-0.23531">
        <ele>1503.7</ele>
        <time>2015-03-12T09:55:35Z</time>
      </trkpt>
      <trkpt lat="42.98552" lon="-0.23543">
        <ele>1503</ele>
        <time>2015-03-12T09:55:38Z</time>
      </trkpt>
      <trkpt lat="42.98552" lon="-0.23551">
        <ele>1502.7</ele>
        <time>2015-03-12T09:55:40Z</time>
      </trkpt>
      <trkpt lat="42.98553" lon="-0.2356">
        <ele>1501.9</ele>
        <time>2015-03-12T09:55:42Z</time>
      </trkpt>
      <trkpt lat="42.98552" lon="-0.23571">
        <ele>1501.3</ele>
        <time>2015-03-12T09:55:44Z</time>
      </trkpt>
      <trkpt lat="42.98552" lon="-0.23582">
        <ele>1500.9</ele>
        <time>2015-03-12T09:55:46Z</time>
      </trkpt>
      <trkpt lat="42.98552" lon="-0.23593">
        <ele>1500</ele>
        <time>2015-03-12T09:55:48Z</time>
      </trkpt>
      <trkpt lat="42.98553" lon="-0.23605">
        <ele>1499.6</ele>
        <time>2015-03-12T09:55:50Z</time>
      </trkpt>
      <trkpt lat="42.98555" lon="-0.23612">
        <ele>1498.9</ele>
        <time>2015-03-12T09:55:51Z</time>
      </trkpt>
      <trkpt lat="42.98557" lon="-0.23618">
        <ele>1498.3</ele>
        <time>2015-03-12T09:55:52Z</time>
      </trkpt>
      <trkpt lat="42.98558" lon="-0.23624">
        <ele>1497.9</ele>
        <time>2015-03-12T09:55:53Z</time>
      </trkpt>
      <trkpt lat="42.98559" lon="-0.23636">
        <ele>1496.9</ele>
        <time>2015-03-12T09:55:55Z</time>
      </trkpt>
      <trkpt lat="42.98558" lon="-0.23646">
        <ele>1496.1</ele>
        <time>2015-03-12T09:55:57Z</time>
      </trkpt>
      <trkpt lat="42.98557" lon="-0.23655">
        <ele>1495.6</ele>
        <time>2015-03-12T09:55:59Z</time>
      </trkpt>
      <trkpt lat="42.98556" lon="-0.23665">
        <ele>1495.3</ele>
        <time>2015-03-12T09:56:01Z</time>
      </trkpt>
      <trkpt lat="42.98557" lon="-0.23676">
        <ele>1494.7</ele>
        <time>2015-03-12T09:56:03Z</time>
      </trkpt>
      <trkpt lat="42.98557" lon="-0.23682">
        <ele>1494.2</ele>
        <time>2015-03-12T09:56:04Z</time>
      </trkpt>
      <trkpt lat="42.98558" lon="-0.23689">
        <ele>1493.9</ele>
        <time>2015-03-12T09:56:05Z</time>
      </trkpt>
      <trkpt lat="42.98559" lon="-0.23695">
        <ele>1493.1</ele>
        <time>2015-03-12T09:56:06Z</time>
      </trkpt>
      <trkpt lat="42.98559" lon="-0.23701">
        <ele>1492.5</ele>
        <time>2015-03-12T09:56:07Z</time>
      </trkpt>
      <trkpt lat="42.9856" lon="-0.23708">
        <ele>1492</ele>
        <time>2015-03-12T09:56:08Z</time>
      </trkpt>
      <trkpt lat="42.98561" lon="-0.23715">
        <ele>1491.7</ele>
        <time>2015-03-12T09:56:09Z</time>
      </trkpt>
      <trkpt lat="42.98562" lon="-0.23722">
        <ele>1491.1</ele>
        <time>2015-03-12T09:56:10Z</time>
      </trkpt>
      <trkpt lat="42.98563" lon="-0.23728">
        <ele>1490.7</ele>
        <time>2015-03-12T09:56:11Z</time>
      </trkpt>
      <trkpt lat="42.98565" lon="-0.23734">
        <ele>1490.4</ele>
        <time>2015-03-12T09:56:12Z</time>
      </trkpt>
      <trkpt lat="42.98566" lon="-0.2374">
        <ele>1489.7</ele>
        <time>2015-03-12T09:56:13Z</time>
      </trkpt>
      <trkpt lat="42.98568" lon="-0.23746">
        <ele>1489.1</ele>
        <time>2015-03-12T09:56:14Z</time>
      </trkpt>
      <trkpt lat="42.98569" lon="-0.23752">
        <ele>1488.7</ele>
        <time>2015-03-12T09:56:15Z</time>
      </trkpt>
      <trkpt lat="42.98571" lon="-0.23759">
        <ele>1488.1</ele>
        <time>2015-03-12T09:56:16Z</time>
      </trkpt>
      <trkpt lat="42.98572" lon="-0.23765">
        <ele>1487.6</ele>
        <time>2015-03-12T09:56:17Z</time>
      </trkpt>
      <trkpt lat="42.98574" lon="-0.23771">
        <ele>1487.2</ele>
        <time>2015-03-12T09:56:18Z</time>
      </trkpt>
      <trkpt lat="42.98576" lon="-0.23778">
        <ele>1487</ele>
        <time>2015-03-12T09:56:19Z</time>
      </trkpt>
      <trkpt lat="42.98578" lon="-0.23785">
        <ele>1486.9</ele>
        <time>2015-03-12T09:56:20Z</time>
      </trkpt>
      <trkpt lat="42.98579" lon="-0.23791">
        <ele>1486.7</ele>
        <time>2015-03-12T09:56:21Z</time>
      </trkpt>
      <trkpt lat="42.9858" lon="-0.23797">
        <ele>1486.4</ele>
        <time>2015-03-12T09:56:22Z</time>
      </trkpt>
      <trkpt lat="42.98584" lon="-0.23808">
        <ele>1485.9</ele>
        <time>2015-03-12T09:56:24Z</time>
      </trkpt>
      <trkpt lat="42.98587" lon="-0.23814">
        <ele>1485.8</ele>
        <time>2015-03-12T09:56:25Z</time>
      </trkpt>
      <trkpt lat="42.98589" lon="-0.23819">
        <ele>1485.7</ele>
        <time>2015-03-12T09:56:26Z</time>
      </trkpt>
      <trkpt lat="42.98591" lon="-0.23825">
        <ele>1485.7</ele>
        <time>2015-03-12T09:56:27Z</time>
      </trkpt>
      <trkpt lat="42.98594" lon="-0.2383">
        <ele>1485.6</ele>
        <time>2015-03-12T09:56:28Z</time>
      </trkpt>
      <trkpt lat="42.986" lon="-0.2384">
        <ele>1484.9</ele>
        <time>2015-03-12T09:56:30Z</time>
      </trkpt>
      <trkpt lat="42.98606" lon="-0.23847">
        <ele>1484.2</ele>
        <time>2015-03-12T09:56:32Z</time>
      </trkpt>
      <trkpt lat="42.98612" lon="-0.23853">
        <ele>1483.6</ele>
        <time>2015-03-12T09:56:34Z</time>
      </trkpt>
      <trkpt lat="42.98619" lon="-0.2386">
        <ele>1482.8</ele>
        <time>2015-03-12T09:56:36Z</time>
      </trkpt>
      <trkpt lat="42.98626" lon="-0.23867">
        <ele>1482.3</ele>
        <time>2015-03-12T09:56:38Z</time>
      </trkpt>
      <trkpt lat="42.98632" lon="-0.23875">
        <ele>1482</ele>
        <time>2015-03-12T09:56:40Z</time>
      </trkpt>
      <trkpt lat="42.98636" lon="-0.23881">
        <ele>1481.5</ele>
        <time>2015-03-12T09:56:42Z</time>
      </trkpt>
      <trkpt lat="42.98641" lon="-0.23887">
        <ele>1480.9</ele>
        <time>2015-03-12T09:56:44Z</time>
      </trkpt>
      <trkpt lat="42.98645" lon="-0.23894">
        <ele>1481.3</ele>
        <time>2015-03-12T09:56:46Z</time>
      </trkpt>
      <trkpt lat="42.98649" lon="-0.23902">
        <ele>1481.2</ele>
        <time>2015-03-12T09:56:48Z</time>
      </trkpt>
      <trkpt lat="42.98652" lon="-0.2391">
        <ele>1481</ele>
        <time>2015-03-12T09:56:50Z</time>
      </trkpt>
      <trkpt lat="42.98655" lon="-0.23918">
        <ele>1480.5</ele>
        <time>2015-03-12T09:56:52Z</time>
      </trkpt>
      <trkpt lat="42.98656" lon="-0.23927">
        <ele>1480</ele>
        <time>2015-03-12T09:56:54Z</time>
      </trkpt>
      <trkpt lat="42.98657" lon="-0.23935">
        <ele>1479.6</ele>
        <time>2015-03-12T09:56:56Z</time>
      </trkpt>
      <trkpt lat="42.98658" lon="-0.23944">
        <ele>1480.1</ele>
        <time>2015-03-12T09:56:58Z</time>
      </trkpt>
      <trkpt lat="42.98658" lon="-0.23953">
        <ele>1480.5</ele>
        <time>2015-03-12T09:57:00Z</time>
      </trkpt>
      <trkpt lat="42.98658" lon="-0.23962">
        <ele>1479.9</ele>
        <time>2015-03-12T09:57:02Z</time>
      </trkpt>
      <trkpt lat="42.98658" lon="-0.23971">
        <ele>1479.9</ele>
        <time>2015-03-12T09:57:04Z</time>
      </trkpt>
      <trkpt lat="42.98657" lon="-0.2398">
        <ele>1480.2</ele>
        <time>2015-03-12T09:57:06Z</time>
      </trkpt>
      <trkpt lat="42.98657" lon="-0.23985">
        <ele>1480</ele>
        <time>2015-03-12T09:57:07Z</time>
      </trkpt>
      <trkpt lat="42.98656" lon="-0.23999">
        <ele>1479.4</ele>
        <time>2015-03-12T09:57:10Z</time>
      </trkpt>
      <trkpt lat="42.98655" lon="-0.2401">
        <ele>1478.7</ele>
        <time>2015-03-12T09:57:13Z</time>
      </trkpt>
      <trkpt lat="42.98654" lon="-0.2402">
        <ele>1478.2</ele>
        <time>2015-03-12T09:57:16Z</time>
      </trkpt>
      <trkpt lat="42.98653" lon="-0.2403">
        <ele>1476.8</ele>
        <time>2015-03-12T09:57:19Z</time>
      </trkpt>
      <trkpt lat="42.98652" lon="-0.24041">
        <ele>1477</ele>
        <time>2015-03-12T09:57:22Z</time>
      </trkpt>
      <trkpt lat="42.9865" lon="-0.24051">
        <ele>1476.3</ele>
        <time>2015-03-12T09:57:25Z</time>
      </trkpt>
      <trkpt lat="42.98649" lon="-0.24061">
        <ele>1475.3</ele>
        <time>2015-03-12T09:57:28Z</time>
      </trkpt>
      <trkpt lat="42.98647" lon="-0.2407">
        <ele>1474.9</ele>
        <time>2015-03-12T09:57:31Z</time>
      </trkpt>
      <trkpt lat="42.98646" lon="-0.24078">
        <ele>1474.7</ele>
        <time>2015-03-12T09:57:33Z</time>
      </trkpt>
      <trkpt lat="42.98644" lon="-0.24088">
        <ele>1474.4</ele>
        <time>2015-03-12T09:57:35Z</time>
      </trkpt>
      <trkpt lat="42.98643" lon="-0.24099">
        <ele>1472.9</ele>
        <time>2015-03-12T09:57:37Z</time>
      </trkpt>
      <trkpt lat="42.98642" lon="-0.24109">
        <ele>1471.9</ele>
        <time>2015-03-12T09:57:39Z</time>
      </trkpt>
      <trkpt lat="42.9864" lon="-0.24119">
        <ele>1471.1</ele>
        <time>2015-03-12T09:57:41Z</time>
      </trkpt>
      <trkpt lat="42.9864" lon="-0.24129">
        <ele>1470.6</ele>
        <time>2015-03-12T09:57:43Z</time>
      </trkpt>
      <trkpt lat="42.98639" lon="-0.24139">
        <ele>1469.7</ele>
        <time>2015-03-12T09:57:45Z</time>
      </trkpt>
      <trkpt lat="42.98639" lon="-0.2415">
        <ele>1468.7</ele>
        <time>2015-03-12T09:57:47Z</time>
      </trkpt>
      <trkpt lat="42.98636" lon="-0.24161">
        <ele>1467.7</ele>
        <time>2015-03-12T09:57:49Z</time>
      </trkpt>
      <trkpt lat="42.98633" lon="-0.24167">
        <ele>1467.2</ele>
        <time>2015-03-12T09:57:50Z</time>
      </trkpt>
      <trkpt lat="42.98632" lon="-0.24173">
        <ele>1466.9</ele>
        <time>2015-03-12T09:57:51Z</time>
      </trkpt>
      <trkpt lat="42.98629" lon="-0.24185">
        <ele>1465.9</ele>
        <time>2015-03-12T09:57:53Z</time>
      </trkpt>
      <trkpt lat="42.98627" lon="-0.24196">
        <ele>1465.3</ele>
        <time>2015-03-12T09:57:55Z</time>
      </trkpt>
      <trkpt lat="42.98626" lon="-0.24206">
        <ele>1464.9</ele>
        <time>2015-03-12T09:57:57Z</time>
      </trkpt>
      <trkpt lat="42.98625" lon="-0.24218">
        <ele>1465</ele>
        <time>2015-03-12T09:57:59Z</time>
      </trkpt>
      <trkpt lat="42.98625" lon="-0.24225">
        <ele>1465.1</ele>
        <time>2015-03-12T09:58:00Z</time>
      </trkpt>
      <trkpt lat="42.98626" lon="-0.24231">
        <ele>1464.5</ele>
        <time>2015-03-12T09:58:01Z</time>
      </trkpt>
      <trkpt lat="42.98626" lon="-0.24243">
        <ele>1463.7</ele>
        <time>2015-03-12T09:58:03Z</time>
      </trkpt>
      <trkpt lat="42.98627" lon="-0.24254">
        <ele>1463</ele>
        <time>2015-03-12T09:58:05Z</time>
      </trkpt>
      <trkpt lat="42.98626" lon="-0.24261">
        <ele>1462.7</ele>
        <time>2015-03-12T09:58:06Z</time>
      </trkpt>
      <trkpt lat="42.98626" lon="-0.24267">
        <ele>1462.4</ele>
        <time>2015-03-12T09:58:07Z</time>
      </trkpt>
      <trkpt lat="42.98625" lon="-0.24274">
        <ele>1461.4</ele>
        <time>2015-03-12T09:58:08Z</time>
      </trkpt>
      <trkpt lat="42.98625" lon="-0.24281">
        <ele>1460.6</ele>
        <time>2015-03-12T09:58:09Z</time>
      </trkpt>
      <trkpt lat="42.98624" lon="-0.24287">
        <ele>1460.1</ele>
        <time>2015-03-12T09:58:10Z</time>
      </trkpt>
      <trkpt lat="42.98624" lon="-0.24294">
        <ele>1459.4</ele>
        <time>2015-03-12T09:58:11Z</time>
      </trkpt>
      <trkpt lat="42.98623" lon="-0.24301">
        <ele>1458.9</ele>
        <time>2015-03-12T09:58:12Z</time>
      </trkpt>
      <trkpt lat="42.98622" lon="-0.24307">
        <ele>1458.6</ele>
        <time>2015-03-12T09:58:13Z</time>
      </trkpt>
      <trkpt lat="42.98622" lon="-0.24315">
        <ele>1458.1</ele>
        <time>2015-03-12T09:58:14Z</time>
      </trkpt>
      <trkpt lat="42.98621" lon="-0.24322">
        <ele>1457.7</ele>
        <time>2015-03-12T09:58:15Z</time>
      </trkpt>
      <trkpt lat="42.9862" lon="-0.2433">
        <ele>1457.4</ele>
        <time>2015-03-12T09:58:16Z</time>
      </trkpt>
      <trkpt lat="42.98619" lon="-0.24337">
        <ele>1456.6</ele>
        <time>2015-03-12T09:58:17Z</time>
      </trkpt>
      <trkpt lat="42.98618" lon="-0.24344">
        <ele>1456</ele>
        <time>2015-03-12T09:58:18Z</time>
      </trkpt>
      <trkpt lat="42.98616" lon="-0.24351">
        <ele>1455.5</ele>
        <time>2015-03-12T09:58:19Z</time>
      </trkpt>
      <trkpt lat="42.98613" lon="-0.24362">
        <ele>1455.2</ele>
        <time>2015-03-12T09:58:21Z</time>
      </trkpt>
      <trkpt lat="42.98613" lon="-0.24371">
        <ele>1455.2</ele>
        <time>2015-03-12T09:58:23Z</time>
      </trkpt>
      <trkpt lat="42.98614" lon="-0.24379">
        <ele>1455.7</ele>
        <time>2015-03-12T09:58:25Z</time>
      </trkpt>
      <trkpt lat="42.98616" lon="-0.24389">
        <ele>1455.5</ele>
        <time>2015-03-12T09:58:27Z</time>
      </trkpt>
      <trkpt lat="42.98617" lon="-0.24399">
        <ele>1455.2</ele>
        <time>2015-03-12T09:58:29Z</time>
      </trkpt>
      <trkpt lat="42.98619" lon="-0.24408">
        <ele>1454.9</ele>
        <time>2015-03-12T09:58:31Z</time>
      </trkpt>
      <trkpt lat="42.9862" lon="-0.24418">
        <ele>1454.8</ele>
        <time>2015-03-12T09:58:33Z</time>
      </trkpt>
      <trkpt lat="42.98622" lon="-0.24427">
        <ele>1454.9</ele>
        <time>2015-03-12T09:58:35Z</time>
      </trkpt>
      <trkpt lat="42.98624" lon="-0.24439">
        <ele>1455.3</ele>
        <time>2015-03-12T09:58:38Z</time>
      </trkpt>
      <trkpt lat="42.98626" lon="-0.2445">
        <ele>1456</ele>
        <time>2015-03-12T09:58:42Z</time>
      </trkpt>
      <trkpt lat="42.98627" lon="-0.24461">
        <ele>1455.4</ele>
        <time>2015-03-12T09:58:47Z</time>
      </trkpt>
      <trkpt lat="42.98628" lon="-0.24473">
        <ele>1456.5</ele>
        <time>2015-03-12T09:58:52Z</time>
      </trkpt>
      <trkpt lat="42.98626" lon="-0.24484">
        <ele>1457.2</ele>
        <time>2015-03-12T09:59:22Z</time>
      </trkpt>
      <trkpt lat="42.98626" lon="-0.24486">
        <ele>1457.2</ele>
        <time>2015-03-12T09:59:23Z</time>
      </trkpt>
      <trkpt lat="42.98626" lon="-0.24507">
        <ele>1457.3</ele>
        <time>2015-03-12T09:59:32Z</time>
      </trkpt>
      <trkpt lat="42.98628" lon="-0.24519">
        <ele>1457.8</ele>
        <time>2015-03-12T09:59:37Z</time>
      </trkpt>
      <trkpt lat="42.98629" lon="-0.2453">
        <ele>1458.2</ele>
        <time>2015-03-12T09:59:41Z</time>
      </trkpt>
      <trkpt lat="42.98629" lon="-0.24541">
        <ele>1458.5</ele>
        <time>2015-03-12T09:59:45Z</time>
      </trkpt>
      <trkpt lat="42.98628" lon="-0.24553">
        <ele>1458.3</ele>
        <time>2015-03-12T09:59:50Z</time>
      </trkpt>
      <trkpt lat="42.98627" lon="-0.24563">
        <ele>1459.2</ele>
        <time>2015-03-12T09:59:55Z</time>
      </trkpt>
      <trkpt lat="42.98623" lon="-0.24573">
        <ele>1460</ele>
        <time>2015-03-12T10:00:00Z</time>
      </trkpt>
      <trkpt lat="42.98618" lon="-0.24582">
        <ele>1460.3</ele>
        <time>2015-03-12T10:00:05Z</time>
      </trkpt>
      <trkpt lat="42.98612" lon="-0.24589">
        <ele>1460.3</ele>
        <time>2015-03-12T10:00:11Z</time>
      </trkpt>
      <trkpt lat="42.98605" lon="-0.24594">
        <ele>1460.2</ele>
        <time>2015-03-12T10:00:16Z</time>
      </trkpt>
      <trkpt lat="42.98597" lon="-0.24596">
        <ele>1461</ele>
        <time>2015-03-12T10:00:21Z</time>
      </trkpt>
      <trkpt lat="42.98589" lon="-0.24599">
        <ele>1462.7</ele>
        <time>2015-03-12T10:00:27Z</time>
      </trkpt>
      <trkpt lat="42.98587" lon="-0.24599">
        <ele>1462.5</ele>
        <time>2015-03-12T10:00:28Z</time>
      </trkpt>
      <trkpt lat="42.98572" lon="-0.24603">
        <ele>1464</ele>
        <time>2015-03-12T10:00:38Z</time>
      </trkpt>
      <trkpt lat="42.98563" lon="-0.24603">
        <ele>1463.9</ele>
        <time>2015-03-12T10:00:43Z</time>
      </trkpt>
      <trkpt lat="42.98556" lon="-0.24604">
        <ele>1464.4</ele>
        <time>2015-03-12T10:00:47Z</time>
      </trkpt>
      <trkpt lat="42.98547" lon="-0.24602">
        <ele>1465</ele>
        <time>2015-03-12T10:00:52Z</time>
      </trkpt>
      <trkpt lat="42.98539" lon="-0.24598">
        <ele>1465</ele>
        <time>2015-03-12T10:00:57Z</time>
      </trkpt>
      <trkpt lat="42.98533" lon="-0.24593">
        <ele>1465.8</ele>
        <time>2015-03-12T10:01:02Z</time>
      </trkpt>
      <trkpt lat="42.98527" lon="-0.24586">
        <ele>1467</ele>
        <time>2015-03-12T10:01:07Z</time>
      </trkpt>
      <trkpt lat="42.98522" lon="-0.24578">
        <ele>1468.3</ele>
        <time>2015-03-12T10:01:12Z</time>
      </trkpt>
      <trkpt lat="42.98516" lon="-0.24569">
        <ele>1468</ele>
        <time>2015-03-12T10:01:18Z</time>
      </trkpt>
      <trkpt lat="42.98511" lon="-0.2456">
        <ele>1469.3</ele>
        <time>2015-03-12T10:01:24Z</time>
      </trkpt>
      <trkpt lat="42.98505" lon="-0.24552">
        <ele>1471.1</ele>
        <time>2015-03-12T10:01:29Z</time>
      </trkpt>
      <trkpt lat="42.98505" lon="-0.24551">
        <ele>1471.3</ele>
        <time>2015-03-12T10:01:30Z</time>
      </trkpt>
      <trkpt lat="42.98494" lon="-0.24535">
        <ele>1473.3</ele>
        <time>2015-03-12T10:01:41Z</time>
      </trkpt>
      <trkpt lat="42.98488" lon="-0.24528">
        <ele>1473.4</ele>
        <time>2015-03-12T10:01:46Z</time>
      </trkpt>
      <trkpt lat="42.98482" lon="-0.2452">
        <ele>1473.3</ele>
        <time>2015-03-12T10:01:51Z</time>
      </trkpt>
      <trkpt lat="42.98475" lon="-0.24515">
        <ele>1474.3</ele>
        <time>2015-03-12T10:01:56Z</time>
      </trkpt>
      <trkpt lat="42.98468" lon="-0.24508">
        <ele>1475.2</ele>
        <time>2015-03-12T10:02:01Z</time>
      </trkpt>
      <trkpt lat="42.98461" lon="-0.24502">
        <ele>1475.9</ele>
        <time>2015-03-12T10:02:06Z</time>
      </trkpt>
      <trkpt lat="42.98454" lon="-0.24496">
        <ele>1476.9</ele>
        <time>2015-03-12T10:02:11Z</time>
      </trkpt>
      <trkpt lat="42.98447" lon="-0.24489">
        <ele>1476.7</ele>
        <time>2015-03-12T10:02:15Z</time>
      </trkpt>
      <trkpt lat="42.9844" lon="-0.24483">
        <ele>1476.1</ele>
        <time>2015-03-12T10:02:19Z</time>
      </trkpt>
      <trkpt lat="42.98434" lon="-0.24477">
        <ele>1476.7</ele>
        <time>2015-03-12T10:02:22Z</time>
      </trkpt>
      <trkpt lat="42.98427" lon="-0.24474">
        <ele>1476.8</ele>
        <time>2015-03-12T10:02:25Z</time>
      </trkpt>
      <trkpt lat="42.98419" lon="-0.24471">
        <ele>1475.8</ele>
        <time>2015-03-12T10:02:29Z</time>
      </trkpt>
      <trkpt lat="42.98411" lon="-0.24466">
        <ele>1476.9</ele>
        <time>2015-03-12T10:02:34Z</time>
      </trkpt>
      <trkpt lat="42.98409" lon="-0.24465">
        <ele>1477.3</ele>
        <time>2015-03-12T10:02:35Z</time>
      </trkpt>
      <trkpt lat="42.98396" lon="-0.24458">
        <ele>1478.1</ele>
        <time>2015-03-12T10:02:43Z</time>
      </trkpt>
      <trkpt lat="42.98388" lon="-0.24457">
        <ele>1478.5</ele>
        <time>2015-03-12T10:02:47Z</time>
      </trkpt>
      <trkpt lat="42.9838" lon="-0.24456">
        <ele>1479.4</ele>
        <time>2015-03-12T10:02:51Z</time>
      </trkpt>
      <trkpt lat="42.98372" lon="-0.24452">
        <ele>1479.1</ele>
        <time>2015-03-12T10:02:55Z</time>
      </trkpt>
      <trkpt lat="42.98364" lon="-0.2445">
        <ele>1478.8</ele>
        <time>2015-03-12T10:02:59Z</time>
      </trkpt>
      <trkpt lat="42.98358" lon="-0.24449">
        <ele>1478.8</ele>
        <time>2015-03-12T10:03:02Z</time>
      </trkpt>
      <trkpt lat="42.98349" lon="-0.24451">
        <ele>1478.6</ele>
        <time>2015-03-12T10:03:06Z</time>
      </trkpt>
      <trkpt lat="42.98342" lon="-0.24452">
        <ele>1479.4</ele>
        <time>2015-03-12T10:03:10Z</time>
      </trkpt>
      <trkpt lat="42.98333" lon="-0.24451">
        <ele>1480.3</ele>
        <time>2015-03-12T10:03:15Z</time>
      </trkpt>
      <trkpt lat="42.98325" lon="-0.24449">
        <ele>1480.6</ele>
        <time>2015-03-12T10:03:19Z</time>
      </trkpt>
      <trkpt lat="42.98319" lon="-0.24446">
        <ele>1480.7</ele>
        <time>2015-03-12T10:03:22Z</time>
      </trkpt>
      <trkpt lat="42.98314" lon="-0.24442">
        <ele>1480.8</ele>
        <time>2015-03-12T10:03:24Z</time>
      </trkpt>
      <trkpt lat="42.98309" lon="-0.24436">
        <ele>1481</ele>
        <time>2015-03-12T10:03:26Z</time>
      </trkpt>
      <trkpt lat="42.98304" lon="-0.2443">
        <ele>1481.1</ele>
        <time>2015-03-12T10:03:28Z</time>
      </trkpt>
      <trkpt lat="42.98299" lon="-0.24424">
        <ele>1480.6</ele>
        <time>2015-03-12T10:03:30Z</time>
      </trkpt>
      <trkpt lat="42.98291" lon="-0.2442">
        <ele>1479.9</ele>
        <time>2015-03-12T10:03:33Z</time>
      </trkpt>
      <trkpt lat="42.98283" lon="-0.24423">
        <ele>1479.7</ele>
        <time>2015-03-12T10:03:38Z</time>
      </trkpt>
      <trkpt lat="42.98282" lon="-0.24423">
        <ele>1479.7</ele>
        <time>2015-03-12T10:03:39Z</time>
      </trkpt>
      <trkpt lat="42.98271" lon="-0.24439">
        <ele>1481.8</ele>
        <time>2015-03-12T10:03:50Z</time>
      </trkpt>
      <trkpt lat="42.98266" lon="-0.24448">
        <ele>1482.4</ele>
        <time>2015-03-12T10:03:55Z</time>
      </trkpt>
      <trkpt lat="42.98261" lon="-0.24457">
        <ele>1483.1</ele>
        <time>2015-03-12T10:03:59Z</time>
      </trkpt>
      <trkpt lat="42.98254" lon="-0.24464">
        <ele>1482.8</ele>
        <time>2015-03-12T10:04:03Z</time>
      </trkpt>
      <trkpt lat="42.98247" lon="-0.2447">
        <ele>1483.2</ele>
        <time>2015-03-12T10:04:08Z</time>
      </trkpt>
      <trkpt lat="42.9824" lon="-0.24474">
        <ele>1484.3</ele>
        <time>2015-03-12T10:04:13Z</time>
      </trkpt>
      <trkpt lat="42.98233" lon="-0.24474">
        <ele>1485.1</ele>
        <time>2015-03-12T10:04:17Z</time>
      </trkpt>
      <trkpt lat="42.98225" lon="-0.24473">
        <ele>1484.3</ele>
        <time>2015-03-12T10:04:21Z</time>
      </trkpt>
      <trkpt lat="42.98217" lon="-0.24475">
        <ele>1484.9</ele>
        <time>2015-03-12T10:04:25Z</time>
      </trkpt>
      <trkpt lat="42.9821" lon="-0.24477">
        <ele>1484.2</ele>
        <time>2015-03-12T10:04:30Z</time>
      </trkpt>
      <trkpt lat="42.98202" lon="-0.2448">
        <ele>1486.6</ele>
        <time>2015-03-12T10:04:35Z</time>
      </trkpt>
      <trkpt lat="42.98195" lon="-0.24483">
        <ele>1486.9</ele>
        <time>2015-03-12T10:04:40Z</time>
      </trkpt>
      <trkpt lat="42.98193" lon="-0.24484">
        <ele>1487.4</ele>
        <time>2015-03-12T10:04:41Z</time>
      </trkpt>
      <trkpt lat="42.98178" lon="-0.2449">
        <ele>1487.6</ele>
        <time>2015-03-12T10:04:50Z</time>
      </trkpt>
      <trkpt lat="42.9817" lon="-0.24494">
        <ele>1488.1</ele>
        <time>2015-03-12T10:04:55Z</time>
      </trkpt>
      <trkpt lat="42.98162" lon="-0.24499">
        <ele>1488.2</ele>
        <time>2015-03-12T10:05:00Z</time>
      </trkpt>
      <trkpt lat="42.98155" lon="-0.24504">
        <ele>1488.7</ele>
        <time>2015-03-12T10:05:05Z</time>
      </trkpt>
      <trkpt lat="42.98148" lon="-0.24508">
        <ele>1489.4</ele>
        <time>2015-03-12T10:05:09Z</time>
      </trkpt>
      <trkpt lat="42.98141" lon="-0.24515">
        <ele>1489.8</ele>
        <time>2015-03-12T10:05:14Z</time>
      </trkpt>
      <trkpt lat="42.98134" lon="-0.24522">
        <ele>1490.3</ele>
        <time>2015-03-12T10:05:19Z</time>
      </trkpt>
      <trkpt lat="42.98128" lon="-0.2453">
        <ele>1490.1</ele>
        <time>2015-03-12T10:05:24Z</time>
      </trkpt>
      <trkpt lat="42.98123" lon="-0.24538">
        <ele>1491.4</ele>
        <time>2015-03-12T10:05:29Z</time>
      </trkpt>
      <trkpt lat="42.98118" lon="-0.24547">
        <ele>1493</ele>
        <time>2015-03-12T10:05:34Z</time>
      </trkpt>
      <trkpt lat="42.98112" lon="-0.24556">
        <ele>1493.9</ele>
        <time>2015-03-12T10:05:40Z</time>
      </trkpt>
      <trkpt lat="42.98107" lon="-0.24564">
        <ele>1494.4</ele>
        <time>2015-03-12T10:05:45Z</time>
      </trkpt>
      <trkpt lat="42.98106" lon="-0.24565">
        <ele>1494.4</ele>
        <time>2015-03-12T10:05:46Z</time>
      </trkpt>
      <trkpt lat="42.98094" lon="-0.24581">
        <ele>1495.8</ele>
        <time>2015-03-12T10:05:55Z</time>
      </trkpt>
      <trkpt lat="42.98089" lon="-0.24589">
        <ele>1496</ele>
        <time>2015-03-12T10:06:00Z</time>
      </trkpt>
      <trkpt lat="42.98083" lon="-0.24597">
        <ele>1496.5</ele>
        <time>2015-03-12T10:06:05Z</time>
      </trkpt>
      <trkpt lat="42.98078" lon="-0.24605">
        <ele>1496.8</ele>
        <time>2015-03-12T10:06:10Z</time>
      </trkpt>
      <trkpt lat="42.98074" lon="-0.24615">
        <ele>1497.8</ele>
        <time>2015-03-12T10:06:15Z</time>
      </trkpt>
      <trkpt lat="42.9807" lon="-0.24626">
        <ele>1497.7</ele>
        <time>2015-03-12T10:06:20Z</time>
      </trkpt>
      <trkpt lat="42.98068" lon="-0.24636">
        <ele>1497.3</ele>
        <time>2015-03-12T10:06:25Z</time>
      </trkpt>
      <trkpt lat="42.98065" lon="-0.24646">
        <ele>1499.3</ele>
        <time>2015-03-12T10:06:31Z</time>
      </trkpt>
      <trkpt lat="42.98063" lon="-0.24656">
        <ele>1500.6</ele>
        <time>2015-03-12T10:06:37Z</time>
      </trkpt>
      <trkpt lat="42.98063" lon="-0.24666">
        <ele>1501.7</ele>
        <time>2015-03-12T10:06:42Z</time>
      </trkpt>
      <trkpt lat="42.98063" lon="-0.24677">
        <ele>1502.6</ele>
        <time>2015-03-12T10:06:47Z</time>
      </trkpt>
      <trkpt lat="42.98063" lon="-0.2468">
        <ele>1502.8</ele>
        <time>2015-03-12T10:06:48Z</time>
      </trkpt>
      <trkpt lat="42.98058" lon="-0.24699">
        <ele>1504.6</ele>
        <time>2015-03-12T10:06:58Z</time>
      </trkpt>
      <trkpt lat="42.98052" lon="-0.2469">
        <ele>1505</ele>
        <time>2015-03-12T10:07:07Z</time>
      </trkpt>
      <trkpt lat="42.98051" lon="-0.24679">
        <ele>1506.9</ele>
        <time>2015-03-12T10:07:15Z</time>
      </trkpt>
      <trkpt lat="42.9805" lon="-0.24667">
        <ele>1507</ele>
        <time>2015-03-12T10:07:22Z</time>
      </trkpt>
      <trkpt lat="42.98049" lon="-0.24656">
        <ele>1508.6</ele>
        <time>2015-03-12T10:07:29Z</time>
      </trkpt>
      <trkpt lat="42.98046" lon="-0.24644">
        <ele>1509.2</ele>
        <time>2015-03-12T10:07:36Z</time>
      </trkpt>
      <trkpt lat="42.98045" lon="-0.24633">
        <ele>1511</ele>
        <time>2015-03-12T10:07:42Z</time>
      </trkpt>
      <trkpt lat="42.98044" lon="-0.24622">
        <ele>1511.4</ele>
        <time>2015-03-12T10:07:48Z</time>
      </trkpt>
      <trkpt lat="42.98044" lon="-0.2462">
        <ele>1511.3</ele>
        <time>2015-03-12T10:07:49Z</time>
      </trkpt>
      <trkpt lat="42.98044" lon="-0.24598">
        <ele>1511.6</ele>
        <time>2015-03-12T10:08:00Z</time>
      </trkpt>
      <trkpt lat="42.98046" lon="-0.24588">
        <ele>1512.9</ele>
        <time>2015-03-12T10:08:04Z</time>
      </trkpt>
      <trkpt lat="42.98049" lon="-0.2458">
        <ele>1513.1</ele>
        <time>2015-03-12T10:08:07Z</time>
      </trkpt>
      <trkpt lat="42.98054" lon="-0.24571">
        <ele>1512.9</ele>
        <time>2015-03-12T10:08:10Z</time>
      </trkpt>
      <trkpt lat="42.98059" lon="-0.24562">
        <ele>1513</ele>
        <time>2015-03-12T10:08:14Z</time>
      </trkpt>
      <trkpt lat="42.98062" lon="-0.24553">
        <ele>1513</ele>
        <time>2015-03-12T10:08:19Z</time>
      </trkpt>
      <trkpt lat="42.98064" lon="-0.24542">
        <ele>1514</ele>
        <time>2015-03-12T10:08:25Z</time>
      </trkpt>
      <trkpt lat="42.98063" lon="-0.2453">
        <ele>1515.2</ele>
        <time>2015-03-12T10:08:32Z</time>
      </trkpt>
      <trkpt lat="42.98062" lon="-0.2452">
        <ele>1516.5</ele>
        <time>2015-03-12T10:08:38Z</time>
      </trkpt>
      <trkpt lat="42.98059" lon="-0.2451">
        <ele>1518.1</ele>
        <time>2015-03-12T10:08:43Z</time>
      </trkpt>
      <trkpt lat="42.98056" lon="-0.24499">
        <ele>1517.8</ele>
        <time>2015-03-12T10:08:47Z</time>
      </trkpt>
      <trkpt lat="42.98056" lon="-0.24488">
        <ele>1518.2</ele>
        <time>2015-03-12T10:08:51Z</time>
      </trkpt>
      <trkpt lat="42.98057" lon="-0.24485">
        <ele>1518.4</ele>
        <time>2015-03-12T10:08:52Z</time>
      </trkpt>
      <trkpt lat="42.98065" lon="-0.24472">
        <ele>1518.1</ele>
        <time>2015-03-12T10:08:58Z</time>
      </trkpt>
      <trkpt lat="42.98072" lon="-0.24463">
        <ele>1519.2</ele>
        <time>2015-03-12T10:09:05Z</time>
      </trkpt>
      <trkpt lat="42.98079" lon="-0.24457">
        <ele>1519.3</ele>
        <time>2015-03-12T10:09:11Z</time>
      </trkpt>
      <trkpt lat="42.98086" lon="-0.24452">
        <ele>1520.8</ele>
        <time>2015-03-12T10:09:16Z</time>
      </trkpt>
      <trkpt lat="42.98093" lon="-0.24449">
        <ele>1521.8</ele>
        <time>2015-03-12T10:09:20Z</time>
      </trkpt>
      <trkpt lat="42.98101" lon="-0.24446">
        <ele>1521.8</ele>
        <time>2015-03-12T10:09:24Z</time>
      </trkpt>
      <trkpt lat="42.98108" lon="-0.24442">
        <ele>1521.6</ele>
        <time>2015-03-12T10:09:29Z</time>
      </trkpt>
      <trkpt lat="42.98116" lon="-0.24438">
        <ele>1522.6</ele>
        <time>2015-03-12T10:09:34Z</time>
      </trkpt>
      <trkpt lat="42.98123" lon="-0.24435">
        <ele>1523.4</ele>
        <time>2015-03-12T10:09:39Z</time>
      </trkpt>
      <trkpt lat="42.9813" lon="-0.24431">
        <ele>1524.3</ele>
        <time>2015-03-12T10:09:44Z</time>
      </trkpt>
      <trkpt lat="42.98137" lon="-0.24425">
        <ele>1523.6</ele>
        <time>2015-03-12T10:09:49Z</time>
      </trkpt>
      <trkpt lat="42.98141" lon="-0.24416">
        <ele>1524.8</ele>
        <time>2015-03-12T10:09:55Z</time>
      </trkpt>
      <trkpt lat="42.98142" lon="-0.24414">
        <ele>1525.1</ele>
        <time>2015-03-12T10:09:56Z</time>
      </trkpt>
      <trkpt lat="42.98144" lon="-0.24393">
        <ele>1527.4</ele>
        <time>2015-03-12T10:10:07Z</time>
      </trkpt>
      <trkpt lat="42.98146" lon="-0.24382">
        <ele>1528.2</ele>
        <time>2015-03-12T10:10:12Z</time>
      </trkpt>
      <trkpt lat="42.9815" lon="-0.24372">
        <ele>1528.1</ele>
        <time>2015-03-12T10:10:17Z</time>
      </trkpt>
      <trkpt lat="42.98155" lon="-0.24363">
        <ele>1528.7</ele>
        <time>2015-03-12T10:10:22Z</time>
      </trkpt>
      <trkpt lat="42.98161" lon="-0.24354">
        <ele>1528.9</ele>
        <time>2015-03-12T10:10:28Z</time>
      </trkpt>
      <trkpt lat="42.98168" lon="-0.24346">
        <ele>1529</ele>
        <time>2015-03-12T10:10:34Z</time>
      </trkpt>
      <trkpt lat="42.98174" lon="-0.24338">
        <ele>1530.3</ele>
        <time>2015-03-12T10:10:40Z</time>
      </trkpt>
      <trkpt lat="42.98181" lon="-0.24331">
        <ele>1530.6</ele>
        <time>2015-03-12T10:10:46Z</time>
      </trkpt>
      <trkpt lat="42.98187" lon="-0.24323">
        <ele>1531.8</ele>
        <time>2015-03-12T10:10:52Z</time>
      </trkpt>
      <trkpt lat="42.98194" lon="-0.24318">
        <ele>1532.6</ele>
        <time>2015-03-12T10:10:57Z</time>
      </trkpt>
      <trkpt lat="42.98195" lon="-0.24316">
        <ele>1532.7</ele>
        <time>2015-03-12T10:10:58Z</time>
      </trkpt>
      <trkpt lat="42.98206" lon="-0.24303">
        <ele>1533.8</ele>
        <time>2015-03-12T10:11:07Z</time>
      </trkpt>
      <trkpt lat="42.98212" lon="-0.24295">
        <ele>1533.8</ele>
        <time>2015-03-12T10:11:12Z</time>
      </trkpt>
      <trkpt lat="42.98217" lon="-0.24285">
        <ele>1533.9</ele>
        <time>2015-03-12T10:11:18Z</time>
      </trkpt>
      <trkpt lat="42.98221" lon="-0.24276">
        <ele>1534.6</ele>
        <time>2015-03-12T10:11:23Z</time>
      </trkpt>
      <trkpt lat="42.98224" lon="-0.24267">
        <ele>1535.7</ele>
        <time>2015-03-12T10:11:28Z</time>
      </trkpt>
      <trkpt lat="42.98227" lon="-0.24256">
        <ele>1536.2</ele>
        <time>2015-03-12T10:11:33Z</time>
      </trkpt>
      <trkpt lat="42.98229" lon="-0.24245">
        <ele>1536.2</ele>
        <time>2015-03-12T10:11:39Z</time>
      </trkpt>
      <trkpt lat="42.98232" lon="-0.24235">
        <ele>1536.7</ele>
        <time>2015-03-12T10:11:44Z</time>
      </trkpt>
      <trkpt lat="42.98235" lon="-0.24224">
        <ele>1537.9</ele>
        <time>2015-03-12T10:11:49Z</time>
      </trkpt>
      <trkpt lat="42.98238" lon="-0.24214">
        <ele>1536.9</ele>
        <time>2015-03-12T10:11:54Z</time>
      </trkpt>
      <trkpt lat="42.98241" lon="-0.24204">
        <ele>1538.5</ele>
        <time>2015-03-12T10:11:59Z</time>
      </trkpt>
      <trkpt lat="42.98242" lon="-0.24202">
        <ele>1538.7</ele>
        <time>2015-03-12T10:12:00Z</time>
      </trkpt>
      <trkpt lat="42.9825" lon="-0.24183">
        <ele>1540.3</ele>
        <time>2015-03-12T10:12:11Z</time>
      </trkpt>
      <trkpt lat="42.98255" lon="-0.24174">
        <ele>1540.7</ele>
        <time>2015-03-12T10:12:16Z</time>
      </trkpt>
      <trkpt lat="42.98259" lon="-0.24164">
        <ele>1541.6</ele>
        <time>2015-03-12T10:12:22Z</time>
      </trkpt>
      <trkpt lat="42.98263" lon="-0.24153">
        <ele>1541.2</ele>
        <time>2015-03-12T10:12:28Z</time>
      </trkpt>
      <trkpt lat="42.98267" lon="-0.24144">
        <ele>1542.5</ele>
        <time>2015-03-12T10:12:34Z</time>
      </trkpt>
      <trkpt lat="42.98273" lon="-0.24134">
        <ele>1543.5</ele>
        <time>2015-03-12T10:12:40Z</time>
      </trkpt>
      <trkpt lat="42.98265" lon="-0.24129">
        <ele>1545.1</ele>
        <time>2015-03-12T10:12:53Z</time>
      </trkpt>
      <trkpt lat="42.98261" lon="-0.24137">
        <ele>1544.3</ele>
        <time>2015-03-12T10:12:58Z</time>
      </trkpt>
      <trkpt lat="42.98257" lon="-0.24147">
        <ele>1544.8</ele>
        <time>2015-03-12T10:13:02Z</time>
      </trkpt>
      <trkpt lat="42.98257" lon="-0.24149">
        <ele>1544.6</ele>
        <time>2015-03-12T10:13:03Z</time>
      </trkpt>
      <trkpt lat="42.98248" lon="-0.24165">
        <ele>1544.4</ele>
        <time>2015-03-12T10:13:12Z</time>
      </trkpt>
      <trkpt lat="42.98244" lon="-0.24173">
        <ele>1544.2</ele>
        <time>2015-03-12T10:13:16Z</time>
      </trkpt>
      <trkpt lat="42.9824" lon="-0.24183">
        <ele>1544.1</ele>
        <time>2015-03-12T10:13:19Z</time>
      </trkpt>
      <trkpt lat="42.98237" lon="-0.24191">
        <ele>1544.2</ele>
        <time>2015-03-12T10:13:21Z</time>
      </trkpt>
      <trkpt lat="42.98233" lon="-0.24201">
        <ele>1544.1</ele>
        <time>2015-03-12T10:13:24Z</time>
      </trkpt>
      <trkpt lat="42.98229" lon="-0.24212">
        <ele>1543.4</ele>
        <time>2015-03-12T10:13:27Z</time>
      </trkpt>
      <trkpt lat="42.98226" lon="-0.24223">
        <ele>1542.9</ele>
        <time>2015-03-12T10:13:30Z</time>
      </trkpt>
      <trkpt lat="42.98223" lon="-0.24234">
        <ele>1542.7</ele>
        <time>2015-03-12T10:13:33Z</time>
      </trkpt>
      <trkpt lat="42.98221" lon="-0.24241">
        <ele>1542.2</ele>
        <time>2015-03-12T10:13:35Z</time>
      </trkpt>
      <trkpt lat="42.98218" lon="-0.24249">
        <ele>1542</ele>
        <time>2015-03-12T10:13:37Z</time>
      </trkpt>
      <trkpt lat="42.98215" lon="-0.24256">
        <ele>1542</ele>
        <time>2015-03-12T10:13:39Z</time>
      </trkpt>
      <trkpt lat="42.98211" lon="-0.24263">
        <ele>1541.6</ele>
        <time>2015-03-12T10:13:41Z</time>
      </trkpt>
      <trkpt lat="42.98206" lon="-0.2427">
        <ele>1541.3</ele>
        <time>2015-03-12T10:13:43Z</time>
      </trkpt>
      <trkpt lat="42.98202" lon="-0.24277">
        <ele>1541</ele>
        <time>2015-03-12T10:13:45Z</time>
      </trkpt>
      <trkpt lat="42.98197" lon="-0.24283">
        <ele>1540.6</ele>
        <time>2015-03-12T10:13:47Z</time>
      </trkpt>
      <trkpt lat="42.98192" lon="-0.24289">
        <ele>1540.3</ele>
        <time>2015-03-12T10:13:49Z</time>
      </trkpt>
      <trkpt lat="42.98184" lon="-0.24296">
        <ele>1539.9</ele>
        <time>2015-03-12T10:13:52Z</time>
      </trkpt>
      <trkpt lat="42.98177" lon="-0.24302">
        <ele>1539.3</ele>
        <time>2015-03-12T10:13:55Z</time>
      </trkpt>
      <trkpt lat="42.98172" lon="-0.24307">
        <ele>1539.4</ele>
        <time>2015-03-12T10:13:57Z</time>
      </trkpt>
      <trkpt lat="42.98166" lon="-0.24313">
        <ele>1539.4</ele>
        <time>2015-03-12T10:13:59Z</time>
      </trkpt>
      <trkpt lat="42.9816" lon="-0.2432">
        <ele>1539.5</ele>
        <time>2015-03-12T10:14:01Z</time>
      </trkpt>
      <trkpt lat="42.98155" lon="-0.24326">
        <ele>1539.3</ele>
        <time>2015-03-12T10:14:03Z</time>
      </trkpt>
      <trkpt lat="42.98149" lon="-0.24333">
        <ele>1539.1</ele>
        <time>2015-03-12T10:14:05Z</time>
      </trkpt>
      <trkpt lat="42.98147" lon="-0.24336">
        <ele>1539.1</ele>
        <time>2015-03-12T10:14:06Z</time>
      </trkpt>
      <trkpt lat="42.98139" lon="-0.24345">
        <ele>1538.6</ele>
        <time>2015-03-12T10:14:09Z</time>
      </trkpt>
      <trkpt lat="42.98133" lon="-0.24352">
        <ele>1538.1</ele>
        <time>2015-03-12T10:14:11Z</time>
      </trkpt>
      <trkpt lat="42.98127" lon="-0.24358">
        <ele>1537.7</ele>
        <time>2015-03-12T10:14:13Z</time>
      </trkpt>
      <trkpt lat="42.98122" lon="-0.24364">
        <ele>1537.6</ele>
        <time>2015-03-12T10:14:15Z</time>
      </trkpt>
      <trkpt lat="42.98117" lon="-0.2437">
        <ele>1537.6</ele>
        <time>2015-03-12T10:14:17Z</time>
      </trkpt>
      <trkpt lat="42.9811" lon="-0.24377">
        <ele>1538.2</ele>
        <time>2015-03-12T10:14:20Z</time>
      </trkpt>
      <trkpt lat="42.98105" lon="-0.24382">
        <ele>1537.8</ele>
        <time>2015-03-12T10:14:22Z</time>
      </trkpt>
      <trkpt lat="42.981" lon="-0.24387">
        <ele>1537.2</ele>
        <time>2015-03-12T10:14:24Z</time>
      </trkpt>
      <trkpt lat="42.98094" lon="-0.24392">
        <ele>1536.7</ele>
        <time>2015-03-12T10:14:26Z</time>
      </trkpt>
      <trkpt lat="42.98088" lon="-0.24396">
        <ele>1536.5</ele>
        <time>2015-03-12T10:14:28Z</time>
      </trkpt>
      <trkpt lat="42.98082" lon="-0.244">
        <ele>1536.6</ele>
        <time>2015-03-12T10:14:30Z</time>
      </trkpt>
      <trkpt lat="42.98076" lon="-0.24404">
        <ele>1535.9</ele>
        <time>2015-03-12T10:14:32Z</time>
      </trkpt>
      <trkpt lat="42.98069" lon="-0.24408">
        <ele>1535.8</ele>
        <time>2015-03-12T10:14:34Z</time>
      </trkpt>
      <trkpt lat="42.98063" lon="-0.24413">
        <ele>1536</ele>
        <time>2015-03-12T10:14:36Z</time>
      </trkpt>
      <trkpt lat="42.98057" lon="-0.2442">
        <ele>1535.1</ele>
        <time>2015-03-12T10:14:38Z</time>
      </trkpt>
      <trkpt lat="42.98051" lon="-0.24427">
        <ele>1534.6</ele>
        <time>2015-03-12T10:14:40Z</time>
      </trkpt>
      <trkpt lat="42.98045" lon="-0.24434">
        <ele>1534.8</ele>
        <time>2015-03-12T10:14:42Z</time>
      </trkpt>
      <trkpt lat="42.9804" lon="-0.24442">
        <ele>1534.7</ele>
        <time>2015-03-12T10:14:44Z</time>
      </trkpt>
      <trkpt lat="42.98034" lon="-0.2445">
        <ele>1534.5</ele>
        <time>2015-03-12T10:14:46Z</time>
      </trkpt>
      <trkpt lat="42.9803" lon="-0.24459">
        <ele>1533.9</ele>
        <time>2015-03-12T10:14:48Z</time>
      </trkpt>
      <trkpt lat="42.98027" lon="-0.24468">
        <ele>1533.7</ele>
        <time>2015-03-12T10:14:50Z</time>
      </trkpt>
      <trkpt lat="42.98025" lon="-0.24476">
        <ele>1533.7</ele>
        <time>2015-03-12T10:14:52Z</time>
      </trkpt>
      <trkpt lat="42.98024" lon="-0.24487">
        <ele>1533.7</ele>
        <time>2015-03-12T10:14:55Z</time>
      </trkpt>
      <trkpt lat="42.98024" lon="-0.245">
        <ele>1532.6</ele>
        <time>2015-03-12T10:14:58Z</time>
      </trkpt>
      <trkpt lat="42.98024" lon="-0.24511">
        <ele>1532.9</ele>
        <time>2015-03-12T10:15:01Z</time>
      </trkpt>
      <trkpt lat="42.98024" lon="-0.24521">
        <ele>1532.7</ele>
        <time>2015-03-12T10:15:04Z</time>
      </trkpt>
      <trkpt lat="42.98024" lon="-0.24531">
        <ele>1532.4</ele>
        <time>2015-03-12T10:15:07Z</time>
      </trkpt>
      <trkpt lat="42.98024" lon="-0.24535">
        <ele>1532.3</ele>
        <time>2015-03-12T10:15:08Z</time>
      </trkpt>
      <trkpt lat="42.98022" lon="-0.24552">
        <ele>1532.4</ele>
        <time>2015-03-12T10:15:13Z</time>
      </trkpt>
      <trkpt lat="42.9802" lon="-0.24564">
        <ele>1532.5</ele>
        <time>2015-03-12T10:15:17Z</time>
      </trkpt>
      <trkpt lat="42.98018" lon="-0.24573">
        <ele>1532.6</ele>
        <time>2015-03-12T10:15:20Z</time>
      </trkpt>
      <trkpt lat="42.98016" lon="-0.24584">
        <ele>1531.8</ele>
        <time>2015-03-12T10:15:24Z</time>
      </trkpt>
      <trkpt lat="42.98014" lon="-0.24594">
        <ele>1531.9</ele>
        <time>2015-03-12T10:15:28Z</time>
      </trkpt>
      <trkpt lat="42.98013" lon="-0.24603">
        <ele>1531.8</ele>
        <time>2015-03-12T10:15:31Z</time>
      </trkpt>
      <trkpt lat="42.98012" lon="-0.24611">
        <ele>1531.8</ele>
        <time>2015-03-12T10:15:33Z</time>
      </trkpt>
      <trkpt lat="42.9801" lon="-0.2462">
        <ele>1532.2</ele>
        <time>2015-03-12T10:15:35Z</time>
      </trkpt>
      <trkpt lat="42.98009" lon="-0.24629">
        <ele>1532.8</ele>
        <time>2015-03-12T10:15:37Z</time>
      </trkpt>
      <trkpt lat="42.98008" lon="-0.24638">
        <ele>1532.2</ele>
        <time>2015-03-12T10:15:39Z</time>
      </trkpt>
      <trkpt lat="42.98005" lon="-0.24645">
        <ele>1531.5</ele>
        <time>2015-03-12T10:15:41Z</time>
      </trkpt>
      <trkpt lat="42.98" lon="-0.24654">
        <ele>1530.7</ele>
        <time>2015-03-12T10:15:44Z</time>
      </trkpt>
      <trkpt lat="42.97994" lon="-0.24661">
        <ele>1530.6</ele>
        <time>2015-03-12T10:15:48Z</time>
      </trkpt>
      <trkpt lat="42.97987" lon="-0.24668">
        <ele>1530.4</ele>
        <time>2015-03-12T10:15:52Z</time>
      </trkpt>
      <trkpt lat="42.9798" lon="-0.24674">
        <ele>1530.5</ele>
        <time>2015-03-12T10:15:56Z</time>
      </trkpt>
      <trkpt lat="42.97973" lon="-0.2468">
        <ele>1530.4</ele>
        <time>2015-03-12T10:16:00Z</time>
      </trkpt>
      <trkpt lat="42.97966" lon="-0.24686">
        <ele>1530.1</ele>
        <time>2015-03-12T10:16:03Z</time>
      </trkpt>
      <trkpt lat="42.9796" lon="-0.24689">
        <ele>1530</ele>
        <time>2015-03-12T10:16:05Z</time>
      </trkpt>
      <trkpt lat="42.97953" lon="-0.24692">
        <ele>1529.6</ele>
        <time>2015-03-12T10:16:07Z</time>
      </trkpt>
      <trkpt lat="42.97946" lon="-0.24694">
        <ele>1529</ele>
        <time>2015-03-12T10:16:09Z</time>
      </trkpt>
      <trkpt lat="42.97942" lon="-0.24696">
        <ele>1529</ele>
        <time>2015-03-12T10:16:10Z</time>
      </trkpt>
      <trkpt lat="42.97932" lon="-0.24699">
        <ele>1528.7</ele>
        <time>2015-03-12T10:16:13Z</time>
      </trkpt>
      <trkpt lat="42.97925" lon="-0.24701">
        <ele>1528.4</ele>
        <time>2015-03-12T10:16:15Z</time>
      </trkpt>
      <trkpt lat="42.97916" lon="-0.24704">
        <ele>1528.2</ele>
        <time>2015-03-12T10:16:18Z</time>
      </trkpt>
      <trkpt lat="42.97908" lon="-0.24706">
        <ele>1528.7</ele>
        <time>2015-03-12T10:16:21Z</time>
      </trkpt>
      <trkpt lat="42.97901" lon="-0.24711">
        <ele>1529.2</ele>
        <time>2015-03-12T10:16:24Z</time>
      </trkpt>
      <trkpt lat="42.97895" lon="-0.24718">
        <ele>1528.2</ele>
        <time>2015-03-12T10:16:28Z</time>
      </trkpt>
      <trkpt lat="42.97889" lon="-0.24724">
        <ele>1528.6</ele>
        <time>2015-03-12T10:16:31Z</time>
      </trkpt>
      <trkpt lat="42.97882" lon="-0.24731">
        <ele>1528.4</ele>
        <time>2015-03-12T10:16:34Z</time>
      </trkpt>
      <trkpt lat="42.97877" lon="-0.24736">
        <ele>1527.9</ele>
        <time>2015-03-12T10:16:36Z</time>
      </trkpt>
      <trkpt lat="42.97871" lon="-0.24741">
        <ele>1527.6</ele>
        <time>2015-03-12T10:16:38Z</time>
      </trkpt>
      <trkpt lat="42.97866" lon="-0.24745">
        <ele>1528</ele>
        <time>2015-03-12T10:16:40Z</time>
      </trkpt>
      <trkpt lat="42.9786" lon="-0.2475">
        <ele>1528.2</ele>
        <time>2015-03-12T10:16:42Z</time>
      </trkpt>
      <trkpt lat="42.97854" lon="-0.24754">
        <ele>1528.2</ele>
        <time>2015-03-12T10:16:44Z</time>
      </trkpt>
      <trkpt lat="42.97848" lon="-0.24759">
        <ele>1527.3</ele>
        <time>2015-03-12T10:16:46Z</time>
      </trkpt>
      <trkpt lat="42.97842" lon="-0.24763">
        <ele>1526.6</ele>
        <time>2015-03-12T10:16:48Z</time>
      </trkpt>
      <trkpt lat="42.97835" lon="-0.24766">
        <ele>1526.1</ele>
        <time>2015-03-12T10:16:50Z</time>
      </trkpt>
      <trkpt lat="42.97829" lon="-0.24768">
        <ele>1526</ele>
        <time>2015-03-12T10:16:52Z</time>
      </trkpt>
      <trkpt lat="42.97822" lon="-0.24769">
        <ele>1525.8</ele>
        <time>2015-03-12T10:16:55Z</time>
      </trkpt>
      <trkpt lat="42.97815" lon="-0.24767">
        <ele>1525.6</ele>
        <time>2015-03-12T10:16:58Z</time>
      </trkpt>
      <trkpt lat="42.97808" lon="-0.24764">
        <ele>1525.7</ele>
        <time>2015-03-12T10:17:01Z</time>
      </trkpt>
      <trkpt lat="42.978" lon="-0.24761">
        <ele>1526</ele>
        <time>2015-03-12T10:17:04Z</time>
      </trkpt>
      <trkpt lat="42.97792" lon="-0.24757">
        <ele>1525.6</ele>
        <time>2015-03-12T10:17:07Z</time>
      </trkpt>
      <trkpt lat="42.97786" lon="-0.24754">
        <ele>1525.4</ele>
        <time>2015-03-12T10:17:09Z</time>
      </trkpt>
      <trkpt lat="42.97779" lon="-0.24751">
        <ele>1524.9</ele>
        <time>2015-03-12T10:17:11Z</time>
      </trkpt>
      <trkpt lat="42.97775" lon="-0.2475">
        <ele>1524.5</ele>
        <time>2015-03-12T10:17:12Z</time>
      </trkpt>
      <trkpt lat="42.97766" lon="-0.24744">
        <ele>1523.9</ele>
        <time>2015-03-12T10:17:16Z</time>
      </trkpt>
      <trkpt lat="42.9776" lon="-0.24736">
        <ele>1522.9</ele>
        <time>2015-03-12T10:17:20Z</time>
      </trkpt>
      <trkpt lat="42.97755" lon="-0.24727">
        <ele>1523.4</ele>
        <time>2015-03-12T10:17:24Z</time>
      </trkpt>
      <trkpt lat="42.97751" lon="-0.24719">
        <ele>1524</ele>
        <time>2015-03-12T10:17:27Z</time>
      </trkpt>
      <trkpt lat="42.97746" lon="-0.24712">
        <ele>1524.3</ele>
        <time>2015-03-12T10:17:29Z</time>
      </trkpt>
      <trkpt lat="42.9774" lon="-0.24706">
        <ele>1523.4</ele>
        <time>2015-03-12T10:17:31Z</time>
      </trkpt>
      <trkpt lat="42.97733" lon="-0.24702">
        <ele>1522.4</ele>
        <time>2015-03-12T10:17:33Z</time>
      </trkpt>
      <trkpt lat="42.97726" lon="-0.247">
        <ele>1521.5</ele>
        <time>2015-03-12T10:17:35Z</time>
      </trkpt>
      <trkpt lat="42.97719" lon="-0.24697">
        <ele>1521.1</ele>
        <time>2015-03-12T10:17:37Z</time>
      </trkpt>
      <trkpt lat="42.97711" lon="-0.24694">
        <ele>1520.5</ele>
        <time>2015-03-12T10:17:40Z</time>
      </trkpt>
      <trkpt lat="42.97704" lon="-0.24691">
        <ele>1520.3</ele>
        <time>2015-03-12T10:17:43Z</time>
      </trkpt>
      <trkpt lat="42.97696" lon="-0.24688">
        <ele>1520.3</ele>
        <time>2015-03-12T10:17:46Z</time>
      </trkpt>
      <trkpt lat="42.97688" lon="-0.24684">
        <ele>1520.5</ele>
        <time>2015-03-12T10:17:50Z</time>
      </trkpt>
      <trkpt lat="42.9768" lon="-0.24683">
        <ele>1521</ele>
        <time>2015-03-12T10:17:54Z</time>
      </trkpt>
      <trkpt lat="42.97674" lon="-0.24683">
        <ele>1520.9</ele>
        <time>2015-03-12T10:17:56Z</time>
      </trkpt>
      <trkpt lat="42.97668" lon="-0.24683">
        <ele>1520.8</ele>
        <time>2015-03-12T10:17:58Z</time>
      </trkpt>
      <trkpt lat="42.9766" lon="-0.24683">
        <ele>1520.6</ele>
        <time>2015-03-12T10:18:00Z</time>
      </trkpt>
      <trkpt lat="42.97653" lon="-0.24682">
        <ele>1520.5</ele>
        <time>2015-03-12T10:18:02Z</time>
      </trkpt>
      <trkpt lat="42.97647" lon="-0.24682">
        <ele>1520.4</ele>
        <time>2015-03-12T10:18:04Z</time>
      </trkpt>
      <trkpt lat="42.97639" lon="-0.24685">
        <ele>1519.9</ele>
        <time>2015-03-12T10:18:07Z</time>
      </trkpt>
      <trkpt lat="42.97633" lon="-0.2469">
        <ele>1519.7</ele>
        <time>2015-03-12T10:18:09Z</time>
      </trkpt>
      <trkpt lat="42.97627" lon="-0.24696">
        <ele>1519.7</ele>
        <time>2015-03-12T10:18:11Z</time>
      </trkpt>
      <trkpt lat="42.97622" lon="-0.24701">
        <ele>1519.7</ele>
        <time>2015-03-12T10:18:13Z</time>
      </trkpt>
      <trkpt lat="42.9762" lon="-0.24703">
        <ele>1519.5</ele>
        <time>2015-03-12T10:18:14Z</time>
      </trkpt>
      <trkpt lat="42.9761" lon="-0.24714">
        <ele>1518.7</ele>
        <time>2015-03-12T10:18:19Z</time>
      </trkpt>
      <trkpt lat="42.97604" lon="-0.24719">
        <ele>1518.8</ele>
        <time>2015-03-12T10:18:22Z</time>
      </trkpt>
      <trkpt lat="42.97596" lon="-0.24724">
        <ele>1519.4</ele>
        <time>2015-03-12T10:18:26Z</time>
      </trkpt>
      <trkpt lat="42.97589" lon="-0.24729">
        <ele>1519</ele>
        <time>2015-03-12T10:18:30Z</time>
      </trkpt>
      <trkpt lat="42.97582" lon="-0.24733">
        <ele>1519.2</ele>
        <time>2015-03-12T10:18:34Z</time>
      </trkpt>
      <trkpt lat="42.97575" lon="-0.24738">
        <ele>1519.4</ele>
        <time>2015-03-12T10:18:38Z</time>
      </trkpt>
      <trkpt lat="42.97569" lon="-0.24742">
        <ele>1519.9</ele>
        <time>2015-03-12T10:18:42Z</time>
      </trkpt>
      <trkpt lat="42.97562" lon="-0.24746">
        <ele>1520.3</ele>
        <time>2015-03-12T10:18:45Z</time>
      </trkpt>
      <trkpt lat="42.97555" lon="-0.24751">
        <ele>1520.2</ele>
        <time>2015-03-12T10:18:48Z</time>
      </trkpt>
      <trkpt lat="42.97547" lon="-0.24753">
        <ele>1520.2</ele>
        <time>2015-03-12T10:18:51Z</time>
      </trkpt>
      <trkpt lat="42.9754" lon="-0.24751">
        <ele>1520.4</ele>
        <time>2015-03-12T10:18:54Z</time>
      </trkpt>
      <trkpt lat="42.97534" lon="-0.24745">
        <ele>1520</ele>
        <time>2015-03-12T10:18:58Z</time>
      </trkpt>
      <trkpt lat="42.9753" lon="-0.24737">
        <ele>1519.6</ele>
        <time>2015-03-12T10:19:01Z</time>
      </trkpt>
      <trkpt lat="42.97523" lon="-0.24731">
        <ele>1519.8</ele>
        <time>2015-03-12T10:19:04Z</time>
      </trkpt>
      <trkpt lat="42.97517" lon="-0.24727">
        <ele>1519.1</ele>
        <time>2015-03-12T10:19:08Z</time>
      </trkpt>
      <trkpt lat="42.97508" lon="-0.24724">
        <ele>1520.1</ele>
        <time>2015-03-12T10:19:13Z</time>
      </trkpt>
      <trkpt lat="42.97499" lon="-0.24726">
        <ele>1519.9</ele>
        <time>2015-03-12T10:19:25Z</time>
      </trkpt>
      <trkpt lat="42.97498" lon="-0.24727">
        <ele>1520</ele>
        <time>2015-03-12T10:19:26Z</time>
      </trkpt>
      <trkpt lat="42.97484" lon="-0.2473">
        <ele>1520.7</ele>
        <time>2015-03-12T10:19:34Z</time>
      </trkpt>
      <trkpt lat="42.97476" lon="-0.24731">
        <ele>1521.3</ele>
        <time>2015-03-12T10:19:38Z</time>
      </trkpt>
      <trkpt lat="42.97469" lon="-0.24732">
        <ele>1520.8</ele>
        <time>2015-03-12T10:19:42Z</time>
      </trkpt>
      <trkpt lat="42.9746" lon="-0.24734">
        <ele>1522.4</ele>
        <time>2015-03-12T10:19:47Z</time>
      </trkpt>
      <trkpt lat="42.97453" lon="-0.24735">
        <ele>1523.3</ele>
        <time>2015-03-12T10:19:51Z</time>
      </trkpt>
      <trkpt lat="42.97445" lon="-0.24737">
        <ele>1524.1</ele>
        <time>2015-03-12T10:19:55Z</time>
      </trkpt>
      <trkpt lat="42.97437" lon="-0.24739">
        <ele>1523.7</ele>
        <time>2015-03-12T10:20:00Z</time>
      </trkpt>
      <trkpt lat="42.97429" lon="-0.24741">
        <ele>1524.1</ele>
        <time>2015-03-12T10:20:05Z</time>
      </trkpt>
      <trkpt lat="42.97422" lon="-0.24745">
        <ele>1525</ele>
        <time>2015-03-12T10:20:10Z</time>
      </trkpt>
      <trkpt lat="42.97414" lon="-0.2475">
        <ele>1526.5</ele>
        <time>2015-03-12T10:20:16Z</time>
      </trkpt>
      <trkpt lat="42.97406" lon="-0.24756">
        <ele>1527.9</ele>
        <time>2015-03-12T10:20:23Z</time>
      </trkpt>
      <trkpt lat="42.97399" lon="-0.2476">
        <ele>1529.2</ele>
        <time>2015-03-12T10:20:29Z</time>
      </trkpt>
      <trkpt lat="42.97398" lon="-0.24761">
        <ele>1529.4</ele>
        <time>2015-03-12T10:20:30Z</time>
      </trkpt>
      <trkpt lat="42.97383" lon="-0.24761">
        <ele>1529.8</ele>
        <time>2015-03-12T10:20:41Z</time>
      </trkpt>
      <trkpt lat="42.97375" lon="-0.24759">
        <ele>1530.1</ele>
        <time>2015-03-12T10:20:47Z</time>
      </trkpt>
      <trkpt lat="42.97366" lon="-0.24757">
        <ele>1531.5</ele>
        <time>2015-03-12T10:20:53Z</time>
      </trkpt>
      <trkpt lat="42.97359" lon="-0.24755">
        <ele>1532</ele>
        <time>2015-03-12T10:20:58Z</time>
      </trkpt>
      <trkpt lat="42.97351" lon="-0.24755">
        <ele>1533.1</ele>
        <time>2015-03-12T10:21:03Z</time>
      </trkpt>
      <trkpt lat="42.97343" lon="-0.24756">
        <ele>1534.4</ele>
        <time>2015-03-12T10:21:09Z</time>
      </trkpt>
      <trkpt lat="42.97335" lon="-0.24758">
        <ele>1535.7</ele>
        <time>2015-03-12T10:21:16Z</time>
      </trkpt>
      <trkpt lat="42.97328" lon="-0.24761">
        <ele>1536.5</ele>
        <time>2015-03-12T10:21:22Z</time>
      </trkpt>
      <trkpt lat="42.9732" lon="-0.24764">
        <ele>1536.3</ele>
        <time>2015-03-12T10:21:28Z</time>
      </trkpt>
      <trkpt lat="42.97311" lon="-0.24767">
        <ele>1537</ele>
        <time>2015-03-12T10:21:35Z</time>
      </trkpt>
      <trkpt lat="42.9731" lon="-0.24767">
        <ele>1537.1</ele>
        <time>2015-03-12T10:21:36Z</time>
      </trkpt>
      <trkpt lat="42.97296" lon="-0.24778">
        <ele>1537.8</ele>
        <time>2015-03-12T10:21:48Z</time>
      </trkpt>
      <trkpt lat="42.9729" lon="-0.24785">
        <ele>1538.4</ele>
        <time>2015-03-12T10:21:55Z</time>
      </trkpt>
      <trkpt lat="42.97285" lon="-0.24793">
        <ele>1538.8</ele>
        <time>2015-03-12T10:22:01Z</time>
      </trkpt>
      <trkpt lat="42.9728" lon="-0.24802">
        <ele>1539.7</ele>
        <time>2015-03-12T10:22:07Z</time>
      </trkpt>
      <trkpt lat="42.97274" lon="-0.24812">
        <ele>1539.6</ele>
        <time>2015-03-12T10:22:12Z</time>
      </trkpt>
      <trkpt lat="42.9727" lon="-0.2482">
        <ele>1541</ele>
        <time>2015-03-12T10:22:16Z</time>
      </trkpt>
      <trkpt lat="42.97265" lon="-0.24828">
        <ele>1541.6</ele>
        <time>2015-03-12T10:22:20Z</time>
      </trkpt>
      <trkpt lat="42.9726" lon="-0.24838">
        <ele>1541.2</ele>
        <time>2015-03-12T10:22:25Z</time>
      </trkpt>
      <trkpt lat="42.97256" lon="-0.24846">
        <ele>1540.8</ele>
        <time>2015-03-12T10:22:29Z</time>
      </trkpt>
      <trkpt lat="42.97251" lon="-0.24855">
        <ele>1541.2</ele>
        <time>2015-03-12T10:22:34Z</time>
      </trkpt>
      <trkpt lat="42.97245" lon="-0.24863">
        <ele>1541.8</ele>
        <time>2015-03-12T10:22:39Z</time>
      </trkpt>
      <trkpt lat="42.97244" lon="-0.24866">
        <ele>1542.1</ele>
        <time>2015-03-12T10:22:40Z</time>
      </trkpt>
      <trkpt lat="42.97232" lon="-0.24879">
        <ele>1542.5</ele>
        <time>2015-03-12T10:22:48Z</time>
      </trkpt>
      <trkpt lat="42.97226" lon="-0.24887">
        <ele>1542.8</ele>
        <time>2015-03-12T10:22:51Z</time>
      </trkpt>
      <trkpt lat="42.97221" lon="-0.24892">
        <ele>1542.3</ele>
        <time>2015-03-12T10:22:53Z</time>
      </trkpt>
      <trkpt lat="42.97216" lon="-0.24898">
        <ele>1542.1</ele>
        <time>2015-03-12T10:22:55Z</time>
      </trkpt>
      <trkpt lat="42.97211" lon="-0.24907">
        <ele>1542.1</ele>
        <time>2015-03-12T10:22:57Z</time>
      </trkpt>
      <trkpt lat="42.97206" lon="-0.24917">
        <ele>1541.1</ele>
        <time>2015-03-12T10:22:59Z</time>
      </trkpt>
      <trkpt lat="42.97203" lon="-0.24927">
        <ele>1540.9</ele>
        <time>2015-03-12T10:23:02Z</time>
      </trkpt>
      <trkpt lat="42.97201" lon="-0.24937">
        <ele>1541.6</ele>
        <time>2015-03-12T10:23:06Z</time>
      </trkpt>
      <trkpt lat="42.97199" lon="-0.24947">
        <ele>1541.9</ele>
        <time>2015-03-12T10:23:10Z</time>
      </trkpt>
      <trkpt lat="42.97195" lon="-0.24957">
        <ele>1541.9</ele>
        <time>2015-03-12T10:23:14Z</time>
      </trkpt>
      <trkpt lat="42.97192" lon="-0.24966">
        <ele>1542.6</ele>
        <time>2015-03-12T10:23:18Z</time>
      </trkpt>
      <trkpt lat="42.97188" lon="-0.24977">
        <ele>1542.2</ele>
        <time>2015-03-12T10:23:23Z</time>
      </trkpt>
      <trkpt lat="42.97186" lon="-0.24987">
        <ele>1542.2</ele>
        <time>2015-03-12T10:23:27Z</time>
      </trkpt>
      <trkpt lat="42.97184" lon="-0.24998">
        <ele>1542.1</ele>
        <time>2015-03-12T10:23:31Z</time>
      </trkpt>
      <trkpt lat="42.97183" lon="-0.25008">
        <ele>1542</ele>
        <time>2015-03-12T10:23:34Z</time>
      </trkpt>
      <trkpt lat="42.97182" lon="-0.2502">
        <ele>1541.6</ele>
        <time>2015-03-12T10:23:38Z</time>
      </trkpt>
      <trkpt lat="42.97181" lon="-0.25029">
        <ele>1541.7</ele>
        <time>2015-03-12T10:23:41Z</time>
      </trkpt>
      <trkpt lat="42.97181" lon="-0.25032">
        <ele>1541.7</ele>
        <time>2015-03-12T10:23:42Z</time>
      </trkpt>
      <trkpt lat="42.97179" lon="-0.25051">
        <ele>1541</ele>
        <time>2015-03-12T10:23:48Z</time>
      </trkpt>
      <trkpt lat="42.97179" lon="-0.25061">
        <ele>1541.4</ele>
        <time>2015-03-12T10:23:51Z</time>
      </trkpt>
      <trkpt lat="42.97177" lon="-0.25072">
        <ele>1540.6</ele>
        <time>2015-03-12T10:23:55Z</time>
      </trkpt>
      <trkpt lat="42.97175" lon="-0.25084">
        <ele>1541.4</ele>
        <time>2015-03-12T10:24:00Z</time>
      </trkpt>
      <trkpt lat="42.97172" lon="-0.25093">
        <ele>1541.3</ele>
        <time>2015-03-12T10:24:04Z</time>
      </trkpt>
      <trkpt lat="42.9717" lon="-0.25103">
        <ele>1542.2</ele>
        <time>2015-03-12T10:24:08Z</time>
      </trkpt>
      <trkpt lat="42.97168" lon="-0.25115">
        <ele>1543.1</ele>
        <time>2015-03-12T10:24:14Z</time>
      </trkpt>
      <trkpt lat="42.97167" lon="-0.25125">
        <ele>1543.8</ele>
        <time>2015-03-12T10:24:19Z</time>
      </trkpt>
      <trkpt lat="42.97168" lon="-0.25136">
        <ele>1545.1</ele>
        <time>2015-03-12T10:24:24Z</time>
      </trkpt>
      <trkpt lat="42.97171" lon="-0.25144">
        <ele>1544.4</ele>
        <time>2015-03-12T10:24:27Z</time>
      </trkpt>
      <trkpt lat="42.97173" lon="-0.25154">
        <ele>1543.5</ele>
        <time>2015-03-12T10:24:30Z</time>
      </trkpt>
      <trkpt lat="42.97176" lon="-0.25166">
        <ele>1543.4</ele>
        <time>2015-03-12T10:24:33Z</time>
      </trkpt>
      <trkpt lat="42.97178" lon="-0.25174">
        <ele>1542.7</ele>
        <time>2015-03-12T10:24:35Z</time>
      </trkpt>
      <trkpt lat="42.97179" lon="-0.25181">
        <ele>1542.1</ele>
        <time>2015-03-12T10:24:37Z</time>
      </trkpt>
      <trkpt lat="42.97181" lon="-0.2519">
        <ele>1541.5</ele>
        <time>2015-03-12T10:24:39Z</time>
      </trkpt>
      <trkpt lat="42.97183" lon="-0.25198">
        <ele>1541.7</ele>
        <time>2015-03-12T10:24:41Z</time>
      </trkpt>
      <trkpt lat="42.97186" lon="-0.25209">
        <ele>1542.4</ele>
        <time>2015-03-12T10:24:44Z</time>
      </trkpt>
      <trkpt lat="42.97187" lon="-0.25213">
        <ele>1542.4</ele>
        <time>2015-03-12T10:24:45Z</time>
      </trkpt>
      <trkpt lat="42.97192" lon="-0.25232">
        <ele>1541.1</ele>
        <time>2015-03-12T10:24:50Z</time>
      </trkpt>
      <trkpt lat="42.97195" lon="-0.25244">
        <ele>1540</ele>
        <time>2015-03-12T10:24:53Z</time>
      </trkpt>
      <trkpt lat="42.97197" lon="-0.25254">
        <ele>1539.3</ele>
        <time>2015-03-12T10:24:56Z</time>
      </trkpt>
      <trkpt lat="42.97199" lon="-0.25264">
        <ele>1539</ele>
        <time>2015-03-12T10:24:59Z</time>
      </trkpt>
      <trkpt lat="42.97201" lon="-0.25276">
        <ele>1539.3</ele>
        <time>2015-03-12T10:25:03Z</time>
      </trkpt>
      <trkpt lat="42.97201" lon="-0.25287">
        <ele>1538.6</ele>
        <time>2015-03-12T10:25:06Z</time>
      </trkpt>
      <trkpt lat="42.97202" lon="-0.25299">
        <ele>1538.2</ele>
        <time>2015-03-12T10:25:09Z</time>
      </trkpt>
      <trkpt lat="42.97202" lon="-0.2531">
        <ele>1538</ele>
        <time>2015-03-12T10:25:12Z</time>
      </trkpt>
      <trkpt lat="42.97201" lon="-0.2532">
        <ele>1537.5</ele>
        <time>2015-03-12T10:25:15Z</time>
      </trkpt>
      <trkpt lat="42.97201" lon="-0.25329">
        <ele>1537.2</ele>
        <time>2015-03-12T10:25:18Z</time>
      </trkpt>
      <trkpt lat="42.972" lon="-0.25341">
        <ele>1538.1</ele>
        <time>2015-03-12T10:25:21Z</time>
      </trkpt>
      <trkpt lat="42.97199" lon="-0.2535">
        <ele>1537.7</ele>
        <time>2015-03-12T10:25:23Z</time>
      </trkpt>
      <trkpt lat="42.97198" lon="-0.25361">
        <ele>1537.2</ele>
        <time>2015-03-12T10:25:25Z</time>
      </trkpt>
      <trkpt lat="42.97198" lon="-0.25367">
        <ele>1536.9</ele>
        <time>2015-03-12T10:25:26Z</time>
      </trkpt>
      <trkpt lat="42.97197" lon="-0.25374">
        <ele>1536.7</ele>
        <time>2015-03-12T10:25:27Z</time>
      </trkpt>
      <trkpt lat="42.97196" lon="-0.25381">
        <ele>1536.1</ele>
        <time>2015-03-12T10:25:28Z</time>
      </trkpt>
      <trkpt lat="42.97194" lon="-0.25387">
        <ele>1535.7</ele>
        <time>2015-03-12T10:25:29Z</time>
      </trkpt>
      <trkpt lat="42.97193" lon="-0.25395">
        <ele>1535.5</ele>
        <time>2015-03-12T10:25:30Z</time>
      </trkpt>
      <trkpt lat="42.97191" lon="-0.25402">
        <ele>1535.2</ele>
        <time>2015-03-12T10:25:31Z</time>
      </trkpt>
      <trkpt lat="42.97189" lon="-0.25409">
        <ele>1534.7</ele>
        <time>2015-03-12T10:25:32Z</time>
      </trkpt>
      <trkpt lat="42.97187" lon="-0.25416">
        <ele>1534.4</ele>
        <time>2015-03-12T10:25:33Z</time>
      </trkpt>
      <trkpt lat="42.97186" lon="-0.25422">
        <ele>1534.1</ele>
        <time>2015-03-12T10:25:34Z</time>
      </trkpt>
      <trkpt lat="42.97184" lon="-0.25429">
        <ele>1533.4</ele>
        <time>2015-03-12T10:25:35Z</time>
      </trkpt>
      <trkpt lat="42.97181" lon="-0.25436">
        <ele>1532.8</ele>
        <time>2015-03-12T10:25:36Z</time>
      </trkpt>
      <trkpt lat="42.97179" lon="-0.25443">
        <ele>1532.5</ele>
        <time>2015-03-12T10:25:37Z</time>
      </trkpt>
      <trkpt lat="42.97176" lon="-0.25449">
        <ele>1531.5</ele>
        <time>2015-03-12T10:25:38Z</time>
      </trkpt>
      <trkpt lat="42.97174" lon="-0.25456">
        <ele>1530.8</ele>
        <time>2015-03-12T10:25:39Z</time>
      </trkpt>
      <trkpt lat="42.97172" lon="-0.25464">
        <ele>1530.2</ele>
        <time>2015-03-12T10:25:40Z</time>
      </trkpt>
      <trkpt lat="42.9717" lon="-0.25471">
        <ele>1530.3</ele>
        <time>2015-03-12T10:25:41Z</time>
      </trkpt>
      <trkpt lat="42.97168" lon="-0.25479">
        <ele>1530.3</ele>
        <time>2015-03-12T10:25:42Z</time>
      </trkpt>
      <trkpt lat="42.97166" lon="-0.25486">
        <ele>1530.4</ele>
        <time>2015-03-12T10:25:43Z</time>
      </trkpt>
      <trkpt lat="42.97163" lon="-0.25493">
        <ele>1529.9</ele>
        <time>2015-03-12T10:25:44Z</time>
      </trkpt>
      <trkpt lat="42.97161" lon="-0.255">
        <ele>1529.6</ele>
        <time>2015-03-12T10:25:45Z</time>
      </trkpt>
      <trkpt lat="42.9716" lon="-0.25506">
        <ele>1529.3</ele>
        <time>2015-03-12T10:25:46Z</time>
      </trkpt>
      <trkpt lat="42.97157" lon="-0.25517">
        <ele>1529.1</ele>
        <time>2015-03-12T10:25:48Z</time>
      </trkpt>
      <trkpt lat="42.97154" lon="-0.25528">
        <ele>1529.1</ele>
        <time>2015-03-12T10:25:50Z</time>
      </trkpt>
      <trkpt lat="42.97152" lon="-0.25538">
        <ele>1528.9</ele>
        <time>2015-03-12T10:25:52Z</time>
      </trkpt>
      <trkpt lat="42.97148" lon="-0.25547">
        <ele>1528.7</ele>
        <time>2015-03-12T10:25:54Z</time>
      </trkpt>
      <trkpt lat="42.97145" lon="-0.25556">
        <ele>1528.4</ele>
        <time>2015-03-12T10:25:56Z</time>
      </trkpt>
      <trkpt lat="42.97142" lon="-0.25563">
        <ele>1528.5</ele>
        <time>2015-03-12T10:25:58Z</time>
      </trkpt>
      <trkpt lat="42.97136" lon="-0.25568">
        <ele>1528.2</ele>
        <time>2015-03-12T10:26:00Z</time>
      </trkpt>
      <trkpt lat="42.9713" lon="-0.25572">
        <ele>1527.8</ele>
        <time>2015-03-12T10:26:02Z</time>
      </trkpt>
      <trkpt lat="42.97125" lon="-0.25576">
        <ele>1528</ele>
        <time>2015-03-12T10:26:04Z</time>
      </trkpt>
      <trkpt lat="42.9712" lon="-0.25583">
        <ele>1528.5</ele>
        <time>2015-03-12T10:26:06Z</time>
      </trkpt>
      <trkpt lat="42.97118" lon="-0.25594">
        <ele>1527.7</ele>
        <time>2015-03-12T10:26:10Z</time>
      </trkpt>
      <trkpt lat="42.97122" lon="-0.25605">
        <ele>1528.1</ele>
        <time>2015-03-12T10:26:16Z</time>
      </trkpt>
      <trkpt lat="42.97126" lon="-0.25615">
        <ele>1529.1</ele>
        <time>2015-03-12T10:26:22Z</time>
      </trkpt>
      <trkpt lat="42.97129" lon="-0.25626">
        <ele>1528.9</ele>
        <time>2015-03-12T10:26:27Z</time>
      </trkpt>
      <trkpt lat="42.97131" lon="-0.25637">
        <ele>1528.8</ele>
        <time>2015-03-12T10:26:31Z</time>
      </trkpt>
      <trkpt lat="42.97132" lon="-0.25647">
        <ele>1528.3</ele>
        <time>2015-03-12T10:26:34Z</time>
      </trkpt>
      <trkpt lat="42.97132" lon="-0.25658">
        <ele>1528.3</ele>
        <time>2015-03-12T10:26:38Z</time>
      </trkpt>
      <trkpt lat="42.97131" lon="-0.2567">
        <ele>1528.4</ele>
        <time>2015-03-12T10:26:43Z</time>
      </trkpt>
      <trkpt lat="42.97129" lon="-0.25681">
        <ele>1529</ele>
        <time>2015-03-12T10:26:49Z</time>
      </trkpt>
      <trkpt lat="42.97128" lon="-0.25683">
        <ele>1529.2</ele>
        <time>2015-03-12T10:26:50Z</time>
      </trkpt>
      <trkpt lat="42.97125" lon="-0.25704">
        <ele>1532.1</ele>
        <time>2015-03-12T10:27:01Z</time>
      </trkpt>
      <trkpt lat="42.97123" lon="-0.25715">
        <ele>1532.7</ele>
        <time>2015-03-12T10:27:07Z</time>
      </trkpt>
      <trkpt lat="42.9712" lon="-0.25726">
        <ele>1532.9</ele>
        <time>2015-03-12T10:27:13Z</time>
      </trkpt>
      <trkpt lat="42.97117" lon="-0.25736">
        <ele>1533.9</ele>
        <time>2015-03-12T10:27:18Z</time>
      </trkpt>
      <trkpt lat="42.97114" lon="-0.25745">
        <ele>1534.6</ele>
        <time>2015-03-12T10:27:23Z</time>
      </trkpt>
      <trkpt lat="42.97111" lon="-0.25756">
        <ele>1535</ele>
        <time>2015-03-12T10:27:28Z</time>
      </trkpt>
      <trkpt lat="42.97109" lon="-0.25767">
        <ele>1535.6</ele>
        <time>2015-03-12T10:27:33Z</time>
      </trkpt>
      <trkpt lat="42.97106" lon="-0.25779">
        <ele>1535</ele>
        <time>2015-03-12T10:27:38Z</time>
      </trkpt>
      <trkpt lat="42.97105" lon="-0.25789">
        <ele>1535.5</ele>
        <time>2015-03-12T10:27:42Z</time>
      </trkpt>
      <trkpt lat="42.97104" lon="-0.258">
        <ele>1535.3</ele>
        <time>2015-03-12T10:27:46Z</time>
      </trkpt>
      <trkpt lat="42.97103" lon="-0.2581">
        <ele>1534.3</ele>
        <time>2015-03-12T10:27:49Z</time>
      </trkpt>
      <trkpt lat="42.97104" lon="-0.2582">
        <ele>1534.2</ele>
        <time>2015-03-12T10:27:52Z</time>
      </trkpt>
      <trkpt lat="42.97104" lon="-0.25822">
        <ele>1534.2</ele>
        <time>2015-03-12T10:27:53Z</time>
      </trkpt>
      <trkpt lat="42.97115" lon="-0.25837">
        <ele>1536.4</ele>
        <time>2015-03-12T10:28:04Z</time>
      </trkpt>
      <trkpt lat="42.97121" lon="-0.25845">
        <ele>1537.3</ele>
        <time>2015-03-12T10:28:09Z</time>
      </trkpt>
      <trkpt lat="42.97126" lon="-0.25853">
        <ele>1536.6</ele>
        <time>2015-03-12T10:28:13Z</time>
      </trkpt>
      <trkpt lat="42.97128" lon="-0.25863">
        <ele>1538.5</ele>
        <time>2015-03-12T10:28:17Z</time>
      </trkpt>
      <trkpt lat="42.97131" lon="-0.25873">
        <ele>1538.4</ele>
        <time>2015-03-12T10:28:22Z</time>
      </trkpt>
      <trkpt lat="42.97135" lon="-0.25883">
        <ele>1538.6</ele>
        <time>2015-03-12T10:28:28Z</time>
      </trkpt>
      <trkpt lat="42.9714" lon="-0.25891">
        <ele>1539.9</ele>
        <time>2015-03-12T10:28:33Z</time>
      </trkpt>
      <trkpt lat="42.97144" lon="-0.25901">
        <ele>1540.3</ele>
        <time>2015-03-12T10:28:38Z</time>
      </trkpt>
      <trkpt lat="42.97148" lon="-0.25909">
        <ele>1540.4</ele>
        <time>2015-03-12T10:28:42Z</time>
      </trkpt>
      <trkpt lat="42.97153" lon="-0.25919">
        <ele>1539.9</ele>
        <time>2015-03-12T10:28:47Z</time>
      </trkpt>
      <trkpt lat="42.97156" lon="-0.25929">
        <ele>1539.2</ele>
        <time>2015-03-12T10:28:51Z</time>
      </trkpt>
      <trkpt lat="42.97158" lon="-0.25938">
        <ele>1539.6</ele>
        <time>2015-03-12T10:28:55Z</time>
      </trkpt>
      <trkpt lat="42.97159" lon="-0.25941">
        <ele>1539.8</ele>
        <time>2015-03-12T10:28:56Z</time>
      </trkpt>
      <trkpt lat="42.97163" lon="-0.2596">
        <ele>1541</ele>
        <time>2015-03-12T10:29:03Z</time>
      </trkpt>
      <trkpt lat="42.97164" lon="-0.25971">
        <ele>1540.5</ele>
        <time>2015-03-12T10:29:07Z</time>
      </trkpt>
      <trkpt lat="42.97165" lon="-0.25982">
        <ele>1541</ele>
        <time>2015-03-12T10:29:11Z</time>
      </trkpt>
      <trkpt lat="42.97167" lon="-0.25992">
        <ele>1541.3</ele>
        <time>2015-03-12T10:29:15Z</time>
      </trkpt>
      <trkpt lat="42.97169" lon="-0.26002">
        <ele>1540.8</ele>
        <time>2015-03-12T10:29:19Z</time>
      </trkpt>
      <trkpt lat="42.9717" lon="-0.26012">
        <ele>1541.3</ele>
        <time>2015-03-12T10:29:23Z</time>
      </trkpt>
      <trkpt lat="42.97172" lon="-0.26024">
        <ele>1541.8</ele>
        <time>2015-03-12T10:29:27Z</time>
      </trkpt>
      <trkpt lat="42.97174" lon="-0.26035">
        <ele>1541</ele>
        <time>2015-03-12T10:29:31Z</time>
      </trkpt>
      <trkpt lat="42.97175" lon="-0.26046">
        <ele>1540.5</ele>
        <time>2015-03-12T10:29:35Z</time>
      </trkpt>
      <trkpt lat="42.97176" lon="-0.26057">
        <ele>1540.3</ele>
        <time>2015-03-12T10:29:39Z</time>
      </trkpt>
      <trkpt lat="42.97176" lon="-0.26067">
        <ele>1540.7</ele>
        <time>2015-03-12T10:29:42Z</time>
      </trkpt>
      <trkpt lat="42.97176" lon="-0.26078">
        <ele>1539.5</ele>
        <time>2015-03-12T10:29:46Z</time>
      </trkpt>
      <trkpt lat="42.97176" lon="-0.26089">
        <ele>1540.4</ele>
        <time>2015-03-12T10:29:50Z</time>
      </trkpt>
      <trkpt lat="42.97176" lon="-0.26099">
        <ele>1541.1</ele>
        <time>2015-03-12T10:29:54Z</time>
      </trkpt>
      <trkpt lat="42.97175" lon="-0.26109">
        <ele>1540.7</ele>
        <time>2015-03-12T10:29:58Z</time>
      </trkpt>
      <trkpt lat="42.97175" lon="-0.26111">
        <ele>1540.6</ele>
        <time>2015-03-12T10:29:59Z</time>
      </trkpt>
      <trkpt lat="42.97172" lon="-0.26131">
        <ele>1540.8</ele>
        <time>2015-03-12T10:30:07Z</time>
      </trkpt>
      <trkpt lat="42.9717" lon="-0.26141">
        <ele>1540.5</ele>
        <time>2015-03-12T10:30:11Z</time>
      </trkpt>
      <trkpt lat="42.97167" lon="-0.26152">
        <ele>1541</ele>
        <time>2015-03-12T10:30:15Z</time>
      </trkpt>
      <trkpt lat="42.97163" lon="-0.26162">
        <ele>1542</ele>
        <time>2015-03-12T10:30:20Z</time>
      </trkpt>
      <trkpt lat="42.97159" lon="-0.26171">
        <ele>1541.7</ele>
        <time>2015-03-12T10:30:25Z</time>
      </trkpt>
      <trkpt lat="42.97154" lon="-0.2618">
        <ele>1542.9</ele>
        <time>2015-03-12T10:30:30Z</time>
      </trkpt>
      <trkpt lat="42.97149" lon="-0.26189">
        <ele>1544</ele>
        <time>2015-03-12T10:30:36Z</time>
      </trkpt>
      <trkpt lat="42.97143" lon="-0.26198">
        <ele>1543.1</ele>
        <time>2015-03-12T10:30:42Z</time>
      </trkpt>
      <trkpt lat="42.97137" lon="-0.26206">
        <ele>1544.9</ele>
        <time>2015-03-12T10:30:49Z</time>
      </trkpt>
      <trkpt lat="42.9713" lon="-0.26215">
        <ele>1547</ele>
        <time>2015-03-12T10:30:56Z</time>
      </trkpt>
      <trkpt lat="42.97124" lon="-0.26221">
        <ele>1547.5</ele>
        <time>2015-03-12T10:31:02Z</time>
      </trkpt>
      <trkpt lat="42.97123" lon="-0.26222">
        <ele>1547.6</ele>
        <time>2015-03-12T10:31:03Z</time>
      </trkpt>
      <trkpt lat="42.9711" lon="-0.26232">
        <ele>1548.7</ele>
        <time>2015-03-12T10:31:14Z</time>
      </trkpt>
      <trkpt lat="42.97103" lon="-0.26236">
        <ele>1550.1</ele>
        <time>2015-03-12T10:31:20Z</time>
      </trkpt>
      <trkpt lat="42.97095" lon="-0.26238">
        <ele>1550.3</ele>
        <time>2015-03-12T10:31:26Z</time>
      </trkpt>
      <trkpt lat="42.97086" lon="-0.26236">
        <ele>1550.7</ele>
        <time>2015-03-12T10:31:32Z</time>
      </trkpt>
      <trkpt lat="42.97079" lon="-0.26233">
        <ele>1551.7</ele>
        <time>2015-03-12T10:31:37Z</time>
      </trkpt>
      <trkpt lat="42.97071" lon="-0.2623">
        <ele>1551.6</ele>
        <time>2015-03-12T10:31:42Z</time>
      </trkpt>
      <trkpt lat="42.97063" lon="-0.26227">
        <ele>1552.4</ele>
        <time>2015-03-12T10:31:48Z</time>
      </trkpt>
      <trkpt lat="42.97055" lon="-0.26223">
        <ele>1553.4</ele>
        <time>2015-03-12T10:31:54Z</time>
      </trkpt>
      <trkpt lat="42.97047" lon="-0.26219">
        <ele>1553.6</ele>
        <time>2015-03-12T10:32:00Z</time>
      </trkpt>
      <trkpt lat="42.97039" lon="-0.26215">
        <ele>1554.6</ele>
        <time>2015-03-12T10:32:06Z</time>
      </trkpt>
      <trkpt lat="42.97038" lon="-0.26214">
        <ele>1554.3</ele>
        <time>2015-03-12T10:32:07Z</time>
      </trkpt>
      <trkpt lat="42.97024" lon="-0.26207">
        <ele>1554.7</ele>
        <time>2015-03-12T10:32:16Z</time>
      </trkpt>
      <trkpt lat="42.97016" lon="-0.26203">
        <ele>1555.7</ele>
        <time>2015-03-12T10:32:22Z</time>
      </trkpt>
      <trkpt lat="42.97008" lon="-0.26202">
        <ele>1556.5</ele>
        <time>2015-03-12T10:32:27Z</time>
      </trkpt>
      <trkpt lat="42.96999" lon="-0.26203">
        <ele>1557.2</ele>
        <time>2015-03-12T10:32:32Z</time>
      </trkpt>
      <trkpt lat="42.96991" lon="-0.26206">
        <ele>1557.2</ele>
        <time>2015-03-12T10:32:37Z</time>
      </trkpt>
      <trkpt lat="42.96984" lon="-0.2621">
        <ele>1558.3</ele>
        <time>2015-03-12T10:32:43Z</time>
      </trkpt>
      <trkpt lat="42.96976" lon="-0.26216">
        <ele>1559.4</ele>
        <time>2015-03-12T10:32:50Z</time>
      </trkpt>
      <trkpt lat="42.96968" lon="-0.26217">
        <ele>1560.3</ele>
        <time>2015-03-12T10:32:57Z</time>
      </trkpt>
      <trkpt lat="42.96959" lon="-0.26214">
        <ele>1561.8</ele>
        <time>2015-03-12T10:33:04Z</time>
      </trkpt>
      <trkpt lat="42.96953" lon="-0.26207">
        <ele>1563.7</ele>
        <time>2015-03-12T10:33:10Z</time>
      </trkpt>
      <trkpt lat="42.96952" lon="-0.26206">
        <ele>1563.5</ele>
        <time>2015-03-12T10:33:11Z</time>
      </trkpt>
      <trkpt lat="42.96942" lon="-0.26191">
        <ele>1564.5</ele>
        <time>2015-03-12T10:33:22Z</time>
      </trkpt>
      <trkpt lat="42.96936" lon="-0.26183">
        <ele>1565.5</ele>
        <time>2015-03-12T10:33:27Z</time>
      </trkpt>
      <trkpt lat="42.9693" lon="-0.26176">
        <ele>1564.7</ele>
        <time>2015-03-12T10:33:32Z</time>
      </trkpt>
      <trkpt lat="42.96924" lon="-0.26169">
        <ele>1564.5</ele>
        <time>2015-03-12T10:33:37Z</time>
      </trkpt>
      <trkpt lat="42.96917" lon="-0.26163">
        <ele>1564.5</ele>
        <time>2015-03-12T10:33:42Z</time>
      </trkpt>
      <trkpt lat="42.9691" lon="-0.26158">
        <ele>1565.4</ele>
        <time>2015-03-12T10:33:46Z</time>
      </trkpt>
      <trkpt lat="42.96903" lon="-0.26153">
        <ele>1565.5</ele>
        <time>2015-03-12T10:33:51Z</time>
      </trkpt>
      <trkpt lat="42.96895" lon="-0.26148">
        <ele>1566</ele>
        <time>2015-03-12T10:33:56Z</time>
      </trkpt>
      <trkpt lat="42.96887" lon="-0.26142">
        <ele>1567.4</ele>
        <time>2015-03-12T10:34:01Z</time>
      </trkpt>
      <trkpt lat="42.9688" lon="-0.26137">
        <ele>1568</ele>
        <time>2015-03-12T10:34:07Z</time>
      </trkpt>
      <trkpt lat="42.96873" lon="-0.26132">
        <ele>1568.2</ele>
        <time>2015-03-12T10:34:12Z</time>
      </trkpt>
      <trkpt lat="42.96871" lon="-0.26131">
        <ele>1568</ele>
        <time>2015-03-12T10:34:13Z</time>
      </trkpt>
      <trkpt lat="42.96858" lon="-0.26125">
        <ele>1570.1</ele>
        <time>2015-03-12T10:34:22Z</time>
      </trkpt>
      <trkpt lat="42.96851" lon="-0.26121">
        <ele>1570</ele>
        <time>2015-03-12T10:34:27Z</time>
      </trkpt>
      <trkpt lat="42.96843" lon="-0.26118">
        <ele>1570.8</ele>
        <time>2015-03-12T10:34:32Z</time>
      </trkpt>
      <trkpt lat="42.96836" lon="-0.26114">
        <ele>1571.6</ele>
        <time>2015-03-12T10:34:37Z</time>
      </trkpt>
      <trkpt lat="42.96828" lon="-0.26109">
        <ele>1572.6</ele>
        <time>2015-03-12T10:34:43Z</time>
      </trkpt>
      <trkpt lat="42.96821" lon="-0.26104">
        <ele>1574.1</ele>
        <time>2015-03-12T10:34:48Z</time>
      </trkpt>
      <trkpt lat="42.96814" lon="-0.261">
        <ele>1573.8</ele>
        <time>2015-03-12T10:34:54Z</time>
      </trkpt>
      <trkpt lat="42.96806" lon="-0.26096">
        <ele>1575</ele>
        <time>2015-03-12T10:34:59Z</time>
      </trkpt>
      <trkpt lat="42.96799" lon="-0.26091">
        <ele>1575.7</ele>
        <time>2015-03-12T10:35:04Z</time>
      </trkpt>
      <trkpt lat="42.96791" lon="-0.26087">
        <ele>1576.7</ele>
        <time>2015-03-12T10:35:09Z</time>
      </trkpt>
      <trkpt lat="42.96784" lon="-0.26083">
        <ele>1577.4</ele>
        <time>2015-03-12T10:35:14Z</time>
      </trkpt>
      <trkpt lat="42.96783" lon="-0.26082">
        <ele>1577.5</ele>
        <time>2015-03-12T10:35:15Z</time>
      </trkpt>
      <trkpt lat="42.96769" lon="-0.26072">
        <ele>1579.1</ele>
        <time>2015-03-12T10:35:25Z</time>
      </trkpt>
      <trkpt lat="42.96765" lon="-0.26063">
        <ele>1579.4</ele>
        <time>2015-03-12T10:35:31Z</time>
      </trkpt>
      <trkpt lat="42.96767" lon="-0.26053">
        <ele>1578.9</ele>
        <time>2015-03-12T10:35:36Z</time>
      </trkpt>
      <trkpt lat="42.96772" lon="-0.26045">
        <ele>1580.2</ele>
        <time>2015-03-12T10:35:40Z</time>
      </trkpt>
      <trkpt lat="42.96779" lon="-0.26041">
        <ele>1579.3</ele>
        <time>2015-03-12T10:35:44Z</time>
      </trkpt>
      <trkpt lat="42.96788" lon="-0.26041">
        <ele>1578.9</ele>
        <time>2015-03-12T10:35:49Z</time>
      </trkpt>
      <trkpt lat="42.96796" lon="-0.26045">
        <ele>1579.1</ele>
        <time>2015-03-12T10:35:53Z</time>
      </trkpt>
      <trkpt lat="42.96802" lon="-0.26048">
        <ele>1579.1</ele>
        <time>2015-03-12T10:35:56Z</time>
      </trkpt>
      <trkpt lat="42.9681" lon="-0.26052">
        <ele>1579.7</ele>
        <time>2015-03-12T10:36:00Z</time>
      </trkpt>
      <trkpt lat="42.96818" lon="-0.26056">
        <ele>1579.9</ele>
        <time>2015-03-12T10:36:04Z</time>
      </trkpt>
      <trkpt lat="42.96826" lon="-0.26058">
        <ele>1580.2</ele>
        <time>2015-03-12T10:36:08Z</time>
      </trkpt>
      <trkpt lat="42.96833" lon="-0.26061">
        <ele>1580.5</ele>
        <time>2015-03-12T10:36:12Z</time>
      </trkpt>
      <trkpt lat="42.9684" lon="-0.26062">
        <ele>1580.6</ele>
        <time>2015-03-12T10:36:15Z</time>
      </trkpt>
      <trkpt lat="42.96842" lon="-0.26062">
        <ele>1580.4</ele>
        <time>2015-03-12T10:36:16Z</time>
      </trkpt>
      <trkpt lat="42.96855" lon="-0.26063">
        <ele>1580.3</ele>
        <time>2015-03-12T10:36:22Z</time>
      </trkpt>
      <trkpt lat="42.96863" lon="-0.26064">
        <ele>1580.3</ele>
        <time>2015-03-12T10:36:26Z</time>
      </trkpt>
      <trkpt lat="42.96872" lon="-0.26066">
        <ele>1581.2</ele>
        <time>2015-03-12T10:36:31Z</time>
      </trkpt>
      <trkpt lat="42.96881" lon="-0.26066">
        <ele>1581.2</ele>
        <time>2015-03-12T10:36:36Z</time>
      </trkpt>
      <trkpt lat="42.96889" lon="-0.26065">
        <ele>1582.6</ele>
        <time>2015-03-12T10:36:42Z</time>
      </trkpt>
      <trkpt lat="42.96897" lon="-0.26064">
        <ele>1583.3</ele>
        <time>2015-03-12T10:36:48Z</time>
      </trkpt>
      <trkpt lat="42.96905" lon="-0.26062">
        <ele>1583.6</ele>
        <time>2015-03-12T10:36:54Z</time>
      </trkpt>
      <trkpt lat="42.96913" lon="-0.2606">
        <ele>1584.7</ele>
        <time>2015-03-12T10:37:00Z</time>
      </trkpt>
      <trkpt lat="42.96921" lon="-0.26057">
        <ele>1585.6</ele>
        <time>2015-03-12T10:37:06Z</time>
      </trkpt>
      <trkpt lat="42.96929" lon="-0.26053">
        <ele>1587.4</ele>
        <time>2015-03-12T10:37:13Z</time>
      </trkpt>
      <trkpt lat="42.96936" lon="-0.26048">
        <ele>1587.5</ele>
        <time>2015-03-12T10:37:19Z</time>
      </trkpt>
      <trkpt lat="42.96937" lon="-0.26048">
        <ele>1587.9</ele>
        <time>2015-03-12T10:37:20Z</time>
      </trkpt>
      <trkpt lat="42.96949" lon="-0.26036">
        <ele>1588.9</ele>
        <time>2015-03-12T10:37:30Z</time>
      </trkpt>
      <trkpt lat="42.96958" lon="-0.26035">
        <ele>1589.9</ele>
        <time>2015-03-12T10:37:35Z</time>
      </trkpt>
      <trkpt lat="42.96965" lon="-0.26035">
        <ele>1590.2</ele>
        <time>2015-03-12T10:37:41Z</time>
      </trkpt>
      <trkpt lat="42.96974" lon="-0.26038">
        <ele>1592.2</ele>
        <time>2015-03-12T10:37:48Z</time>
      </trkpt>
      <trkpt lat="42.96982" lon="-0.26041">
        <ele>1592.3</ele>
        <time>2015-03-12T10:37:54Z</time>
      </trkpt>
      <trkpt lat="42.9699" lon="-0.26043">
        <ele>1593.6</ele>
        <time>2015-03-12T10:37:59Z</time>
      </trkpt>
      <trkpt lat="42.96998" lon="-0.26044">
        <ele>1594.8</ele>
        <time>2015-03-12T10:38:04Z</time>
      </trkpt>
      <trkpt lat="42.97007" lon="-0.26043">
        <ele>1595.3</ele>
        <time>2015-03-12T10:38:09Z</time>
      </trkpt>
      <trkpt lat="42.97015" lon="-0.26038">
        <ele>1596.2</ele>
        <time>2015-03-12T10:38:15Z</time>
      </trkpt>
      <trkpt lat="42.97022" lon="-0.26031">
        <ele>1595.6</ele>
        <time>2015-03-12T10:38:21Z</time>
      </trkpt>
      <trkpt lat="42.97023" lon="-0.26029">
        <ele>1595.6</ele>
        <time>2015-03-12T10:38:22Z</time>
      </trkpt>
      <trkpt lat="42.97024" lon="-0.26009">
        <ele>1597.5</ele>
        <time>2015-03-12T10:38:32Z</time>
      </trkpt>
      <trkpt lat="42.97021" lon="-0.25998">
        <ele>1597.7</ele>
        <time>2015-03-12T10:38:38Z</time>
      </trkpt>
      <trkpt lat="42.97019" lon="-0.2599">
        <ele>1597.1</ele>
        <time>2015-03-12T10:38:42Z</time>
      </trkpt>
      <trkpt lat="42.97016" lon="-0.25979">
        <ele>1597.9</ele>
        <time>2015-03-12T10:38:46Z</time>
      </trkpt>
      <trkpt lat="42.97012" lon="-0.25968">
        <ele>1597.8</ele>
        <time>2015-03-12T10:38:50Z</time>
      </trkpt>
      <trkpt lat="42.97009" lon="-0.25958">
        <ele>1597.9</ele>
        <time>2015-03-12T10:38:54Z</time>
      </trkpt>
      <trkpt lat="42.97005" lon="-0.25949">
        <ele>1597.6</ele>
        <time>2015-03-12T10:38:58Z</time>
      </trkpt>
      <trkpt lat="42.97001" lon="-0.25941">
        <ele>1598.5</ele>
        <time>2015-03-12T10:39:02Z</time>
      </trkpt>
      <trkpt lat="42.96996" lon="-0.25933">
        <ele>1598.8</ele>
        <time>2015-03-12T10:39:06Z</time>
      </trkpt>
      <trkpt lat="42.9699" lon="-0.25925">
        <ele>1598.5</ele>
        <time>2015-03-12T10:39:11Z</time>
      </trkpt>
      <trkpt lat="42.96984" lon="-0.25916">
        <ele>1599.3</ele>
        <time>2015-03-12T10:39:16Z</time>
      </trkpt>
      <trkpt lat="42.96979" lon="-0.25907">
        <ele>1600</ele>
        <time>2015-03-12T10:39:21Z</time>
      </trkpt>
      <trkpt lat="42.96974" lon="-0.25899">
        <ele>1600.6</ele>
        <time>2015-03-12T10:39:25Z</time>
      </trkpt>
      <trkpt lat="42.96972" lon="-0.25897">
        <ele>1600.6</ele>
        <time>2015-03-12T10:39:26Z</time>
      </trkpt>
      <trkpt lat="42.96962" lon="-0.25883">
        <ele>1601.5</ele>
        <time>2015-03-12T10:39:53Z</time>
      </trkpt>
      <trkpt lat="42.96957" lon="-0.25874">
        <ele>1601</ele>
        <time>2015-03-12T10:39:57Z</time>
      </trkpt>
      <trkpt lat="42.96954" lon="-0.25866">
        <ele>1600.3</ele>
        <time>2015-03-12T10:39:59Z</time>
      </trkpt>
      <trkpt lat="42.96949" lon="-0.25855">
        <ele>1599.3</ele>
        <time>2015-03-12T10:40:01Z</time>
      </trkpt>
      <trkpt lat="42.96946" lon="-0.25845">
        <ele>1598.1</ele>
        <time>2015-03-12T10:40:03Z</time>
      </trkpt>
      <trkpt lat="42.96945" lon="-0.25835">
        <ele>1596.8</ele>
        <time>2015-03-12T10:40:05Z</time>
      </trkpt>
      <trkpt lat="42.96945" lon="-0.25824">
        <ele>1596.6</ele>
        <time>2015-03-12T10:40:07Z</time>
      </trkpt>
      <trkpt lat="42.96945" lon="-0.25815">
        <ele>1596.5</ele>
        <time>2015-03-12T10:40:09Z</time>
      </trkpt>
      <trkpt lat="42.96944" lon="-0.25805">
        <ele>1596.5</ele>
        <time>2015-03-12T10:40:11Z</time>
      </trkpt>
      <trkpt lat="42.96944" lon="-0.25796">
        <ele>1596.5</ele>
        <time>2015-03-12T10:40:13Z</time>
      </trkpt>
      <trkpt lat="42.96944" lon="-0.25787">
        <ele>1596.5</ele>
        <time>2015-03-12T10:40:15Z</time>
      </trkpt>
      <trkpt lat="42.96944" lon="-0.25778">
        <ele>1595.5</ele>
        <time>2015-03-12T10:40:17Z</time>
      </trkpt>
      <trkpt lat="42.96944" lon="-0.25768">
        <ele>1595.3</ele>
        <time>2015-03-12T10:40:19Z</time>
      </trkpt>
      <trkpt lat="42.96944" lon="-0.25758">
        <ele>1595.5</ele>
        <time>2015-03-12T10:40:21Z</time>
      </trkpt>
      <trkpt lat="42.96944" lon="-0.25748">
        <ele>1595.2</ele>
        <time>2015-03-12T10:40:23Z</time>
      </trkpt>
      <trkpt lat="42.96944" lon="-0.25739">
        <ele>1595.1</ele>
        <time>2015-03-12T10:40:25Z</time>
      </trkpt>
      <trkpt lat="42.96945" lon="-0.2573">
        <ele>1595.1</ele>
        <time>2015-03-12T10:40:27Z</time>
      </trkpt>
      <trkpt lat="42.96945" lon="-0.25725">
        <ele>1595.1</ele>
        <time>2015-03-12T10:40:28Z</time>
      </trkpt>
      <trkpt lat="42.96946" lon="-0.25711">
        <ele>1593.8</ele>
        <time>2015-03-12T10:40:31Z</time>
      </trkpt>
      <trkpt lat="42.96947" lon="-0.25701">
        <ele>1593.7</ele>
        <time>2015-03-12T10:40:33Z</time>
      </trkpt>
      <trkpt lat="42.96948" lon="-0.25691">
        <ele>1593.2</ele>
        <time>2015-03-12T10:40:35Z</time>
      </trkpt>
      <trkpt lat="42.96949" lon="-0.25679">
        <ele>1592.5</ele>
        <time>2015-03-12T10:40:37Z</time>
      </trkpt>
      <trkpt lat="42.9695" lon="-0.25667">
        <ele>1592.2</ele>
        <time>2015-03-12T10:40:39Z</time>
      </trkpt>
      <trkpt lat="42.96951" lon="-0.25661">
        <ele>1592.1</ele>
        <time>2015-03-12T10:40:40Z</time>
      </trkpt>
      <trkpt lat="42.96951" lon="-0.25654">
        <ele>1591.5</ele>
        <time>2015-03-12T10:40:41Z</time>
      </trkpt>
      <trkpt lat="42.96952" lon="-0.25648">
        <ele>1590.9</ele>
        <time>2015-03-12T10:40:42Z</time>
      </trkpt>
      <trkpt lat="42.96953" lon="-0.25641">
        <ele>1590.6</ele>
        <time>2015-03-12T10:40:43Z</time>
      </trkpt>
      <trkpt lat="42.96955" lon="-0.25634">
        <ele>1590.3</ele>
        <time>2015-03-12T10:40:44Z</time>
      </trkpt>
      <trkpt lat="42.96956" lon="-0.25626">
        <ele>1589.6</ele>
        <time>2015-03-12T10:40:45Z</time>
      </trkpt>
      <trkpt lat="42.96957" lon="-0.25619">
        <ele>1589</ele>
        <time>2015-03-12T10:40:46Z</time>
      </trkpt>
      <trkpt lat="42.96958" lon="-0.25611">
        <ele>1588.6</ele>
        <time>2015-03-12T10:40:47Z</time>
      </trkpt>
      <trkpt lat="42.96959" lon="-0.25604">
        <ele>1588.1</ele>
        <time>2015-03-12T10:40:48Z</time>
      </trkpt>
      <trkpt lat="42.96961" lon="-0.25596">
        <ele>1587.7</ele>
        <time>2015-03-12T10:40:49Z</time>
      </trkpt>
      <trkpt lat="42.96962" lon="-0.25588">
        <ele>1587.5</ele>
        <time>2015-03-12T10:40:50Z</time>
      </trkpt>
      <trkpt lat="42.96963" lon="-0.2558">
        <ele>1586.8</ele>
        <time>2015-03-12T10:40:51Z</time>
      </trkpt>
      <trkpt lat="42.96964" lon="-0.25572">
        <ele>1586.3</ele>
        <time>2015-03-12T10:40:52Z</time>
      </trkpt>
      <trkpt lat="42.96966" lon="-0.25564">
        <ele>1585.9</ele>
        <time>2015-03-12T10:40:53Z</time>
      </trkpt>
      <trkpt lat="42.96967" lon="-0.25556">
        <ele>1584.9</ele>
        <time>2015-03-12T10:40:54Z</time>
      </trkpt>
      <trkpt lat="42.96968" lon="-0.25549">
        <ele>1584.1</ele>
        <time>2015-03-12T10:40:55Z</time>
      </trkpt>
      <trkpt lat="42.9697" lon="-0.25541">
        <ele>1583.6</ele>
        <time>2015-03-12T10:40:56Z</time>
      </trkpt>
      <trkpt lat="42.96971" lon="-0.25534">
        <ele>1583.3</ele>
        <time>2015-03-12T10:40:57Z</time>
      </trkpt>
      <trkpt lat="42.96972" lon="-0.25527">
        <ele>1583.1</ele>
        <time>2015-03-12T10:40:58Z</time>
      </trkpt>
      <trkpt lat="42.96973" lon="-0.25521">
        <ele>1582.9</ele>
        <time>2015-03-12T10:40:59Z</time>
      </trkpt>
      <trkpt lat="42.96975" lon="-0.2551">
        <ele>1582.1</ele>
        <time>2015-03-12T10:41:01Z</time>
      </trkpt>
      <trkpt lat="42.96978" lon="-0.25499">
        <ele>1581.6</ele>
        <time>2015-03-12T10:41:03Z</time>
      </trkpt>
      <trkpt lat="42.9698" lon="-0.25489">
        <ele>1582.1</ele>
        <time>2015-03-12T10:41:05Z</time>
      </trkpt>
      <trkpt lat="42.96982" lon="-0.25481">
        <ele>1581.9</ele>
        <time>2015-03-12T10:41:07Z</time>
      </trkpt>
      <trkpt lat="42.96985" lon="-0.25473">
        <ele>1581.5</ele>
        <time>2015-03-12T10:41:09Z</time>
      </trkpt>
      <trkpt lat="42.96989" lon="-0.25464">
        <ele>1581.8</ele>
        <time>2015-03-12T10:41:12Z</time>
      </trkpt>
      <trkpt lat="42.96994" lon="-0.25455">
        <ele>1581.7</ele>
        <time>2015-03-12T10:41:15Z</time>
      </trkpt>
      <trkpt lat="42.96999" lon="-0.25449">
        <ele>1581.6</ele>
        <time>2015-03-12T10:41:17Z</time>
      </trkpt>
      <trkpt lat="42.97003" lon="-0.25442">
        <ele>1581.4</ele>
        <time>2015-03-12T10:41:19Z</time>
      </trkpt>
      <trkpt lat="42.97008" lon="-0.25436">
        <ele>1581.3</ele>
        <time>2015-03-12T10:41:21Z</time>
      </trkpt>
      <trkpt lat="42.97014" lon="-0.25427">
        <ele>1581.1</ele>
        <time>2015-03-12T10:41:24Z</time>
      </trkpt>
      <trkpt lat="42.9702" lon="-0.2542">
        <ele>1580.6</ele>
        <time>2015-03-12T10:41:27Z</time>
      </trkpt>
      <trkpt lat="42.97025" lon="-0.25413">
        <ele>1580.7</ele>
        <time>2015-03-12T10:41:30Z</time>
      </trkpt>
      <trkpt lat="42.97027" lon="-0.2541">
        <ele>1580.8</ele>
        <time>2015-03-12T10:41:31Z</time>
      </trkpt>
      <trkpt lat="42.97036" lon="-0.25395">
        <ele>1580.8</ele>
        <time>2015-03-12T10:41:39Z</time>
      </trkpt>
      <trkpt lat="42.97042" lon="-0.25387">
        <ele>1581</ele>
        <time>2015-03-12T10:41:43Z</time>
      </trkpt>
      <trkpt lat="42.97047" lon="-0.25379">
        <ele>1580.9</ele>
        <time>2015-03-12T10:41:47Z</time>
      </trkpt>
      <trkpt lat="42.97052" lon="-0.25373">
        <ele>1580.7</ele>
        <time>2015-03-12T10:41:50Z</time>
      </trkpt>
      <trkpt lat="42.97056" lon="-0.25367">
        <ele>1580.3</ele>
        <time>2015-03-12T10:41:52Z</time>
      </trkpt>
      <trkpt lat="42.9706" lon="-0.25359">
        <ele>1579.9</ele>
        <time>2015-03-12T10:41:54Z</time>
      </trkpt>
      <trkpt lat="42.97064" lon="-0.25351">
        <ele>1580.5</ele>
        <time>2015-03-12T10:41:56Z</time>
      </trkpt>
      <trkpt lat="42.97067" lon="-0.25342">
        <ele>1580.1</ele>
        <time>2015-03-12T10:41:58Z</time>
      </trkpt>
      <trkpt lat="42.9707" lon="-0.25334">
        <ele>1579.3</ele>
        <time>2015-03-12T10:42:00Z</time>
      </trkpt>
      <trkpt lat="42.97073" lon="-0.25325">
        <ele>1579.5</ele>
        <time>2015-03-12T10:42:02Z</time>
      </trkpt>
      <trkpt lat="42.97075" lon="-0.25317">
        <ele>1579.7</ele>
        <time>2015-03-12T10:42:04Z</time>
      </trkpt>
      <trkpt lat="42.97077" lon="-0.25309">
        <ele>1579.8</ele>
        <time>2015-03-12T10:42:06Z</time>
      </trkpt>
      <trkpt lat="42.97079" lon="-0.253">
        <ele>1579.3</ele>
        <time>2015-03-12T10:42:08Z</time>
      </trkpt>
      <trkpt lat="42.9708" lon="-0.25292">
        <ele>1578.7</ele>
        <time>2015-03-12T10:42:10Z</time>
      </trkpt>
      <trkpt lat="42.97082" lon="-0.25281">
        <ele>1578.5</ele>
        <time>2015-03-12T10:42:13Z</time>
      </trkpt>
      <trkpt lat="42.97082" lon="-0.2527">
        <ele>1578.6</ele>
        <time>2015-03-12T10:42:16Z</time>
      </trkpt>
      <trkpt lat="42.97083" lon="-0.25262">
        <ele>1578.6</ele>
        <time>2015-03-12T10:42:18Z</time>
      </trkpt>
      <trkpt lat="42.97083" lon="-0.25254">
        <ele>1578.3</ele>
        <time>2015-03-12T10:42:20Z</time>
      </trkpt>
      <trkpt lat="42.97083" lon="-0.25244">
        <ele>1577.8</ele>
        <time>2015-03-12T10:42:22Z</time>
      </trkpt>
      <trkpt lat="42.97083" lon="-0.25234">
        <ele>1577.4</ele>
        <time>2015-03-12T10:42:24Z</time>
      </trkpt>
      <trkpt lat="42.97083" lon="-0.25222">
        <ele>1577.2</ele>
        <time>2015-03-12T10:42:26Z</time>
      </trkpt>
      <trkpt lat="42.97082" lon="-0.25216">
        <ele>1577.3</ele>
        <time>2015-03-12T10:42:27Z</time>
      </trkpt>
      <trkpt lat="42.97082" lon="-0.25209">
        <ele>1577.3</ele>
        <time>2015-03-12T10:42:28Z</time>
      </trkpt>
      <trkpt lat="42.97082" lon="-0.25201">
        <ele>1577.4</ele>
        <time>2015-03-12T10:42:29Z</time>
      </trkpt>
      <trkpt lat="42.97082" lon="-0.25194">
        <ele>1576.5</ele>
        <time>2015-03-12T10:42:30Z</time>
      </trkpt>
      <trkpt lat="42.97082" lon="-0.25185">
        <ele>1575.9</ele>
        <time>2015-03-12T10:42:31Z</time>
      </trkpt>
      <trkpt lat="42.97082" lon="-0.25177">
        <ele>1575.5</ele>
        <time>2015-03-12T10:42:32Z</time>
      </trkpt>
      <trkpt lat="42.97082" lon="-0.2517">
        <ele>1574.4</ele>
        <time>2015-03-12T10:42:33Z</time>
      </trkpt>
      <trkpt lat="42.97083" lon="-0.25162">
        <ele>1573.6</ele>
        <time>2015-03-12T10:42:34Z</time>
      </trkpt>
      <trkpt lat="42.97083" lon="-0.25154">
        <ele>1573</ele>
        <time>2015-03-12T10:42:35Z</time>
      </trkpt>
      <trkpt lat="42.97084" lon="-0.25146">
        <ele>1572.4</ele>
        <time>2015-03-12T10:42:36Z</time>
      </trkpt>
      <trkpt lat="42.97085" lon="-0.25138">
        <ele>1572.1</ele>
        <time>2015-03-12T10:42:37Z</time>
      </trkpt>
      <trkpt lat="42.97086" lon="-0.25131">
        <ele>1571.8</ele>
        <time>2015-03-12T10:42:38Z</time>
      </trkpt>
      <trkpt lat="42.97086" lon="-0.25123">
        <ele>1571.5</ele>
        <time>2015-03-12T10:42:39Z</time>
      </trkpt>
      <trkpt lat="42.97086" lon="-0.25116">
        <ele>1570.5</ele>
        <time>2015-03-12T10:42:40Z</time>
      </trkpt>
      <trkpt lat="42.97087" lon="-0.25109">
        <ele>1569.7</ele>
        <time>2015-03-12T10:42:41Z</time>
      </trkpt>
      <trkpt lat="42.97087" lon="-0.25101">
        <ele>1569.1</ele>
        <time>2015-03-12T10:42:42Z</time>
      </trkpt>
      <trkpt lat="42.97087" lon="-0.25094">
        <ele>1568.8</ele>
        <time>2015-03-12T10:42:43Z</time>
      </trkpt>
      <trkpt lat="42.97088" lon="-0.25087">
        <ele>1568.5</ele>
        <time>2015-03-12T10:42:44Z</time>
      </trkpt>
      <trkpt lat="42.97088" lon="-0.2508">
        <ele>1568.3</ele>
        <time>2015-03-12T10:42:45Z</time>
      </trkpt>
      <trkpt lat="42.97088" lon="-0.25073">
        <ele>1567.6</ele>
        <time>2015-03-12T10:42:46Z</time>
      </trkpt>
      <trkpt lat="42.97089" lon="-0.25066">
        <ele>1567</ele>
        <time>2015-03-12T10:42:47Z</time>
      </trkpt>
      <trkpt lat="42.97089" lon="-0.25058">
        <ele>1566.6</ele>
        <time>2015-03-12T10:42:48Z</time>
      </trkpt>
      <trkpt lat="42.97089" lon="-0.25051">
        <ele>1566.1</ele>
        <time>2015-03-12T10:42:49Z</time>
      </trkpt>
      <trkpt lat="42.9709" lon="-0.25044">
        <ele>1565.7</ele>
        <time>2015-03-12T10:42:50Z</time>
      </trkpt>
      <trkpt lat="42.9709" lon="-0.25037">
        <ele>1565.4</ele>
        <time>2015-03-12T10:42:51Z</time>
      </trkpt>
      <trkpt lat="42.97091" lon="-0.2503">
        <ele>1564.9</ele>
        <time>2015-03-12T10:42:52Z</time>
      </trkpt>
      <trkpt lat="42.97092" lon="-0.25023">
        <ele>1564.6</ele>
        <time>2015-03-12T10:42:53Z</time>
      </trkpt>
      <trkpt lat="42.97093" lon="-0.25017">
        <ele>1564.3</ele>
        <time>2015-03-12T10:42:54Z</time>
      </trkpt>
      <trkpt lat="42.97095" lon="-0.25006">
        <ele>1564.1</ele>
        <time>2015-03-12T10:42:56Z</time>
      </trkpt>
      <trkpt lat="42.97097" lon="-0.24998">
        <ele>1563.9</ele>
        <time>2015-03-12T10:42:58Z</time>
      </trkpt>
      <trkpt lat="42.97099" lon="-0.2499">
        <ele>1564.2</ele>
        <time>2015-03-12T10:43:00Z</time>
      </trkpt>
      <trkpt lat="42.97102" lon="-0.24983">
        <ele>1564.1</ele>
        <time>2015-03-12T10:43:02Z</time>
      </trkpt>
      <trkpt lat="42.97105" lon="-0.24974">
        <ele>1563.7</ele>
        <time>2015-03-12T10:43:04Z</time>
      </trkpt>
      <trkpt lat="42.97108" lon="-0.24964">
        <ele>1563</ele>
        <time>2015-03-12T10:43:06Z</time>
      </trkpt>
      <trkpt lat="42.97111" lon="-0.24954">
        <ele>1562.8</ele>
        <time>2015-03-12T10:43:08Z</time>
      </trkpt>
      <trkpt lat="42.97114" lon="-0.24944">
        <ele>1562.8</ele>
        <time>2015-03-12T10:43:10Z</time>
      </trkpt>
      <trkpt lat="42.97117" lon="-0.24932">
        <ele>1562.3</ele>
        <time>2015-03-12T10:43:12Z</time>
      </trkpt>
      <trkpt lat="42.97118" lon="-0.24926">
        <ele>1562.1</ele>
        <time>2015-03-12T10:43:13Z</time>
      </trkpt>
      <trkpt lat="42.9712" lon="-0.2492">
        <ele>1562</ele>
        <time>2015-03-12T10:43:14Z</time>
      </trkpt>
      <trkpt lat="42.97121" lon="-0.24913">
        <ele>1561.4</ele>
        <time>2015-03-12T10:43:15Z</time>
      </trkpt>
      <trkpt lat="42.97123" lon="-0.24906">
        <ele>1561</ele>
        <time>2015-03-12T10:43:16Z</time>
      </trkpt>
      <trkpt lat="42.97125" lon="-0.24899">
        <ele>1560.7</ele>
        <time>2015-03-12T10:43:17Z</time>
      </trkpt>
      <trkpt lat="42.97127" lon="-0.24892">
        <ele>1559.8</ele>
        <time>2015-03-12T10:43:18Z</time>
      </trkpt>
      <trkpt lat="42.97129" lon="-0.24884">
        <ele>1559.1</ele>
        <time>2015-03-12T10:43:19Z</time>
      </trkpt>
      <trkpt lat="42.97133" lon="-0.24876">
        <ele>1558.6</ele>
        <time>2015-03-12T10:43:20Z</time>
      </trkpt>
      <trkpt lat="42.97136" lon="-0.24867">
        <ele>1557.5</ele>
        <time>2015-03-12T10:43:21Z</time>
      </trkpt>
      <trkpt lat="42.97141" lon="-0.24859">
        <ele>1556.6</ele>
        <time>2015-03-12T10:43:22Z</time>
      </trkpt>
      <trkpt lat="42.97146" lon="-0.24852">
        <ele>1556</ele>
        <time>2015-03-12T10:43:23Z</time>
      </trkpt>
      <trkpt lat="42.97152" lon="-0.24847">
        <ele>1554.5</ele>
        <time>2015-03-12T10:43:24Z</time>
      </trkpt>
      <trkpt lat="42.97157" lon="-0.24842">
        <ele>1553.4</ele>
        <time>2015-03-12T10:43:25Z</time>
      </trkpt>
      <trkpt lat="42.97163" lon="-0.24838">
        <ele>1552.6</ele>
        <time>2015-03-12T10:43:26Z</time>
      </trkpt>
      <trkpt lat="42.97169" lon="-0.24835">
        <ele>1552.1</ele>
        <time>2015-03-12T10:43:27Z</time>
      </trkpt>
      <trkpt lat="42.97174" lon="-0.24833">
        <ele>1551.7</ele>
        <time>2015-03-12T10:43:28Z</time>
      </trkpt>
      <trkpt lat="42.97181" lon="-0.2483">
        <ele>1551.4</ele>
        <time>2015-03-12T10:43:30Z</time>
      </trkpt>
      <trkpt lat="42.97188" lon="-0.24826">
        <ele>1552</ele>
        <time>2015-03-12T10:43:34Z</time>
      </trkpt>
      <trkpt lat="42.9719" lon="-0.24825">
        <ele>1552.5</ele>
        <time>2015-03-12T10:43:35Z</time>
      </trkpt>
      <trkpt lat="42.97204" lon="-0.24817">
        <ele>1553.3</ele>
        <time>2015-03-12T10:43:43Z</time>
      </trkpt>
      <trkpt lat="42.97211" lon="-0.24812">
        <ele>1553.7</ele>
        <time>2015-03-12T10:43:46Z</time>
      </trkpt>
      <trkpt lat="42.97217" lon="-0.24808">
        <ele>1553.9</ele>
        <time>2015-03-12T10:43:48Z</time>
      </trkpt>
      <trkpt lat="42.97223" lon="-0.24803">
        <ele>1553.4</ele>
        <time>2015-03-12T10:43:50Z</time>
      </trkpt>
      <trkpt lat="42.97229" lon="-0.24796">
        <ele>1552.6</ele>
        <time>2015-03-12T10:43:52Z</time>
      </trkpt>
      <trkpt lat="42.97234" lon="-0.24787">
        <ele>1551</ele>
        <time>2015-03-12T10:43:54Z</time>
      </trkpt>
      <trkpt lat="42.97239" lon="-0.24779">
        <ele>1550.6</ele>
        <time>2015-03-12T10:43:56Z</time>
      </trkpt>
      <trkpt lat="42.97244" lon="-0.2477">
        <ele>1550.7</ele>
        <time>2015-03-12T10:43:58Z</time>
      </trkpt>
      <trkpt lat="42.97248" lon="-0.2476">
        <ele>1550.9</ele>
        <time>2015-03-12T10:44:00Z</time>
      </trkpt>
      <trkpt lat="42.97253" lon="-0.2475">
        <ele>1550.3</ele>
        <time>2015-03-12T10:44:02Z</time>
      </trkpt>
      <trkpt lat="42.97255" lon="-0.24744">
        <ele>1549.9</ele>
        <time>2015-03-12T10:44:03Z</time>
      </trkpt>
      <trkpt lat="42.97258" lon="-0.24738">
        <ele>1549.5</ele>
        <time>2015-03-12T10:44:04Z</time>
      </trkpt>
      <trkpt lat="42.9726" lon="-0.24732">
        <ele>1549.3</ele>
        <time>2015-03-12T10:44:05Z</time>
      </trkpt>
      <trkpt lat="42.97263" lon="-0.24725">
        <ele>1548.7</ele>
        <time>2015-03-12T10:44:06Z</time>
      </trkpt>
      <trkpt lat="42.97265" lon="-0.24719">
        <ele>1548.3</ele>
        <time>2015-03-12T10:44:07Z</time>
      </trkpt>
      <trkpt lat="42.97268" lon="-0.24712">
        <ele>1548</ele>
        <time>2015-03-12T10:44:08Z</time>
      </trkpt>
      <trkpt lat="42.97271" lon="-0.24705">
        <ele>1547.2</ele>
        <time>2015-03-12T10:44:09Z</time>
      </trkpt>
      <trkpt lat="42.97275" lon="-0.24698">
        <ele>1546.5</ele>
        <time>2015-03-12T10:44:10Z</time>
      </trkpt>
      <trkpt lat="42.97278" lon="-0.24691">
        <ele>1546</ele>
        <time>2015-03-12T10:44:11Z</time>
      </trkpt>
      <trkpt lat="42.97282" lon="-0.24684">
        <ele>1545.5</ele>
        <time>2015-03-12T10:44:12Z</time>
      </trkpt>
      <trkpt lat="42.97285" lon="-0.24678">
        <ele>1545.2</ele>
        <time>2015-03-12T10:44:13Z</time>
      </trkpt>
      <trkpt lat="42.97287" lon="-0.24673">
        <ele>1544.9</ele>
        <time>2015-03-12T10:44:14Z</time>
      </trkpt>
      <trkpt lat="42.97293" lon="-0.24664">
        <ele>1544.1</ele>
        <time>2015-03-12T10:44:16Z</time>
      </trkpt>
      <trkpt lat="42.97298" lon="-0.24656">
        <ele>1544.1</ele>
        <time>2015-03-12T10:44:18Z</time>
      </trkpt>
      <trkpt lat="42.97301" lon="-0.24647">
        <ele>1544.6</ele>
        <time>2015-03-12T10:44:21Z</time>
      </trkpt>
      <trkpt lat="42.97307" lon="-0.2464">
        <ele>1543.8</ele>
        <time>2015-03-12T10:44:25Z</time>
      </trkpt>
      <trkpt lat="42.97312" lon="-0.24632">
        <ele>1544.4</ele>
        <time>2015-03-12T10:44:29Z</time>
      </trkpt>
      <trkpt lat="42.97318" lon="-0.24626">
        <ele>1544.2</ele>
        <time>2015-03-12T10:44:32Z</time>
      </trkpt>
      <trkpt lat="42.97324" lon="-0.24621">
        <ele>1544.7</ele>
        <time>2015-03-12T10:44:35Z</time>
      </trkpt>
      <trkpt lat="42.97325" lon="-0.2462">
        <ele>1544.9</ele>
        <time>2015-03-12T10:44:36Z</time>
      </trkpt>
      <trkpt lat="42.97338" lon="-0.24615">
        <ele>1545.6</ele>
        <time>2015-03-12T10:44:42Z</time>
      </trkpt>
      <trkpt lat="42.97345" lon="-0.24614">
        <ele>1544.9</ele>
        <time>2015-03-12T10:44:45Z</time>
      </trkpt>
      <trkpt lat="42.97351" lon="-0.24615">
        <ele>1544.6</ele>
        <time>2015-03-12T10:44:47Z</time>
      </trkpt>
      <trkpt lat="42.97358" lon="-0.24614">
        <ele>1544.4</ele>
        <time>2015-03-12T10:44:49Z</time>
      </trkpt>
      <trkpt lat="42.97365" lon="-0.2461">
        <ele>1543.5</ele>
        <time>2015-03-12T10:44:51Z</time>
      </trkpt>
      <trkpt lat="42.97369" lon="-0.24606">
        <ele>1543.3</ele>
        <time>2015-03-12T10:44:52Z</time>
      </trkpt>
      <trkpt lat="42.97372" lon="-0.24602">
        <ele>1543</ele>
        <time>2015-03-12T10:44:53Z</time>
      </trkpt>
      <trkpt lat="42.97375" lon="-0.24596">
        <ele>1542.3</ele>
        <time>2015-03-12T10:44:54Z</time>
      </trkpt>
      <trkpt lat="42.97378" lon="-0.24591">
        <ele>1541.7</ele>
        <time>2015-03-12T10:44:55Z</time>
      </trkpt>
      <trkpt lat="42.97381" lon="-0.24584">
        <ele>1541.2</ele>
        <time>2015-03-12T10:44:56Z</time>
      </trkpt>
      <trkpt lat="42.97385" lon="-0.24578">
        <ele>1540.3</ele>
        <time>2015-03-12T10:44:57Z</time>
      </trkpt>
      <trkpt lat="42.9739" lon="-0.24571">
        <ele>1539.5</ele>
        <time>2015-03-12T10:44:58Z</time>
      </trkpt>
      <trkpt lat="42.97395" lon="-0.24564">
        <ele>1539</ele>
        <time>2015-03-12T10:44:59Z</time>
      </trkpt>
      <trkpt lat="42.974" lon="-0.24559">
        <ele>1537.5</ele>
        <time>2015-03-12T10:45:00Z</time>
      </trkpt>
      <trkpt lat="42.97406" lon="-0.24554">
        <ele>1536.4</ele>
        <time>2015-03-12T10:45:01Z</time>
      </trkpt>
      <trkpt lat="42.9741" lon="-0.2455">
        <ele>1535.6</ele>
        <time>2015-03-12T10:45:02Z</time>
      </trkpt>
      <trkpt lat="42.97417" lon="-0.24542">
        <ele>1534.8</ele>
        <time>2015-03-12T10:45:04Z</time>
      </trkpt>
      <trkpt lat="42.97422" lon="-0.24535">
        <ele>1534</ele>
        <time>2015-03-12T10:45:06Z</time>
      </trkpt>
      <trkpt lat="42.97429" lon="-0.24526">
        <ele>1533.3</ele>
        <time>2015-03-12T10:45:09Z</time>
      </trkpt>
      <trkpt lat="42.97431" lon="-0.24515">
        <ele>1533.9</ele>
        <time>2015-03-12T10:45:15Z</time>
      </trkpt>
      <trkpt lat="42.97424" lon="-0.24509">
        <ele>1534.1</ele>
        <time>2015-03-12T10:45:21Z</time>
      </trkpt>
      <trkpt lat="42.97419" lon="-0.245">
        <ele>1534.1</ele>
        <time>2015-03-12T10:45:25Z</time>
      </trkpt>
      <trkpt lat="42.97415" lon="-0.24491">
        <ele>1533.6</ele>
        <time>2015-03-12T10:45:29Z</time>
      </trkpt>
      <trkpt lat="42.9741" lon="-0.24484">
        <ele>1533.4</ele>
        <time>2015-03-12T10:45:32Z</time>
      </trkpt>
      <trkpt lat="42.97403" lon="-0.24481">
        <ele>1532.4</ele>
        <time>2015-03-12T10:45:35Z</time>
      </trkpt>
      <trkpt lat="42.97395" lon="-0.24478">
        <ele>1531.1</ele>
        <time>2015-03-12T10:45:38Z</time>
      </trkpt>
      <trkpt lat="42.97391" lon="-0.24477">
        <ele>1530.8</ele>
        <time>2015-03-12T10:45:39Z</time>
      </trkpt>
      <trkpt lat="42.97385" lon="-0.24469">
        <ele>1529.9</ele>
        <time>2015-03-12T10:45:41Z</time>
      </trkpt>
      <trkpt lat="42.97382" lon="-0.24464">
        <ele>1529.4</ele>
        <time>2015-03-12T10:45:42Z</time>
      </trkpt>
      <trkpt lat="42.9738" lon="-0.24458">
        <ele>1529.1</ele>
        <time>2015-03-12T10:45:43Z</time>
      </trkpt>
      <trkpt lat="42.97378" lon="-0.24446">
        <ele>1528</ele>
        <time>2015-03-12T10:45:45Z</time>
      </trkpt>
      <trkpt lat="42.97378" lon="-0.24436">
        <ele>1526.9</ele>
        <time>2015-03-12T10:45:47Z</time>
      </trkpt>
      <trkpt lat="42.97377" lon="-0.24426">
        <ele>1526.2</ele>
        <time>2015-03-12T10:45:49Z</time>
      </trkpt>
      <trkpt lat="42.97374" lon="-0.24417">
        <ele>1525.4</ele>
        <time>2015-03-12T10:45:52Z</time>
      </trkpt>
      <trkpt lat="42.97367" lon="-0.2441">
        <ele>1525</ele>
        <time>2015-03-12T10:45:56Z</time>
      </trkpt>
      <trkpt lat="42.9736" lon="-0.24407">
        <ele>1524.9</ele>
        <time>2015-03-12T10:46:00Z</time>
      </trkpt>
      <trkpt lat="42.97353" lon="-0.24403">
        <ele>1525.6</ele>
        <time>2015-03-12T10:46:04Z</time>
      </trkpt>
      <trkpt lat="42.97346" lon="-0.24399">
        <ele>1526</ele>
        <time>2015-03-12T10:46:08Z</time>
      </trkpt>
      <trkpt lat="42.97339" lon="-0.24395">
        <ele>1525.3</ele>
        <time>2015-03-12T10:46:12Z</time>
      </trkpt>
      <trkpt lat="42.97332" lon="-0.24392">
        <ele>1524.9</ele>
        <time>2015-03-12T10:46:16Z</time>
      </trkpt>
      <trkpt lat="42.97325" lon="-0.24388">
        <ele>1525.5</ele>
        <time>2015-03-12T10:46:20Z</time>
      </trkpt>
      <trkpt lat="42.97317" lon="-0.24384">
        <ele>1526.2</ele>
        <time>2015-03-12T10:46:25Z</time>
      </trkpt>
      <trkpt lat="42.97309" lon="-0.24379">
        <ele>1526.9</ele>
        <time>2015-03-12T10:46:30Z</time>
      </trkpt>
      <trkpt lat="42.97302" lon="-0.24373">
        <ele>1526</ele>
        <time>2015-03-12T10:46:35Z</time>
      </trkpt>
      <trkpt lat="42.97296" lon="-0.24366">
        <ele>1526.7</ele>
        <time>2015-03-12T10:46:40Z</time>
      </trkpt>
      <trkpt lat="42.97295" lon="-0.24365">
        <ele>1526.7</ele>
        <time>2015-03-12T10:46:41Z</time>
      </trkpt>
      <trkpt lat="42.97284" lon="-0.24349">
        <ele>1529.2</ele>
        <time>2015-03-12T10:46:52Z</time>
      </trkpt>
      <trkpt lat="42.97278" lon="-0.24341">
        <ele>1531.2</ele>
        <time>2015-03-12T10:46:58Z</time>
      </trkpt>
      <trkpt lat="42.97273" lon="-0.24333">
        <ele>1531.1</ele>
        <time>2015-03-12T10:47:03Z</time>
      </trkpt>
      <trkpt lat="42.97266" lon="-0.24326">
        <ele>1532.5</ele>
        <time>2015-03-12T10:47:09Z</time>
      </trkpt>
      <trkpt lat="42.97258" lon="-0.24324">
        <ele>1533.5</ele>
        <time>2015-03-12T10:47:15Z</time>
      </trkpt>
      <trkpt lat="42.97249" lon="-0.24326">
        <ele>1534.2</ele>
        <time>2015-03-12T10:47:21Z</time>
      </trkpt>
      <trkpt lat="42.97242" lon="-0.24327">
        <ele>1533.9</ele>
        <time>2015-03-12T10:47:25Z</time>
      </trkpt>
      <trkpt lat="42.97235" lon="-0.24328">
        <ele>1533.8</ele>
        <time>2015-03-12T10:47:28Z</time>
      </trkpt>
      <trkpt lat="42.97226" lon="-0.24328">
        <ele>1534</ele>
        <time>2015-03-12T10:47:31Z</time>
      </trkpt>
      <trkpt lat="42.9722" lon="-0.2433">
        <ele>1533.5</ele>
        <time>2015-03-12T10:47:33Z</time>
      </trkpt>
      <trkpt lat="42.97215" lon="-0.24335">
        <ele>1532.8</ele>
        <time>2015-03-12T10:47:35Z</time>
      </trkpt>
      <trkpt lat="42.97212" lon="-0.24343">
        <ele>1531.9</ele>
        <time>2015-03-12T10:47:37Z</time>
      </trkpt>
      <trkpt lat="42.97209" lon="-0.2435">
        <ele>1531.4</ele>
        <time>2015-03-12T10:47:39Z</time>
      </trkpt>
      <trkpt lat="42.97207" lon="-0.24358">
        <ele>1530.8</ele>
        <time>2015-03-12T10:47:41Z</time>
      </trkpt>
      <trkpt lat="42.97205" lon="-0.24362">
        <ele>1530.6</ele>
        <time>2015-03-12T10:47:42Z</time>
      </trkpt>
      <trkpt lat="42.972" lon="-0.24374">
        <ele>1530.1</ele>
        <time>2015-03-12T10:47:45Z</time>
      </trkpt>
      <trkpt lat="42.97195" lon="-0.24381">
        <ele>1529.3</ele>
        <time>2015-03-12T10:47:47Z</time>
      </trkpt>
      <trkpt lat="42.9719" lon="-0.24387">
        <ele>1528.7</ele>
        <time>2015-03-12T10:47:49Z</time>
      </trkpt>
      <trkpt lat="42.97183" lon="-0.24389">
        <ele>1528.3</ele>
        <time>2015-03-12T10:47:51Z</time>
      </trkpt>
      <trkpt lat="42.97176" lon="-0.24386">
        <ele>1527.6</ele>
        <time>2015-03-12T10:47:53Z</time>
      </trkpt>
      <trkpt lat="42.97169" lon="-0.2438">
        <ele>1527</ele>
        <time>2015-03-12T10:47:55Z</time>
      </trkpt>
      <trkpt lat="42.97163" lon="-0.24373">
        <ele>1526.4</ele>
        <time>2015-03-12T10:47:57Z</time>
      </trkpt>
      <trkpt lat="42.97159" lon="-0.24366">
        <ele>1525.7</ele>
        <time>2015-03-12T10:47:59Z</time>
      </trkpt>
      <trkpt lat="42.97154" lon="-0.24358">
        <ele>1525</ele>
        <time>2015-03-12T10:48:01Z</time>
      </trkpt>
      <trkpt lat="42.97149" lon="-0.2435">
        <ele>1524.8</ele>
        <time>2015-03-12T10:48:03Z</time>
      </trkpt>
      <trkpt lat="42.97144" lon="-0.24343">
        <ele>1524.5</ele>
        <time>2015-03-12T10:48:05Z</time>
      </trkpt>
      <trkpt lat="42.97139" lon="-0.24337">
        <ele>1524.1</ele>
        <time>2015-03-12T10:48:07Z</time>
      </trkpt>
      <trkpt lat="42.97133" lon="-0.24335">
        <ele>1524</ele>
        <time>2015-03-12T10:48:09Z</time>
      </trkpt>
      <trkpt lat="42.97125" lon="-0.24339">
        <ele>1523.3</ele>
        <time>2015-03-12T10:48:12Z</time>
      </trkpt>
      <trkpt lat="42.9712" lon="-0.24345">
        <ele>1522.9</ele>
        <time>2015-03-12T10:48:14Z</time>
      </trkpt>
      <trkpt lat="42.97117" lon="-0.24351">
        <ele>1522.8</ele>
        <time>2015-03-12T10:48:16Z</time>
      </trkpt>
      <trkpt lat="42.97114" lon="-0.24359">
        <ele>1522.3</ele>
        <time>2015-03-12T10:48:18Z</time>
      </trkpt>
      <trkpt lat="42.97112" lon="-0.24368">
        <ele>1521.6</ele>
        <time>2015-03-12T10:48:20Z</time>
      </trkpt>
      <trkpt lat="42.97109" lon="-0.24376">
        <ele>1521.4</ele>
        <time>2015-03-12T10:48:22Z</time>
      </trkpt>
      <trkpt lat="42.97105" lon="-0.24385">
        <ele>1521.7</ele>
        <time>2015-03-12T10:48:25Z</time>
      </trkpt>
      <trkpt lat="42.97103" lon="-0.24394">
        <ele>1521.5</ele>
        <time>2015-03-12T10:48:28Z</time>
      </trkpt>
      <trkpt lat="42.971" lon="-0.24403">
        <ele>1521.3</ele>
        <time>2015-03-12T10:48:31Z</time>
      </trkpt>
      <trkpt lat="42.97098" lon="-0.24414">
        <ele>1521.2</ele>
        <time>2015-03-12T10:48:34Z</time>
      </trkpt>
      <trkpt lat="42.97097" lon="-0.24423">
        <ele>1521.1</ele>
        <time>2015-03-12T10:48:36Z</time>
      </trkpt>
      <trkpt lat="42.97097" lon="-0.24432">
        <ele>1520.4</ele>
        <time>2015-03-12T10:48:38Z</time>
      </trkpt>
      <trkpt lat="42.97096" lon="-0.24442">
        <ele>1519.5</ele>
        <time>2015-03-12T10:48:40Z</time>
      </trkpt>
      <trkpt lat="42.97094" lon="-0.24453">
        <ele>1518.6</ele>
        <time>2015-03-12T10:48:42Z</time>
      </trkpt>
      <trkpt lat="42.97093" lon="-0.24458">
        <ele>1518.3</ele>
        <time>2015-03-12T10:48:43Z</time>
      </trkpt>
      <trkpt lat="42.9709" lon="-0.24473">
        <ele>1517.6</ele>
        <time>2015-03-12T10:48:46Z</time>
      </trkpt>
      <trkpt lat="42.97088" lon="-0.24484">
        <ele>1516.1</ele>
        <time>2015-03-12T10:48:48Z</time>
      </trkpt>
      <trkpt lat="42.97086" lon="-0.24495">
        <ele>1515.7</ele>
        <time>2015-03-12T10:48:50Z</time>
      </trkpt>
      <trkpt lat="42.97084" lon="-0.24505">
        <ele>1515.7</ele>
        <time>2015-03-12T10:48:52Z</time>
      </trkpt>
      <trkpt lat="42.97081" lon="-0.24516">
        <ele>1515.4</ele>
        <time>2015-03-12T10:48:55Z</time>
      </trkpt>
      <trkpt lat="42.97077" lon="-0.24525">
        <ele>1514.7</ele>
        <time>2015-03-12T10:48:58Z</time>
      </trkpt>
      <trkpt lat="42.97073" lon="-0.24532">
        <ele>1514.7</ele>
        <time>2015-03-12T10:49:01Z</time>
      </trkpt>
      <trkpt lat="42.97067" lon="-0.2454">
        <ele>1515.2</ele>
        <time>2015-03-12T10:49:05Z</time>
      </trkpt>
      <trkpt lat="42.97062" lon="-0.24547">
        <ele>1515.5</ele>
        <time>2015-03-12T10:49:09Z</time>
      </trkpt>
      <trkpt lat="42.97058" lon="-0.24555">
        <ele>1516</ele>
        <time>2015-03-12T10:49:13Z</time>
      </trkpt>
      <trkpt lat="42.97056" lon="-0.24565">
        <ele>1515.8</ele>
        <time>2015-03-12T10:49:17Z</time>
      </trkpt>
      <trkpt lat="42.97055" lon="-0.24575">
        <ele>1516.6</ele>
        <time>2015-03-12T10:49:21Z</time>
      </trkpt>
      <trkpt lat="42.97056" lon="-0.24587">
        <ele>1516.3</ele>
        <time>2015-03-12T10:49:25Z</time>
      </trkpt>
      <trkpt lat="42.97058" lon="-0.24598">
        <ele>1516.4</ele>
        <time>2015-03-12T10:49:29Z</time>
      </trkpt>
      <trkpt lat="42.97061" lon="-0.24608">
        <ele>1516.5</ele>
        <time>2015-03-12T10:49:33Z</time>
      </trkpt>
      <trkpt lat="42.97063" lon="-0.24617">
        <ele>1516.2</ele>
        <time>2015-03-12T10:49:36Z</time>
      </trkpt>
      <trkpt lat="42.97066" lon="-0.24627">
        <ele>1515.6</ele>
        <time>2015-03-12T10:49:39Z</time>
      </trkpt>
      <trkpt lat="42.97068" lon="-0.24638">
        <ele>1516.1</ele>
        <time>2015-03-12T10:49:43Z</time>
      </trkpt>
      <trkpt lat="42.97068" lon="-0.24641">
        <ele>1516.5</ele>
        <time>2015-03-12T10:49:44Z</time>
      </trkpt>
      <trkpt lat="42.97071" lon="-0.24661">
        <ele>1516.3</ele>
        <time>2015-03-12T10:49:51Z</time>
      </trkpt>
      <trkpt lat="42.97073" lon="-0.24671">
        <ele>1517.1</ele>
        <time>2015-03-12T10:49:55Z</time>
      </trkpt>
      <trkpt lat="42.97072" lon="-0.24683">
        <ele>1516.3</ele>
        <time>2015-03-12T10:49:59Z</time>
      </trkpt>
      <trkpt lat="42.97069" lon="-0.24694">
        <ele>1517</ele>
        <time>2015-03-12T10:50:03Z</time>
      </trkpt>
      <trkpt lat="42.97064" lon="-0.24701">
        <ele>1517.5</ele>
        <time>2015-03-12T10:50:07Z</time>
      </trkpt>
      <trkpt lat="42.97058" lon="-0.24708">
        <ele>1517.8</ele>
        <time>2015-03-12T10:50:11Z</time>
      </trkpt>
      <trkpt lat="42.97052" lon="-0.24713">
        <ele>1518.3</ele>
        <time>2015-03-12T10:50:14Z</time>
      </trkpt>
      <trkpt lat="42.97046" lon="-0.24717">
        <ele>1517.9</ele>
        <time>2015-03-12T10:50:17Z</time>
      </trkpt>
      <trkpt lat="42.97038" lon="-0.24722">
        <ele>1517.5</ele>
        <time>2015-03-12T10:50:20Z</time>
      </trkpt>
      <trkpt lat="42.97032" lon="-0.24726">
        <ele>1517.3</ele>
        <time>2015-03-12T10:50:22Z</time>
      </trkpt>
      <trkpt lat="42.97026" lon="-0.24729">
        <ele>1517</ele>
        <time>2015-03-12T10:50:24Z</time>
      </trkpt>
      <trkpt lat="42.9702" lon="-0.24733">
        <ele>1516.4</ele>
        <time>2015-03-12T10:50:26Z</time>
      </trkpt>
      <trkpt lat="42.97015" lon="-0.24738">
        <ele>1515.9</ele>
        <time>2015-03-12T10:50:28Z</time>
      </trkpt>
      <trkpt lat="42.97008" lon="-0.24745">
        <ele>1515.3</ele>
        <time>2015-03-12T10:50:30Z</time>
      </trkpt>
      <trkpt lat="42.97004" lon="-0.2475">
        <ele>1515.1</ele>
        <time>2015-03-12T10:50:31Z</time>
      </trkpt>
      <trkpt lat="42.96999" lon="-0.2476">
        <ele>1514.3</ele>
        <time>2015-03-12T10:50:33Z</time>
      </trkpt>
      <trkpt lat="42.96997" lon="-0.24765">
        <ele>1514.1</ele>
        <time>2015-03-12T10:50:34Z</time>
      </trkpt>
      <trkpt lat="42.96994" lon="-0.24777">
        <ele>1513.1</ele>
        <time>2015-03-12T10:50:36Z</time>
      </trkpt>
      <trkpt lat="42.9699" lon="-0.24786">
        <ele>1512</ele>
        <time>2015-03-12T10:50:38Z</time>
      </trkpt>
      <trkpt lat="42.96988" lon="-0.24795">
        <ele>1510.8</ele>
        <time>2015-03-12T10:50:41Z</time>
      </trkpt>
      <trkpt lat="42.96985" lon="-0.24805">
        <ele>1510.6</ele>
        <time>2015-03-12T10:50:44Z</time>
      </trkpt>
      <trkpt lat="42.96983" lon="-0.24808">
        <ele>1510.6</ele>
        <time>2015-03-12T10:50:45Z</time>
      </trkpt>
      <trkpt lat="42.96978" lon="-0.24821">
        <ele>1509.9</ele>
        <time>2015-03-12T10:50:49Z</time>
      </trkpt>
      <trkpt lat="42.96974" lon="-0.24828">
        <ele>1509.7</ele>
        <time>2015-03-12T10:50:51Z</time>
      </trkpt>
      <trkpt lat="42.9697" lon="-0.24834">
        <ele>1509.9</ele>
        <time>2015-03-12T10:50:53Z</time>
      </trkpt>
      <trkpt lat="42.96963" lon="-0.24842">
        <ele>1510.3</ele>
        <time>2015-03-12T10:50:56Z</time>
      </trkpt>
      <trkpt lat="42.96957" lon="-0.24848">
        <ele>1510.9</ele>
        <time>2015-03-12T10:50:59Z</time>
      </trkpt>
      <trkpt lat="42.96952" lon="-0.24853">
        <ele>1510.6</ele>
        <time>2015-03-12T10:51:02Z</time>
      </trkpt>
      <trkpt lat="42.96945" lon="-0.24858">
        <ele>1509.4</ele>
        <time>2015-03-12T10:51:05Z</time>
      </trkpt>
      <trkpt lat="42.96939" lon="-0.24864">
        <ele>1508.9</ele>
        <time>2015-03-12T10:51:08Z</time>
      </trkpt>
      <trkpt lat="42.96933" lon="-0.24871">
        <ele>1509.6</ele>
        <time>2015-03-12T10:51:11Z</time>
      </trkpt>
      <trkpt lat="42.96926" lon="-0.24878">
        <ele>1509.5</ele>
        <time>2015-03-12T10:51:14Z</time>
      </trkpt>
      <trkpt lat="42.9692" lon="-0.24882">
        <ele>1509.4</ele>
        <time>2015-03-12T10:51:16Z</time>
      </trkpt>
      <trkpt lat="42.96914" lon="-0.24885">
        <ele>1509</ele>
        <time>2015-03-12T10:51:18Z</time>
      </trkpt>
      <trkpt lat="42.96908" lon="-0.24886">
        <ele>1508.8</ele>
        <time>2015-03-12T10:51:20Z</time>
      </trkpt>
      <trkpt lat="42.96901" lon="-0.24883">
        <ele>1508.7</ele>
        <time>2015-03-12T10:51:22Z</time>
      </trkpt>
      <trkpt lat="42.96895" lon="-0.24878">
        <ele>1507.6</ele>
        <time>2015-03-12T10:51:24Z</time>
      </trkpt>
      <trkpt lat="42.96889" lon="-0.24873">
        <ele>1507.7</ele>
        <time>2015-03-12T10:51:27Z</time>
      </trkpt>
      <trkpt lat="42.96883" lon="-0.24868">
        <ele>1507.8</ele>
        <time>2015-03-12T10:51:30Z</time>
      </trkpt>
      <trkpt lat="42.96875" lon="-0.24863">
        <ele>1507.6</ele>
        <time>2015-03-12T10:51:33Z</time>
      </trkpt>
      <trkpt lat="42.96869" lon="-0.2486">
        <ele>1507.3</ele>
        <time>2015-03-12T10:51:35Z</time>
      </trkpt>
      <trkpt lat="42.96863" lon="-0.24855">
        <ele>1506.4</ele>
        <time>2015-03-12T10:51:37Z</time>
      </trkpt>
      <trkpt lat="42.96855" lon="-0.24853">
        <ele>1505.7</ele>
        <time>2015-03-12T10:51:39Z</time>
      </trkpt>
      <trkpt lat="42.96848" lon="-0.24852">
        <ele>1505.2</ele>
        <time>2015-03-12T10:51:41Z</time>
      </trkpt>
      <trkpt lat="42.96841" lon="-0.24852">
        <ele>1504.8</ele>
        <time>2015-03-12T10:51:43Z</time>
      </trkpt>
      <trkpt lat="42.96835" lon="-0.24852">
        <ele>1505</ele>
        <time>2015-03-12T10:51:45Z</time>
      </trkpt>
      <trkpt lat="42.96832" lon="-0.24851">
        <ele>1505.2</ele>
        <time>2015-03-12T10:51:46Z</time>
      </trkpt>
      <trkpt lat="42.96823" lon="-0.24849">
        <ele>1505.1</ele>
        <time>2015-03-12T10:51:49Z</time>
      </trkpt>
      <trkpt lat="42.96816" lon="-0.24846">
        <ele>1504.6</ele>
        <time>2015-03-12T10:51:51Z</time>
      </trkpt>
      <trkpt lat="42.96809" lon="-0.24841">
        <ele>1503.8</ele>
        <time>2015-03-12T10:51:53Z</time>
      </trkpt>
      <trkpt lat="42.96801" lon="-0.24835">
        <ele>1503</ele>
        <time>2015-03-12T10:51:55Z</time>
      </trkpt>
      <trkpt lat="42.96795" lon="-0.24831">
        <ele>1502.2</ele>
        <time>2015-03-12T10:51:57Z</time>
      </trkpt>
      <trkpt lat="42.96788" lon="-0.24827">
        <ele>1502.5</ele>
        <time>2015-03-12T10:51:59Z</time>
      </trkpt>
      <trkpt lat="42.96779" lon="-0.24826">
        <ele>1502.2</ele>
        <time>2015-03-12T10:52:02Z</time>
      </trkpt>
      <trkpt lat="42.96772" lon="-0.24829">
        <ele>1501.7</ele>
        <time>2015-03-12T10:52:05Z</time>
      </trkpt>
      <trkpt lat="42.96766" lon="-0.24836">
        <ele>1501.3</ele>
        <time>2015-03-12T10:52:08Z</time>
      </trkpt>
      <trkpt lat="42.96761" lon="-0.24841">
        <ele>1501.2</ele>
        <time>2015-03-12T10:52:10Z</time>
      </trkpt>
      <trkpt lat="42.96755" lon="-0.2485">
        <ele>1500.6</ele>
        <time>2015-03-12T10:52:13Z</time>
      </trkpt>
      <trkpt lat="42.9675" lon="-0.24859">
        <ele>1500.1</ele>
        <time>2015-03-12T10:52:16Z</time>
      </trkpt>
      <trkpt lat="42.96747" lon="-0.24868">
        <ele>1499.5</ele>
        <time>2015-03-12T10:52:20Z</time>
      </trkpt>
      <trkpt lat="42.96744" lon="-0.24878">
        <ele>1498.9</ele>
        <time>2015-03-12T10:52:25Z</time>
      </trkpt>
      <trkpt lat="42.96743" lon="-0.24888">
        <ele>1498.7</ele>
        <time>2015-03-12T10:52:30Z</time>
      </trkpt>
      <trkpt lat="42.9674" lon="-0.249">
        <ele>1499.2</ele>
        <time>2015-03-12T10:52:35Z</time>
      </trkpt>
      <trkpt lat="42.96738" lon="-0.24909">
        <ele>1499.5</ele>
        <time>2015-03-12T10:52:39Z</time>
      </trkpt>
      <trkpt lat="42.96735" lon="-0.2492">
        <ele>1500.4</ele>
        <time>2015-03-12T10:52:43Z</time>
      </trkpt>
      <trkpt lat="42.96731" lon="-0.24929">
        <ele>1499.5</ele>
        <time>2015-03-12T10:52:47Z</time>
      </trkpt>
      <trkpt lat="42.96729" lon="-0.24931">
        <ele>1499.4</ele>
        <time>2015-03-12T10:52:48Z</time>
      </trkpt>
      <trkpt lat="42.96716" lon="-0.2494">
        <ele>1500.8</ele>
        <time>2015-03-12T10:52:56Z</time>
      </trkpt>
      <trkpt lat="42.96709" lon="-0.24944">
        <ele>1500.3</ele>
        <time>2015-03-12T10:52:59Z</time>
      </trkpt>
      <trkpt lat="42.96701" lon="-0.24949">
        <ele>1499.4</ele>
        <time>2015-03-12T10:53:02Z</time>
      </trkpt>
      <trkpt lat="42.96692" lon="-0.24952">
        <ele>1499.4</ele>
        <time>2015-03-12T10:53:06Z</time>
      </trkpt>
      <trkpt lat="42.96685" lon="-0.24955">
        <ele>1500.2</ele>
        <time>2015-03-12T10:53:10Z</time>
      </trkpt>
      <trkpt lat="42.96677" lon="-0.2496">
        <ele>1500.3</ele>
        <time>2015-03-12T10:53:14Z</time>
      </trkpt>
      <trkpt lat="42.9667" lon="-0.24966">
        <ele>1499.9</ele>
        <time>2015-03-12T10:53:18Z</time>
      </trkpt>
      <trkpt lat="42.96662" lon="-0.24972">
        <ele>1500</ele>
        <time>2015-03-12T10:53:22Z</time>
      </trkpt>
      <trkpt lat="42.96655" lon="-0.24977">
        <ele>1499.8</ele>
        <time>2015-03-12T10:53:25Z</time>
      </trkpt>
      <trkpt lat="42.96649" lon="-0.24983">
        <ele>1499.3</ele>
        <time>2015-03-12T10:53:28Z</time>
      </trkpt>
      <trkpt lat="42.96642" lon="-0.2499">
        <ele>1498.7</ele>
        <time>2015-03-12T10:53:31Z</time>
      </trkpt>
      <trkpt lat="42.96635" lon="-0.24996">
        <ele>1498.7</ele>
        <time>2015-03-12T10:53:34Z</time>
      </trkpt>
      <trkpt lat="42.96628" lon="-0.25003">
        <ele>1498.9</ele>
        <time>2015-03-12T10:53:38Z</time>
      </trkpt>
      <trkpt lat="42.96623" lon="-0.25008">
        <ele>1498.2</ele>
        <time>2015-03-12T10:53:41Z</time>
      </trkpt>
      <trkpt lat="42.96617" lon="-0.25016">
        <ele>1497.4</ele>
        <time>2015-03-12T10:53:44Z</time>
      </trkpt>
      <trkpt lat="42.96614" lon="-0.25024">
        <ele>1497</ele>
        <time>2015-03-12T10:53:46Z</time>
      </trkpt>
      <trkpt lat="42.96612" lon="-0.25033">
        <ele>1497.4</ele>
        <time>2015-03-12T10:53:48Z</time>
      </trkpt>
      <trkpt lat="42.9661" lon="-0.25037">
        <ele>1497.6</ele>
        <time>2015-03-12T10:53:49Z</time>
      </trkpt>
      <trkpt lat="42.96605" lon="-0.2505">
        <ele>1497</ele>
        <time>2015-03-12T10:53:53Z</time>
      </trkpt>
      <trkpt lat="42.96602" lon="-0.25061">
        <ele>1496.9</ele>
        <time>2015-03-12T10:53:58Z</time>
      </trkpt>
      <trkpt lat="42.966" lon="-0.25072">
        <ele>1496.8</ele>
        <time>2015-03-12T10:54:03Z</time>
      </trkpt>
      <trkpt lat="42.96599" lon="-0.25084">
        <ele>1498</ele>
        <time>2015-03-12T10:54:09Z</time>
      </trkpt>
      <trkpt lat="42.96599" lon="-0.25095">
        <ele>1498.5</ele>
        <time>2015-03-12T10:54:14Z</time>
      </trkpt>
      <trkpt lat="42.96601" lon="-0.25106">
        <ele>1498.5</ele>
        <time>2015-03-12T10:54:19Z</time>
      </trkpt>
      <trkpt lat="42.96604" lon="-0.25117">
        <ele>1499</ele>
        <time>2015-03-12T10:54:23Z</time>
      </trkpt>
      <trkpt lat="42.96604" lon="-0.25127">
        <ele>1499.5</ele>
        <time>2015-03-12T10:54:27Z</time>
      </trkpt>
      <trkpt lat="42.96604" lon="-0.25137">
        <ele>1499.6</ele>
        <time>2015-03-12T10:54:31Z</time>
      </trkpt>
      <trkpt lat="42.96604" lon="-0.25147">
        <ele>1500</ele>
        <time>2015-03-12T10:54:35Z</time>
      </trkpt>
      <trkpt lat="42.96602" lon="-0.25157">
        <ele>1499.7</ele>
        <time>2015-03-12T10:54:39Z</time>
      </trkpt>
      <trkpt lat="42.966" lon="-0.25168">
        <ele>1499.5</ele>
        <time>2015-03-12T10:54:43Z</time>
      </trkpt>
      <trkpt lat="42.96598" lon="-0.25178">
        <ele>1499.5</ele>
        <time>2015-03-12T10:54:47Z</time>
      </trkpt>
      <trkpt lat="42.96595" lon="-0.25189">
        <ele>1499</ele>
        <time>2015-03-12T10:54:51Z</time>
      </trkpt>
      <trkpt lat="42.96594" lon="-0.25192">
        <ele>1498.8</ele>
        <time>2015-03-12T10:54:52Z</time>
      </trkpt>
      <trkpt lat="42.96593" lon="-0.25207">
        <ele>1499.6</ele>
        <time>2015-03-12T10:54:55Z</time>
      </trkpt>
      <trkpt lat="42.96594" lon="-0.25218">
        <ele>1499.4</ele>
        <time>2015-03-12T10:54:57Z</time>
      </trkpt>
      <trkpt lat="42.96592" lon="-0.25229">
        <ele>1498.4</ele>
        <time>2015-03-12T10:55:00Z</time>
      </trkpt>
      <trkpt lat="42.9659" lon="-0.25241">
        <ele>1497.1</ele>
        <time>2015-03-12T10:55:04Z</time>
      </trkpt>
      <trkpt lat="42.96585" lon="-0.25248">
        <ele>1497.2</ele>
        <time>2015-03-12T10:55:07Z</time>
      </trkpt>
      <trkpt lat="42.96579" lon="-0.25254">
        <ele>1497.1</ele>
        <time>2015-03-12T10:55:10Z</time>
      </trkpt>
      <trkpt lat="42.96572" lon="-0.25259">
        <ele>1496.6</ele>
        <time>2015-03-12T10:55:13Z</time>
      </trkpt>
      <trkpt lat="42.96566" lon="-0.25261">
        <ele>1496.5</ele>
        <time>2015-03-12T10:55:15Z</time>
      </trkpt>
      <trkpt lat="42.96557" lon="-0.25264">
        <ele>1497.1</ele>
        <time>2015-03-12T10:55:18Z</time>
      </trkpt>
      <trkpt lat="42.9655" lon="-0.25268">
        <ele>1497.3</ele>
        <time>2015-03-12T10:55:21Z</time>
      </trkpt>
      <trkpt lat="42.96543" lon="-0.25273">
        <ele>1496.8</ele>
        <time>2015-03-12T10:55:25Z</time>
      </trkpt>
      <trkpt lat="42.96536" lon="-0.25279">
        <ele>1497.5</ele>
        <time>2015-03-12T10:55:30Z</time>
      </trkpt>
      <trkpt lat="42.96528" lon="-0.25284">
        <ele>1498.2</ele>
        <time>2015-03-12T10:55:34Z</time>
      </trkpt>
      <trkpt lat="42.96521" lon="-0.25288">
        <ele>1498.1</ele>
        <time>2015-03-12T10:55:37Z</time>
      </trkpt>
      <trkpt lat="42.96515" lon="-0.25293">
        <ele>1497.8</ele>
        <time>2015-03-12T10:55:40Z</time>
      </trkpt>
      <trkpt lat="42.9651" lon="-0.25297">
        <ele>1497.5</ele>
        <time>2015-03-12T10:55:42Z</time>
      </trkpt>
      <trkpt lat="42.96503" lon="-0.25303">
        <ele>1497.3</ele>
        <time>2015-03-12T10:55:44Z</time>
      </trkpt>
      <trkpt lat="42.96496" lon="-0.25306">
        <ele>1496.9</ele>
        <time>2015-03-12T10:55:46Z</time>
      </trkpt>
      <trkpt lat="42.96489" lon="-0.25308">
        <ele>1496.1</ele>
        <time>2015-03-12T10:55:48Z</time>
      </trkpt>
      <trkpt lat="42.96483" lon="-0.2531">
        <ele>1495.3</ele>
        <time>2015-03-12T10:55:50Z</time>
      </trkpt>
      <trkpt lat="42.96475" lon="-0.25313">
        <ele>1494.8</ele>
        <time>2015-03-12T10:55:53Z</time>
      </trkpt>
      <trkpt lat="42.96472" lon="-0.25314">
        <ele>1494.7</ele>
        <time>2015-03-12T10:55:54Z</time>
      </trkpt>
      <trkpt lat="42.96458" lon="-0.25314">
        <ele>1494.3</ele>
        <time>2015-03-12T10:55:59Z</time>
      </trkpt>
      <trkpt lat="42.96451" lon="-0.25314">
        <ele>1493.9</ele>
        <time>2015-03-12T10:56:02Z</time>
      </trkpt>
      <trkpt lat="42.96444" lon="-0.25311">
        <ele>1492.7</ele>
        <time>2015-03-12T10:56:05Z</time>
      </trkpt>
      <trkpt lat="42.96438" lon="-0.25306">
        <ele>1492</ele>
        <time>2015-03-12T10:56:07Z</time>
      </trkpt>
      <trkpt lat="42.9643" lon="-0.25302">
        <ele>1491.1</ele>
        <time>2015-03-12T10:56:10Z</time>
      </trkpt>
      <trkpt lat="42.96423" lon="-0.25298">
        <ele>1490.5</ele>
        <time>2015-03-12T10:56:12Z</time>
      </trkpt>
      <trkpt lat="42.96416" lon="-0.25292">
        <ele>1489.7</ele>
        <time>2015-03-12T10:56:16Z</time>
      </trkpt>
      <trkpt lat="42.96414" lon="-0.25284">
        <ele>1488.8</ele>
        <time>2015-03-12T10:56:18Z</time>
      </trkpt>
      <trkpt lat="42.96417" lon="-0.25276">
        <ele>1488.1</ele>
        <time>2015-03-12T10:56:20Z</time>
      </trkpt>
      <trkpt lat="42.96424" lon="-0.25269">
        <ele>1487.4</ele>
        <time>2015-03-12T10:56:22Z</time>
      </trkpt>
      <trkpt lat="42.96429" lon="-0.25266">
        <ele>1486.2</ele>
        <time>2015-03-12T10:56:23Z</time>
      </trkpt>
      <trkpt lat="42.96434" lon="-0.25263">
        <ele>1485.3</ele>
        <time>2015-03-12T10:56:24Z</time>
      </trkpt>
      <trkpt lat="42.9644" lon="-0.25259">
        <ele>1484.7</ele>
        <time>2015-03-12T10:56:25Z</time>
      </trkpt>
      <trkpt lat="42.96447" lon="-0.25254">
        <ele>1482.9</ele>
        <time>2015-03-12T10:56:27Z</time>
      </trkpt>
      <trkpt lat="42.96453" lon="-0.25247">
        <ele>1482.2</ele>
        <time>2015-03-12T10:56:32Z</time>
      </trkpt>
      <trkpt lat="42.9646" lon="-0.25241">
        <ele>1483.5</ele>
        <time>2015-03-12T10:56:38Z</time>
      </trkpt>
      <trkpt lat="42.96467" lon="-0.25237">
        <ele>1483.9</ele>
        <time>2015-03-12T10:56:43Z</time>
      </trkpt>
      <trkpt lat="42.96475" lon="-0.25233">
        <ele>1483.9</ele>
        <time>2015-03-12T10:56:47Z</time>
      </trkpt>
      <trkpt lat="42.96482" lon="-0.25226">
        <ele>1484.6</ele>
        <time>2015-03-12T10:56:53Z</time>
      </trkpt>
      <trkpt lat="42.96488" lon="-0.25217">
        <ele>1485.1</ele>
        <time>2015-03-12T10:56:58Z</time>
      </trkpt>
      <trkpt lat="42.96489" lon="-0.25214">
        <ele>1485.3</ele>
        <time>2015-03-12T10:56:59Z</time>
      </trkpt>
      <trkpt lat="42.96493" lon="-0.25196">
        <ele>1485.5</ele>
        <time>2015-03-12T10:57:06Z</time>
      </trkpt>
      <trkpt lat="42.96495" lon="-0.25187">
        <ele>1485.3</ele>
        <time>2015-03-12T10:57:09Z</time>
      </trkpt>
      <trkpt lat="42.96499" lon="-0.25179">
        <ele>1485.2</ele>
        <time>2015-03-12T10:57:12Z</time>
      </trkpt>
      <trkpt lat="42.96505" lon="-0.25172">
        <ele>1484.8</ele>
        <time>2015-03-12T10:57:16Z</time>
      </trkpt>
      <trkpt lat="42.96512" lon="-0.25167">
        <ele>1485.5</ele>
        <time>2015-03-12T10:57:20Z</time>
      </trkpt>
      <trkpt lat="42.9652" lon="-0.25161">
        <ele>1485.9</ele>
        <time>2015-03-12T10:57:25Z</time>
      </trkpt>
      <trkpt lat="42.96524" lon="-0.25154">
        <ele>1486.9</ele>
        <time>2015-03-12T10:57:28Z</time>
      </trkpt>
      <trkpt lat="42.96526" lon="-0.25143">
        <ele>1486.8</ele>
        <time>2015-03-12T10:57:31Z</time>
      </trkpt>
      <trkpt lat="42.96523" lon="-0.25133">
        <ele>1485.3</ele>
        <time>2015-03-12T10:57:34Z</time>
      </trkpt>
      <trkpt lat="42.96516" lon="-0.2513">
        <ele>1484.7</ele>
        <time>2015-03-12T10:57:37Z</time>
      </trkpt>
      <trkpt lat="42.96507" lon="-0.25132">
        <ele>1483.4</ele>
        <time>2015-03-12T10:57:41Z</time>
      </trkpt>
      <trkpt lat="42.96502" lon="-0.25137">
        <ele>1483.2</ele>
        <time>2015-03-12T10:57:44Z</time>
      </trkpt>
      <trkpt lat="42.96496" lon="-0.25142">
        <ele>1482.7</ele>
        <time>2015-03-12T10:57:47Z</time>
      </trkpt>
      <trkpt lat="42.96487" lon="-0.25146">
        <ele>1482.5</ele>
        <time>2015-03-12T10:57:50Z</time>
      </trkpt>
      <trkpt lat="42.96479" lon="-0.25147">
        <ele>1482</ele>
        <time>2015-03-12T10:57:53Z</time>
      </trkpt>
      <trkpt lat="42.96471" lon="-0.25144">
        <ele>1481.3</ele>
        <time>2015-03-12T10:57:57Z</time>
      </trkpt>
      <trkpt lat="42.96463" lon="-0.25143">
        <ele>1480.3</ele>
        <time>2015-03-12T10:58:01Z</time>
      </trkpt>
      <trkpt lat="42.96461" lon="-0.25143">
        <ele>1480.1</ele>
        <time>2015-03-12T10:58:02Z</time>
      </trkpt>
      <trkpt lat="42.96448" lon="-0.2514">
        <ele>1479.4</ele>
        <time>2015-03-12T10:58:08Z</time>
      </trkpt>
      <trkpt lat="42.9644" lon="-0.25135">
        <ele>1478.7</ele>
        <time>2015-03-12T10:58:13Z</time>
      </trkpt>
      <trkpt lat="42.96432" lon="-0.25132">
        <ele>1478.9</ele>
        <time>2015-03-12T10:58:18Z</time>
      </trkpt>
      <trkpt lat="42.96424" lon="-0.25129">
        <ele>1478.6</ele>
        <time>2015-03-12T10:58:22Z</time>
      </trkpt>
      <trkpt lat="42.96416" lon="-0.25126">
        <ele>1478.7</ele>
        <time>2015-03-12T10:58:26Z</time>
      </trkpt>
      <trkpt lat="42.96408" lon="-0.25122">
        <ele>1478.7</ele>
        <time>2015-03-12T10:58:29Z</time>
      </trkpt>
      <trkpt lat="42.96401" lon="-0.25118">
        <ele>1478.3</ele>
        <time>2015-03-12T10:58:32Z</time>
      </trkpt>
      <trkpt lat="42.96395" lon="-0.25112">
        <ele>1477.9</ele>
        <time>2015-03-12T10:58:35Z</time>
      </trkpt>
      <trkpt lat="42.96391" lon="-0.25105">
        <ele>1477.7</ele>
        <time>2015-03-12T10:58:37Z</time>
      </trkpt>
      <trkpt lat="42.96388" lon="-0.25097">
        <ele>1477.6</ele>
        <time>2015-03-12T10:58:39Z</time>
      </trkpt>
      <trkpt lat="42.96385" lon="-0.25087">
        <ele>1478.1</ele>
        <time>2015-03-12T10:58:41Z</time>
      </trkpt>
      <trkpt lat="42.96384" lon="-0.25079">
        <ele>1477.9</ele>
        <time>2015-03-12T10:58:43Z</time>
      </trkpt>
      <trkpt lat="42.96382" lon="-0.2507">
        <ele>1477.4</ele>
        <time>2015-03-12T10:58:45Z</time>
      </trkpt>
      <trkpt lat="42.96381" lon="-0.25061">
        <ele>1476.9</ele>
        <time>2015-03-12T10:58:47Z</time>
      </trkpt>
      <trkpt lat="42.96379" lon="-0.25049">
        <ele>1476.2</ele>
        <time>2015-03-12T10:58:50Z</time>
      </trkpt>
      <trkpt lat="42.96381" lon="-0.25039">
        <ele>1475.6</ele>
        <time>2015-03-12T10:58:53Z</time>
      </trkpt>
      <trkpt lat="42.96387" lon="-0.25032">
        <ele>1475.2</ele>
        <time>2015-03-12T10:58:56Z</time>
      </trkpt>
      <trkpt lat="42.96396" lon="-0.25035">
        <ele>1475.5</ele>
        <time>2015-03-12T10:58:59Z</time>
      </trkpt>
      <trkpt lat="42.96403" lon="-0.25039">
        <ele>1475.7</ele>
        <time>2015-03-12T10:59:02Z</time>
      </trkpt>
      <trkpt lat="42.96406" lon="-0.25041">
        <ele>1475.5</ele>
        <time>2015-03-12T10:59:03Z</time>
      </trkpt>
      <trkpt lat="42.96415" lon="-0.2505">
        <ele>1474.8</ele>
        <time>2015-03-12T10:59:07Z</time>
      </trkpt>
      <trkpt lat="42.96421" lon="-0.25055">
        <ele>1474.2</ele>
        <time>2015-03-12T10:59:09Z</time>
      </trkpt>
      <trkpt lat="42.96426" lon="-0.25062">
        <ele>1473.6</ele>
        <time>2015-03-12T10:59:11Z</time>
      </trkpt>
      <trkpt lat="42.9643" lon="-0.25068">
        <ele>1473.2</ele>
        <time>2015-03-12T10:59:13Z</time>
      </trkpt>
      <trkpt lat="42.96433" lon="-0.25075">
        <ele>1472.7</ele>
        <time>2015-03-12T10:59:15Z</time>
      </trkpt>
      <trkpt lat="42.96436" lon="-0.25085">
        <ele>1472.2</ele>
        <time>2015-03-12T10:59:17Z</time>
      </trkpt>
      <trkpt lat="42.96441" lon="-0.25094">
        <ele>1471.7</ele>
        <time>2015-03-12T10:59:19Z</time>
      </trkpt>
      <trkpt lat="42.96447" lon="-0.25098">
        <ele>1471.3</ele>
        <time>2015-03-12T10:59:21Z</time>
      </trkpt>
      <trkpt lat="42.96455" lon="-0.25097">
        <ele>1470.2</ele>
        <time>2015-03-12T10:59:26Z</time>
      </trkpt>
      <trkpt lat="42.96463" lon="-0.25095">
        <ele>1470.3</ele>
        <time>2015-03-12T10:59:31Z</time>
      </trkpt>
      <trkpt lat="42.96469" lon="-0.25091">
        <ele>1470.3</ele>
        <time>2015-03-12T10:59:34Z</time>
      </trkpt>
      <trkpt lat="42.96472" lon="-0.25084">
        <ele>1469.6</ele>
        <time>2015-03-12T10:59:36Z</time>
      </trkpt>
      <trkpt lat="42.96474" lon="-0.25076">
        <ele>1469</ele>
        <time>2015-03-12T10:59:38Z</time>
      </trkpt>
      <trkpt lat="42.96477" lon="-0.25067">
        <ele>1468.7</ele>
        <time>2015-03-12T10:59:40Z</time>
      </trkpt>
      <trkpt lat="42.9648" lon="-0.25058">
        <ele>1468.4</ele>
        <time>2015-03-12T10:59:42Z</time>
      </trkpt>
      <trkpt lat="42.96485" lon="-0.25051">
        <ele>1467.7</ele>
        <time>2015-03-12T10:59:44Z</time>
      </trkpt>
      <trkpt lat="42.96492" lon="-0.25044">
        <ele>1467</ele>
        <time>2015-03-12T10:59:46Z</time>
      </trkpt>
      <trkpt lat="42.96499" lon="-0.25039">
        <ele>1466.9</ele>
        <time>2015-03-12T10:59:48Z</time>
      </trkpt>
      <trkpt lat="42.96506" lon="-0.25034">
        <ele>1466</ele>
        <time>2015-03-12T10:59:51Z</time>
      </trkpt>
      <trkpt lat="42.96513" lon="-0.25026">
        <ele>1465.6</ele>
        <time>2015-03-12T10:59:55Z</time>
      </trkpt>
      <trkpt lat="42.96507" lon="-0.25018">
        <ele>1464.2</ele>
        <time>2015-03-12T11:00:02Z</time>
      </trkpt>
      <trkpt lat="42.965" lon="-0.2502">
        <ele>1463.1</ele>
        <time>2015-03-12T11:00:04Z</time>
      </trkpt>
      <trkpt lat="42.96497" lon="-0.2502">
        <ele>1462.7</ele>
        <time>2015-03-12T11:00:05Z</time>
      </trkpt>
      <trkpt lat="42.96484" lon="-0.25025">
        <ele>1461.8</ele>
        <time>2015-03-12T11:00:10Z</time>
      </trkpt>
      <trkpt lat="42.96478" lon="-0.25029">
        <ele>1461.1</ele>
        <time>2015-03-12T11:00:13Z</time>
      </trkpt>
      <trkpt lat="42.96471" lon="-0.25034">
        <ele>1460.5</ele>
        <time>2015-03-12T11:00:16Z</time>
      </trkpt>
      <trkpt lat="42.96464" lon="-0.25031">
        <ele>1459.8</ele>
        <time>2015-03-12T11:00:19Z</time>
      </trkpt>
      <trkpt lat="42.96462" lon="-0.2502">
        <ele>1458.9</ele>
        <time>2015-03-12T11:00:22Z</time>
      </trkpt>
      <trkpt lat="42.96467" lon="-0.25014">
        <ele>1458.7</ele>
        <time>2015-03-12T11:00:24Z</time>
      </trkpt>
      <trkpt lat="42.96472" lon="-0.25008">
        <ele>1458</ele>
        <time>2015-03-12T11:00:26Z</time>
      </trkpt>
      <trkpt lat="42.96479" lon="-0.25001">
        <ele>1456.7</ele>
        <time>2015-03-12T11:00:29Z</time>
      </trkpt>
      <trkpt lat="42.96486" lon="-0.24994">
        <ele>1455.8</ele>
        <time>2015-03-12T11:00:32Z</time>
      </trkpt>
      <trkpt lat="42.96489" lon="-0.24984">
        <ele>1454</ele>
        <time>2015-03-12T11:00:35Z</time>
      </trkpt>
      <trkpt lat="42.96489" lon="-0.24973">
        <ele>1452.2</ele>
        <time>2015-03-12T11:00:38Z</time>
      </trkpt>
      <trkpt lat="42.9649" lon="-0.24965">
        <ele>1451.6</ele>
        <time>2015-03-12T11:00:40Z</time>
      </trkpt>
      <trkpt lat="42.96492" lon="-0.24957">
        <ele>1451.2</ele>
        <time>2015-03-12T11:00:42Z</time>
      </trkpt>
      <trkpt lat="42.96494" lon="-0.24948">
        <ele>1450.9</ele>
        <time>2015-03-12T11:00:44Z</time>
      </trkpt>
      <trkpt lat="42.96499" lon="-0.2494">
        <ele>1450.5</ele>
        <time>2015-03-12T11:00:46Z</time>
      </trkpt>
      <trkpt lat="42.96505" lon="-0.24931">
        <ele>1450.1</ele>
        <time>2015-03-12T11:00:48Z</time>
      </trkpt>
      <trkpt lat="42.9651" lon="-0.24923">
        <ele>1449.8</ele>
        <time>2015-03-12T11:00:50Z</time>
      </trkpt>
      <trkpt lat="42.96514" lon="-0.24919">
        <ele>1449.5</ele>
        <time>2015-03-12T11:00:51Z</time>
      </trkpt>
      <trkpt lat="42.9652" lon="-0.24911">
        <ele>1449.2</ele>
        <time>2015-03-12T11:00:53Z</time>
      </trkpt>
      <trkpt lat="42.96528" lon="-0.24905">
        <ele>1448.4</ele>
        <time>2015-03-12T11:00:55Z</time>
      </trkpt>
      <trkpt lat="42.96533" lon="-0.24897">
        <ele>1448.1</ele>
        <time>2015-03-12T11:00:58Z</time>
      </trkpt>
      <trkpt lat="42.96539" lon="-0.2489">
        <ele>1448.1</ele>
        <time>2015-03-12T11:01:01Z</time>
      </trkpt>
      <trkpt lat="42.96546" lon="-0.24882">
        <ele>1447.7</ele>
        <time>2015-03-12T11:01:04Z</time>
      </trkpt>
      <trkpt lat="42.96549" lon="-0.24874">
        <ele>1447.2</ele>
        <time>2015-03-12T11:01:06Z</time>
      </trkpt>
      <trkpt lat="42.9655" lon="-0.2487">
        <ele>1447.2</ele>
        <time>2015-03-12T11:01:07Z</time>
      </trkpt>
      <trkpt lat="42.96543" lon="-0.24859">
        <ele>1445.9</ele>
        <time>2015-03-12T11:01:13Z</time>
      </trkpt>
      <trkpt lat="42.96536" lon="-0.24866">
        <ele>1444.7</ele>
        <time>2015-03-12T11:01:16Z</time>
      </trkpt>
      <trkpt lat="42.96531" lon="-0.24873">
        <ele>1443.7</ele>
        <time>2015-03-12T11:01:18Z</time>
      </trkpt>
      <trkpt lat="42.96524" lon="-0.24878">
        <ele>1442.3</ele>
        <time>2015-03-12T11:01:20Z</time>
      </trkpt>
      <trkpt lat="42.96516" lon="-0.24883">
        <ele>1440.8</ele>
        <time>2015-03-12T11:01:23Z</time>
      </trkpt>
      <trkpt lat="42.96512" lon="-0.24889">
        <ele>1440.5</ele>
        <time>2015-03-12T11:01:25Z</time>
      </trkpt>
      <trkpt lat="42.96507" lon="-0.24896">
        <ele>1439.4</ele>
        <time>2015-03-12T11:01:27Z</time>
      </trkpt>
      <trkpt lat="42.96503" lon="-0.24901">
        <ele>1439.1</ele>
        <time>2015-03-12T11:01:28Z</time>
      </trkpt>
      <trkpt lat="42.96496" lon="-0.24907">
        <ele>1437.8</ele>
        <time>2015-03-12T11:01:30Z</time>
      </trkpt>
      <trkpt lat="42.96488" lon="-0.24911">
        <ele>1436.8</ele>
        <time>2015-03-12T11:01:33Z</time>
      </trkpt>
      <trkpt lat="42.9648" lon="-0.24911">
        <ele>1437</ele>
        <time>2015-03-12T11:01:39Z</time>
      </trkpt>
      <trkpt lat="42.96472" lon="-0.24907">
        <ele>1437.5</ele>
        <time>2015-03-12T11:01:46Z</time>
      </trkpt>
      <trkpt lat="42.96465" lon="-0.24902">
        <ele>1437.8</ele>
        <time>2015-03-12T11:01:51Z</time>
      </trkpt>
      <trkpt lat="42.96456" lon="-0.24898">
        <ele>1438.4</ele>
        <time>2015-03-12T11:01:57Z</time>
      </trkpt>
      <trkpt lat="42.96449" lon="-0.24894">
        <ele>1439.2</ele>
        <time>2015-03-12T11:02:01Z</time>
      </trkpt>
      <trkpt lat="42.96441" lon="-0.24892">
        <ele>1439.7</ele>
        <time>2015-03-12T11:02:06Z</time>
      </trkpt>
      <trkpt lat="42.96432" lon="-0.24889">
        <ele>1440.5</ele>
        <time>2015-03-12T11:02:11Z</time>
      </trkpt>
      <trkpt lat="42.96431" lon="-0.24889">
        <ele>1441</ele>
        <time>2015-03-12T11:02:12Z</time>
      </trkpt>
      <trkpt lat="42.96417" lon="-0.2488">
        <ele>1441.5</ele>
        <time>2015-03-12T11:02:22Z</time>
      </trkpt>
      <trkpt lat="42.96409" lon="-0.24877">
        <ele>1441.3</ele>
        <time>2015-03-12T11:02:26Z</time>
      </trkpt>
      <trkpt lat="42.96401" lon="-0.24875">
        <ele>1441.6</ele>
        <time>2015-03-12T11:02:31Z</time>
      </trkpt>
      <trkpt lat="42.96394" lon="-0.24872">
        <ele>1441.2</ele>
        <time>2015-03-12T11:02:34Z</time>
      </trkpt>
      <trkpt lat="42.96387" lon="-0.2487">
        <ele>1441</ele>
        <time>2015-03-12T11:02:37Z</time>
      </trkpt>
      <trkpt lat="42.96379" lon="-0.24869">
        <ele>1440.8</ele>
        <time>2015-03-12T11:02:41Z</time>
      </trkpt>
      <trkpt lat="42.9637" lon="-0.24869">
        <ele>1440.5</ele>
        <time>2015-03-12T11:02:45Z</time>
      </trkpt>
      <trkpt lat="42.96362" lon="-0.24869">
        <ele>1440.2</ele>
        <time>2015-03-12T11:02:48Z</time>
      </trkpt>
      <trkpt lat="42.96356" lon="-0.24869">
        <ele>1439.6</ele>
        <time>2015-03-12T11:02:50Z</time>
      </trkpt>
      <trkpt lat="42.96349" lon="-0.2487">
        <ele>1439.4</ele>
        <time>2015-03-12T11:02:52Z</time>
      </trkpt>
      <trkpt lat="42.96343" lon="-0.24873">
        <ele>1439.5</ele>
        <time>2015-03-12T11:02:54Z</time>
      </trkpt>
      <trkpt lat="42.96337" lon="-0.24876">
        <ele>1439.3</ele>
        <time>2015-03-12T11:02:56Z</time>
      </trkpt>
      <trkpt lat="42.96331" lon="-0.24879">
        <ele>1439.2</ele>
        <time>2015-03-12T11:02:58Z</time>
      </trkpt>
      <trkpt lat="42.96324" lon="-0.24885">
        <ele>1439</ele>
        <time>2015-03-12T11:03:01Z</time>
      </trkpt>
      <trkpt lat="42.96318" lon="-0.2489">
        <ele>1439.3</ele>
        <time>2015-03-12T11:03:04Z</time>
      </trkpt>
      <trkpt lat="42.96312" lon="-0.24897">
        <ele>1439.6</ele>
        <time>2015-03-12T11:03:07Z</time>
      </trkpt>
      <trkpt lat="42.96307" lon="-0.24906">
        <ele>1439.1</ele>
        <time>2015-03-12T11:03:10Z</time>
      </trkpt>
      <trkpt lat="42.96301" lon="-0.24915">
        <ele>1438.8</ele>
        <time>2015-03-12T11:03:13Z</time>
      </trkpt>
      <trkpt lat="42.963" lon="-0.24919">
        <ele>1438.7</ele>
        <time>2015-03-12T11:03:14Z</time>
      </trkpt>
      <trkpt lat="42.96294" lon="-0.24929">
        <ele>1439</ele>
        <time>2015-03-12T11:03:17Z</time>
      </trkpt>
      <trkpt lat="42.9629" lon="-0.24937">
        <ele>1438.4</ele>
        <time>2015-03-12T11:03:19Z</time>
      </trkpt>
      <trkpt lat="42.96287" lon="-0.24947">
        <ele>1438.3</ele>
        <time>2015-03-12T11:03:22Z</time>
      </trkpt>
      <trkpt lat="42.96283" lon="-0.24958">
        <ele>1438.6</ele>
        <time>2015-03-12T11:03:25Z</time>
      </trkpt>
      <trkpt lat="42.9628" lon="-0.24969">
        <ele>1438.7</ele>
        <time>2015-03-12T11:03:28Z</time>
      </trkpt>
      <trkpt lat="42.96278" lon="-0.2498">
        <ele>1438.6</ele>
        <time>2015-03-12T11:03:31Z</time>
      </trkpt>
      <trkpt lat="42.96278" lon="-0.24991">
        <ele>1438.3</ele>
        <time>2015-03-12T11:03:34Z</time>
      </trkpt>
      <trkpt lat="42.96278" lon="-0.25003">
        <ele>1437.7</ele>
        <time>2015-03-12T11:03:37Z</time>
      </trkpt>
      <trkpt lat="42.9628" lon="-0.25011">
        <ele>1437.4</ele>
        <time>2015-03-12T11:03:39Z</time>
      </trkpt>
      <trkpt lat="42.96284" lon="-0.25021">
        <ele>1437</ele>
        <time>2015-03-12T11:03:41Z</time>
      </trkpt>
      <trkpt lat="42.96289" lon="-0.25029">
        <ele>1436.7</ele>
        <time>2015-03-12T11:03:43Z</time>
      </trkpt>
      <trkpt lat="42.96293" lon="-0.25037">
        <ele>1436.2</ele>
        <time>2015-03-12T11:03:45Z</time>
      </trkpt>
      <trkpt lat="42.96299" lon="-0.25043">
        <ele>1436</ele>
        <time>2015-03-12T11:03:47Z</time>
      </trkpt>
      <trkpt lat="42.96302" lon="-0.2505">
        <ele>1436</ele>
        <time>2015-03-12T11:03:49Z</time>
      </trkpt>
      <trkpt lat="42.96302" lon="-0.25061">
        <ele>1435.2</ele>
        <time>2015-03-12T11:03:51Z</time>
      </trkpt>
      <trkpt lat="42.96301" lon="-0.25073">
        <ele>1434.2</ele>
        <time>2015-03-12T11:03:53Z</time>
      </trkpt>
      <trkpt lat="42.963" lon="-0.25079">
        <ele>1433.7</ele>
        <time>2015-03-12T11:03:54Z</time>
      </trkpt>
      <trkpt lat="42.96299" lon="-0.25086">
        <ele>1433.2</ele>
        <time>2015-03-12T11:03:55Z</time>
      </trkpt>
      <trkpt lat="42.96298" lon="-0.25093">
        <ele>1432.4</ele>
        <time>2015-03-12T11:03:56Z</time>
      </trkpt>
      <trkpt lat="42.96296" lon="-0.25104">
        <ele>1431.4</ele>
        <time>2015-03-12T11:03:58Z</time>
      </trkpt>
      <trkpt lat="42.96292" lon="-0.25114">
        <ele>1431.3</ele>
        <time>2015-03-12T11:04:02Z</time>
      </trkpt>
      <trkpt lat="42.96285" lon="-0.25119">
        <ele>1432.3</ele>
        <time>2015-03-12T11:04:07Z</time>
      </trkpt>
      <trkpt lat="42.96277" lon="-0.25121">
        <ele>1433.1</ele>
        <time>2015-03-12T11:04:14Z</time>
      </trkpt>
      <trkpt lat="42.96276" lon="-0.25121">
        <ele>1433.3</ele>
        <time>2015-03-12T11:04:15Z</time>
      </trkpt>
      <trkpt lat="42.9626" lon="-0.25119">
        <ele>1435</ele>
        <time>2015-03-12T11:04:26Z</time>
      </trkpt>
      <trkpt lat="42.96253" lon="-0.25122">
        <ele>1436.3</ele>
        <time>2015-03-12T11:04:32Z</time>
      </trkpt>
      <trkpt lat="42.9625" lon="-0.25133">
        <ele>1438.1</ele>
        <time>2015-03-12T11:04:40Z</time>
      </trkpt>
      <trkpt lat="42.96254" lon="-0.25144">
        <ele>1439</ele>
        <time>2015-03-12T11:04:47Z</time>
      </trkpt>
      <trkpt lat="42.96258" lon="-0.25154">
        <ele>1439.2</ele>
        <time>2015-03-12T11:04:52Z</time>
      </trkpt>
      <trkpt lat="42.96261" lon="-0.25164">
        <ele>1439.5</ele>
        <time>2015-03-12T11:04:57Z</time>
      </trkpt>
      <trkpt lat="42.96266" lon="-0.25174">
        <ele>1440.5</ele>
        <time>2015-03-12T11:05:02Z</time>
      </trkpt>
      <trkpt lat="42.96271" lon="-0.25184">
        <ele>1439.6</ele>
        <time>2015-03-12T11:05:07Z</time>
      </trkpt>
      <trkpt lat="42.96275" lon="-0.25195">
        <ele>1440.1</ele>
        <time>2015-03-12T11:05:11Z</time>
      </trkpt>
      <trkpt lat="42.96276" lon="-0.25206">
        <ele>1440.2</ele>
        <time>2015-03-12T11:05:15Z</time>
      </trkpt>
      <trkpt lat="42.96276" lon="-0.25209">
        <ele>1439.7</ele>
        <time>2015-03-12T11:05:16Z</time>
      </trkpt>
      <trkpt lat="42.96281" lon="-0.25225">
        <ele>1440.1</ele>
        <time>2015-03-12T11:05:23Z</time>
      </trkpt>
      <trkpt lat="42.96284" lon="-0.25233">
        <ele>1440.2</ele>
        <time>2015-03-12T11:05:26Z</time>
      </trkpt>
      <trkpt lat="42.96285" lon="-0.25244">
        <ele>1439.8</ele>
        <time>2015-03-12T11:05:29Z</time>
      </trkpt>
      <trkpt lat="42.96286" lon="-0.25254">
        <ele>1439.3</ele>
        <time>2015-03-12T11:05:32Z</time>
      </trkpt>
      <trkpt lat="42.96285" lon="-0.25266">
        <ele>1438.5</ele>
        <time>2015-03-12T11:05:35Z</time>
      </trkpt>
      <trkpt lat="42.96281" lon="-0.25273">
        <ele>1438.1</ele>
        <time>2015-03-12T11:05:37Z</time>
      </trkpt>
      <trkpt lat="42.96276" lon="-0.25283">
        <ele>1438.2</ele>
        <time>2015-03-12T11:05:40Z</time>
      </trkpt>
      <trkpt lat="42.9627" lon="-0.2529">
        <ele>1438.3</ele>
        <time>2015-03-12T11:05:44Z</time>
      </trkpt>
      <trkpt lat="42.96264" lon="-0.25296">
        <ele>1437.8</ele>
        <time>2015-03-12T11:05:48Z</time>
      </trkpt>
      <trkpt lat="42.96257" lon="-0.25302">
        <ele>1438.1</ele>
        <time>2015-03-12T11:05:52Z</time>
      </trkpt>
      <trkpt lat="42.96252" lon="-0.25308">
        <ele>1437.5</ele>
        <time>2015-03-12T11:05:55Z</time>
      </trkpt>
      <trkpt lat="42.96246" lon="-0.25314">
        <ele>1437.5</ele>
        <time>2015-03-12T11:05:58Z</time>
      </trkpt>
      <trkpt lat="42.9624" lon="-0.25321">
        <ele>1437.9</ele>
        <time>2015-03-12T11:06:02Z</time>
      </trkpt>
      <trkpt lat="42.96233" lon="-0.25329">
        <ele>1437.6</ele>
        <time>2015-03-12T11:06:07Z</time>
      </trkpt>
      <trkpt lat="42.96227" lon="-0.25335">
        <ele>1437.9</ele>
        <time>2015-03-12T11:06:12Z</time>
      </trkpt>
      <trkpt lat="42.96221" lon="-0.25343">
        <ele>1439.5</ele>
        <time>2015-03-12T11:06:17Z</time>
      </trkpt>
      <trkpt lat="42.9622" lon="-0.25345">
        <ele>1439.8</ele>
        <time>2015-03-12T11:06:18Z</time>
      </trkpt>
      <trkpt lat="42.96212" lon="-0.25364">
        <ele>1440.6</ele>
        <time>2015-03-12T11:06:29Z</time>
      </trkpt>
      <trkpt lat="42.96209" lon="-0.25374">
        <ele>1442.8</ele>
        <time>2015-03-12T11:06:34Z</time>
      </trkpt>
      <trkpt lat="42.9621" lon="-0.25384">
        <ele>1443.3</ele>
        <time>2015-03-12T11:06:39Z</time>
      </trkpt>
      <trkpt lat="42.96209" lon="-0.25396">
        <ele>1443.4</ele>
        <time>2015-03-12T11:06:44Z</time>
      </trkpt>
      <trkpt lat="42.96208" lon="-0.25408">
        <ele>1444.1</ele>
        <time>2015-03-12T11:06:49Z</time>
      </trkpt>
      <trkpt lat="42.96211" lon="-0.25419">
        <ele>1444.3</ele>
        <time>2015-03-12T11:06:54Z</time>
      </trkpt>
      <trkpt lat="42.96215" lon="-0.2543">
        <ele>1444.2</ele>
        <time>2015-03-12T11:06:59Z</time>
      </trkpt>
      <trkpt lat="42.96216" lon="-0.2544">
        <ele>1443.9</ele>
        <time>2015-03-12T11:07:03Z</time>
      </trkpt>
      <trkpt lat="42.96214" lon="-0.25451">
        <ele>1443.9</ele>
        <time>2015-03-12T11:07:08Z</time>
      </trkpt>
      <trkpt lat="42.9621" lon="-0.25461">
        <ele>1444.4</ele>
        <time>2015-03-12T11:07:13Z</time>
      </trkpt>
      <trkpt lat="42.96204" lon="-0.25469">
        <ele>1444.6</ele>
        <time>2015-03-12T11:07:20Z</time>
      </trkpt>
      <trkpt lat="42.96203" lon="-0.2547">
        <ele>1444.5</ele>
        <time>2015-03-12T11:07:21Z</time>
      </trkpt>
      <trkpt lat="42.96192" lon="-0.2548">
        <ele>1444.7</ele>
        <time>2015-03-12T11:07:27Z</time>
      </trkpt>
      <trkpt lat="42.96185" lon="-0.25486">
        <ele>1444.7</ele>
        <time>2015-03-12T11:07:31Z</time>
      </trkpt>
      <trkpt lat="42.96178" lon="-0.25493">
        <ele>1444.1</ele>
        <time>2015-03-12T11:07:35Z</time>
      </trkpt>
      <trkpt lat="42.96171" lon="-0.25499">
        <ele>1443.9</ele>
        <time>2015-03-12T11:07:38Z</time>
      </trkpt>
      <trkpt lat="42.96166" lon="-0.25505">
        <ele>1443.9</ele>
        <time>2015-03-12T11:07:40Z</time>
      </trkpt>
      <trkpt lat="42.96161" lon="-0.25515">
        <ele>1444</ele>
        <time>2015-03-12T11:07:43Z</time>
      </trkpt>
      <trkpt lat="42.96158" lon="-0.25524">
        <ele>1443.4</ele>
        <time>2015-03-12T11:07:47Z</time>
      </trkpt>
      <trkpt lat="42.96155" lon="-0.25535">
        <ele>1443</ele>
        <time>2015-03-12T11:07:52Z</time>
      </trkpt>
      <trkpt lat="42.96153" lon="-0.25544">
        <ele>1443.5</ele>
        <time>2015-03-12T11:07:57Z</time>
      </trkpt>
      <trkpt lat="42.96149" lon="-0.25555">
        <ele>1445.5</ele>
        <time>2015-03-12T11:08:02Z</time>
      </trkpt>
      <trkpt lat="42.96146" lon="-0.25566">
        <ele>1445.5</ele>
        <time>2015-03-12T11:08:07Z</time>
      </trkpt>
      <trkpt lat="42.96142" lon="-0.25576">
        <ele>1446.1</ele>
        <time>2015-03-12T11:08:13Z</time>
      </trkpt>
      <trkpt lat="42.96137" lon="-0.25585">
        <ele>1445.5</ele>
        <time>2015-03-12T11:08:18Z</time>
      </trkpt>
      <trkpt lat="42.96133" lon="-0.25595">
        <ele>1445.9</ele>
        <time>2015-03-12T11:08:23Z</time>
      </trkpt>
      <trkpt lat="42.96132" lon="-0.25597">
        <ele>1446</ele>
        <time>2015-03-12T11:08:24Z</time>
      </trkpt>
      <trkpt lat="42.96125" lon="-0.25614">
        <ele>1446.5</ele>
        <time>2015-03-12T11:08:36Z</time>
      </trkpt>
      <trkpt lat="42.96116" lon="-0.25617">
        <ele>1449.2</ele>
        <time>2015-03-12T11:15:50Z</time>
      </trkpt>
      <trkpt lat="42.96116" lon="-0.25618">
        <ele>1449.6</ele>
        <time>2015-03-12T11:15:51Z</time>
      </trkpt>
      <trkpt lat="42.96123" lon="-0.25609">
        <ele>1449.3</ele>
        <time>2015-03-12T11:18:46Z</time>
      </trkpt>
      <trkpt lat="42.96122" lon="-0.25622">
        <ele>1450.1</ele>
        <time>2015-03-12T11:20:20Z</time>
      </trkpt>
      <trkpt lat="42.9612" lon="-0.25644">
        <ele>1449.9</ele>
        <time>2015-03-12T11:20:35Z</time>
      </trkpt>
      <trkpt lat="42.96117" lon="-0.25654">
        <ele>1449.2</ele>
        <time>2015-03-12T11:20:41Z</time>
      </trkpt>
      <trkpt lat="42.96113" lon="-0.25665">
        <ele>1450.3</ele>
        <time>2015-03-12T11:20:48Z</time>
      </trkpt>
      <trkpt lat="42.96105" lon="-0.2567">
        <ele>1450.8</ele>
        <time>2015-03-12T11:21:17Z</time>
      </trkpt>
      <trkpt lat="42.96112" lon="-0.25662">
        <ele>1449.9</ele>
        <time>2015-03-12T11:23:15Z</time>
      </trkpt>
      <trkpt lat="42.96112" lon="-0.25662">
        <ele>1450</ele>
        <time>2015-03-12T11:23:16Z</time>
      </trkpt>
      <trkpt lat="42.9612" lon="-0.25655">
        <ele>1450.1</ele>
        <time>2015-03-12T11:24:34Z</time>
      </trkpt>
      <trkpt lat="42.96123" lon="-0.25635">
        <ele>1450.3</ele>
        <time>2015-03-12T11:24:43Z</time>
      </trkpt>
      <trkpt lat="42.96123" lon="-0.25625">
        <ele>1450.8</ele>
        <time>2015-03-12T11:24:46Z</time>
      </trkpt>
      <trkpt lat="42.96125" lon="-0.25614">
        <ele>1450.7</ele>
        <time>2015-03-12T11:24:50Z</time>
      </trkpt>
      <trkpt lat="42.96128" lon="-0.25602">
        <ele>1449.4</ele>
        <time>2015-03-12T11:24:54Z</time>
      </trkpt>
      <trkpt lat="42.96131" lon="-0.25593">
        <ele>1449.3</ele>
        <time>2015-03-12T11:24:57Z</time>
      </trkpt>
      <trkpt lat="42.96136" lon="-0.25584">
        <ele>1449.7</ele>
        <time>2015-03-12T11:25:00Z</time>
      </trkpt>
      <trkpt lat="42.96141" lon="-0.25575">
        <ele>1449.3</ele>
        <time>2015-03-12T11:25:03Z</time>
      </trkpt>
      <trkpt lat="42.96145" lon="-0.25566">
        <ele>1447.9</ele>
        <time>2015-03-12T11:25:06Z</time>
      </trkpt>
      <trkpt lat="42.96148" lon="-0.25555">
        <ele>1447.3</ele>
        <time>2015-03-12T11:25:09Z</time>
      </trkpt>
      <trkpt lat="42.96151" lon="-0.25544">
        <ele>1447.3</ele>
        <time>2015-03-12T11:25:12Z</time>
      </trkpt>
      <trkpt lat="42.96154" lon="-0.25533">
        <ele>1447</ele>
        <time>2015-03-12T11:25:15Z</time>
      </trkpt>
      <trkpt lat="42.96155" lon="-0.25524">
        <ele>1446.4</ele>
        <time>2015-03-12T11:25:17Z</time>
      </trkpt>
      <trkpt lat="42.96159" lon="-0.25514">
        <ele>1445.8</ele>
        <time>2015-03-12T11:25:20Z</time>
      </trkpt>
      <trkpt lat="42.96163" lon="-0.25504">
        <ele>1444.6</ele>
        <time>2015-03-12T11:25:24Z</time>
      </trkpt>
      <trkpt lat="42.96167" lon="-0.25496">
        <ele>1445.4</ele>
        <time>2015-03-12T11:25:29Z</time>
      </trkpt>
      <trkpt lat="42.96174" lon="-0.25489">
        <ele>1445.8</ele>
        <time>2015-03-12T11:25:34Z</time>
      </trkpt>
      <trkpt lat="42.96176" lon="-0.25487">
        <ele>1445.8</ele>
        <time>2015-03-12T11:25:35Z</time>
      </trkpt>
      <trkpt lat="42.96187" lon="-0.2548">
        <ele>1445.6</ele>
        <time>2015-03-12T11:25:42Z</time>
      </trkpt>
      <trkpt lat="42.96194" lon="-0.25475">
        <ele>1446.8</ele>
        <time>2015-03-12T11:25:47Z</time>
      </trkpt>
      <trkpt lat="42.962" lon="-0.25469">
        <ele>1447.5</ele>
        <time>2015-03-12T11:25:52Z</time>
      </trkpt>
      <trkpt lat="42.96205" lon="-0.25459">
        <ele>1447.2</ele>
        <time>2015-03-12T11:25:56Z</time>
      </trkpt>
      <trkpt lat="42.96207" lon="-0.25449">
        <ele>1446.9</ele>
        <time>2015-03-12T11:25:59Z</time>
      </trkpt>
      <trkpt lat="42.96207" lon="-0.25438">
        <ele>1447</ele>
        <time>2015-03-12T11:26:03Z</time>
      </trkpt>
      <trkpt lat="42.96204" lon="-0.25427">
        <ele>1446.8</ele>
        <time>2015-03-12T11:26:08Z</time>
      </trkpt>
      <trkpt lat="42.96204" lon="-0.25416">
        <ele>1446.5</ele>
        <time>2015-03-12T11:26:12Z</time>
      </trkpt>
      <trkpt lat="42.96207" lon="-0.25405">
        <ele>1447.3</ele>
        <time>2015-03-12T11:26:16Z</time>
      </trkpt>
      <trkpt lat="42.9621" lon="-0.25395">
        <ele>1446.7</ele>
        <time>2015-03-12T11:26:19Z</time>
      </trkpt>
      <trkpt lat="42.96213" lon="-0.25384">
        <ele>1446.2</ele>
        <time>2015-03-12T11:26:22Z</time>
      </trkpt>
      <trkpt lat="42.96216" lon="-0.25373">
        <ele>1444.3</ele>
        <time>2015-03-12T11:26:25Z</time>
      </trkpt>
      <trkpt lat="42.96219" lon="-0.25363">
        <ele>1443.8</ele>
        <time>2015-03-12T11:26:28Z</time>
      </trkpt>
      <trkpt lat="42.96224" lon="-0.25357">
        <ele>1444.1</ele>
        <time>2015-03-12T11:26:30Z</time>
      </trkpt>
      <trkpt lat="42.96229" lon="-0.25349">
        <ele>1444.5</ele>
        <time>2015-03-12T11:26:32Z</time>
      </trkpt>
      <trkpt lat="42.96235" lon="-0.25341">
        <ele>1442.4</ele>
        <time>2015-03-12T11:26:34Z</time>
      </trkpt>
      <trkpt lat="42.9624" lon="-0.25333">
        <ele>1441.5</ele>
        <time>2015-03-12T11:26:36Z</time>
      </trkpt>
      <trkpt lat="42.96243" lon="-0.25329">
        <ele>1441.4</ele>
        <time>2015-03-12T11:26:37Z</time>
      </trkpt>
      <trkpt lat="42.96251" lon="-0.25318">
        <ele>1440.5</ele>
        <time>2015-03-12T11:26:41Z</time>
      </trkpt>
      <trkpt lat="42.96257" lon="-0.25312">
        <ele>1439.9</ele>
        <time>2015-03-12T11:26:45Z</time>
      </trkpt>
      <trkpt lat="42.96264" lon="-0.25304">
        <ele>1441.1</ele>
        <time>2015-03-12T11:26:50Z</time>
      </trkpt>
      <trkpt lat="42.9627" lon="-0.25297">
        <ele>1440.5</ele>
        <time>2015-03-12T11:26:55Z</time>
      </trkpt>
      <trkpt lat="42.96277" lon="-0.2529">
        <ele>1439.9</ele>
        <time>2015-03-12T11:26:59Z</time>
      </trkpt>
      <trkpt lat="42.96282" lon="-0.25281">
        <ele>1440.4</ele>
        <time>2015-03-12T11:27:04Z</time>
      </trkpt>
      <trkpt lat="42.96285" lon="-0.25271">
        <ele>1440</ele>
        <time>2015-03-12T11:27:09Z</time>
      </trkpt>
      <trkpt lat="42.96285" lon="-0.25261">
        <ele>1440.2</ele>
        <time>2015-03-12T11:27:13Z</time>
      </trkpt>
      <trkpt lat="42.96285" lon="-0.25251">
        <ele>1440.2</ele>
        <time>2015-03-12T11:27:17Z</time>
      </trkpt>
      <trkpt lat="42.96282" lon="-0.2524">
        <ele>1440.7</ele>
        <time>2015-03-12T11:27:22Z</time>
      </trkpt>
      <trkpt lat="42.96279" lon="-0.25229">
        <ele>1440.9</ele>
        <time>2015-03-12T11:27:27Z</time>
      </trkpt>
      <trkpt lat="42.96278" lon="-0.25219">
        <ele>1440.8</ele>
        <time>2015-03-12T11:27:30Z</time>
      </trkpt>
      <trkpt lat="42.96277" lon="-0.25208">
        <ele>1441.1</ele>
        <time>2015-03-12T11:27:33Z</time>
      </trkpt>
      <trkpt lat="42.96273" lon="-0.25198">
        <ele>1440.6</ele>
        <time>2015-03-12T11:27:37Z</time>
      </trkpt>
      <trkpt lat="42.96272" lon="-0.25196">
        <ele>1440.5</ele>
        <time>2015-03-12T11:27:38Z</time>
      </trkpt>
      <trkpt lat="42.96263" lon="-0.2518">
        <ele>1441.2</ele>
        <time>2015-03-12T11:27:47Z</time>
      </trkpt>
      <trkpt lat="42.96259" lon="-0.2517">
        <ele>1440.8</ele>
        <time>2015-03-12T11:27:51Z</time>
      </trkpt>
      <trkpt lat="42.96255" lon="-0.2516">
        <ele>1440.8</ele>
        <time>2015-03-12T11:27:55Z</time>
      </trkpt>
      <trkpt lat="42.96252" lon="-0.2515">
        <ele>1442.1</ele>
        <time>2015-03-12T11:27:58Z</time>
      </trkpt>
      <trkpt lat="42.9625" lon="-0.25139">
        <ele>1441</ele>
        <time>2015-03-12T11:28:01Z</time>
      </trkpt>
      <trkpt lat="42.96252" lon="-0.25129">
        <ele>1442.4</ele>
        <time>2015-03-12T11:28:04Z</time>
      </trkpt>
      <trkpt lat="42.96258" lon="-0.25123">
        <ele>1440.6</ele>
        <time>2015-03-12T11:28:07Z</time>
      </trkpt>
      <trkpt lat="42.96264" lon="-0.25121">
        <ele>1439.1</ele>
        <time>2015-03-12T11:28:09Z</time>
      </trkpt>
      <trkpt lat="42.96273" lon="-0.25119">
        <ele>1437.4</ele>
        <time>2015-03-12T11:28:12Z</time>
      </trkpt>
      <trkpt lat="42.96279" lon="-0.25113">
        <ele>1436.8</ele>
        <time>2015-03-12T11:28:14Z</time>
      </trkpt>
      <trkpt lat="42.96283" lon="-0.25104">
        <ele>1435.4</ele>
        <time>2015-03-12T11:28:16Z</time>
      </trkpt>
      <trkpt lat="42.96286" lon="-0.25095">
        <ele>1434.6</ele>
        <time>2015-03-12T11:28:18Z</time>
      </trkpt>
      <trkpt lat="42.96289" lon="-0.25088">
        <ele>1434.3</ele>
        <time>2015-03-12T11:28:21Z</time>
      </trkpt>
      <trkpt lat="42.96293" lon="-0.25077">
        <ele>1434.1</ele>
        <time>2015-03-12T11:28:26Z</time>
      </trkpt>
      <trkpt lat="42.96295" lon="-0.25067">
        <ele>1435</ele>
        <time>2015-03-12T11:28:32Z</time>
      </trkpt>
      <trkpt lat="42.96295" lon="-0.25055">
        <ele>1435.4</ele>
        <time>2015-03-12T11:28:39Z</time>
      </trkpt>
      <trkpt lat="42.96294" lon="-0.25053">
        <ele>1435.5</ele>
        <time>2015-03-12T11:28:40Z</time>
      </trkpt>
      <trkpt lat="42.96285" lon="-0.25036">
        <ele>1436.6</ele>
        <time>2015-03-12T11:28:53Z</time>
      </trkpt>
      <trkpt lat="42.96281" lon="-0.25026">
        <ele>1438</ele>
        <time>2015-03-12T11:29:00Z</time>
      </trkpt>
      <trkpt lat="42.9628" lon="-0.25015">
        <ele>1438.3</ele>
        <time>2015-03-12T11:29:06Z</time>
      </trkpt>
      <trkpt lat="42.9628" lon="-0.25003">
        <ele>1438.7</ele>
        <time>2015-03-12T11:29:11Z</time>
      </trkpt>
      <trkpt lat="42.9628" lon="-0.24994">
        <ele>1439</ele>
        <time>2015-03-12T11:29:14Z</time>
      </trkpt>
      <trkpt lat="42.9628" lon="-0.24984">
        <ele>1439.6</ele>
        <time>2015-03-12T11:29:17Z</time>
      </trkpt>
      <trkpt lat="42.96281" lon="-0.24973">
        <ele>1440.1</ele>
        <time>2015-03-12T11:29:20Z</time>
      </trkpt>
      <trkpt lat="42.96282" lon="-0.24961">
        <ele>1440.3</ele>
        <time>2015-03-12T11:29:24Z</time>
      </trkpt>
      <trkpt lat="42.96285" lon="-0.2495">
        <ele>1440.2</ele>
        <time>2015-03-12T11:29:30Z</time>
      </trkpt>
      <trkpt lat="42.96288" lon="-0.24938">
        <ele>1438.8</ele>
        <time>2015-03-12T11:29:37Z</time>
      </trkpt>
      <trkpt lat="42.96291" lon="-0.24928">
        <ele>1440.1</ele>
        <time>2015-03-12T11:29:42Z</time>
      </trkpt>
      <trkpt lat="42.96292" lon="-0.24926">
        <ele>1440.4</ele>
        <time>2015-03-12T11:29:43Z</time>
      </trkpt>
      <trkpt lat="42.96298" lon="-0.24908">
        <ele>1439.8</ele>
        <time>2015-03-12T11:29:52Z</time>
      </trkpt>
      <trkpt lat="42.96303" lon="-0.24898">
        <ele>1441.3</ele>
        <time>2015-03-12T11:29:57Z</time>
      </trkpt>
      <trkpt lat="42.96307" lon="-0.2489">
        <ele>1441.6</ele>
        <time>2015-03-12T11:30:01Z</time>
      </trkpt>
      <trkpt lat="42.96313" lon="-0.24883">
        <ele>1441.5</ele>
        <time>2015-03-12T11:30:05Z</time>
      </trkpt>
      <trkpt lat="42.96319" lon="-0.24878">
        <ele>1442.1</ele>
        <time>2015-03-12T11:30:09Z</time>
      </trkpt>
      <trkpt lat="42.96327" lon="-0.24872">
        <ele>1441.4</ele>
        <time>2015-03-12T11:30:15Z</time>
      </trkpt>
      <trkpt lat="42.96336" lon="-0.24873">
        <ele>1442.1</ele>
        <time>2015-03-12T11:30:22Z</time>
      </trkpt>
      <trkpt lat="42.96343" lon="-0.24875">
        <ele>1442.6</ele>
        <time>2015-03-12T11:30:26Z</time>
      </trkpt>
      <trkpt lat="42.96352" lon="-0.24877">
        <ele>1442.4</ele>
        <time>2015-03-12T11:30:30Z</time>
      </trkpt>
      <trkpt lat="42.96359" lon="-0.24878">
        <ele>1442.4</ele>
        <time>2015-03-12T11:30:33Z</time>
      </trkpt>
      <trkpt lat="42.96367" lon="-0.24881">
        <ele>1442.1</ele>
        <time>2015-03-12T11:30:37Z</time>
      </trkpt>
      <trkpt lat="42.96375" lon="-0.24884">
        <ele>1442.4</ele>
        <time>2015-03-12T11:30:42Z</time>
      </trkpt>
      <trkpt lat="42.96383" lon="-0.24887">
        <ele>1443.7</ele>
        <time>2015-03-12T11:30:48Z</time>
      </trkpt>
      <trkpt lat="42.96384" lon="-0.24887">
        <ele>1444</ele>
        <time>2015-03-12T11:30:49Z</time>
      </trkpt>
      <trkpt lat="42.96396" lon="-0.24893">
        <ele>1443.4</ele>
        <time>2015-03-12T11:30:55Z</time>
      </trkpt>
      <trkpt lat="42.96405" lon="-0.24896">
        <ele>1444.1</ele>
        <time>2015-03-12T11:30:59Z</time>
      </trkpt>
      <trkpt lat="42.96412" lon="-0.24893">
        <ele>1443.2</ele>
        <time>2015-03-12T11:31:04Z</time>
      </trkpt>
      <trkpt lat="42.96418" lon="-0.2489">
        <ele>1442.5</ele>
        <time>2015-03-12T11:31:07Z</time>
      </trkpt>
      <trkpt lat="42.96425" lon="-0.2489">
        <ele>1442.4</ele>
        <time>2015-03-12T11:31:10Z</time>
      </trkpt>
      <trkpt lat="42.96432" lon="-0.2489">
        <ele>1441.8</ele>
        <time>2015-03-12T11:31:12Z</time>
      </trkpt>
      <trkpt lat="42.96437" lon="-0.2489">
        <ele>1441.1</ele>
        <time>2015-03-12T11:31:14Z</time>
      </trkpt>
      <trkpt lat="42.96446" lon="-0.24889">
        <ele>1439.8</ele>
        <time>2015-03-12T11:31:17Z</time>
      </trkpt>
      <trkpt lat="42.96454" lon="-0.24888">
        <ele>1439.1</ele>
        <time>2015-03-12T11:31:21Z</time>
      </trkpt>
      <trkpt lat="42.96461" lon="-0.24888">
        <ele>1439.6</ele>
        <time>2015-03-12T11:31:25Z</time>
      </trkpt>
      <trkpt lat="42.96468" lon="-0.24887">
        <ele>1439.6</ele>
        <time>2015-03-12T11:31:28Z</time>
      </trkpt>
      <trkpt lat="42.96476" lon="-0.24887">
        <ele>1439.4</ele>
        <time>2015-03-12T11:31:31Z</time>
      </trkpt>
      <trkpt lat="42.96484" lon="-0.24884">
        <ele>1439.3</ele>
        <time>2015-03-12T11:31:35Z</time>
      </trkpt>
      <trkpt lat="42.96491" lon="-0.24882">
        <ele>1440.1</ele>
        <time>2015-03-12T11:31:39Z</time>
      </trkpt>
      <trkpt lat="42.96498" lon="-0.24876">
        <ele>1440.8</ele>
        <time>2015-03-12T11:31:44Z</time>
      </trkpt>
      <trkpt lat="42.96506" lon="-0.24871">
        <ele>1441.7</ele>
        <time>2015-03-12T11:31:49Z</time>
      </trkpt>
      <trkpt lat="42.96507" lon="-0.2487">
        <ele>1441.7</ele>
        <time>2015-03-12T11:31:50Z</time>
      </trkpt>
      <trkpt lat="42.96521" lon="-0.24864">
        <ele>1442.6</ele>
        <time>2015-03-12T11:31:59Z</time>
      </trkpt>
      <trkpt lat="42.96528" lon="-0.2486">
        <ele>1442.9</ele>
        <time>2015-03-12T11:32:04Z</time>
      </trkpt>
      <trkpt lat="42.96535" lon="-0.24855">
        <ele>1443.7</ele>
        <time>2015-03-12T11:32:09Z</time>
      </trkpt>
      <trkpt lat="42.96541" lon="-0.24848">
        <ele>1444.8</ele>
        <time>2015-03-12T11:32:14Z</time>
      </trkpt>
      <trkpt lat="42.96549" lon="-0.24842">
        <ele>1445.2</ele>
        <time>2015-03-12T11:32:20Z</time>
      </trkpt>
      <trkpt lat="42.96557" lon="-0.24846">
        <ele>1446.6</ele>
        <time>2015-03-12T11:32:28Z</time>
      </trkpt>
      <trkpt lat="42.96564" lon="-0.24854">
        <ele>1448</ele>
        <time>2015-03-12T11:32:35Z</time>
      </trkpt>
      <trkpt lat="42.96564" lon="-0.24866">
        <ele>1449.2</ele>
        <time>2015-03-12T11:32:43Z</time>
      </trkpt>
      <trkpt lat="42.9656" lon="-0.24875">
        <ele>1450</ele>
        <time>2015-03-12T11:32:49Z</time>
      </trkpt>
      <trkpt lat="42.96553" lon="-0.24882">
        <ele>1449.4</ele>
        <time>2015-03-12T11:32:55Z</time>
      </trkpt>
      <trkpt lat="42.96552" lon="-0.24883">
        <ele>1449.6</ele>
        <time>2015-03-12T11:32:56Z</time>
      </trkpt>
      <trkpt lat="42.96538" lon="-0.24894">
        <ele>1450.2</ele>
        <time>2015-03-12T11:33:05Z</time>
      </trkpt>
      <trkpt lat="42.96531" lon="-0.24901">
        <ele>1449.6</ele>
        <time>2015-03-12T11:33:11Z</time>
      </trkpt>
      <trkpt lat="42.96526" lon="-0.24911">
        <ele>1450.9</ele>
        <time>2015-03-12T11:33:17Z</time>
      </trkpt>
      <trkpt lat="42.96522" lon="-0.24921">
        <ele>1451.9</ele>
        <time>2015-03-12T11:33:23Z</time>
      </trkpt>
      <trkpt lat="42.96518" lon="-0.2493">
        <ele>1452.5</ele>
        <time>2015-03-12T11:33:29Z</time>
      </trkpt>
      <trkpt lat="42.96515" lon="-0.24941">
        <ele>1453.1</ele>
        <time>2015-03-12T11:33:35Z</time>
      </trkpt>
      <trkpt lat="42.96512" lon="-0.24952">
        <ele>1453.3</ele>
        <time>2015-03-12T11:33:41Z</time>
      </trkpt>
      <trkpt lat="42.96507" lon="-0.24961">
        <ele>1454.6</ele>
        <time>2015-03-12T11:33:47Z</time>
      </trkpt>
      <trkpt lat="42.96502" lon="-0.24969">
        <ele>1455.3</ele>
        <time>2015-03-12T11:33:53Z</time>
      </trkpt>
      <trkpt lat="42.96494" lon="-0.24976">
        <ele>1455.2</ele>
        <time>2015-03-12T11:33:59Z</time>
      </trkpt>
      <trkpt lat="42.96493" lon="-0.24977">
        <ele>1456.1</ele>
        <time>2015-03-12T11:34:00Z</time>
      </trkpt>
      <trkpt lat="42.96479" lon="-0.24986">
        <ele>1457.9</ele>
        <time>2015-03-12T11:34:11Z</time>
      </trkpt>
      <trkpt lat="42.96473" lon="-0.24994">
        <ele>1458.8</ele>
        <time>2015-03-12T11:34:17Z</time>
      </trkpt>
      <trkpt lat="42.96468" lon="-0.25002">
        <ele>1459.6</ele>
        <time>2015-03-12T11:34:23Z</time>
      </trkpt>
      <trkpt lat="42.96464" lon="-0.25014">
        <ele>1460.1</ele>
        <time>2015-03-12T11:34:31Z</time>
      </trkpt>
      <trkpt lat="42.9647" lon="-0.25022">
        <ele>1462.7</ele>
        <time>2015-03-12T11:34:45Z</time>
      </trkpt>
      <trkpt lat="42.96478" lon="-0.25015">
        <ele>1462.6</ele>
        <time>2015-03-12T11:34:54Z</time>
      </trkpt>
      <trkpt lat="42.96485" lon="-0.25011">
        <ele>1462.8</ele>
        <time>2015-03-12T11:35:02Z</time>
      </trkpt>
      <trkpt lat="42.96487" lon="-0.25011">
        <ele>1462.9</ele>
        <time>2015-03-12T11:35:03Z</time>
      </trkpt>
      <trkpt lat="42.96501" lon="-0.25008">
        <ele>1462.5</ele>
        <time>2015-03-12T11:35:13Z</time>
      </trkpt>
      <trkpt lat="42.96509" lon="-0.25012">
        <ele>1465.6</ele>
        <time>2015-03-12T11:35:20Z</time>
      </trkpt>
      <trkpt lat="42.9651" lon="-0.25023">
        <ele>1466.2</ele>
        <time>2015-03-12T11:35:30Z</time>
      </trkpt>
      <trkpt lat="42.96505" lon="-0.25032">
        <ele>1467.6</ele>
        <time>2015-03-12T11:35:38Z</time>
      </trkpt>
      <trkpt lat="42.96498" lon="-0.25039">
        <ele>1467.8</ele>
        <time>2015-03-12T11:35:45Z</time>
      </trkpt>
      <trkpt lat="42.96493" lon="-0.25048">
        <ele>1469.1</ele>
        <time>2015-03-12T11:35:52Z</time>
      </trkpt>
      <trkpt lat="42.96487" lon="-0.25058">
        <ele>1469.3</ele>
        <time>2015-03-12T11:36:00Z</time>
      </trkpt>
      <trkpt lat="42.96484" lon="-0.25067">
        <ele>1470.8</ele>
        <time>2015-03-12T11:36:08Z</time>
      </trkpt>
      <trkpt lat="42.96484" lon="-0.25069">
        <ele>1470.8</ele>
        <time>2015-03-12T11:36:09Z</time>
      </trkpt>
      <trkpt lat="42.96477" lon="-0.25085">
        <ele>1472</ele>
        <time>2015-03-12T11:36:18Z</time>
      </trkpt>
      <trkpt lat="42.9647" lon="-0.25092">
        <ele>1472.1</ele>
        <time>2015-03-12T11:36:23Z</time>
      </trkpt>
      <trkpt lat="42.96463" lon="-0.25096">
        <ele>1471.8</ele>
        <time>2015-03-12T11:36:27Z</time>
      </trkpt>
      <trkpt lat="42.96456" lon="-0.25103">
        <ele>1471.5</ele>
        <time>2015-03-12T11:36:31Z</time>
      </trkpt>
      <trkpt lat="42.96448" lon="-0.25104">
        <ele>1471.9</ele>
        <time>2015-03-12T11:36:36Z</time>
      </trkpt>
      <trkpt lat="42.96439" lon="-0.25101">
        <ele>1471.8</ele>
        <time>2015-03-12T11:36:43Z</time>
      </trkpt>
      <trkpt lat="42.96436" lon="-0.25091">
        <ele>1472.9</ele>
        <time>2015-03-12T11:36:52Z</time>
      </trkpt>
      <trkpt lat="42.96433" lon="-0.25081">
        <ele>1473.3</ele>
        <time>2015-03-12T11:36:57Z</time>
      </trkpt>
      <trkpt lat="42.96428" lon="-0.25072">
        <ele>1474.1</ele>
        <time>2015-03-12T11:37:02Z</time>
      </trkpt>
      <trkpt lat="42.96422" lon="-0.25065">
        <ele>1475</ele>
        <time>2015-03-12T11:37:07Z</time>
      </trkpt>
      <trkpt lat="42.96416" lon="-0.25056">
        <ele>1476</ele>
        <time>2015-03-12T11:37:12Z</time>
      </trkpt>
      <trkpt lat="42.96415" lon="-0.25054">
        <ele>1476.1</ele>
        <time>2015-03-12T11:37:13Z</time>
      </trkpt>
      <trkpt lat="42.96406" lon="-0.25039">
        <ele>1476.8</ele>
        <time>2015-03-12T11:37:21Z</time>
      </trkpt>
      <trkpt lat="42.964" lon="-0.2503">
        <ele>1477.7</ele>
        <time>2015-03-12T11:37:25Z</time>
      </trkpt>
      <trkpt lat="42.96392" lon="-0.25028">
        <ele>1478.1</ele>
        <time>2015-03-12T11:37:31Z</time>
      </trkpt>
      <trkpt lat="42.96385" lon="-0.25034">
        <ele>1476.9</ele>
        <time>2015-03-12T11:37:39Z</time>
      </trkpt>
      <trkpt lat="42.96382" lon="-0.25045">
        <ele>1478.2</ele>
        <time>2015-03-12T11:37:45Z</time>
      </trkpt>
      <trkpt lat="42.9638" lon="-0.25056">
        <ele>1478</ele>
        <time>2015-03-12T11:37:50Z</time>
      </trkpt>
      <trkpt lat="42.96379" lon="-0.25066">
        <ele>1478.3</ele>
        <time>2015-03-12T11:37:54Z</time>
      </trkpt>
      <trkpt lat="42.9638" lon="-0.25078">
        <ele>1478.8</ele>
        <time>2015-03-12T11:37:59Z</time>
      </trkpt>
      <trkpt lat="42.96384" lon="-0.25088">
        <ele>1479.7</ele>
        <time>2015-03-12T11:38:05Z</time>
      </trkpt>
      <trkpt lat="42.9639" lon="-0.25095">
        <ele>1479.8</ele>
        <time>2015-03-12T11:38:11Z</time>
      </trkpt>
      <trkpt lat="42.96397" lon="-0.25099">
        <ele>1480.4</ele>
        <time>2015-03-12T11:38:17Z</time>
      </trkpt>
      <trkpt lat="42.96398" lon="-0.251">
        <ele>1480.6</ele>
        <time>2015-03-12T11:38:18Z</time>
      </trkpt>
      <trkpt lat="42.96411" lon="-0.25108">
        <ele>1481</ele>
        <time>2015-03-12T11:38:27Z</time>
      </trkpt>
      <trkpt lat="42.96419" lon="-0.25113">
        <ele>1480.7</ele>
        <time>2015-03-12T11:38:31Z</time>
      </trkpt>
      <trkpt lat="42.96425" lon="-0.25119">
        <ele>1480.7</ele>
        <time>2015-03-12T11:38:35Z</time>
      </trkpt>
      <trkpt lat="42.96432" lon="-0.25125">
        <ele>1481.3</ele>
        <time>2015-03-12T11:38:39Z</time>
      </trkpt>
      <trkpt lat="42.9644" lon="-0.25129">
        <ele>1481.7</ele>
        <time>2015-03-12T11:38:45Z</time>
      </trkpt>
      <trkpt lat="42.96448" lon="-0.25132">
        <ele>1482.9</ele>
        <time>2015-03-12T11:38:51Z</time>
      </trkpt>
      <trkpt lat="42.96456" lon="-0.25135">
        <ele>1483.7</ele>
        <time>2015-03-12T11:38:57Z</time>
      </trkpt>
      <trkpt lat="42.96464" lon="-0.25138">
        <ele>1482.4</ele>
        <time>2015-03-12T11:39:01Z</time>
      </trkpt>
      <trkpt lat="42.96472" lon="-0.25137">
        <ele>1483.2</ele>
        <time>2015-03-12T11:39:07Z</time>
      </trkpt>
      <trkpt lat="42.96481" lon="-0.25135">
        <ele>1483.8</ele>
        <time>2015-03-12T11:39:13Z</time>
      </trkpt>
      <trkpt lat="42.96488" lon="-0.25131">
        <ele>1484.4</ele>
        <time>2015-03-12T11:39:17Z</time>
      </trkpt>
      <trkpt lat="42.96495" lon="-0.25128">
        <ele>1484.4</ele>
        <time>2015-03-12T11:39:21Z</time>
      </trkpt>
      <trkpt lat="42.96497" lon="-0.25126">
        <ele>1484.4</ele>
        <time>2015-03-12T11:39:22Z</time>
      </trkpt>
      <trkpt lat="42.96511" lon="-0.25123">
        <ele>1484.3</ele>
        <time>2015-03-12T11:39:29Z</time>
      </trkpt>
      <trkpt lat="42.96519" lon="-0.25126">
        <ele>1485.2</ele>
        <time>2015-03-12T11:39:34Z</time>
      </trkpt>
      <trkpt lat="42.96525" lon="-0.25133">
        <ele>1486.8</ele>
        <time>2015-03-12T11:39:40Z</time>
      </trkpt>
      <trkpt lat="42.96529" lon="-0.25143">
        <ele>1486.9</ele>
        <time>2015-03-12T11:39:46Z</time>
      </trkpt>
      <trkpt lat="42.96528" lon="-0.25154">
        <ele>1487.8</ele>
        <time>2015-03-12T11:39:52Z</time>
      </trkpt>
      <trkpt lat="42.96524" lon="-0.25164">
        <ele>1489.1</ele>
        <time>2015-03-12T11:39:58Z</time>
      </trkpt>
      <trkpt lat="42.96519" lon="-0.25169">
        <ele>1489.2</ele>
        <time>2015-03-12T11:40:01Z</time>
      </trkpt>
      <trkpt lat="42.96511" lon="-0.25174">
        <ele>1488.9</ele>
        <time>2015-03-12T11:40:04Z</time>
      </trkpt>
      <trkpt lat="42.96505" lon="-0.25182">
        <ele>1489.1</ele>
        <time>2015-03-12T11:40:08Z</time>
      </trkpt>
      <trkpt lat="42.96503" lon="-0.25191">
        <ele>1488.1</ele>
        <time>2015-03-12T11:40:13Z</time>
      </trkpt>
      <trkpt lat="42.965" lon="-0.25201">
        <ele>1487.9</ele>
        <time>2015-03-12T11:40:17Z</time>
      </trkpt>
      <trkpt lat="42.96496" lon="-0.25209">
        <ele>1487.5</ele>
        <time>2015-03-12T11:40:20Z</time>
      </trkpt>
      <trkpt lat="42.96489" lon="-0.25216">
        <ele>1487.3</ele>
        <time>2015-03-12T11:40:23Z</time>
      </trkpt>
      <trkpt lat="42.96487" lon="-0.25218">
        <ele>1487.4</ele>
        <time>2015-03-12T11:40:24Z</time>
      </trkpt>
      <trkpt lat="42.96476" lon="-0.25224">
        <ele>1487.2</ele>
        <time>2015-03-12T11:40:28Z</time>
      </trkpt>
      <trkpt lat="42.96469" lon="-0.25227">
        <ele>1486.6</ele>
        <time>2015-03-12T11:40:31Z</time>
      </trkpt>
      <trkpt lat="42.96461" lon="-0.25229">
        <ele>1486.4</ele>
        <time>2015-03-12T11:40:34Z</time>
      </trkpt>
      <trkpt lat="42.96454" lon="-0.2523">
        <ele>1486.2</ele>
        <time>2015-03-12T11:40:37Z</time>
      </trkpt>
      <trkpt lat="42.96445" lon="-0.2523">
        <ele>1485.4</ele>
        <time>2015-03-12T11:40:40Z</time>
      </trkpt>
      <trkpt lat="42.96439" lon="-0.25231">
        <ele>1485.1</ele>
        <time>2015-03-12T11:40:42Z</time>
      </trkpt>
      <trkpt lat="42.96431" lon="-0.25235">
        <ele>1485.1</ele>
        <time>2015-03-12T11:40:45Z</time>
      </trkpt>
      <trkpt lat="42.96423" lon="-0.25239">
        <ele>1483.5</ele>
        <time>2015-03-12T11:40:53Z</time>
      </trkpt>
      <trkpt lat="42.96416" lon="-0.25246">
        <ele>1484.4</ele>
        <time>2015-03-12T11:40:59Z</time>
      </trkpt>
      <trkpt lat="42.96409" lon="-0.25251">
        <ele>1485.9</ele>
        <time>2015-03-12T11:41:05Z</time>
      </trkpt>
      <trkpt lat="42.96401" lon="-0.25255">
        <ele>1487.3</ele>
        <time>2015-03-12T11:41:11Z</time>
      </trkpt>
      <trkpt lat="42.96397" lon="-0.25266">
        <ele>1488.8</ele>
        <time>2015-03-12T11:41:21Z</time>
      </trkpt>
      <trkpt lat="42.96403" lon="-0.25275">
        <ele>1490.5</ele>
        <time>2015-03-12T11:41:28Z</time>
      </trkpt>
      <trkpt lat="42.96404" lon="-0.25276">
        <ele>1490.6</ele>
        <time>2015-03-12T11:41:29Z</time>
      </trkpt>
      <trkpt lat="42.96418" lon="-0.25287">
        <ele>1493.5</ele>
        <time>2015-03-12T11:41:46Z</time>
      </trkpt>
      <trkpt lat="42.96426" lon="-0.25293">
        <ele>1494.1</ele>
        <time>2015-03-12T11:41:54Z</time>
      </trkpt>
      <trkpt lat="42.96433" lon="-0.25298">
        <ele>1494.3</ele>
        <time>2015-03-12T11:42:00Z</time>
      </trkpt>
      <trkpt lat="42.96441" lon="-0.253">
        <ele>1495.3</ele>
        <time>2015-03-12T11:42:07Z</time>
      </trkpt>
      <trkpt lat="42.96449" lon="-0.253">
        <ele>1496.6</ele>
        <time>2015-03-12T11:42:15Z</time>
      </trkpt>
      <trkpt lat="42.96458" lon="-0.253">
        <ele>1497</ele>
        <time>2015-03-12T11:42:22Z</time>
      </trkpt>
      <trkpt lat="42.96466" lon="-0.25299">
        <ele>1495.9</ele>
        <time>2015-03-12T11:42:28Z</time>
      </trkpt>
      <trkpt lat="42.96474" lon="-0.25296">
        <ele>1496.2</ele>
        <time>2015-03-12T11:42:32Z</time>
      </trkpt>
      <trkpt lat="42.96475" lon="-0.25295">
        <ele>1496.3</ele>
        <time>2015-03-12T11:42:33Z</time>
      </trkpt>
      <trkpt lat="42.96489" lon="-0.25294">
        <ele>1498.6</ele>
        <time>2015-03-12T11:42:41Z</time>
      </trkpt>
      <trkpt lat="42.96497" lon="-0.25293">
        <ele>1498.3</ele>
        <time>2015-03-12T11:42:45Z</time>
      </trkpt>
      <trkpt lat="42.96506" lon="-0.25292">
        <ele>1499.1</ele>
        <time>2015-03-12T11:42:49Z</time>
      </trkpt>
      <trkpt lat="42.96513" lon="-0.2529">
        <ele>1499.6</ele>
        <time>2015-03-12T11:42:52Z</time>
      </trkpt>
      <trkpt lat="42.96521" lon="-0.25287">
        <ele>1499.6</ele>
        <time>2015-03-12T11:42:56Z</time>
      </trkpt>
      <trkpt lat="42.96528" lon="-0.25284">
        <ele>1499.9</ele>
        <time>2015-03-12T11:42:59Z</time>
      </trkpt>
      <trkpt lat="42.96533" lon="-0.25281">
        <ele>1500.5</ele>
        <time>2015-03-12T11:43:01Z</time>
      </trkpt>
      <trkpt lat="42.96539" lon="-0.25277">
        <ele>1500.6</ele>
        <time>2015-03-12T11:43:03Z</time>
      </trkpt>
      <trkpt lat="42.96547" lon="-0.25271">
        <ele>1500.4</ele>
        <time>2015-03-12T11:43:06Z</time>
      </trkpt>
      <trkpt lat="42.96556" lon="-0.25267">
        <ele>1499.3</ele>
        <time>2015-03-12T11:43:10Z</time>
      </trkpt>
      <trkpt lat="42.96563" lon="-0.25265">
        <ele>1498.8</ele>
        <time>2015-03-12T11:43:14Z</time>
      </trkpt>
      <trkpt lat="42.96571" lon="-0.25261">
        <ele>1499.7</ele>
        <time>2015-03-12T11:43:19Z</time>
      </trkpt>
      <trkpt lat="42.96578" lon="-0.25256">
        <ele>1499.8</ele>
        <time>2015-03-12T11:43:23Z</time>
      </trkpt>
      <trkpt lat="42.96583" lon="-0.25249">
        <ele>1499.2</ele>
        <time>2015-03-12T11:43:27Z</time>
      </trkpt>
      <trkpt lat="42.96589" lon="-0.25239">
        <ele>1500.8</ele>
        <time>2015-03-12T11:43:32Z</time>
      </trkpt>
      <trkpt lat="42.96592" lon="-0.25229">
        <ele>1502</ele>
        <time>2015-03-12T11:43:36Z</time>
      </trkpt>
      <trkpt lat="42.96593" lon="-0.25226">
        <ele>1502.2</ele>
        <time>2015-03-12T11:43:37Z</time>
      </trkpt>
      <trkpt lat="42.96595" lon="-0.25207">
        <ele>1502.2</ele>
        <time>2015-03-12T11:43:45Z</time>
      </trkpt>
      <trkpt lat="42.96597" lon="-0.25197">
        <ele>1502.6</ele>
        <time>2015-03-12T11:43:50Z</time>
      </trkpt>
      <trkpt lat="42.96599" lon="-0.25186">
        <ele>1502.8</ele>
        <time>2015-03-12T11:43:55Z</time>
      </trkpt>
      <trkpt lat="42.96602" lon="-0.25175">
        <ele>1502.9</ele>
        <time>2015-03-12T11:43:59Z</time>
      </trkpt>
      <trkpt lat="42.96604" lon="-0.25164">
        <ele>1503.1</ele>
        <time>2015-03-12T11:44:03Z</time>
      </trkpt>
      <trkpt lat="42.96606" lon="-0.25154">
        <ele>1502.8</ele>
        <time>2015-03-12T11:44:07Z</time>
      </trkpt>
      <trkpt lat="42.96606" lon="-0.25143">
        <ele>1502.4</ele>
        <time>2015-03-12T11:44:11Z</time>
      </trkpt>
      <trkpt lat="42.96606" lon="-0.25133">
        <ele>1502.5</ele>
        <time>2015-03-12T11:44:14Z</time>
      </trkpt>
      <trkpt lat="42.96606" lon="-0.25121">
        <ele>1501.7</ele>
        <time>2015-03-12T11:44:18Z</time>
      </trkpt>
      <trkpt lat="42.96604" lon="-0.25111">
        <ele>1501.5</ele>
        <time>2015-03-12T11:44:22Z</time>
      </trkpt>
      <trkpt lat="42.96602" lon="-0.25101">
        <ele>1501.3</ele>
        <time>2015-03-12T11:44:26Z</time>
      </trkpt>
      <trkpt lat="42.96602" lon="-0.25089">
        <ele>1501.5</ele>
        <time>2015-03-12T11:44:30Z</time>
      </trkpt>
      <trkpt lat="42.96603" lon="-0.25079">
        <ele>1501.4</ele>
        <time>2015-03-12T11:44:33Z</time>
      </trkpt>
      <trkpt lat="42.96604" lon="-0.25069">
        <ele>1500.5</ele>
        <time>2015-03-12T11:44:36Z</time>
      </trkpt>
      <trkpt lat="42.96607" lon="-0.2506">
        <ele>1500.5</ele>
        <time>2015-03-12T11:44:39Z</time>
      </trkpt>
      <trkpt lat="42.96608" lon="-0.25057">
        <ele>1500.6</ele>
        <time>2015-03-12T11:44:40Z</time>
      </trkpt>
      <trkpt lat="42.96611" lon="-0.25039">
        <ele>1498.9</ele>
        <time>2015-03-12T11:44:46Z</time>
      </trkpt>
      <trkpt lat="42.96615" lon="-0.25028">
        <ele>1498.8</ele>
        <time>2015-03-12T11:44:51Z</time>
      </trkpt>
      <trkpt lat="42.96621" lon="-0.25019">
        <ele>1499.7</ele>
        <time>2015-03-12T11:44:57Z</time>
      </trkpt>
      <trkpt lat="42.96626" lon="-0.25011">
        <ele>1499.5</ele>
        <time>2015-03-12T11:45:02Z</time>
      </trkpt>
      <trkpt lat="42.96633" lon="-0.25004">
        <ele>1500.4</ele>
        <time>2015-03-12T11:45:07Z</time>
      </trkpt>
      <trkpt lat="42.9664" lon="-0.24996">
        <ele>1500.4</ele>
        <time>2015-03-12T11:45:12Z</time>
      </trkpt>
      <trkpt lat="42.96646" lon="-0.24991">
        <ele>1501.2</ele>
        <time>2015-03-12T11:45:16Z</time>
      </trkpt>
      <trkpt lat="42.96653" lon="-0.24984">
        <ele>1501.4</ele>
        <time>2015-03-12T11:45:21Z</time>
      </trkpt>
      <trkpt lat="42.96661" lon="-0.24978">
        <ele>1501.6</ele>
        <time>2015-03-12T11:45:26Z</time>
      </trkpt>
      <trkpt lat="42.96668" lon="-0.24972">
        <ele>1501.6</ele>
        <time>2015-03-12T11:45:31Z</time>
      </trkpt>
      <trkpt lat="42.96674" lon="-0.24966">
        <ele>1501.5</ele>
        <time>2015-03-12T11:45:35Z</time>
      </trkpt>
      <trkpt lat="42.96681" lon="-0.24961">
        <ele>1501.9</ele>
        <time>2015-03-12T11:45:39Z</time>
      </trkpt>
      <trkpt lat="42.96689" lon="-0.24956">
        <ele>1502.1</ele>
        <time>2015-03-12T11:45:44Z</time>
      </trkpt>
      <trkpt lat="42.9669" lon="-0.24955">
        <ele>1502.2</ele>
        <time>2015-03-12T11:45:45Z</time>
      </trkpt>
      <trkpt lat="42.96702" lon="-0.24946">
        <ele>1501.3</ele>
        <time>2015-03-12T11:45:52Z</time>
      </trkpt>
      <trkpt lat="42.9671" lon="-0.24941">
        <ele>1501.3</ele>
        <time>2015-03-12T11:45:57Z</time>
      </trkpt>
      <trkpt lat="42.96717" lon="-0.24936">
        <ele>1502.1</ele>
        <time>2015-03-12T11:46:01Z</time>
      </trkpt>
      <trkpt lat="42.96722" lon="-0.24931">
        <ele>1502.1</ele>
        <time>2015-03-12T11:46:04Z</time>
      </trkpt>
      <trkpt lat="42.96728" lon="-0.24923">
        <ele>1502.4</ele>
        <time>2015-03-12T11:46:07Z</time>
      </trkpt>
      <trkpt lat="42.96732" lon="-0.24915">
        <ele>1502.3</ele>
        <time>2015-03-12T11:46:10Z</time>
      </trkpt>
      <trkpt lat="42.96735" lon="-0.24906">
        <ele>1502.6</ele>
        <time>2015-03-12T11:46:14Z</time>
      </trkpt>
      <trkpt lat="42.96738" lon="-0.24896">
        <ele>1502.5</ele>
        <time>2015-03-12T11:46:18Z</time>
      </trkpt>
      <trkpt lat="42.96742" lon="-0.24886">
        <ele>1502.2</ele>
        <time>2015-03-12T11:46:22Z</time>
      </trkpt>
      <trkpt lat="42.96746" lon="-0.24876">
        <ele>1502.1</ele>
        <time>2015-03-12T11:46:26Z</time>
      </trkpt>
      <trkpt lat="42.96749" lon="-0.24866">
        <ele>1501.8</ele>
        <time>2015-03-12T11:46:30Z</time>
      </trkpt>
      <trkpt lat="42.96752" lon="-0.24856">
        <ele>1501.5</ele>
        <time>2015-03-12T11:46:34Z</time>
      </trkpt>
      <trkpt lat="42.96756" lon="-0.24845">
        <ele>1502.1</ele>
        <time>2015-03-12T11:46:38Z</time>
      </trkpt>
      <trkpt lat="42.9676" lon="-0.24835">
        <ele>1501.9</ele>
        <time>2015-03-12T11:46:42Z</time>
      </trkpt>
      <trkpt lat="42.96766" lon="-0.24827">
        <ele>1502.3</ele>
        <time>2015-03-12T11:46:47Z</time>
      </trkpt>
      <trkpt lat="42.96767" lon="-0.24825">
        <ele>1502.1</ele>
        <time>2015-03-12T11:46:48Z</time>
      </trkpt>
      <trkpt lat="42.96778" lon="-0.24812">
        <ele>1502.3</ele>
        <time>2015-03-12T11:46:58Z</time>
      </trkpt>
      <trkpt lat="42.96786" lon="-0.24809">
        <ele>1503.2</ele>
        <time>2015-03-12T11:47:03Z</time>
      </trkpt>
      <trkpt lat="42.96794" lon="-0.24813">
        <ele>1503.4</ele>
        <time>2015-03-12T11:47:09Z</time>
      </trkpt>
      <trkpt lat="42.96802" lon="-0.24819">
        <ele>1504.2</ele>
        <time>2015-03-12T11:47:15Z</time>
      </trkpt>
      <trkpt lat="42.96808" lon="-0.24826">
        <ele>1505</ele>
        <time>2015-03-12T11:47:20Z</time>
      </trkpt>
      <trkpt lat="42.96814" lon="-0.24833">
        <ele>1504.5</ele>
        <time>2015-03-12T11:47:25Z</time>
      </trkpt>
      <trkpt lat="42.96821" lon="-0.2484">
        <ele>1505.5</ele>
        <time>2015-03-12T11:47:31Z</time>
      </trkpt>
      <trkpt lat="42.96828" lon="-0.24843">
        <ele>1506.6</ele>
        <time>2015-03-12T11:47:36Z</time>
      </trkpt>
      <trkpt lat="42.96837" lon="-0.24846">
        <ele>1506.8</ele>
        <time>2015-03-12T11:47:42Z</time>
      </trkpt>
      <trkpt lat="42.96845" lon="-0.24848">
        <ele>1507.2</ele>
        <time>2015-03-12T11:47:47Z</time>
      </trkpt>
      <trkpt lat="42.96853" lon="-0.24851">
        <ele>1507.2</ele>
        <time>2015-03-12T11:47:52Z</time>
      </trkpt>
      <trkpt lat="42.96854" lon="-0.24851">
        <ele>1507.2</ele>
        <time>2015-03-12T11:47:53Z</time>
      </trkpt>
      <trkpt lat="42.96868" lon="-0.24861">
        <ele>1508.1</ele>
        <time>2015-03-12T11:48:02Z</time>
      </trkpt>
      <trkpt lat="42.96875" lon="-0.24866">
        <ele>1508.1</ele>
        <time>2015-03-12T11:48:06Z</time>
      </trkpt>
      <trkpt lat="42.96883" lon="-0.24871">
        <ele>1508.5</ele>
        <time>2015-03-12T11:48:11Z</time>
      </trkpt>
      <trkpt lat="42.9689" lon="-0.24877">
        <ele>1509.5</ele>
        <time>2015-03-12T11:48:16Z</time>
      </trkpt>
      <trkpt lat="42.96897" lon="-0.24883">
        <ele>1510.2</ele>
        <time>2015-03-12T11:48:20Z</time>
      </trkpt>
      <trkpt lat="42.96905" lon="-0.24886">
        <ele>1510.1</ele>
        <time>2015-03-12T11:48:25Z</time>
      </trkpt>
      <trkpt lat="42.96913" lon="-0.24886">
        <ele>1510.6</ele>
        <time>2015-03-12T11:48:30Z</time>
      </trkpt>
      <trkpt lat="42.9692" lon="-0.24883">
        <ele>1511.2</ele>
        <time>2015-03-12T11:48:35Z</time>
      </trkpt>
      <trkpt lat="42.96927" lon="-0.24877">
        <ele>1511.2</ele>
        <time>2015-03-12T11:48:40Z</time>
      </trkpt>
      <trkpt lat="42.96934" lon="-0.2487">
        <ele>1511.5</ele>
        <time>2015-03-12T11:48:45Z</time>
      </trkpt>
      <trkpt lat="42.96941" lon="-0.24863">
        <ele>1512.1</ele>
        <time>2015-03-12T11:48:50Z</time>
      </trkpt>
      <trkpt lat="42.96949" lon="-0.24857">
        <ele>1512.8</ele>
        <time>2015-03-12T11:48:55Z</time>
      </trkpt>
      <trkpt lat="42.9695" lon="-0.24855">
        <ele>1512.9</ele>
        <time>2015-03-12T11:48:56Z</time>
      </trkpt>
      <trkpt lat="42.96962" lon="-0.24844">
        <ele>1512</ele>
        <time>2015-03-12T11:49:03Z</time>
      </trkpt>
      <trkpt lat="42.96968" lon="-0.24837">
        <ele>1512.4</ele>
        <time>2015-03-12T11:49:07Z</time>
      </trkpt>
      <trkpt lat="42.96973" lon="-0.24829">
        <ele>1513.3</ele>
        <time>2015-03-12T11:49:11Z</time>
      </trkpt>
      <trkpt lat="42.96978" lon="-0.2482">
        <ele>1512.8</ele>
        <time>2015-03-12T11:49:16Z</time>
      </trkpt>
      <trkpt lat="42.96982" lon="-0.2481">
        <ele>1513.8</ele>
        <time>2015-03-12T11:49:21Z</time>
      </trkpt>
      <trkpt lat="42.96986" lon="-0.24801">
        <ele>1514.2</ele>
        <time>2015-03-12T11:49:25Z</time>
      </trkpt>
      <trkpt lat="42.9699" lon="-0.2479">
        <ele>1513.8</ele>
        <time>2015-03-12T11:49:30Z</time>
      </trkpt>
      <trkpt lat="42.96993" lon="-0.2478">
        <ele>1513.6</ele>
        <time>2015-03-12T11:49:34Z</time>
      </trkpt>
      <trkpt lat="42.96997" lon="-0.24769">
        <ele>1514.3</ele>
        <time>2015-03-12T11:49:39Z</time>
      </trkpt>
      <trkpt lat="42.97001" lon="-0.24759">
        <ele>1516</ele>
        <time>2015-03-12T11:49:44Z</time>
      </trkpt>
      <trkpt lat="42.97006" lon="-0.24751">
        <ele>1515.8</ele>
        <time>2015-03-12T11:49:49Z</time>
      </trkpt>
      <trkpt lat="42.97012" lon="-0.24744">
        <ele>1516.4</ele>
        <time>2015-03-12T11:49:55Z</time>
      </trkpt>
      <trkpt lat="42.9702" lon="-0.24737">
        <ele>1517.2</ele>
        <time>2015-03-12T11:50:02Z</time>
      </trkpt>
      <trkpt lat="42.97021" lon="-0.24737">
        <ele>1517.2</ele>
        <time>2015-03-12T11:50:03Z</time>
      </trkpt>
      <trkpt lat="42.97036" lon="-0.24728">
        <ele>1518.8</ele>
        <time>2015-03-12T11:50:15Z</time>
      </trkpt>
      <trkpt lat="42.97044" lon="-0.24723">
        <ele>1519.1</ele>
        <time>2015-03-12T11:50:21Z</time>
      </trkpt>
      <trkpt lat="42.9705" lon="-0.24719">
        <ele>1519.5</ele>
        <time>2015-03-12T11:50:26Z</time>
      </trkpt>
      <trkpt lat="42.97058" lon="-0.24712">
        <ele>1519.3</ele>
        <time>2015-03-12T11:50:31Z</time>
      </trkpt>
      <trkpt lat="42.97064" lon="-0.24705">
        <ele>1520</ele>
        <time>2015-03-12T11:50:35Z</time>
      </trkpt>
      <trkpt lat="42.97069" lon="-0.24697">
        <ele>1520.7</ele>
        <time>2015-03-12T11:50:38Z</time>
      </trkpt>
      <trkpt lat="42.97072" lon="-0.24686">
        <ele>1520.5</ele>
        <time>2015-03-12T11:50:42Z</time>
      </trkpt>
      <trkpt lat="42.97072" lon="-0.24675">
        <ele>1520.3</ele>
        <time>2015-03-12T11:50:46Z</time>
      </trkpt>
      <trkpt lat="42.97072" lon="-0.24664">
        <ele>1520.5</ele>
        <time>2015-03-12T11:50:50Z</time>
      </trkpt>
      <trkpt lat="42.97074" lon="-0.24654">
        <ele>1520.3</ele>
        <time>2015-03-12T11:57:31Z</time>
      </trkpt>
      <trkpt lat="42.97074" lon="-0.24652">
        <ele>1520.5</ele>
        <time>2015-03-12T11:57:32Z</time>
      </trkpt>
      <trkpt lat="42.97071" lon="-0.24633">
        <ele>1520.7</ele>
        <time>2015-03-12T11:57:38Z</time>
      </trkpt>
      <trkpt lat="42.97068" lon="-0.24622">
        <ele>1520</ele>
        <time>2015-03-12T11:57:42Z</time>
      </trkpt>
      <trkpt lat="42.97066" lon="-0.24612">
        <ele>1520.1</ele>
        <time>2015-03-12T11:57:46Z</time>
      </trkpt>
      <trkpt lat="42.97064" lon="-0.24602">
        <ele>1519.8</ele>
        <time>2015-03-12T11:57:50Z</time>
      </trkpt>
      <trkpt lat="42.97062" lon="-0.2459">
        <ele>1520.2</ele>
        <time>2015-03-12T11:57:54Z</time>
      </trkpt>
      <trkpt lat="42.97061" lon="-0.24579">
        <ele>1519.5</ele>
        <time>2015-03-12T11:57:58Z</time>
      </trkpt>
      <trkpt lat="42.97061" lon="-0.24569">
        <ele>1519.7</ele>
        <time>2015-03-12T11:58:01Z</time>
      </trkpt>
      <trkpt lat="42.97062" lon="-0.24559">
        <ele>1520.9</ele>
        <time>2015-03-12T11:58:04Z</time>
      </trkpt>
      <trkpt lat="42.97066" lon="-0.24549">
        <ele>1520</ele>
        <time>2015-03-12T11:58:07Z</time>
      </trkpt>
      <trkpt lat="42.97072" lon="-0.2454">
        <ele>1519.5</ele>
        <time>2015-03-12T11:58:10Z</time>
      </trkpt>
      <trkpt lat="42.97077" lon="-0.24531">
        <ele>1519.3</ele>
        <time>2015-03-12T11:58:13Z</time>
      </trkpt>
      <trkpt lat="42.97081" lon="-0.24523">
        <ele>1518.5</ele>
        <time>2015-03-12T11:58:16Z</time>
      </trkpt>
      <trkpt lat="42.97085" lon="-0.24514">
        <ele>1518.2</ele>
        <time>2015-03-12T11:58:20Z</time>
      </trkpt>
      <trkpt lat="42.97087" lon="-0.24504">
        <ele>1517.8</ele>
        <time>2015-03-12T11:58:24Z</time>
      </trkpt>
      <trkpt lat="42.97088" lon="-0.24493">
        <ele>1518.7</ele>
        <time>2015-03-12T11:58:28Z</time>
      </trkpt>
      <trkpt lat="42.9709" lon="-0.24482">
        <ele>1520.2</ele>
        <time>2015-03-12T11:58:33Z</time>
      </trkpt>
      <trkpt lat="42.9709" lon="-0.24479">
        <ele>1520.4</ele>
        <time>2015-03-12T11:58:34Z</time>
      </trkpt>
      <trkpt lat="42.97093" lon="-0.24459">
        <ele>1520.5</ele>
        <time>2015-03-12T11:58:43Z</time>
      </trkpt>
      <trkpt lat="42.97094" lon="-0.24448">
        <ele>1521.1</ele>
        <time>2015-03-12T11:58:48Z</time>
      </trkpt>
      <trkpt lat="42.97096" lon="-0.24438">
        <ele>1521.3</ele>
        <time>2015-03-12T11:58:53Z</time>
      </trkpt>
      <trkpt lat="42.97096" lon="-0.24427">
        <ele>1521.7</ele>
        <time>2015-03-12T11:58:58Z</time>
      </trkpt>
      <trkpt lat="42.97097" lon="-0.24416">
        <ele>1522.9</ele>
        <time>2015-03-12T11:59:03Z</time>
      </trkpt>
      <trkpt lat="42.97099" lon="-0.24406">
        <ele>1523.2</ele>
        <time>2015-03-12T11:59:08Z</time>
      </trkpt>
      <trkpt lat="42.97101" lon="-0.24396">
        <ele>1524</ele>
        <time>2015-03-12T11:59:12Z</time>
      </trkpt>
      <trkpt lat="42.97103" lon="-0.24386">
        <ele>1525.3</ele>
        <time>2015-03-12T11:59:16Z</time>
      </trkpt>
      <trkpt lat="42.97106" lon="-0.24376">
        <ele>1524.7</ele>
        <time>2015-03-12T11:59:20Z</time>
      </trkpt>
      <trkpt lat="42.97109" lon="-0.24366">
        <ele>1523.1</ele>
        <time>2015-03-12T11:59:24Z</time>
      </trkpt>
      <trkpt lat="42.97113" lon="-0.24357">
        <ele>1523.1</ele>
        <time>2015-03-12T11:59:28Z</time>
      </trkpt>
      <trkpt lat="42.97117" lon="-0.24347">
        <ele>1525.5</ele>
        <time>2015-03-12T11:59:33Z</time>
      </trkpt>
      <trkpt lat="42.97121" lon="-0.24337">
        <ele>1525.9</ele>
        <time>2015-03-12T11:59:38Z</time>
      </trkpt>
      <trkpt lat="42.97122" lon="-0.24335">
        <ele>1525.7</ele>
        <time>2015-03-12T11:59:39Z</time>
      </trkpt>
      <trkpt lat="42.97136" lon="-0.24328">
        <ele>1527</ele>
        <time>2015-03-12T11:59:50Z</time>
      </trkpt>
      <trkpt lat="42.97144" lon="-0.24332">
        <ele>1526.6</ele>
        <time>2015-03-12T11:59:55Z</time>
      </trkpt>
      <trkpt lat="42.9715" lon="-0.24341">
        <ele>1527</ele>
        <time>2015-03-12T12:00:01Z</time>
      </trkpt>
      <trkpt lat="42.97155" lon="-0.24351">
        <ele>1527.7</ele>
        <time>2015-03-12T12:00:07Z</time>
      </trkpt>
      <trkpt lat="42.97159" lon="-0.2436">
        <ele>1528.2</ele>
        <time>2015-03-12T12:00:12Z</time>
      </trkpt>
      <trkpt lat="42.97163" lon="-0.24369">
        <ele>1528.7</ele>
        <time>2015-03-12T12:00:17Z</time>
      </trkpt>
      <trkpt lat="42.97168" lon="-0.24376">
        <ele>1528.8</ele>
        <time>2015-03-12T12:00:22Z</time>
      </trkpt>
      <trkpt lat="42.97175" lon="-0.24382">
        <ele>1529.7</ele>
        <time>2015-03-12T12:00:27Z</time>
      </trkpt>
      <trkpt lat="42.97183" lon="-0.24382">
        <ele>1530.2</ele>
        <time>2015-03-12T12:00:33Z</time>
      </trkpt>
      <trkpt lat="42.9719" lon="-0.24376">
        <ele>1531.3</ele>
        <time>2015-03-12T12:00:39Z</time>
      </trkpt>
      <trkpt lat="42.97192" lon="-0.24374">
        <ele>1531.2</ele>
        <time>2015-03-12T12:00:40Z</time>
      </trkpt>
      <trkpt lat="42.972" lon="-0.24358">
        <ele>1532.4</ele>
        <time>2015-03-12T12:00:50Z</time>
      </trkpt>
      <trkpt lat="42.97204" lon="-0.24348">
        <ele>1534.3</ele>
        <time>2015-03-12T12:00:55Z</time>
      </trkpt>
      <trkpt lat="42.97207" lon="-0.24339">
        <ele>1534.7</ele>
        <time>2015-03-12T12:01:00Z</time>
      </trkpt>
      <trkpt lat="42.97212" lon="-0.24329">
        <ele>1533.9</ele>
        <time>2015-03-12T12:01:06Z</time>
      </trkpt>
      <trkpt lat="42.97219" lon="-0.24324">
        <ele>1534.5</ele>
        <time>2015-03-12T12:01:12Z</time>
      </trkpt>
      <trkpt lat="42.97227" lon="-0.24322">
        <ele>1534.1</ele>
        <time>2015-03-12T12:01:19Z</time>
      </trkpt>
      <trkpt lat="42.97236" lon="-0.24322">
        <ele>1536.5</ele>
        <time>2015-03-12T12:01:26Z</time>
      </trkpt>
      <trkpt lat="42.97245" lon="-0.24321">
        <ele>1538.1</ele>
        <time>2015-03-12T12:01:32Z</time>
      </trkpt>
      <trkpt lat="42.97253" lon="-0.24321">
        <ele>1538</ele>
        <time>2015-03-12T12:01:37Z</time>
      </trkpt>
      <trkpt lat="42.97259" lon="-0.24325">
        <ele>1538.3</ele>
        <time>2015-03-12T12:01:40Z</time>
      </trkpt>
      <trkpt lat="42.97266" lon="-0.24331">
        <ele>1537.5</ele>
        <time>2015-03-12T12:01:43Z</time>
      </trkpt>
      <trkpt lat="42.97269" lon="-0.24333">
        <ele>1536.9</ele>
        <time>2015-03-12T12:01:44Z</time>
      </trkpt>
      <trkpt lat="42.97277" lon="-0.24343">
        <ele>1535.3</ele>
        <time>2015-03-12T12:01:47Z</time>
      </trkpt>
      <trkpt lat="42.97283" lon="-0.2435">
        <ele>1534.8</ele>
        <time>2015-03-12T12:01:49Z</time>
      </trkpt>
      <trkpt lat="42.9729" lon="-0.24357">
        <ele>1534.6</ele>
        <time>2015-03-12T12:01:51Z</time>
      </trkpt>
      <trkpt lat="42.97297" lon="-0.24365">
        <ele>1533.6</ele>
        <time>2015-03-12T12:01:53Z</time>
      </trkpt>
      <trkpt lat="42.97305" lon="-0.2437">
        <ele>1532.4</ele>
        <time>2015-03-12T12:01:55Z</time>
      </trkpt>
      <trkpt lat="42.97311" lon="-0.24375">
        <ele>1531.5</ele>
        <time>2015-03-12T12:01:57Z</time>
      </trkpt>
      <trkpt lat="42.97317" lon="-0.24379">
        <ele>1530.7</ele>
        <time>2015-03-12T12:01:59Z</time>
      </trkpt>
      <trkpt lat="42.97324" lon="-0.24383">
        <ele>1529.9</ele>
        <time>2015-03-12T12:02:02Z</time>
      </trkpt>
      <trkpt lat="42.97332" lon="-0.24388">
        <ele>1529.8</ele>
        <time>2015-03-12T12:02:05Z</time>
      </trkpt>
      <trkpt lat="42.9734" lon="-0.24393">
        <ele>1529.9</ele>
        <time>2015-03-12T12:02:08Z</time>
      </trkpt>
      <trkpt lat="42.97346" lon="-0.24397">
        <ele>1529.4</ele>
        <time>2015-03-12T12:02:11Z</time>
      </trkpt>
      <trkpt lat="42.97353" lon="-0.24402">
        <ele>1529.2</ele>
        <time>2015-03-12T12:02:14Z</time>
      </trkpt>
      <trkpt lat="42.97361" lon="-0.24405">
        <ele>1528.7</ele>
        <time>2015-03-12T12:02:17Z</time>
      </trkpt>
      <trkpt lat="42.97368" lon="-0.24408">
        <ele>1527.1</ele>
        <time>2015-03-12T12:02:20Z</time>
      </trkpt>
      <trkpt lat="42.97374" lon="-0.24415">
        <ele>1527.4</ele>
        <time>2015-03-12T12:02:23Z</time>
      </trkpt>
      <trkpt lat="42.97378" lon="-0.24423">
        <ele>1528</ele>
        <time>2015-03-12T12:02:26Z</time>
      </trkpt>
      <trkpt lat="42.97382" lon="-0.24434">
        <ele>1528.1</ele>
        <time>2015-03-12T12:02:31Z</time>
      </trkpt>
      <trkpt lat="42.97383" lon="-0.24444">
        <ele>1528.4</ele>
        <time>2015-03-12T12:02:35Z</time>
      </trkpt>
      <trkpt lat="42.97387" lon="-0.24453">
        <ele>1527.6</ele>
        <time>2015-03-12T12:02:39Z</time>
      </trkpt>
      <trkpt lat="42.97394" lon="-0.2446">
        <ele>1529.3</ele>
        <time>2015-03-12T12:02:44Z</time>
      </trkpt>
      <trkpt lat="42.97401" lon="-0.24463">
        <ele>1530</ele>
        <time>2015-03-12T12:02:48Z</time>
      </trkpt>
      <trkpt lat="42.97403" lon="-0.24463">
        <ele>1530.1</ele>
        <time>2015-03-12T12:02:49Z</time>
      </trkpt>
      <trkpt lat="42.97416" lon="-0.24458">
        <ele>1529.7</ele>
        <time>2015-03-12T12:02:57Z</time>
      </trkpt>
      <trkpt lat="42.97422" lon="-0.24454">
        <ele>1529.6</ele>
        <time>2015-03-12T12:03:00Z</time>
      </trkpt>
      <trkpt lat="42.97429" lon="-0.2445">
        <ele>1529.3</ele>
        <time>2015-03-12T12:03:03Z</time>
      </trkpt>
      <trkpt lat="42.97436" lon="-0.24446">
        <ele>1529.4</ele>
        <time>2015-03-12T12:03:07Z</time>
      </trkpt>
      <trkpt lat="42.97445" lon="-0.24443">
        <ele>1529.9</ele>
        <time>2015-03-12T12:03:11Z</time>
      </trkpt>
      <trkpt lat="42.97451" lon="-0.24442">
        <ele>1528.7</ele>
        <time>2015-03-12T12:03:14Z</time>
      </trkpt>
      <trkpt lat="42.9746" lon="-0.2444">
        <ele>1528.9</ele>
        <time>2015-03-12T12:03:18Z</time>
      </trkpt>
      <trkpt lat="42.97468" lon="-0.24439">
        <ele>1528.5</ele>
        <time>2015-03-12T12:03:21Z</time>
      </trkpt>
      <trkpt lat="42.97475" lon="-0.24438">
        <ele>1529.2</ele>
        <time>2015-03-12T12:03:25Z</time>
      </trkpt>
      <trkpt lat="42.97483" lon="-0.24438">
        <ele>1527.7</ele>
        <time>2015-03-12T12:03:30Z</time>
      </trkpt>
      <trkpt lat="42.97492" lon="-0.24437">
        <ele>1527.6</ele>
        <time>2015-03-12T12:03:34Z</time>
      </trkpt>
      <trkpt lat="42.97499" lon="-0.24433">
        <ele>1528.2</ele>
        <time>2015-03-12T12:03:37Z</time>
      </trkpt>
      <trkpt lat="42.97505" lon="-0.24428">
        <ele>1528.5</ele>
        <time>2015-03-12T12:03:41Z</time>
      </trkpt>
      <trkpt lat="42.97512" lon="-0.24422">
        <ele>1528.3</ele>
        <time>2015-03-12T12:03:45Z</time>
      </trkpt>
      <trkpt lat="42.97519" lon="-0.24415">
        <ele>1527.5</ele>
        <time>2015-03-12T12:03:49Z</time>
      </trkpt>
      <trkpt lat="42.97525" lon="-0.24407">
        <ele>1528.1</ele>
        <time>2015-03-12T12:03:53Z</time>
      </trkpt>
      <trkpt lat="42.97527" lon="-0.24405">
        <ele>1528.7</ele>
        <time>2015-03-12T12:03:54Z</time>
      </trkpt>
      <trkpt lat="42.9754" lon="-0.24396">
        <ele>1528.9</ele>
        <time>2015-03-12T12:04:01Z</time>
      </trkpt>
      <trkpt lat="42.97547" lon="-0.2439">
        <ele>1529.4</ele>
        <time>2015-03-12T12:04:05Z</time>
      </trkpt>
      <trkpt lat="42.97553" lon="-0.24385">
        <ele>1528.8</ele>
        <time>2015-03-12T12:04:08Z</time>
      </trkpt>
      <trkpt lat="42.97561" lon="-0.24381">
        <ele>1528.8</ele>
        <time>2015-03-12T12:04:12Z</time>
      </trkpt>
      <trkpt lat="42.97568" lon="-0.24375">
        <ele>1528.8</ele>
        <time>2015-03-12T12:04:16Z</time>
      </trkpt>
      <trkpt lat="42.97575" lon="-0.24368">
        <ele>1528.5</ele>
        <time>2015-03-12T12:04:20Z</time>
      </trkpt>
      <trkpt lat="42.97582" lon="-0.24362">
        <ele>1529.4</ele>
        <time>2015-03-12T12:04:24Z</time>
      </trkpt>
      <trkpt lat="42.97589" lon="-0.24356">
        <ele>1529.1</ele>
        <time>2015-03-12T12:04:28Z</time>
      </trkpt>
      <trkpt lat="42.97597" lon="-0.2435">
        <ele>1529.2</ele>
        <time>2015-03-12T12:04:32Z</time>
      </trkpt>
      <trkpt lat="42.97604" lon="-0.24346">
        <ele>1528.5</ele>
        <time>2015-03-12T12:04:36Z</time>
      </trkpt>
      <trkpt lat="42.97612" lon="-0.24342">
        <ele>1528.1</ele>
        <time>2015-03-12T12:04:40Z</time>
      </trkpt>
      <trkpt lat="42.9762" lon="-0.24336">
        <ele>1527.8</ele>
        <time>2015-03-12T12:04:44Z</time>
      </trkpt>
      <trkpt lat="42.97626" lon="-0.24332">
        <ele>1528.3</ele>
        <time>2015-03-12T12:04:47Z</time>
      </trkpt>
      <trkpt lat="42.97634" lon="-0.24326">
        <ele>1528.2</ele>
        <time>2015-03-12T12:04:52Z</time>
      </trkpt>
      <trkpt lat="42.9764" lon="-0.2432">
        <ele>1526.8</ele>
        <time>2015-03-12T12:04:57Z</time>
      </trkpt>
      <trkpt lat="42.97642" lon="-0.24318">
        <ele>1527.3</ele>
        <time>2015-03-12T12:04:58Z</time>
      </trkpt>
      <trkpt lat="42.97656" lon="-0.24308">
        <ele>1529.2</ele>
        <time>2015-03-12T12:05:07Z</time>
      </trkpt>
      <trkpt lat="42.97663" lon="-0.24304">
        <ele>1529.2</ele>
        <time>2015-03-12T12:05:11Z</time>
      </trkpt>
      <trkpt lat="42.97669" lon="-0.24299">
        <ele>1529.1</ele>
        <time>2015-03-12T12:05:14Z</time>
      </trkpt>
      <trkpt lat="42.97675" lon="-0.24293">
        <ele>1529.5</ele>
        <time>2015-03-12T12:05:17Z</time>
      </trkpt>
      <trkpt lat="42.97681" lon="-0.24285">
        <ele>1529.3</ele>
        <time>2015-03-12T12:05:21Z</time>
      </trkpt>
      <trkpt lat="42.97687" lon="-0.24276">
        <ele>1529</ele>
        <time>2015-03-12T12:05:25Z</time>
      </trkpt>
      <trkpt lat="42.97692" lon="-0.2427">
        <ele>1528.7</ele>
        <time>2015-03-12T12:05:28Z</time>
      </trkpt>
      <trkpt lat="42.97699" lon="-0.24266">
        <ele>1529</ele>
        <time>2015-03-12T12:05:32Z</time>
      </trkpt>
      <trkpt lat="42.97707" lon="-0.24265">
        <ele>1528.6</ele>
        <time>2015-03-12T12:05:36Z</time>
      </trkpt>
      <trkpt lat="42.97715" lon="-0.24264">
        <ele>1527.3</ele>
        <time>2015-03-12T12:05:40Z</time>
      </trkpt>
      <trkpt lat="42.97722" lon="-0.24262">
        <ele>1527.5</ele>
        <time>2015-03-12T12:05:44Z</time>
      </trkpt>
      <trkpt lat="42.97731" lon="-0.24259">
        <ele>1527.8</ele>
        <time>2015-03-12T12:05:49Z</time>
      </trkpt>
      <trkpt lat="42.9774" lon="-0.24257">
        <ele>1528.9</ele>
        <time>2015-03-12T12:05:54Z</time>
      </trkpt>
      <trkpt lat="42.97748" lon="-0.24258">
        <ele>1529.6</ele>
        <time>2015-03-12T12:05:59Z</time>
      </trkpt>
      <trkpt lat="42.97756" lon="-0.2426">
        <ele>1528.6</ele>
        <time>2015-03-12T12:06:03Z</time>
      </trkpt>
      <trkpt lat="42.97758" lon="-0.24261">
        <ele>1528.3</ele>
        <time>2015-03-12T12:06:04Z</time>
      </trkpt>
      <trkpt lat="42.97771" lon="-0.24268">
        <ele>1528.8</ele>
        <time>2015-03-12T12:06:11Z</time>
      </trkpt>
      <trkpt lat="42.9778" lon="-0.24268">
        <ele>1529.3</ele>
        <time>2015-03-12T12:06:16Z</time>
      </trkpt>
      <trkpt lat="42.97788" lon="-0.24266">
        <ele>1529.7</ele>
        <time>2015-03-12T12:06:21Z</time>
      </trkpt>
      <trkpt lat="42.97796" lon="-0.2426">
        <ele>1530.1</ele>
        <time>2015-03-12T12:06:26Z</time>
      </trkpt>
      <trkpt lat="42.97802" lon="-0.24254">
        <ele>1529.7</ele>
        <time>2015-03-12T12:06:30Z</time>
      </trkpt>
      <trkpt lat="42.97807" lon="-0.24246">
        <ele>1529.9</ele>
        <time>2015-03-12T12:06:34Z</time>
      </trkpt>
      <trkpt lat="42.97812" lon="-0.24236">
        <ele>1530.5</ele>
        <time>2015-03-12T12:06:38Z</time>
      </trkpt>
      <trkpt lat="42.97817" lon="-0.24227">
        <ele>1530.4</ele>
        <time>2015-03-12T12:06:43Z</time>
      </trkpt>
      <trkpt lat="42.9782" lon="-0.24216">
        <ele>1531.4</ele>
        <time>2015-03-12T12:06:48Z</time>
      </trkpt>
      <trkpt lat="42.97823" lon="-0.24207">
        <ele>1531.6</ele>
        <time>2015-03-12T12:06:52Z</time>
      </trkpt>
      <trkpt lat="42.97825" lon="-0.24195">
        <ele>1531.8</ele>
        <time>2015-03-12T12:06:56Z</time>
      </trkpt>
      <trkpt lat="42.97829" lon="-0.24186">
        <ele>1531.4</ele>
        <time>2015-03-12T12:07:00Z</time>
      </trkpt>
      <trkpt lat="42.97836" lon="-0.2418">
        <ele>1532.4</ele>
        <time>2015-03-12T12:07:05Z</time>
      </trkpt>
      <trkpt lat="42.97837" lon="-0.24179">
        <ele>1532.6</ele>
        <time>2015-03-12T12:07:06Z</time>
      </trkpt>
      <trkpt lat="42.97851" lon="-0.24175">
        <ele>1532.8</ele>
        <time>2015-03-12T12:07:16Z</time>
      </trkpt>
      <trkpt lat="42.97859" lon="-0.24172">
        <ele>1535.4</ele>
        <time>2015-03-12T12:07:22Z</time>
      </trkpt>
      <trkpt lat="42.97867" lon="-0.24168">
        <ele>1534.8</ele>
        <time>2015-03-12T12:07:29Z</time>
      </trkpt>
      <trkpt lat="42.97875" lon="-0.24165">
        <ele>1535.8</ele>
        <time>2015-03-12T12:07:34Z</time>
      </trkpt>
      <trkpt lat="42.97883" lon="-0.24165">
        <ele>1536.8</ele>
        <time>2015-03-12T12:07:39Z</time>
      </trkpt>
      <trkpt lat="42.97891" lon="-0.24166">
        <ele>1536.9</ele>
        <time>2015-03-12T12:07:43Z</time>
      </trkpt>
      <trkpt lat="42.97899" lon="-0.24167">
        <ele>1536.2</ele>
        <time>2015-03-12T12:07:47Z</time>
      </trkpt>
      <trkpt lat="42.97907" lon="-0.24169">
        <ele>1535.4</ele>
        <time>2015-03-12T12:07:52Z</time>
      </trkpt>
      <trkpt lat="42.97915" lon="-0.24169">
        <ele>1535.4</ele>
        <time>2015-03-12T12:07:56Z</time>
      </trkpt>
      <trkpt lat="42.97923" lon="-0.24166">
        <ele>1535.9</ele>
        <time>2015-03-12T12:08:01Z</time>
      </trkpt>
      <trkpt lat="42.97931" lon="-0.24161">
        <ele>1536.4</ele>
        <time>2015-03-12T12:08:06Z</time>
      </trkpt>
      <trkpt lat="42.97937" lon="-0.24157">
        <ele>1536.7</ele>
        <time>2015-03-12T12:08:10Z</time>
      </trkpt>
      <trkpt lat="42.97939" lon="-0.24156">
        <ele>1536.8</ele>
        <time>2015-03-12T12:08:11Z</time>
      </trkpt>
      <trkpt lat="42.97953" lon="-0.24147">
        <ele>1536.9</ele>
        <time>2015-03-12T12:08:20Z</time>
      </trkpt>
      <trkpt lat="42.97961" lon="-0.24146">
        <ele>1536.9</ele>
        <time>2015-03-12T12:08:25Z</time>
      </trkpt>
      <trkpt lat="42.97969" lon="-0.24149">
        <ele>1537.8</ele>
        <time>2015-03-12T12:08:31Z</time>
      </trkpt>
      <trkpt lat="42.97978" lon="-0.24151">
        <ele>1537.9</ele>
        <time>2015-03-12T12:08:37Z</time>
      </trkpt>
      <trkpt lat="42.97986" lon="-0.24151">
        <ele>1538.2</ele>
        <time>2015-03-12T12:08:42Z</time>
      </trkpt>
      <trkpt lat="42.97994" lon="-0.24151">
        <ele>1539</ele>
        <time>2015-03-12T12:08:47Z</time>
      </trkpt>
      <trkpt lat="42.98003" lon="-0.2415">
        <ele>1539.5</ele>
        <time>2015-03-12T12:08:53Z</time>
      </trkpt>
      <trkpt lat="42.98011" lon="-0.24149">
        <ele>1540</ele>
        <time>2015-03-12T12:08:57Z</time>
      </trkpt>
      <trkpt lat="42.98018" lon="-0.24147">
        <ele>1540.1</ele>
        <time>2015-03-12T12:09:01Z</time>
      </trkpt>
      <trkpt lat="42.98025" lon="-0.24144">
        <ele>1539.8</ele>
        <time>2015-03-12T12:09:05Z</time>
      </trkpt>
      <trkpt lat="42.98032" lon="-0.24138">
        <ele>1539.8</ele>
        <time>2015-03-12T12:09:10Z</time>
      </trkpt>
      <trkpt lat="42.98039" lon="-0.2413">
        <ele>1540.5</ele>
        <time>2015-03-12T12:09:15Z</time>
      </trkpt>
      <trkpt lat="42.9804" lon="-0.24128">
        <ele>1540.5</ele>
        <time>2015-03-12T12:09:16Z</time>
      </trkpt>
      <trkpt lat="42.98049" lon="-0.24113">
        <ele>1539.9</ele>
        <time>2015-03-12T12:09:22Z</time>
      </trkpt>
      <trkpt lat="42.98056" lon="-0.24106">
        <ele>1540.7</ele>
        <time>2015-03-12T12:09:25Z</time>
      </trkpt>
      <trkpt lat="42.98063" lon="-0.24102">
        <ele>1539.7</ele>
        <time>2015-03-12T12:09:29Z</time>
      </trkpt>
      <trkpt lat="42.98071" lon="-0.24101">
        <ele>1540.1</ele>
        <time>2015-03-12T12:09:33Z</time>
      </trkpt>
      <trkpt lat="42.98079" lon="-0.24099">
        <ele>1539.5</ele>
        <time>2015-03-12T12:09:37Z</time>
      </trkpt>
      <trkpt lat="42.98088" lon="-0.24096">
        <ele>1539.3</ele>
        <time>2015-03-12T12:09:41Z</time>
      </trkpt>
      <trkpt lat="42.98095" lon="-0.24091">
        <ele>1539.2</ele>
        <time>2015-03-12T12:09:46Z</time>
      </trkpt>
      <trkpt lat="42.98102" lon="-0.24085">
        <ele>1539.9</ele>
        <time>2015-03-12T12:09:51Z</time>
      </trkpt>
      <trkpt lat="42.98106" lon="-0.24076">
        <ele>1540.6</ele>
        <time>2015-03-12T12:09:56Z</time>
      </trkpt>
      <trkpt lat="42.98111" lon="-0.24067">
        <ele>1540.7</ele>
        <time>2015-03-12T12:10:01Z</time>
      </trkpt>
      <trkpt lat="42.98116" lon="-0.24056">
        <ele>1541</ele>
        <time>2015-03-12T12:10:06Z</time>
      </trkpt>
      <trkpt lat="42.98121" lon="-0.24047">
        <ele>1541.1</ele>
        <time>2015-03-12T12:10:10Z</time>
      </trkpt>
      <trkpt lat="42.98125" lon="-0.24039">
        <ele>1541.2</ele>
        <time>2015-03-12T12:10:13Z</time>
      </trkpt>
      <trkpt lat="42.9813" lon="-0.24032">
        <ele>1540.6</ele>
        <time>2015-03-12T12:10:16Z</time>
      </trkpt>
      <trkpt lat="42.98136" lon="-0.24024">
        <ele>1540.5</ele>
        <time>2015-03-12T12:10:20Z</time>
      </trkpt>
      <trkpt lat="42.98137" lon="-0.24022">
        <ele>1540.6</ele>
        <time>2015-03-12T12:10:21Z</time>
      </trkpt>
      <trkpt lat="42.98147" lon="-0.2401">
        <ele>1540.6</ele>
        <time>2015-03-12T12:10:29Z</time>
      </trkpt>
      <trkpt lat="42.98154" lon="-0.24005">
        <ele>1541.7</ele>
        <time>2015-03-12T12:10:33Z</time>
      </trkpt>
      <trkpt lat="42.98162" lon="-0.24001">
        <ele>1541.2</ele>
        <time>2015-03-12T12:10:38Z</time>
      </trkpt>
      <trkpt lat="42.98167" lon="-0.2401">
        <ele>1541.4</ele>
        <time>2015-03-12T12:10:44Z</time>
      </trkpt>
      <trkpt lat="42.98168" lon="-0.24022">
        <ele>1541.9</ele>
        <time>2015-03-12T12:10:49Z</time>
      </trkpt>
      <trkpt lat="42.9817" lon="-0.24032">
        <ele>1543</ele>
        <time>2015-03-12T12:10:54Z</time>
      </trkpt>
      <trkpt lat="42.98177" lon="-0.24039">
        <ele>1543.2</ele>
        <time>2015-03-12T12:11:00Z</time>
      </trkpt>
      <trkpt lat="42.98185" lon="-0.24041">
        <ele>1543.8</ele>
        <time>2015-03-12T12:11:06Z</time>
      </trkpt>
      <trkpt lat="42.98193" lon="-0.24038">
        <ele>1544</ele>
        <time>2015-03-12T12:11:11Z</time>
      </trkpt>
      <trkpt lat="42.98199" lon="-0.24032">
        <ele>1544.6</ele>
        <time>2015-03-12T12:11:15Z</time>
      </trkpt>
      <trkpt lat="42.98204" lon="-0.24026">
        <ele>1544.6</ele>
        <time>2015-03-12T12:11:18Z</time>
      </trkpt>
      <trkpt lat="42.98209" lon="-0.2402">
        <ele>1544.5</ele>
        <time>2015-03-12T12:11:21Z</time>
      </trkpt>
      <trkpt lat="42.98211" lon="-0.24018">
        <ele>1544.6</ele>
        <time>2015-03-12T12:11:22Z</time>
      </trkpt>
      <trkpt lat="42.98222" lon="-0.24007">
        <ele>1544.6</ele>
        <time>2015-03-12T12:11:29Z</time>
      </trkpt>
      <trkpt lat="42.98228" lon="-0.24003">
        <ele>1544.5</ele>
        <time>2015-03-12T12:11:32Z</time>
      </trkpt>
      <trkpt lat="42.98236" lon="-0.24">
        <ele>1543.9</ele>
        <time>2015-03-12T12:11:36Z</time>
      </trkpt>
      <trkpt lat="42.98243" lon="-0.24001">
        <ele>1544.6</ele>
        <time>2015-03-12T12:11:40Z</time>
      </trkpt>
      <trkpt lat="42.98251" lon="-0.24004">
        <ele>1544.1</ele>
        <time>2015-03-12T12:11:44Z</time>
      </trkpt>
      <trkpt lat="42.98258" lon="-0.24009">
        <ele>1544</ele>
        <time>2015-03-12T12:11:50Z</time>
      </trkpt>
      <trkpt lat="42.98262" lon="-0.24019">
        <ele>1545.8</ele>
        <time>2015-03-12T12:11:58Z</time>
      </trkpt>
      <trkpt lat="42.98266" lon="-0.24029">
        <ele>1546.6</ele>
        <time>2015-03-12T12:12:06Z</time>
      </trkpt>
      <trkpt lat="42.98269" lon="-0.24041">
        <ele>1547</ele>
        <time>2015-03-12T12:12:13Z</time>
      </trkpt>
      <trkpt lat="42.9827" lon="-0.24052">
        <ele>1548.3</ele>
        <time>2015-03-12T12:12:19Z</time>
      </trkpt>
      <trkpt lat="42.98273" lon="-0.24062">
        <ele>1548.9</ele>
        <time>2015-03-12T12:12:25Z</time>
      </trkpt>
      <trkpt lat="42.98273" lon="-0.24064">
        <ele>1549</ele>
        <time>2015-03-12T12:12:26Z</time>
      </trkpt>
      <trkpt lat="42.98276" lon="-0.24084">
        <ele>1550.2</ele>
        <time>2015-03-12T12:12:35Z</time>
      </trkpt>
      <trkpt lat="42.98278" lon="-0.24096">
        <ele>1550.4</ele>
        <time>2015-03-12T12:12:46Z</time>
      </trkpt>
      <trkpt lat="42.98279" lon="-0.24107">
        <ele>1550.6</ele>
        <time>2015-03-12T12:12:53Z</time>
      </trkpt>
      <trkpt lat="42.98279" lon="-0.24116">
        <ele>1549.9</ele>
        <time>2015-03-12T12:12:56Z</time>
      </trkpt>
      <trkpt lat="42.98277" lon="-0.24126">
        <ele>1549.5</ele>
        <time>2015-03-12T12:12:59Z</time>
      </trkpt>
      <trkpt lat="42.98274" lon="-0.24134">
        <ele>1549.2</ele>
        <time>2015-03-12T12:13:01Z</time>
      </trkpt>
      <trkpt lat="42.98269" lon="-0.24144">
        <ele>1548.3</ele>
        <time>2015-03-12T12:13:04Z</time>
      </trkpt>
      <trkpt lat="42.98266" lon="-0.24153">
        <ele>1547.6</ele>
        <time>2015-03-12T12:13:06Z</time>
      </trkpt>
      <trkpt lat="42.98263" lon="-0.24158">
        <ele>1547.3</ele>
        <time>2015-03-12T12:13:07Z</time>
      </trkpt>
      <trkpt lat="42.98261" lon="-0.24163">
        <ele>1547.1</ele>
        <time>2015-03-12T12:13:08Z</time>
      </trkpt>
      <trkpt lat="42.98258" lon="-0.24169">
        <ele>1546.5</ele>
        <time>2015-03-12T12:13:09Z</time>
      </trkpt>
      <trkpt lat="42.98255" lon="-0.24174">
        <ele>1546.1</ele>
        <time>2015-03-12T12:13:10Z</time>
      </trkpt>
      <trkpt lat="42.98252" lon="-0.24179">
        <ele>1545.7</ele>
        <time>2015-03-12T12:13:11Z</time>
      </trkpt>
      <trkpt lat="42.98249" lon="-0.24184">
        <ele>1545.2</ele>
        <time>2015-03-12T12:13:12Z</time>
      </trkpt>
      <trkpt lat="42.98245" lon="-0.24195">
        <ele>1544.5</ele>
        <time>2015-03-12T12:13:14Z</time>
      </trkpt>
      <trkpt lat="42.98241" lon="-0.24205">
        <ele>1543.8</ele>
        <time>2015-03-12T12:13:16Z</time>
      </trkpt>
      <trkpt lat="42.98238" lon="-0.24215">
        <ele>1543.3</ele>
        <time>2015-03-12T12:13:18Z</time>
      </trkpt>
      <trkpt lat="42.98236" lon="-0.24225">
        <ele>1542.8</ele>
        <time>2015-03-12T12:13:20Z</time>
      </trkpt>
      <trkpt lat="42.98235" lon="-0.24234">
        <ele>1542</ele>
        <time>2015-03-12T12:13:22Z</time>
      </trkpt>
      <trkpt lat="42.98234" lon="-0.24242">
        <ele>1541.1</ele>
        <time>2015-03-12T12:13:24Z</time>
      </trkpt>
      <trkpt lat="42.98232" lon="-0.2425">
        <ele>1541</ele>
        <time>2015-03-12T12:13:26Z</time>
      </trkpt>
      <trkpt lat="42.98231" lon="-0.24255">
        <ele>1541</ele>
        <time>2015-03-12T12:13:27Z</time>
      </trkpt>
      <trkpt lat="42.98228" lon="-0.24267">
        <ele>1540.9</ele>
        <time>2015-03-12T12:13:30Z</time>
      </trkpt>
      <trkpt lat="42.98225" lon="-0.24275">
        <ele>1540.3</ele>
        <time>2015-03-12T12:13:32Z</time>
      </trkpt>
      <trkpt lat="42.98221" lon="-0.24283">
        <ele>1539.6</ele>
        <time>2015-03-12T12:13:34Z</time>
      </trkpt>
      <trkpt lat="42.98216" lon="-0.24291">
        <ele>1539.4</ele>
        <time>2015-03-12T12:13:36Z</time>
      </trkpt>
      <trkpt lat="42.98211" lon="-0.24297">
        <ele>1538.9</ele>
        <time>2015-03-12T12:13:38Z</time>
      </trkpt>
      <trkpt lat="42.98206" lon="-0.24302">
        <ele>1538.3</ele>
        <time>2015-03-12T12:13:40Z</time>
      </trkpt>
      <trkpt lat="42.98201" lon="-0.24307">
        <ele>1537.5</ele>
        <time>2015-03-12T12:13:42Z</time>
      </trkpt>
      <trkpt lat="42.98195" lon="-0.24312">
        <ele>1537</ele>
        <time>2015-03-12T12:13:44Z</time>
      </trkpt>
      <trkpt lat="42.9819" lon="-0.24317">
        <ele>1536.7</ele>
        <time>2015-03-12T12:13:46Z</time>
      </trkpt>
      <trkpt lat="42.98184" lon="-0.24323">
        <ele>1536.4</ele>
        <time>2015-03-12T12:13:48Z</time>
      </trkpt>
      <trkpt lat="42.98178" lon="-0.24328">
        <ele>1536.2</ele>
        <time>2015-03-12T12:13:50Z</time>
      </trkpt>
      <trkpt lat="42.98172" lon="-0.24334">
        <ele>1536</ele>
        <time>2015-03-12T12:13:52Z</time>
      </trkpt>
      <trkpt lat="42.98166" lon="-0.24341">
        <ele>1535.5</ele>
        <time>2015-03-12T12:13:54Z</time>
      </trkpt>
      <trkpt lat="42.98161" lon="-0.24348">
        <ele>1534.9</ele>
        <time>2015-03-12T12:13:56Z</time>
      </trkpt>
      <trkpt lat="42.98156" lon="-0.24356">
        <ele>1534.3</ele>
        <time>2015-03-12T12:13:58Z</time>
      </trkpt>
      <trkpt lat="42.98151" lon="-0.24364">
        <ele>1533.5</ele>
        <time>2015-03-12T12:14:00Z</time>
      </trkpt>
      <trkpt lat="42.98148" lon="-0.24372">
        <ele>1532.6</ele>
        <time>2015-03-12T12:14:02Z</time>
      </trkpt>
      <trkpt lat="42.98145" lon="-0.24383">
        <ele>1532</ele>
        <time>2015-03-12T12:14:05Z</time>
      </trkpt>
      <trkpt lat="42.98144" lon="-0.24391">
        <ele>1531.6</ele>
        <time>2015-03-12T12:14:07Z</time>
      </trkpt>
      <trkpt lat="42.98143" lon="-0.244">
        <ele>1531.3</ele>
        <time>2015-03-12T12:14:09Z</time>
      </trkpt>
      <trkpt lat="42.98141" lon="-0.24409">
        <ele>1531</ele>
        <time>2015-03-12T12:14:11Z</time>
      </trkpt>
      <trkpt lat="42.98137" lon="-0.24418">
        <ele>1531</ele>
        <time>2015-03-12T12:14:13Z</time>
      </trkpt>
      <trkpt lat="42.98132" lon="-0.24424">
        <ele>1531</ele>
        <time>2015-03-12T12:14:15Z</time>
      </trkpt>
      <trkpt lat="42.98127" lon="-0.24429">
        <ele>1529.8</ele>
        <time>2015-03-12T12:14:17Z</time>
      </trkpt>
      <trkpt lat="42.98121" lon="-0.24432">
        <ele>1529.2</ele>
        <time>2015-03-12T12:14:19Z</time>
      </trkpt>
      <trkpt lat="42.98114" lon="-0.24436">
        <ele>1529</ele>
        <time>2015-03-12T12:14:21Z</time>
      </trkpt>
      <trkpt lat="42.98107" lon="-0.2444">
        <ele>1528.4</ele>
        <time>2015-03-12T12:14:23Z</time>
      </trkpt>
      <trkpt lat="42.981" lon="-0.24445">
        <ele>1527.8</ele>
        <time>2015-03-12T12:14:25Z</time>
      </trkpt>
      <trkpt lat="42.98093" lon="-0.24448">
        <ele>1526.8</ele>
        <time>2015-03-12T12:14:27Z</time>
      </trkpt>
      <trkpt lat="42.9809" lon="-0.2445">
        <ele>1526.5</ele>
        <time>2015-03-12T12:14:28Z</time>
      </trkpt>
      <trkpt lat="42.98081" lon="-0.24457">
        <ele>1525.9</ele>
        <time>2015-03-12T12:14:31Z</time>
      </trkpt>
      <trkpt lat="42.98075" lon="-0.24461">
        <ele>1525.7</ele>
        <time>2015-03-12T12:14:33Z</time>
      </trkpt>
      <trkpt lat="42.98069" lon="-0.24467">
        <ele>1524.5</ele>
        <time>2015-03-12T12:14:35Z</time>
      </trkpt>
      <trkpt lat="42.98063" lon="-0.24474">
        <ele>1523.1</ele>
        <time>2015-03-12T12:14:37Z</time>
      </trkpt>
      <trkpt lat="42.98059" lon="-0.24483">
        <ele>1522.4</ele>
        <time>2015-03-12T12:14:40Z</time>
      </trkpt>
      <trkpt lat="42.98059" lon="-0.24495">
        <ele>1522.1</ele>
        <time>2015-03-12T12:14:44Z</time>
      </trkpt>
      <trkpt lat="42.98061" lon="-0.24505">
        <ele>1522.6</ele>
        <time>2015-03-12T12:14:47Z</time>
      </trkpt>
      <trkpt lat="42.98063" lon="-0.24514">
        <ele>1521.9</ele>
        <time>2015-03-12T12:14:50Z</time>
      </trkpt>
      <trkpt lat="42.98065" lon="-0.24526">
        <ele>1521.8</ele>
        <time>2015-03-12T12:14:53Z</time>
      </trkpt>
      <trkpt lat="42.98065" lon="-0.24536">
        <ele>1521.3</ele>
        <time>2015-03-12T12:14:55Z</time>
      </trkpt>
      <trkpt lat="42.98063" lon="-0.24547">
        <ele>1520.7</ele>
        <time>2015-03-12T12:14:57Z</time>
      </trkpt>
      <trkpt lat="42.98059" lon="-0.24558">
        <ele>1518.9</ele>
        <time>2015-03-12T12:14:59Z</time>
      </trkpt>
      <trkpt lat="42.98055" lon="-0.24568">
        <ele>1517.9</ele>
        <time>2015-03-12T12:15:01Z</time>
      </trkpt>
      <trkpt lat="42.98052" lon="-0.24576">
        <ele>1517.3</ele>
        <time>2015-03-12T12:15:03Z</time>
      </trkpt>
      <trkpt lat="42.98049" lon="-0.24585">
        <ele>1516.9</ele>
        <time>2015-03-12T12:15:06Z</time>
      </trkpt>
      <trkpt lat="42.98046" lon="-0.24596">
        <ele>1517.5</ele>
        <time>2015-03-12T12:15:10Z</time>
      </trkpt>
      <trkpt lat="42.98045" lon="-0.24606">
        <ele>1518.2</ele>
        <time>2015-03-12T12:15:13Z</time>
      </trkpt>
      <trkpt lat="42.98046" lon="-0.24617">
        <ele>1517.3</ele>
        <time>2015-03-12T12:15:16Z</time>
      </trkpt>
      <trkpt lat="42.98048" lon="-0.24628">
        <ele>1516.6</ele>
        <time>2015-03-12T12:15:19Z</time>
      </trkpt>
      <trkpt lat="42.98049" lon="-0.2464">
        <ele>1515.1</ele>
        <time>2015-03-12T12:15:22Z</time>
      </trkpt>
      <trkpt lat="42.98053" lon="-0.24651">
        <ele>1515.6</ele>
        <time>2015-03-12T12:15:25Z</time>
      </trkpt>
      <trkpt lat="42.98055" lon="-0.24663">
        <ele>1514.3</ele>
        <time>2015-03-12T12:15:28Z</time>
      </trkpt>
      <trkpt lat="42.98056" lon="-0.24667">
        <ele>1513.8</ele>
        <time>2015-03-12T12:15:29Z</time>
      </trkpt>
      <trkpt lat="42.98058" lon="-0.24679">
        <ele>1512.3</ele>
        <time>2015-03-12T12:15:32Z</time>
      </trkpt>
      <trkpt lat="42.98059" lon="-0.24691">
        <ele>1511.2</ele>
        <time>2015-03-12T12:15:35Z</time>
      </trkpt>
      <trkpt lat="42.98062" lon="-0.24702">
        <ele>1510.8</ele>
        <time>2015-03-12T12:15:42Z</time>
      </trkpt>
      <trkpt lat="42.9806" lon="-0.2469">
        <ele>1509.5</ele>
        <time>2015-03-12T12:16:34Z</time>
      </trkpt>
      <trkpt lat="42.98061" lon="-0.24686">
        <ele>1509.4</ele>
        <time>2015-03-12T12:16:35Z</time>
      </trkpt>
      <trkpt lat="42.98062" lon="-0.24672">
        <ele>1510</ele>
        <time>2015-03-12T12:16:38Z</time>
      </trkpt>
      <trkpt lat="42.98062" lon="-0.24663">
        <ele>1509.6</ele>
        <time>2015-03-12T12:16:40Z</time>
      </trkpt>
      <trkpt lat="42.98062" lon="-0.24653">
        <ele>1508.8</ele>
        <time>2015-03-12T12:16:42Z</time>
      </trkpt>
      <trkpt lat="42.98064" lon="-0.24641">
        <ele>1507.9</ele>
        <time>2015-03-12T12:16:44Z</time>
      </trkpt>
      <trkpt lat="42.98065" lon="-0.24635">
        <ele>1507.6</ele>
        <time>2015-03-12T12:16:45Z</time>
      </trkpt>
      <trkpt lat="42.98066" lon="-0.24628">
        <ele>1507</ele>
        <time>2015-03-12T12:16:46Z</time>
      </trkpt>
      <trkpt lat="42.98068" lon="-0.24622">
        <ele>1506.5</ele>
        <time>2015-03-12T12:16:47Z</time>
      </trkpt>
      <trkpt lat="42.9807" lon="-0.24616">
        <ele>1506.2</ele>
        <time>2015-03-12T12:16:48Z</time>
      </trkpt>
      <trkpt lat="42.98072" lon="-0.2461">
        <ele>1505.6</ele>
        <time>2015-03-12T12:16:49Z</time>
      </trkpt>
      <trkpt lat="42.98077" lon="-0.24601">
        <ele>1504.8</ele>
        <time>2015-03-12T12:16:51Z</time>
      </trkpt>
      <trkpt lat="42.98083" lon="-0.24592">
        <ele>1504.1</ele>
        <time>2015-03-12T12:16:53Z</time>
      </trkpt>
      <trkpt lat="42.98088" lon="-0.24583">
        <ele>1503.5</ele>
        <time>2015-03-12T12:16:55Z</time>
      </trkpt>
      <trkpt lat="42.98094" lon="-0.24575">
        <ele>1502.8</ele>
        <time>2015-03-12T12:16:57Z</time>
      </trkpt>
      <trkpt lat="42.98099" lon="-0.24567">
        <ele>1501.9</ele>
        <time>2015-03-12T12:16:59Z</time>
      </trkpt>
      <trkpt lat="42.98104" lon="-0.24558">
        <ele>1501.1</ele>
        <time>2015-03-12T12:17:01Z</time>
      </trkpt>
      <trkpt lat="42.98109" lon="-0.24549">
        <ele>1500.1</ele>
        <time>2015-03-12T12:17:03Z</time>
      </trkpt>
      <trkpt lat="42.98115" lon="-0.2454">
        <ele>1499.7</ele>
        <time>2015-03-12T12:17:05Z</time>
      </trkpt>
      <trkpt lat="42.98121" lon="-0.24531">
        <ele>1499.6</ele>
        <time>2015-03-12T12:17:07Z</time>
      </trkpt>
      <trkpt lat="42.98126" lon="-0.24523">
        <ele>1499.3</ele>
        <time>2015-03-12T12:17:09Z</time>
      </trkpt>
      <trkpt lat="42.98129" lon="-0.24518">
        <ele>1499</ele>
        <time>2015-03-12T12:17:10Z</time>
      </trkpt>
      <trkpt lat="42.98133" lon="-0.24514">
        <ele>1498.9</ele>
        <time>2015-03-12T12:17:11Z</time>
      </trkpt>
      <trkpt lat="42.98136" lon="-0.2451">
        <ele>1498.3</ele>
        <time>2015-03-12T12:17:12Z</time>
      </trkpt>
      <trkpt lat="42.98143" lon="-0.24502">
        <ele>1497.6</ele>
        <time>2015-03-12T12:17:14Z</time>
      </trkpt>
      <trkpt lat="42.98149" lon="-0.24497">
        <ele>1496.4</ele>
        <time>2015-03-12T12:17:16Z</time>
      </trkpt>
      <trkpt lat="42.98156" lon="-0.24492">
        <ele>1495.8</ele>
        <time>2015-03-12T12:17:18Z</time>
      </trkpt>
      <trkpt lat="42.98162" lon="-0.24489">
        <ele>1495.5</ele>
        <time>2015-03-12T12:17:20Z</time>
      </trkpt>
      <trkpt lat="42.98168" lon="-0.24485">
        <ele>1495.7</ele>
        <time>2015-03-12T12:17:22Z</time>
      </trkpt>
      <trkpt lat="42.98174" lon="-0.24482">
        <ele>1495.8</ele>
        <time>2015-03-12T12:17:24Z</time>
      </trkpt>
      <trkpt lat="42.98181" lon="-0.24478">
        <ele>1494.6</ele>
        <time>2015-03-12T12:17:26Z</time>
      </trkpt>
      <trkpt lat="42.98188" lon="-0.24475">
        <ele>1494</ele>
        <time>2015-03-12T12:17:28Z</time>
      </trkpt>
      <trkpt lat="42.98195" lon="-0.24473">
        <ele>1493.7</ele>
        <time>2015-03-12T12:17:30Z</time>
      </trkpt>
      <trkpt lat="42.98202" lon="-0.24469">
        <ele>1493.9</ele>
        <time>2015-03-12T12:17:32Z</time>
      </trkpt>
      <trkpt lat="42.98209" lon="-0.24466">
        <ele>1493.2</ele>
        <time>2015-03-12T12:17:34Z</time>
      </trkpt>
      <trkpt lat="42.98218" lon="-0.24464">
        <ele>1492.2</ele>
        <time>2015-03-12T12:17:36Z</time>
      </trkpt>
      <trkpt lat="42.98222" lon="-0.24463">
        <ele>1491.9</ele>
        <time>2015-03-12T12:17:37Z</time>
      </trkpt>
      <trkpt lat="42.98235" lon="-0.24463">
        <ele>1491.3</ele>
        <time>2015-03-12T12:17:41Z</time>
      </trkpt>
      <trkpt lat="42.98242" lon="-0.24461">
        <ele>1490.8</ele>
        <time>2015-03-12T12:17:44Z</time>
      </trkpt>
      <trkpt lat="42.98247" lon="-0.24458">
        <ele>1490.3</ele>
        <time>2015-03-12T12:17:46Z</time>
      </trkpt>
      <trkpt lat="42.98252" lon="-0.24453">
        <ele>1489.4</ele>
        <time>2015-03-12T12:17:48Z</time>
      </trkpt>
      <trkpt lat="42.98258" lon="-0.24446">
        <ele>1488.8</ele>
        <time>2015-03-12T12:17:50Z</time>
      </trkpt>
      <trkpt lat="42.98264" lon="-0.24438">
        <ele>1488.1</ele>
        <time>2015-03-12T12:17:53Z</time>
      </trkpt>
      <trkpt lat="42.98269" lon="-0.24428">
        <ele>1487.6</ele>
        <time>2015-03-12T12:17:57Z</time>
      </trkpt>
      <trkpt lat="42.98273" lon="-0.24421">
        <ele>1487.9</ele>
        <time>2015-03-12T12:18:00Z</time>
      </trkpt>
      <trkpt lat="42.98278" lon="-0.24412">
        <ele>1488.3</ele>
        <time>2015-03-12T12:18:03Z</time>
      </trkpt>
      <trkpt lat="42.98285" lon="-0.24407">
        <ele>1488.3</ele>
        <time>2015-03-12T12:18:05Z</time>
      </trkpt>
      <trkpt lat="42.98293" lon="-0.24404">
        <ele>1487.1</ele>
        <time>2015-03-12T12:18:07Z</time>
      </trkpt>
      <trkpt lat="42.98299" lon="-0.24407">
        <ele>1486.5</ele>
        <time>2015-03-12T12:18:09Z</time>
      </trkpt>
      <trkpt lat="42.98306" lon="-0.24415">
        <ele>1486.2</ele>
        <time>2015-03-12T12:18:13Z</time>
      </trkpt>
      <trkpt lat="42.9831" lon="-0.24424">
        <ele>1486.4</ele>
        <time>2015-03-12T12:18:17Z</time>
      </trkpt>
      <trkpt lat="42.98316" lon="-0.24431">
        <ele>1486.5</ele>
        <time>2015-03-12T12:18:21Z</time>
      </trkpt>
      <trkpt lat="42.98323" lon="-0.24437">
        <ele>1487.4</ele>
        <time>2015-03-12T12:18:26Z</time>
      </trkpt>
      <trkpt lat="42.9833" lon="-0.24443">
        <ele>1487.8</ele>
        <time>2015-03-12T12:20:43Z</time>
      </trkpt>
      <trkpt lat="42.98333" lon="-0.24443">
        <ele>1487.9</ele>
        <time>2015-03-12T12:20:44Z</time>
      </trkpt>
      <trkpt lat="42.98346" lon="-0.2444">
        <ele>1486.6</ele>
        <time>2015-03-12T12:20:49Z</time>
      </trkpt>
      <trkpt lat="42.98355" lon="-0.24441">
        <ele>1485.9</ele>
        <time>2015-03-12T12:20:53Z</time>
      </trkpt>
      <trkpt lat="42.98362" lon="-0.24446">
        <ele>1485.3</ele>
        <time>2015-03-12T12:20:58Z</time>
      </trkpt>
      <trkpt lat="42.98368" lon="-0.24449">
        <ele>1485.5</ele>
        <time>2015-03-12T12:21:01Z</time>
      </trkpt>
      <trkpt lat="42.98376" lon="-0.24452">
        <ele>1485.4</ele>
        <time>2015-03-12T12:21:05Z</time>
      </trkpt>
      <trkpt lat="42.98385" lon="-0.24453">
        <ele>1484.3</ele>
        <time>2015-03-12T12:21:09Z</time>
      </trkpt>
      <trkpt lat="42.98393" lon="-0.24456">
        <ele>1484.9</ele>
        <time>2015-03-12T12:21:13Z</time>
      </trkpt>
      <trkpt lat="42.984" lon="-0.2446">
        <ele>1484.8</ele>
        <time>2015-03-12T12:21:16Z</time>
      </trkpt>
      <trkpt lat="42.98407" lon="-0.24465">
        <ele>1484.3</ele>
        <time>2015-03-12T12:21:19Z</time>
      </trkpt>
      <trkpt lat="42.98414" lon="-0.24467">
        <ele>1484.1</ele>
        <time>2015-03-12T12:21:22Z</time>
      </trkpt>
      <trkpt lat="42.98421" lon="-0.24469">
        <ele>1483.3</ele>
        <time>2015-03-12T12:21:25Z</time>
      </trkpt>
      <trkpt lat="42.98428" lon="-0.24475">
        <ele>1483.5</ele>
        <time>2015-03-12T12:21:29Z</time>
      </trkpt>
      <trkpt lat="42.98435" lon="-0.24481">
        <ele>1482.9</ele>
        <time>2015-03-12T12:21:33Z</time>
      </trkpt>
      <trkpt lat="42.98442" lon="-0.24488">
        <ele>1482.4</ele>
        <time>2015-03-12T12:21:37Z</time>
      </trkpt>
      <trkpt lat="42.98449" lon="-0.24494">
        <ele>1483.3</ele>
        <time>2015-03-12T12:21:41Z</time>
      </trkpt>
      <trkpt lat="42.98454" lon="-0.24499">
        <ele>1483.4</ele>
        <time>2015-03-12T12:21:44Z</time>
      </trkpt>
      <trkpt lat="42.98456" lon="-0.24501">
        <ele>1483.4</ele>
        <time>2015-03-12T12:21:45Z</time>
      </trkpt>
      <trkpt lat="42.98467" lon="-0.24512">
        <ele>1481.6</ele>
        <time>2015-03-12T12:21:50Z</time>
      </trkpt>
      <trkpt lat="42.98473" lon="-0.24518">
        <ele>1481.6</ele>
        <time>2015-03-12T12:21:53Z</time>
      </trkpt>
      <trkpt lat="42.9848" lon="-0.24524">
        <ele>1481.8</ele>
        <time>2015-03-12T12:21:56Z</time>
      </trkpt>
      <trkpt lat="42.98485" lon="-0.2453">
        <ele>1481.5</ele>
        <time>2015-03-12T12:21:58Z</time>
      </trkpt>
      <trkpt lat="42.9849" lon="-0.24537">
        <ele>1480</ele>
        <time>2015-03-12T12:22:00Z</time>
      </trkpt>
      <trkpt lat="42.98495" lon="-0.24544">
        <ele>1479.4</ele>
        <time>2015-03-12T12:22:02Z</time>
      </trkpt>
      <trkpt lat="42.985" lon="-0.24552">
        <ele>1479.3</ele>
        <time>2015-03-12T12:22:04Z</time>
      </trkpt>
      <trkpt lat="42.98506" lon="-0.2456">
        <ele>1477.9</ele>
        <time>2015-03-12T12:22:06Z</time>
      </trkpt>
      <trkpt lat="42.98512" lon="-0.24569">
        <ele>1477.1</ele>
        <time>2015-03-12T12:22:08Z</time>
      </trkpt>
      <trkpt lat="42.98515" lon="-0.24574">
        <ele>1476.2</ele>
        <time>2015-03-12T12:22:09Z</time>
      </trkpt>
      <trkpt lat="42.98517" lon="-0.24579">
        <ele>1475.6</ele>
        <time>2015-03-12T12:22:10Z</time>
      </trkpt>
      <trkpt lat="42.98521" lon="-0.24583">
        <ele>1475.1</ele>
        <time>2015-03-12T12:22:11Z</time>
      </trkpt>
      <trkpt lat="42.98527" lon="-0.24591">
        <ele>1474.9</ele>
        <time>2015-03-12T12:22:13Z</time>
      </trkpt>
      <trkpt lat="42.98535" lon="-0.24597">
        <ele>1474.1</ele>
        <time>2015-03-12T12:22:15Z</time>
      </trkpt>
      <trkpt lat="42.98543" lon="-0.24601">
        <ele>1473.1</ele>
        <time>2015-03-12T12:22:17Z</time>
      </trkpt>
      <trkpt lat="42.9855" lon="-0.24603">
        <ele>1472.2</ele>
        <time>2015-03-12T12:22:19Z</time>
      </trkpt>
      <trkpt lat="42.98558" lon="-0.24602">
        <ele>1471.8</ele>
        <time>2015-03-12T12:22:21Z</time>
      </trkpt>
      <trkpt lat="42.98564" lon="-0.24602">
        <ele>1471.2</ele>
        <time>2015-03-12T12:22:23Z</time>
      </trkpt>
      <trkpt lat="42.9857" lon="-0.24602">
        <ele>1470.5</ele>
        <time>2015-03-12T12:22:25Z</time>
      </trkpt>
      <trkpt lat="42.98577" lon="-0.246">
        <ele>1469.8</ele>
        <time>2015-03-12T12:22:27Z</time>
      </trkpt>
      <trkpt lat="42.98585" lon="-0.24598">
        <ele>1469.5</ele>
        <time>2015-03-12T12:22:29Z</time>
      </trkpt>
      <trkpt lat="42.98593" lon="-0.24596">
        <ele>1469.3</ele>
        <time>2015-03-12T12:22:31Z</time>
      </trkpt>
      <trkpt lat="42.98601" lon="-0.24594">
        <ele>1469.2</ele>
        <time>2015-03-12T12:22:33Z</time>
      </trkpt>
      <trkpt lat="42.98608" lon="-0.2459">
        <ele>1468.4</ele>
        <time>2015-03-12T12:22:35Z</time>
      </trkpt>
      <trkpt lat="42.98615" lon="-0.24585">
        <ele>1467.9</ele>
        <time>2015-03-12T12:22:37Z</time>
      </trkpt>
      <trkpt lat="42.9862" lon="-0.24578">
        <ele>1467.6</ele>
        <time>2015-03-12T12:22:39Z</time>
      </trkpt>
      <trkpt lat="42.98625" lon="-0.2457">
        <ele>1467.4</ele>
        <time>2015-03-12T12:22:41Z</time>
      </trkpt>
      <trkpt lat="42.98627" lon="-0.24561">
        <ele>1467.3</ele>
        <time>2015-03-12T12:22:43Z</time>
      </trkpt>
      <trkpt lat="42.98628" lon="-0.24551">
        <ele>1466.4</ele>
        <time>2015-03-12T12:22:45Z</time>
      </trkpt>
      <trkpt lat="42.98629" lon="-0.24546">
        <ele>1466.1</ele>
        <time>2015-03-12T12:22:46Z</time>
      </trkpt>
      <trkpt lat="42.98628" lon="-0.24532">
        <ele>1465</ele>
        <time>2015-03-12T12:22:49Z</time>
      </trkpt>
      <trkpt lat="42.98628" lon="-0.24523">
        <ele>1464.3</ele>
        <time>2015-03-12T12:22:51Z</time>
      </trkpt>
      <trkpt lat="42.98627" lon="-0.24511">
        <ele>1464.5</ele>
        <time>2015-03-12T12:22:54Z</time>
      </trkpt>
      <trkpt lat="42.98627" lon="-0.24499">
        <ele>1464.2</ele>
        <time>2015-03-12T12:22:57Z</time>
      </trkpt>
      <trkpt lat="42.98625" lon="-0.24487">
        <ele>1463.1</ele>
        <time>2015-03-12T12:23:00Z</time>
      </trkpt>
      <trkpt lat="42.98625" lon="-0.24476">
        <ele>1462.5</ele>
        <time>2015-03-12T12:23:03Z</time>
      </trkpt>
      <trkpt lat="42.98625" lon="-0.24465">
        <ele>1462.4</ele>
        <time>2015-03-12T12:23:06Z</time>
      </trkpt>
      <trkpt lat="42.98624" lon="-0.24456">
        <ele>1462.5</ele>
        <time>2015-03-12T12:23:08Z</time>
      </trkpt>
      <trkpt lat="42.98624" lon="-0.24447">
        <ele>1462.1</ele>
        <time>2015-03-12T12:23:10Z</time>
      </trkpt>
      <trkpt lat="42.98623" lon="-0.24438">
        <ele>1461.9</ele>
        <time>2015-03-12T12:23:12Z</time>
      </trkpt>
      <trkpt lat="42.98622" lon="-0.24429">
        <ele>1461.2</ele>
        <time>2015-03-12T12:23:14Z</time>
      </trkpt>
      <trkpt lat="42.98622" lon="-0.24417">
        <ele>1460.5</ele>
        <time>2015-03-12T12:23:17Z</time>
      </trkpt>
      <trkpt lat="42.98622" lon="-0.24407">
        <ele>1460.7</ele>
        <time>2015-03-12T12:23:20Z</time>
      </trkpt>
      <trkpt lat="42.98621" lon="-0.24396">
        <ele>1461.5</ele>
        <time>2015-03-12T12:23:24Z</time>
      </trkpt>
      <trkpt lat="42.98621" lon="-0.24386">
        <ele>1461.7</ele>
        <time>2015-03-12T12:23:29Z</time>
      </trkpt>
      <trkpt lat="42.9862" lon="-0.24375">
        <ele>1461.9</ele>
        <time>2015-03-12T12:23:33Z</time>
      </trkpt>
      <trkpt lat="42.98622" lon="-0.24366">
        <ele>1461.7</ele>
        <time>2015-03-12T12:23:36Z</time>
      </trkpt>
      <trkpt lat="42.98624" lon="-0.24357">
        <ele>1460.8</ele>
        <time>2015-03-12T12:23:39Z</time>
      </trkpt>
      <trkpt lat="42.98627" lon="-0.24347">
        <ele>1461.9</ele>
        <time>2015-03-12T12:23:44Z</time>
      </trkpt>
      <trkpt lat="42.9863" lon="-0.24335">
        <ele>1462.9</ele>
        <time>2015-03-12T12:23:50Z</time>
      </trkpt>
      <trkpt lat="42.9863" lon="-0.24333">
        <ele>1462.7</ele>
        <time>2015-03-12T12:23:51Z</time>
      </trkpt>
      <trkpt lat="42.98634" lon="-0.24313">
        <ele>1464</ele>
        <time>2015-03-12T12:24:03Z</time>
      </trkpt>
      <trkpt lat="42.98636" lon="-0.24302">
        <ele>1464.6</ele>
        <time>2015-03-12T12:24:10Z</time>
      </trkpt>
      <trkpt lat="42.98637" lon="-0.2429">
        <ele>1465.5</ele>
        <time>2015-03-12T12:24:17Z</time>
      </trkpt>
      <trkpt lat="42.98639" lon="-0.24279">
        <ele>1465.3</ele>
        <time>2015-03-12T12:24:23Z</time>
      </trkpt>
      <trkpt lat="42.9864" lon="-0.24268">
        <ele>1467.5</ele>
        <time>2015-03-12T12:24:29Z</time>
      </trkpt>
      <trkpt lat="42.9864" lon="-0.24256">
        <ele>1467.7</ele>
        <time>2015-03-12T12:24:36Z</time>
      </trkpt>
      <trkpt lat="42.98641" lon="-0.24244">
        <ele>1468.6</ele>
        <time>2015-03-12T12:24:42Z</time>
      </trkpt>
      <trkpt lat="42.98639" lon="-0.24233">
        <ele>1469</ele>
        <time>2015-03-12T12:24:48Z</time>
      </trkpt>
      <trkpt lat="42.98638" lon="-0.24222">
        <ele>1470.5</ele>
        <time>2015-03-12T12:24:55Z</time>
      </trkpt>
      <trkpt lat="42.98638" lon="-0.2422">
        <ele>1470.6</ele>
        <time>2015-03-12T12:24:56Z</time>
      </trkpt>
      <trkpt lat="42.98643" lon="-0.24201">
        <ele>1470.4</ele>
        <time>2015-03-12T12:25:07Z</time>
      </trkpt>
      <trkpt lat="42.98643" lon="-0.2419">
        <ele>1472</ele>
        <time>2015-03-12T12:25:13Z</time>
      </trkpt>
      <trkpt lat="42.98646" lon="-0.2418">
        <ele>1471.8</ele>
        <time>2015-03-12T12:25:19Z</time>
      </trkpt>
      <trkpt lat="42.98646" lon="-0.24168">
        <ele>1472.4</ele>
        <time>2015-03-12T12:25:26Z</time>
      </trkpt>
      <trkpt lat="42.98645" lon="-0.24156">
        <ele>1474.7</ele>
        <time>2015-03-12T12:25:34Z</time>
      </trkpt>
      <trkpt lat="42.98644" lon="-0.24145">
        <ele>1475.1</ele>
        <time>2015-03-12T12:25:40Z</time>
      </trkpt>
      <trkpt lat="42.98645" lon="-0.24133">
        <ele>1475.5</ele>
        <time>2015-03-12T12:25:47Z</time>
      </trkpt>
      <trkpt lat="42.98648" lon="-0.24123">
        <ele>1476.1</ele>
        <time>2015-03-12T12:25:53Z</time>
      </trkpt>
      <trkpt lat="42.98649" lon="-0.24112">
        <ele>1476.6</ele>
        <time>2015-03-12T12:25:59Z</time>
      </trkpt>
      <trkpt lat="42.98649" lon="-0.24111">
        <ele>1476.4</ele>
        <time>2015-03-12T12:26:00Z</time>
      </trkpt>
      <trkpt lat="42.98649" lon="-0.24091">
        <ele>1478.6</ele>
        <time>2015-03-12T12:26:12Z</time>
      </trkpt>
      <trkpt lat="42.98649" lon="-0.24079">
        <ele>1480.5</ele>
        <time>2015-03-12T12:26:20Z</time>
      </trkpt>
      <trkpt lat="42.98651" lon="-0.24068">
        <ele>1480.6</ele>
        <time>2015-03-12T12:26:27Z</time>
      </trkpt>
      <trkpt lat="42.98652" lon="-0.24057">
        <ele>1480.4</ele>
        <time>2015-03-12T12:26:34Z</time>
      </trkpt>
      <trkpt lat="42.98654" lon="-0.24046">
        <ele>1480.8</ele>
        <time>2015-03-12T12:26:40Z</time>
      </trkpt>
      <trkpt lat="42.98657" lon="-0.24036">
        <ele>1481.9</ele>
        <time>2015-03-12T12:26:46Z</time>
      </trkpt>
      <trkpt lat="42.98659" lon="-0.24024">
        <ele>1482.7</ele>
        <time>2015-03-12T12:26:52Z</time>
      </trkpt>
      <trkpt lat="42.98661" lon="-0.24012">
        <ele>1483.8</ele>
        <time>2015-03-12T12:26:58Z</time>
      </trkpt>
      <trkpt lat="42.98662" lon="-0.24001">
        <ele>1483.5</ele>
        <time>2015-03-12T12:27:03Z</time>
      </trkpt>
      <trkpt lat="42.98662" lon="-0.23999">
        <ele>1483.7</ele>
        <time>2015-03-12T12:27:04Z</time>
      </trkpt>
      <trkpt lat="42.98664" lon="-0.2398">
        <ele>1484.5</ele>
        <time>2015-03-12T12:27:13Z</time>
      </trkpt>
      <trkpt lat="42.98665" lon="-0.23969">
        <ele>1485.3</ele>
        <time>2015-03-12T12:27:18Z</time>
      </trkpt>
      <trkpt lat="42.98665" lon="-0.23957">
        <ele>1485.3</ele>
        <time>2015-03-12T12:27:23Z</time>
      </trkpt>
      <trkpt lat="42.98665" lon="-0.23946">
        <ele>1485.2</ele>
        <time>2015-03-12T12:27:28Z</time>
      </trkpt>
      <trkpt lat="42.98665" lon="-0.23934">
        <ele>1485.4</ele>
        <time>2015-03-12T12:27:33Z</time>
      </trkpt>
      <trkpt lat="42.98663" lon="-0.23924">
        <ele>1486.5</ele>
        <time>2015-03-12T12:27:38Z</time>
      </trkpt>
      <trkpt lat="42.9866" lon="-0.23914">
        <ele>1486.3</ele>
        <time>2015-03-12T12:27:42Z</time>
      </trkpt>
      <trkpt lat="42.98656" lon="-0.23905">
        <ele>1485.6</ele>
        <time>2015-03-12T12:27:47Z</time>
      </trkpt>
      <trkpt lat="42.9865" lon="-0.23896">
        <ele>1486.1</ele>
        <time>2015-03-12T12:27:52Z</time>
      </trkpt>
      <trkpt lat="42.98644" lon="-0.23887">
        <ele>1487.7</ele>
        <time>2015-03-12T12:27:57Z</time>
      </trkpt>
      <trkpt lat="42.98637" lon="-0.23882">
        <ele>1487.3</ele>
        <time>2015-03-12T12:28:01Z</time>
      </trkpt>
      <trkpt lat="42.9863" lon="-0.23878">
        <ele>1487.1</ele>
        <time>2015-03-12T12:28:05Z</time>
      </trkpt>
      <trkpt lat="42.98628" lon="-0.23877">
        <ele>1487.1</ele>
        <time>2015-03-12T12:28:06Z</time>
      </trkpt>
      <trkpt lat="42.98614" lon="-0.23868">
        <ele>1487.8</ele>
        <time>2015-03-12T12:28:15Z</time>
      </trkpt>
      <trkpt lat="42.98607" lon="-0.23861">
        <ele>1489.7</ele>
        <time>2015-03-12T12:28:21Z</time>
      </trkpt>
      <trkpt lat="42.98601" lon="-0.23855">
        <ele>1489.2</ele>
        <time>2015-03-12T12:28:25Z</time>
      </trkpt>
      <trkpt lat="42.98594" lon="-0.23849">
        <ele>1488.9</ele>
        <time>2015-03-12T12:28:30Z</time>
      </trkpt>
      <trkpt lat="42.98588" lon="-0.23842">
        <ele>1489.2</ele>
        <time>2015-03-12T12:28:36Z</time>
      </trkpt>
      <trkpt lat="42.98583" lon="-0.23833">
        <ele>1490.3</ele>
        <time>2015-03-12T12:28:42Z</time>
      </trkpt>
      <trkpt lat="42.98579" lon="-0.23823">
        <ele>1491.1</ele>
        <time>2015-03-12T12:28:48Z</time>
      </trkpt>
      <trkpt lat="42.98577" lon="-0.23812">
        <ele>1492.5</ele>
        <time>2015-03-12T12:28:53Z</time>
      </trkpt>
      <trkpt lat="42.98576" lon="-0.23802">
        <ele>1492.7</ele>
        <time>2015-03-12T12:28:57Z</time>
      </trkpt>
      <trkpt lat="42.98575" lon="-0.23791">
        <ele>1493.1</ele>
        <time>2015-03-12T12:29:01Z</time>
      </trkpt>
      <trkpt lat="42.98575" lon="-0.2378">
        <ele>1493.3</ele>
        <time>2015-03-12T12:29:05Z</time>
      </trkpt>
      <trkpt lat="42.98573" lon="-0.2377">
        <ele>1492.7</ele>
        <time>2015-03-12T12:29:09Z</time>
      </trkpt>
      <trkpt lat="42.98573" lon="-0.23768">
        <ele>1492.5</ele>
        <time>2015-03-12T12:29:10Z</time>
      </trkpt>
      <trkpt lat="42.98568" lon="-0.23749">
        <ele>1494.3</ele>
        <time>2015-03-12T12:29:20Z</time>
      </trkpt>
      <trkpt lat="42.98566" lon="-0.23739">
        <ele>1494.3</ele>
        <time>2015-03-12T12:29:25Z</time>
      </trkpt>
      <trkpt lat="42.98564" lon="-0.23728">
        <ele>1494.7</ele>
        <time>2015-03-12T12:29:30Z</time>
      </trkpt>
      <trkpt lat="42.98562" lon="-0.23716">
        <ele>1495.7</ele>
        <time>2015-03-12T12:29:36Z</time>
      </trkpt>
      <trkpt lat="42.9856" lon="-0.23704">
        <ele>1496.7</ele>
        <time>2015-03-12T12:29:42Z</time>
      </trkpt>
      <trkpt lat="42.98558" lon="-0.23694">
        <ele>1496.6</ele>
        <time>2015-03-12T12:29:48Z</time>
      </trkpt>
      <trkpt lat="42.98557" lon="-0.23683">
        <ele>1498.8</ele>
        <time>2015-03-12T12:29:54Z</time>
      </trkpt>
      <trkpt lat="42.98557" lon="-0.23672">
        <ele>1499.6</ele>
        <time>2015-03-12T12:30:00Z</time>
      </trkpt>
      <trkpt lat="42.98558" lon="-0.2366">
        <ele>1500.1</ele>
        <time>2015-03-12T12:30:06Z</time>
      </trkpt>
      <trkpt lat="42.98558" lon="-0.23648">
        <ele>1501.7</ele>
        <time>2015-03-12T12:30:12Z</time>
      </trkpt>
      <trkpt lat="42.98558" lon="-0.23645">
        <ele>1502.1</ele>
        <time>2015-03-12T12:30:13Z</time>
      </trkpt>
      <trkpt lat="42.98553" lon="-0.23627">
        <ele>1501.9</ele>
        <time>2015-03-12T12:30:23Z</time>
      </trkpt>
      <trkpt lat="42.9855" lon="-0.23616">
        <ele>1501.9</ele>
        <time>2015-03-12T12:30:29Z</time>
      </trkpt>
      <trkpt lat="42.98549" lon="-0.23605">
        <ele>1503.9</ele>
        <time>2015-03-12T12:30:35Z</time>
      </trkpt>
      <trkpt lat="42.9855" lon="-0.23593">
        <ele>1504</ele>
        <time>2015-03-12T12:30:41Z</time>
      </trkpt>
      <trkpt lat="42.98551" lon="-0.23583">
        <ele>1505.4</ele>
        <time>2015-03-12T12:30:46Z</time>
      </trkpt>
      <trkpt lat="42.98553" lon="-0.23572">
        <ele>1506.3</ele>
        <time>2015-03-12T12:30:52Z</time>
      </trkpt>
      <trkpt lat="42.98554" lon="-0.2356">
        <ele>1506.5</ele>
        <time>2015-03-12T12:30:58Z</time>
      </trkpt>
      <trkpt lat="42.98553" lon="-0.23548">
        <ele>1508.2</ele>
        <time>2015-03-12T12:31:04Z</time>
      </trkpt>
      <trkpt lat="42.98552" lon="-0.23538">
        <ele>1509.1</ele>
        <time>2015-03-12T12:31:09Z</time>
      </trkpt>
      <trkpt lat="42.98553" lon="-0.23527">
        <ele>1508.8</ele>
        <time>2015-03-12T12:31:13Z</time>
      </trkpt>
      <trkpt lat="42.98553" lon="-0.23524">
        <ele>1508.7</ele>
        <time>2015-03-12T12:31:14Z</time>
      </trkpt>
      <trkpt lat="42.9856" lon="-0.23507">
        <ele>1508.9</ele>
        <time>2015-03-12T12:31:23Z</time>
      </trkpt>
      <trkpt lat="42.98564" lon="-0.23497">
        <ele>1510</ele>
        <time>2015-03-12T12:31:29Z</time>
      </trkpt>
      <trkpt lat="42.98566" lon="-0.23486">
        <ele>1510.5</ele>
        <time>2015-03-12T12:31:35Z</time>
      </trkpt>
      <trkpt lat="42.98568" lon="-0.23475">
        <ele>1512.1</ele>
        <time>2015-03-12T12:31:41Z</time>
      </trkpt>
      <trkpt lat="42.98572" lon="-0.23466">
        <ele>1511.7</ele>
        <time>2015-03-12T12:31:46Z</time>
      </trkpt>
      <trkpt lat="42.98575" lon="-0.23455">
        <ele>1513.1</ele>
        <time>2015-03-12T12:31:52Z</time>
      </trkpt>
      <trkpt lat="42.98577" lon="-0.23445">
        <ele>1514.1</ele>
        <time>2015-03-12T12:31:57Z</time>
      </trkpt>
      <trkpt lat="42.9858" lon="-0.23435">
        <ele>1514.1</ele>
        <time>2015-03-12T12:32:02Z</time>
      </trkpt>
      <trkpt lat="42.98581" lon="-0.23424">
        <ele>1513.5</ele>
        <time>2015-03-12T12:32:07Z</time>
      </trkpt>
      <trkpt lat="42.98583" lon="-0.23413">
        <ele>1514.2</ele>
        <time>2015-03-12T12:32:13Z</time>
      </trkpt>
      <trkpt lat="42.98585" lon="-0.23401">
        <ele>1515.5</ele>
        <time>2015-03-12T12:32:19Z</time>
      </trkpt>
      <trkpt lat="42.98586" lon="-0.23399">
        <ele>1515.7</ele>
        <time>2015-03-12T12:32:20Z</time>
      </trkpt>
      <trkpt lat="42.98587" lon="-0.23378">
        <ele>1517.3</ele>
        <time>2015-03-12T12:32:31Z</time>
      </trkpt>
      <trkpt lat="42.98587" lon="-0.23366">
        <ele>1518.2</ele>
        <time>2015-03-12T12:32:37Z</time>
      </trkpt>
      <trkpt lat="42.98586" lon="-0.23354">
        <ele>1518.8</ele>
        <time>2015-03-12T12:32:43Z</time>
      </trkpt>
      <trkpt lat="42.98583" lon="-0.23344">
        <ele>1520</ele>
        <time>2015-03-12T12:32:49Z</time>
      </trkpt>
      <trkpt lat="42.98578" lon="-0.23334">
        <ele>1520.2</ele>
        <time>2015-03-12T12:32:55Z</time>
      </trkpt>
      <trkpt lat="42.98573" lon="-0.23326">
        <ele>1520.6</ele>
        <time>2015-03-12T12:33:00Z</time>
      </trkpt>
      <trkpt lat="42.98568" lon="-0.23317">
        <ele>1520.6</ele>
        <time>2015-03-12T12:33:05Z</time>
      </trkpt>
      <trkpt lat="42.98566" lon="-0.23305">
        <ele>1520.9</ele>
        <time>2015-03-12T12:33:10Z</time>
      </trkpt>
      <trkpt lat="42.98566" lon="-0.23295">
        <ele>1521.1</ele>
        <time>2015-03-12T12:33:14Z</time>
      </trkpt>
      <trkpt lat="42.98567" lon="-0.23287">
        <ele>1520.4</ele>
        <time>2015-03-12T12:33:17Z</time>
      </trkpt>
      <trkpt lat="42.98568" lon="-0.23278">
        <ele>1520.1</ele>
        <time>2015-03-12T12:33:19Z</time>
      </trkpt>
      <trkpt lat="42.98569" lon="-0.23269">
        <ele>1520.1</ele>
        <time>2015-03-12T12:33:21Z</time>
      </trkpt>
      <trkpt lat="42.9857" lon="-0.23266">
        <ele>1520.1</ele>
        <time>2015-03-12T12:33:22Z</time>
      </trkpt>
      <trkpt lat="42.98571" lon="-0.23246">
        <ele>1520.1</ele>
        <time>2015-03-12T12:33:30Z</time>
      </trkpt>
      <trkpt lat="42.98571" lon="-0.23236">
        <ele>1520</ele>
        <time>2015-03-12T12:33:34Z</time>
      </trkpt>
      <trkpt lat="42.98571" lon="-0.23225">
        <ele>1520.7</ele>
        <time>2015-03-12T12:33:39Z</time>
      </trkpt>
      <trkpt lat="42.98572" lon="-0.23214">
        <ele>1520</ele>
        <time>2015-03-12T12:33:44Z</time>
      </trkpt>
      <trkpt lat="42.98573" lon="-0.23203">
        <ele>1520.2</ele>
        <time>2015-03-12T12:33:48Z</time>
      </trkpt>
      <trkpt lat="42.98575" lon="-0.23193">
        <ele>1520.8</ele>
        <time>2015-03-12T12:33:52Z</time>
      </trkpt>
      <trkpt lat="42.98576" lon="-0.23182">
        <ele>1521.3</ele>
        <time>2015-03-12T12:33:57Z</time>
      </trkpt>
      <trkpt lat="42.98578" lon="-0.2317">
        <ele>1522</ele>
        <time>2015-03-12T12:34:03Z</time>
      </trkpt>
      <trkpt lat="42.98579" lon="-0.2316">
        <ele>1522.2</ele>
        <time>2015-03-12T12:34:08Z</time>
      </trkpt>
      <trkpt lat="42.98579" lon="-0.23148">
        <ele>1522.6</ele>
        <time>2015-03-12T12:34:14Z</time>
      </trkpt>
      <trkpt lat="42.98578" lon="-0.23136">
        <ele>1523.9</ele>
        <time>2015-03-12T12:34:20Z</time>
      </trkpt>
      <trkpt lat="42.98576" lon="-0.23125">
        <ele>1524.2</ele>
        <time>2015-03-12T12:34:26Z</time>
      </trkpt>
      <trkpt lat="42.98576" lon="-0.23123">
        <ele>1524.3</ele>
        <time>2015-03-12T12:34:27Z</time>
      </trkpt>
      <trkpt lat="42.98573" lon="-0.23103">
        <ele>1526.2</ele>
        <time>2015-03-12T12:34:37Z</time>
      </trkpt>
      <trkpt lat="42.98571" lon="-0.23091">
        <ele>1527.8</ele>
        <time>2015-03-12T12:34:43Z</time>
      </trkpt>
      <trkpt lat="42.98569" lon="-0.23079">
        <ele>1528.5</ele>
        <time>2015-03-12T12:34:49Z</time>
      </trkpt>
      <trkpt lat="42.98568" lon="-0.23068">
        <ele>1529.1</ele>
        <time>2015-03-12T12:34:55Z</time>
      </trkpt>
      <trkpt lat="42.98565" lon="-0.23057">
        <ele>1529.3</ele>
        <time>2015-03-12T12:35:01Z</time>
      </trkpt>
      <trkpt lat="42.98562" lon="-0.23047">
        <ele>1529.9</ele>
        <time>2015-03-12T12:35:06Z</time>
      </trkpt>
      <trkpt lat="42.98559" lon="-0.23036">
        <ele>1530.2</ele>
        <time>2015-03-12T12:35:12Z</time>
      </trkpt>
      <trkpt lat="42.98554" lon="-0.23027">
        <ele>1531.2</ele>
        <time>2015-03-12T12:35:18Z</time>
      </trkpt>
      <trkpt lat="42.98549" lon="-0.23017">
        <ele>1531.9</ele>
        <time>2015-03-12T12:35:24Z</time>
      </trkpt>
      <trkpt lat="42.98543" lon="-0.23009">
        <ele>1532.7</ele>
        <time>2015-03-12T12:35:29Z</time>
      </trkpt>
      <trkpt lat="42.98542" lon="-0.23007">
        <ele>1532.5</ele>
        <time>2015-03-12T12:35:30Z</time>
      </trkpt>
      <trkpt lat="42.98532" lon="-0.22991">
        <ele>1532.4</ele>
        <time>2015-03-12T12:35:39Z</time>
      </trkpt>
      <trkpt lat="42.98527" lon="-0.22981">
        <ele>1533.5</ele>
        <time>2015-03-12T12:35:45Z</time>
      </trkpt>
      <trkpt lat="42.98524" lon="-0.22971">
        <ele>1533.8</ele>
        <time>2015-03-12T12:35:51Z</time>
      </trkpt>
      <trkpt lat="42.98522" lon="-0.2296">
        <ele>1534.6</ele>
        <time>2015-03-12T12:35:57Z</time>
      </trkpt>
      <trkpt lat="42.98522" lon="-0.22949">
        <ele>1537</ele>
        <time>2015-03-12T12:36:03Z</time>
      </trkpt>
      <trkpt lat="42.98521" lon="-0.22938">
        <ele>1537.8</ele>
        <time>2015-03-12T12:36:08Z</time>
      </trkpt>
      <trkpt lat="42.9852" lon="-0.22927">
        <ele>1538.1</ele>
        <time>2015-03-12T12:36:13Z</time>
      </trkpt>
      <trkpt lat="42.98521" lon="-0.22916">
        <ele>1538.4</ele>
        <time>2015-03-12T12:36:18Z</time>
      </trkpt>
      <trkpt lat="42.98521" lon="-0.22905">
        <ele>1538.5</ele>
        <time>2015-03-12T12:36:23Z</time>
      </trkpt>
      <trkpt lat="42.98523" lon="-0.22894">
        <ele>1539.7</ele>
        <time>2015-03-12T12:36:29Z</time>
      </trkpt>
      <trkpt lat="42.98526" lon="-0.22884">
        <ele>1539.7</ele>
        <time>2015-03-12T12:36:34Z</time>
      </trkpt>
      <trkpt lat="42.98527" lon="-0.22882">
        <ele>1540</ele>
        <time>2015-03-12T12:36:35Z</time>
      </trkpt>
      <trkpt lat="42.98537" lon="-0.22868">
        <ele>1541</ele>
        <time>2015-03-12T12:36:44Z</time>
      </trkpt>
      <trkpt lat="42.98544" lon="-0.22863">
        <ele>1540.3</ele>
        <time>2015-03-12T12:36:48Z</time>
      </trkpt>
      <trkpt lat="42.9855" lon="-0.22858">
        <ele>1540.8</ele>
        <time>2015-03-12T12:36:52Z</time>
      </trkpt>
      <trkpt lat="42.98557" lon="-0.22853">
        <ele>1540.8</ele>
        <time>2015-03-12T12:36:56Z</time>
      </trkpt>
      <trkpt lat="42.98563" lon="-0.22848">
        <ele>1540.5</ele>
        <time>2015-03-12T12:37:00Z</time>
      </trkpt>
      <trkpt lat="42.98571" lon="-0.22843">
        <ele>1540.6</ele>
        <time>2015-03-12T12:37:05Z</time>
      </trkpt>
      <trkpt lat="42.98579" lon="-0.22838">
        <ele>1540.8</ele>
        <time>2015-03-12T12:37:10Z</time>
      </trkpt>
      <trkpt lat="42.98587" lon="-0.22835">
        <ele>1541.7</ele>
        <time>2015-03-12T12:37:14Z</time>
      </trkpt>
      <trkpt lat="42.98595" lon="-0.22832">
        <ele>1541.3</ele>
        <time>2015-03-12T12:37:19Z</time>
      </trkpt>
      <trkpt lat="42.98603" lon="-0.2283">
        <ele>1541</ele>
        <time>2015-03-12T12:37:24Z</time>
      </trkpt>
      <trkpt lat="42.98611" lon="-0.22828">
        <ele>1541.9</ele>
        <time>2015-03-12T12:37:28Z</time>
      </trkpt>
      <trkpt lat="42.9862" lon="-0.22825">
        <ele>1541.7</ele>
        <time>2015-03-12T12:37:33Z</time>
      </trkpt>
      <trkpt lat="42.98628" lon="-0.22824">
        <ele>1542.4</ele>
        <time>2015-03-12T12:37:38Z</time>
      </trkpt>
      <trkpt lat="42.9863" lon="-0.22823">
        <ele>1542.5</ele>
        <time>2015-03-12T12:37:39Z</time>
      </trkpt>
      <trkpt lat="42.98644" lon="-0.22823">
        <ele>1543.6</ele>
        <time>2015-03-12T12:37:48Z</time>
      </trkpt>
      <trkpt lat="42.98652" lon="-0.22823">
        <ele>1544.3</ele>
        <time>2015-03-12T12:37:53Z</time>
      </trkpt>
      <trkpt lat="42.9866" lon="-0.22822">
        <ele>1544.2</ele>
        <time>2015-03-12T12:37:57Z</time>
      </trkpt>
      <trkpt lat="42.98667" lon="-0.22821">
        <ele>1544.7</ele>
        <time>2015-03-12T12:38:01Z</time>
      </trkpt>
      <trkpt lat="42.98675" lon="-0.22821">
        <ele>1545.2</ele>
        <time>2015-03-12T12:38:05Z</time>
      </trkpt>
      <trkpt lat="42.98683" lon="-0.22819">
        <ele>1544.2</ele>
        <time>2015-03-12T12:38:09Z</time>
      </trkpt>
      <trkpt lat="42.9869" lon="-0.22812">
        <ele>1543.7</ele>
        <time>2015-03-12T12:38:14Z</time>
      </trkpt>
      <trkpt lat="42.98694" lon="-0.22802">
        <ele>1544.5</ele>
        <time>2015-03-12T12:38:19Z</time>
      </trkpt>
      <trkpt lat="42.98698" lon="-0.22793">
        <ele>1546</ele>
        <time>2015-03-12T12:38:24Z</time>
      </trkpt>
      <trkpt lat="42.98701" lon="-0.22782">
        <ele>1545.5</ele>
        <time>2015-03-12T12:38:28Z</time>
      </trkpt>
      <trkpt lat="42.98707" lon="-0.22774">
        <ele>1546.6</ele>
        <time>2015-03-12T12:38:32Z</time>
      </trkpt>
      <trkpt lat="42.98713" lon="-0.22768">
        <ele>1546.2</ele>
        <time>2015-03-12T12:38:35Z</time>
      </trkpt>
      <trkpt lat="42.98719" lon="-0.22763">
        <ele>1545.8</ele>
        <time>2015-03-12T12:38:38Z</time>
      </trkpt>
      <trkpt lat="42.98726" lon="-0.22758">
        <ele>1545.4</ele>
        <time>2015-03-12T12:38:42Z</time>
      </trkpt>
      <trkpt lat="42.98728" lon="-0.22757">
        <ele>1545.4</ele>
        <time>2015-03-12T12:38:43Z</time>
      </trkpt>
      <trkpt lat="42.98743" lon="-0.22751">
        <ele>1545.3</ele>
        <time>2015-03-12T12:38:50Z</time>
      </trkpt>
      <trkpt lat="42.9875" lon="-0.22749">
        <ele>1545.5</ele>
        <time>2015-03-12T12:38:54Z</time>
      </trkpt>
      <trkpt lat="42.98758" lon="-0.22746">
        <ele>1545.7</ele>
        <time>2015-03-12T12:38:58Z</time>
      </trkpt>
      <trkpt lat="42.98766" lon="-0.22744">
        <ele>1545.2</ele>
        <time>2015-03-12T12:39:01Z</time>
      </trkpt>
      <trkpt lat="42.98773" lon="-0.22741">
        <ele>1544.5</ele>
        <time>2015-03-12T12:39:04Z</time>
      </trkpt>
      <trkpt lat="42.9878" lon="-0.22738">
        <ele>1544.1</ele>
        <time>2015-03-12T12:39:07Z</time>
      </trkpt>
      <trkpt lat="42.98786" lon="-0.22734">
        <ele>1543.9</ele>
        <time>2015-03-12T12:39:10Z</time>
      </trkpt>
      <trkpt lat="42.98793" lon="-0.2273">
        <ele>1543.8</ele>
        <time>2015-03-12T12:39:13Z</time>
      </trkpt>
      <trkpt lat="42.98799" lon="-0.22726">
        <ele>1543.9</ele>
        <time>2015-03-12T12:39:16Z</time>
      </trkpt>
      <trkpt lat="42.98806" lon="-0.22722">
        <ele>1543.6</ele>
        <time>2015-03-12T12:39:19Z</time>
      </trkpt>
      <trkpt lat="42.98813" lon="-0.22718">
        <ele>1544.3</ele>
        <time>2015-03-12T12:39:23Z</time>
      </trkpt>
      <trkpt lat="42.98821" lon="-0.22713">
        <ele>1544.1</ele>
        <time>2015-03-12T12:39:27Z</time>
      </trkpt>
      <trkpt lat="42.98827" lon="-0.22709">
        <ele>1544.4</ele>
        <time>2015-03-12T12:39:30Z</time>
      </trkpt>
      <trkpt lat="42.98835" lon="-0.22704">
        <ele>1544.2</ele>
        <time>2015-03-12T12:39:33Z</time>
      </trkpt>
      <trkpt lat="42.98843" lon="-0.227">
        <ele>1543.1</ele>
        <time>2015-03-12T12:39:37Z</time>
      </trkpt>
      <trkpt lat="42.98851" lon="-0.22698">
        <ele>1543</ele>
        <time>2015-03-12T12:39:41Z</time>
      </trkpt>
      <trkpt lat="42.98858" lon="-0.22696">
        <ele>1543</ele>
        <time>2015-03-12T12:39:45Z</time>
      </trkpt>
      <trkpt lat="42.9886" lon="-0.22695">
        <ele>1543.1</ele>
        <time>2015-03-12T12:39:46Z</time>
      </trkpt>
      <trkpt lat="42.98874" lon="-0.22691">
        <ele>1543.2</ele>
        <time>2015-03-12T12:39:52Z</time>
      </trkpt>
      <trkpt lat="42.98882" lon="-0.22689">
        <ele>1542.8</ele>
        <time>2015-03-12T12:39:56Z</time>
      </trkpt>
      <trkpt lat="42.9889" lon="-0.22686">
        <ele>1542.1</ele>
        <time>2015-03-12T12:39:59Z</time>
      </trkpt>
      <trkpt lat="42.98898" lon="-0.22684">
        <ele>1542</ele>
        <time>2015-03-12T12:40:02Z</time>
      </trkpt>
      <trkpt lat="42.98905" lon="-0.22681">
        <ele>1542</ele>
        <time>2015-03-12T12:40:05Z</time>
      </trkpt>
      <trkpt lat="42.98912" lon="-0.22678">
        <ele>1541.9</ele>
        <time>2015-03-12T12:40:08Z</time>
      </trkpt>
      <trkpt lat="42.98918" lon="-0.22675">
        <ele>1541.7</ele>
        <time>2015-03-12T12:40:11Z</time>
      </trkpt>
      <trkpt lat="42.98926" lon="-0.22672">
        <ele>1541.5</ele>
        <time>2015-03-12T12:40:14Z</time>
      </trkpt>
      <trkpt lat="42.98935" lon="-0.22669">
        <ele>1540.7</ele>
        <time>2015-03-12T12:40:18Z</time>
      </trkpt>
      <trkpt lat="42.98942" lon="-0.22669">
        <ele>1540.5</ele>
        <time>2015-03-12T12:40:21Z</time>
      </trkpt>
      <trkpt lat="42.9895" lon="-0.2267">
        <ele>1540.1</ele>
        <time>2015-03-12T12:40:25Z</time>
      </trkpt>
      <trkpt lat="42.98958" lon="-0.22671">
        <ele>1540.4</ele>
        <time>2015-03-12T12:40:29Z</time>
      </trkpt>
      <trkpt lat="42.98965" lon="-0.22674">
        <ele>1540.7</ele>
        <time>2015-03-12T12:40:33Z</time>
      </trkpt>
      <trkpt lat="42.98973" lon="-0.22678">
        <ele>1540.9</ele>
        <time>2015-03-12T12:40:36Z</time>
      </trkpt>
      <trkpt lat="42.98981" lon="-0.22682">
        <ele>1540</ele>
        <time>2015-03-12T12:40:39Z</time>
      </trkpt>
      <trkpt lat="42.98989" lon="-0.22688">
        <ele>1539.6</ele>
        <time>2015-03-12T12:40:42Z</time>
      </trkpt>
      <trkpt lat="42.98995" lon="-0.22692">
        <ele>1538.9</ele>
        <time>2015-03-12T12:40:44Z</time>
      </trkpt>
      <trkpt lat="42.99001" lon="-0.22696">
        <ele>1538.3</ele>
        <time>2015-03-12T12:40:46Z</time>
      </trkpt>
      <trkpt lat="42.99003" lon="-0.22698">
        <ele>1538</ele>
        <time>2015-03-12T12:40:47Z</time>
      </trkpt>
      <trkpt lat="42.99013" lon="-0.22705">
        <ele>1537.1</ele>
        <time>2015-03-12T12:40:50Z</time>
      </trkpt>
      <trkpt lat="42.9902" lon="-0.22708">
        <ele>1536.5</ele>
        <time>2015-03-12T12:40:52Z</time>
      </trkpt>
      <trkpt lat="42.99026" lon="-0.2271">
        <ele>1535.9</ele>
        <time>2015-03-12T12:40:54Z</time>
      </trkpt>
      <trkpt lat="42.99034" lon="-0.22711">
        <ele>1536.9</ele>
        <time>2015-03-12T12:40:57Z</time>
      </trkpt>
      <trkpt lat="42.99041" lon="-0.22712">
        <ele>1536</ele>
        <time>2015-03-12T12:41:00Z</time>
      </trkpt>
      <trkpt lat="42.99048" lon="-0.22713">
        <ele>1535.9</ele>
        <time>2015-03-12T12:41:03Z</time>
      </trkpt>
      <trkpt lat="42.99055" lon="-0.22711">
        <ele>1536</ele>
        <time>2015-03-12T12:41:06Z</time>
      </trkpt>
      <trkpt lat="42.99063" lon="-0.22707">
        <ele>1534.2</ele>
        <time>2015-03-12T12:41:10Z</time>
      </trkpt>
      <trkpt lat="42.9907" lon="-0.22704">
        <ele>1534.6</ele>
        <time>2015-03-12T12:41:14Z</time>
      </trkpt>
      <trkpt lat="42.99077" lon="-0.227">
        <ele>1534.4</ele>
        <time>2015-03-12T12:41:17Z</time>
      </trkpt>
      <trkpt lat="42.99083" lon="-0.22695">
        <ele>1535.3</ele>
        <time>2015-03-12T12:41:20Z</time>
      </trkpt>
      <trkpt lat="42.99089" lon="-0.22689">
        <ele>1535.4</ele>
        <time>2015-03-12T12:41:24Z</time>
      </trkpt>
      <trkpt lat="42.99096" lon="-0.22683">
        <ele>1535.5</ele>
        <time>2015-03-12T12:41:28Z</time>
      </trkpt>
      <trkpt lat="42.99103" lon="-0.22677">
        <ele>1535.6</ele>
        <time>2015-03-12T12:41:32Z</time>
      </trkpt>
      <trkpt lat="42.99109" lon="-0.22672">
        <ele>1534.4</ele>
        <time>2015-03-12T12:41:35Z</time>
      </trkpt>
      <trkpt lat="42.99117" lon="-0.22667">
        <ele>1534.1</ele>
        <time>2015-03-12T12:41:39Z</time>
      </trkpt>
      <trkpt lat="42.99124" lon="-0.2266">
        <ele>1534.3</ele>
        <time>2015-03-12T12:41:44Z</time>
      </trkpt>
      <trkpt lat="42.99131" lon="-0.22652">
        <ele>1535.3</ele>
        <time>2015-03-12T12:41:49Z</time>
      </trkpt>
      <trkpt lat="42.99132" lon="-0.2265">
        <ele>1535.5</ele>
        <time>2015-03-12T12:41:50Z</time>
      </trkpt>
      <trkpt lat="42.9914" lon="-0.22633">
        <ele>1536.4</ele>
        <time>2015-03-12T12:41:59Z</time>
      </trkpt>
      <trkpt lat="42.99144" lon="-0.22623">
        <ele>1537.6</ele>
        <time>2015-03-12T12:42:04Z</time>
      </trkpt>
      <trkpt lat="42.99146" lon="-0.22613">
        <ele>1538.1</ele>
        <time>2015-03-12T12:42:08Z</time>
      </trkpt>
      <trkpt lat="42.99147" lon="-0.22602">
        <ele>1537.7</ele>
        <time>2015-03-12T12:42:12Z</time>
      </trkpt>
      <trkpt lat="42.99145" lon="-0.22591">
        <ele>1538.2</ele>
        <time>2015-03-12T12:42:17Z</time>
      </trkpt>
      <trkpt lat="42.99141" lon="-0.22581">
        <ele>1537.3</ele>
        <time>2015-03-12T12:42:22Z</time>
      </trkpt>
      <trkpt lat="42.99136" lon="-0.22571">
        <ele>1539</ele>
        <time>2015-03-12T12:42:28Z</time>
      </trkpt>
      <trkpt lat="42.99133" lon="-0.22561">
        <ele>1541</ele>
        <time>2015-03-12T12:42:34Z</time>
      </trkpt>
      <trkpt lat="42.99128" lon="-0.22552">
        <ele>1541</ele>
        <time>2015-03-12T12:42:40Z</time>
      </trkpt>
      <trkpt lat="42.99123" lon="-0.22545">
        <ele>1541.6</ele>
        <time>2015-03-12T12:42:44Z</time>
      </trkpt>
      <trkpt lat="42.99118" lon="-0.22536">
        <ele>1541.9</ele>
        <time>2015-03-12T12:42:49Z</time>
      </trkpt>
      <trkpt lat="42.99113" lon="-0.22528">
        <ele>1541.8</ele>
        <time>2015-03-12T12:42:55Z</time>
      </trkpt>
      <trkpt lat="42.99112" lon="-0.22526">
        <ele>1541.5</ele>
        <time>2015-03-12T12:42:56Z</time>
      </trkpt>
      <trkpt lat="42.99104" lon="-0.22512">
        <ele>1541.1</ele>
        <time>2015-03-12T12:43:02Z</time>
      </trkpt>
      <trkpt lat="42.99101" lon="-0.22502">
        <ele>1541.8</ele>
        <time>2015-03-12T12:43:05Z</time>
      </trkpt>
      <trkpt lat="42.99098" lon="-0.22492">
        <ele>1540.2</ele>
        <time>2015-03-12T12:43:09Z</time>
      </trkpt>
      <trkpt lat="42.99096" lon="-0.2248">
        <ele>1539.6</ele>
        <time>2015-03-12T12:43:13Z</time>
      </trkpt>
      <trkpt lat="42.99095" lon="-0.22471">
        <ele>1539.2</ele>
        <time>2015-03-12T12:43:15Z</time>
      </trkpt>
      <trkpt lat="42.99092" lon="-0.2246">
        <ele>1538.9</ele>
        <time>2015-03-12T12:43:18Z</time>
      </trkpt>
      <trkpt lat="42.99089" lon="-0.22449">
        <ele>1538.8</ele>
        <time>2015-03-12T12:43:23Z</time>
      </trkpt>
      <trkpt lat="42.99086" lon="-0.22438">
        <ele>1540</ele>
        <time>2015-03-12T12:43:30Z</time>
      </trkpt>
      <trkpt lat="42.99084" lon="-0.22428">
        <ele>1540.9</ele>
        <time>2015-03-12T12:43:36Z</time>
      </trkpt>
      <trkpt lat="42.9908" lon="-0.22419">
        <ele>1542.1</ele>
        <time>2015-03-12T12:43:41Z</time>
      </trkpt>
      <trkpt lat="42.99077" lon="-0.22409">
        <ele>1542.2</ele>
        <time>2015-03-12T12:43:46Z</time>
      </trkpt>
      <trkpt lat="42.99074" lon="-0.22399">
        <ele>1543</ele>
        <time>2015-03-12T12:43:50Z</time>
      </trkpt>
      <trkpt lat="42.99072" lon="-0.22389">
        <ele>1542</ele>
        <time>2015-03-12T12:43:54Z</time>
      </trkpt>
      <trkpt lat="42.99069" lon="-0.22381">
        <ele>1542.1</ele>
        <time>2015-03-12T12:43:57Z</time>
      </trkpt>
      <trkpt lat="42.99065" lon="-0.2237">
        <ele>1542.4</ele>
        <time>2015-03-12T12:44:01Z</time>
      </trkpt>
      <trkpt lat="42.99064" lon="-0.22368">
        <ele>1542.2</ele>
        <time>2015-03-12T12:44:02Z</time>
      </trkpt>
      <trkpt lat="42.99058" lon="-0.2235">
        <ele>1542.1</ele>
        <time>2015-03-12T12:44:09Z</time>
      </trkpt>
      <trkpt lat="42.99055" lon="-0.22341">
        <ele>1542.6</ele>
        <time>2015-03-12T12:44:13Z</time>
      </trkpt>
      <trkpt lat="42.99052" lon="-0.22333">
        <ele>1543.2</ele>
        <time>2015-03-12T12:44:16Z</time>
      </trkpt>
      <trkpt lat="42.99048" lon="-0.22324">
        <ele>1543</ele>
        <time>2015-03-12T12:44:19Z</time>
      </trkpt>
      <trkpt lat="42.99043" lon="-0.22317">
        <ele>1542.8</ele>
        <time>2015-03-12T12:44:22Z</time>
      </trkpt>
      <trkpt lat="42.99038" lon="-0.22311">
        <ele>1542.2</ele>
        <time>2015-03-12T12:44:25Z</time>
      </trkpt>
      <trkpt lat="42.99033" lon="-0.22304">
        <ele>1541.7</ele>
        <time>2015-03-12T12:44:28Z</time>
      </trkpt>
      <trkpt lat="42.99027" lon="-0.22298">
        <ele>1540.8</ele>
        <time>2015-03-12T12:44:31Z</time>
      </trkpt>
      <trkpt lat="42.99022" lon="-0.22291">
        <ele>1541.3</ele>
        <time>2015-03-12T12:44:34Z</time>
      </trkpt>
      <trkpt lat="42.99017" lon="-0.22283">
        <ele>1541.6</ele>
        <time>2015-03-12T12:44:37Z</time>
      </trkpt>
      <trkpt lat="42.99012" lon="-0.22276">
        <ele>1541.8</ele>
        <time>2015-03-12T12:44:40Z</time>
      </trkpt>
      <trkpt lat="42.99007" lon="-0.2227">
        <ele>1541.5</ele>
        <time>2015-03-12T12:44:43Z</time>
      </trkpt>
      <trkpt lat="42.99003" lon="-0.22263">
        <ele>1541.3</ele>
        <time>2015-03-12T12:44:46Z</time>
      </trkpt>
      <trkpt lat="42.98997" lon="-0.22256">
        <ele>1541.4</ele>
        <time>2015-03-12T12:44:49Z</time>
      </trkpt>
      <trkpt lat="42.98991" lon="-0.22249">
        <ele>1541.6</ele>
        <time>2015-03-12T12:44:53Z</time>
      </trkpt>
      <trkpt lat="42.98985" lon="-0.22243">
        <ele>1540.7</ele>
        <time>2015-03-12T12:44:57Z</time>
      </trkpt>
      <trkpt lat="42.98979" lon="-0.22234">
        <ele>1540.2</ele>
        <time>2015-03-12T12:45:01Z</time>
      </trkpt>
      <trkpt lat="42.98974" lon="-0.22226">
        <ele>1540.7</ele>
        <time>2015-03-12T12:45:05Z</time>
      </trkpt>
      <trkpt lat="42.98972" lon="-0.22223">
        <ele>1540.7</ele>
        <time>2015-03-12T12:45:06Z</time>
      </trkpt>
      <trkpt lat="42.98964" lon="-0.22213">
        <ele>1540.7</ele>
        <time>2015-03-12T12:45:11Z</time>
      </trkpt>
      <trkpt lat="42.98957" lon="-0.22208">
        <ele>1540.9</ele>
        <time>2015-03-12T12:45:15Z</time>
      </trkpt>
      <trkpt lat="42.98951" lon="-0.22202">
        <ele>1541.1</ele>
        <time>2015-03-12T12:45:19Z</time>
      </trkpt>
      <trkpt lat="42.98945" lon="-0.22196">
        <ele>1541.2</ele>
        <time>2015-03-12T12:45:23Z</time>
      </trkpt>
      <trkpt lat="42.98938" lon="-0.22191">
        <ele>1540.2</ele>
        <time>2015-03-12T12:45:27Z</time>
      </trkpt>
      <trkpt lat="42.98931" lon="-0.22189">
        <ele>1539.8</ele>
        <time>2015-03-12T12:45:30Z</time>
      </trkpt>
      <trkpt lat="42.98924" lon="-0.22187">
        <ele>1539.6</ele>
        <time>2015-03-12T12:45:33Z</time>
      </trkpt>
      <trkpt lat="42.98916" lon="-0.22185">
        <ele>1538.8</ele>
        <time>2015-03-12T12:45:38Z</time>
      </trkpt>
      <trkpt lat="42.98907" lon="-0.22183">
        <ele>1539.2</ele>
        <time>2015-03-12T12:45:43Z</time>
      </trkpt>
      <trkpt lat="42.98901" lon="-0.22181">
        <ele>1540.1</ele>
        <time>2015-03-12T12:45:47Z</time>
      </trkpt>
      <trkpt lat="42.98895" lon="-0.22173">
        <ele>1539.7</ele>
        <time>2015-03-12T12:45:50Z</time>
      </trkpt>
      <trkpt lat="42.9889" lon="-0.22166">
        <ele>1539.4</ele>
        <time>2015-03-12T12:45:53Z</time>
      </trkpt>
      <trkpt lat="42.98885" lon="-0.22157">
        <ele>1540</ele>
        <time>2015-03-12T12:45:57Z</time>
      </trkpt>
      <trkpt lat="42.98881" lon="-0.22149">
        <ele>1540.4</ele>
        <time>2015-03-12T12:46:00Z</time>
      </trkpt>
      <trkpt lat="42.98876" lon="-0.22142">
        <ele>1539.9</ele>
        <time>2015-03-12T12:46:03Z</time>
      </trkpt>
      <trkpt lat="42.98871" lon="-0.22132">
        <ele>1539.7</ele>
        <time>2015-03-12T12:46:07Z</time>
      </trkpt>
      <trkpt lat="42.9887" lon="-0.2213">
        <ele>1540</ele>
        <time>2015-03-12T12:46:08Z</time>
      </trkpt>
      <trkpt lat="42.98865" lon="-0.22112">
        <ele>1539.5</ele>
        <time>2015-03-12T12:46:15Z</time>
      </trkpt>
      <trkpt lat="42.98863" lon="-0.22102">
        <ele>1540</ele>
        <time>2015-03-12T12:46:19Z</time>
      </trkpt>
      <trkpt lat="42.98862" lon="-0.2209">
        <ele>1539.4</ele>
        <time>2015-03-12T12:46:24Z</time>
      </trkpt>
      <trkpt lat="42.98862" lon="-0.22078">
        <ele>1540.2</ele>
        <time>2015-03-12T12:46:29Z</time>
      </trkpt>
      <trkpt lat="42.98861" lon="-0.22068">
        <ele>1540.7</ele>
        <time>2015-03-12T12:46:33Z</time>
      </trkpt>
      <trkpt lat="42.9886" lon="-0.22058">
        <ele>1541.3</ele>
        <time>2015-03-12T12:46:37Z</time>
      </trkpt>
      <trkpt lat="42.9886" lon="-0.22047">
        <ele>1541.5</ele>
        <time>2015-03-12T12:46:41Z</time>
      </trkpt>
      <trkpt lat="42.98861" lon="-0.22036">
        <ele>1541.1</ele>
        <time>2015-03-12T12:46:46Z</time>
      </trkpt>
      <trkpt lat="42.98863" lon="-0.22025">
        <ele>1540.8</ele>
        <time>2015-03-12T12:46:50Z</time>
      </trkpt>
      <trkpt lat="42.98863" lon="-0.22015">
        <ele>1540.7</ele>
        <time>2015-03-12T12:46:53Z</time>
      </trkpt>
      <trkpt lat="42.98864" lon="-0.22005">
        <ele>1540.7</ele>
        <time>2015-03-12T12:46:55Z</time>
      </trkpt>
      <trkpt lat="42.98866" lon="-0.21995">
        <ele>1540.6</ele>
        <time>2015-03-12T12:46:57Z</time>
      </trkpt>
      <trkpt lat="42.98868" lon="-0.21986">
        <ele>1539.6</ele>
        <time>2015-03-12T12:46:59Z</time>
      </trkpt>
      <trkpt lat="42.9887" lon="-0.21974">
        <ele>1538.4</ele>
        <time>2015-03-12T12:47:01Z</time>
      </trkpt>
      <trkpt lat="42.98871" lon="-0.21968">
        <ele>1538</ele>
        <time>2015-03-12T12:47:02Z</time>
      </trkpt>
      <trkpt lat="42.98872" lon="-0.21962">
        <ele>1537.7</ele>
        <time>2015-03-12T12:47:03Z</time>
      </trkpt>
      <trkpt lat="42.98873" lon="-0.21955">
        <ele>1537.4</ele>
        <time>2015-03-12T12:47:04Z</time>
      </trkpt>
      <trkpt lat="42.98874" lon="-0.21948">
        <ele>1537.2</ele>
        <time>2015-03-12T12:47:05Z</time>
      </trkpt>
      <trkpt lat="42.98875" lon="-0.21942">
        <ele>1537.3</ele>
        <time>2015-03-12T12:47:06Z</time>
      </trkpt>
      <trkpt lat="42.98877" lon="-0.21936">
        <ele>1537.4</ele>
        <time>2015-03-12T12:47:07Z</time>
      </trkpt>
      <trkpt lat="42.98878" lon="-0.21924">
        <ele>1537.3</ele>
        <time>2015-03-12T12:47:09Z</time>
      </trkpt>
      <trkpt lat="42.98879" lon="-0.21917">
        <ele>1537.2</ele>
        <time>2015-03-12T12:47:10Z</time>
      </trkpt>
      <trkpt lat="42.9888" lon="-0.21911">
        <ele>1537.2</ele>
        <time>2015-03-12T12:47:11Z</time>
      </trkpt>
      <trkpt lat="42.98882" lon="-0.21905">
        <ele>1537</ele>
        <time>2015-03-12T12:47:12Z</time>
      </trkpt>
      <trkpt lat="42.98883" lon="-0.21899">
        <ele>1536.9</ele>
        <time>2015-03-12T12:47:13Z</time>
      </trkpt>
      <trkpt lat="42.98885" lon="-0.21893">
        <ele>1536.8</ele>
        <time>2015-03-12T12:47:14Z</time>
      </trkpt>
      <trkpt lat="42.98887" lon="-0.21887">
        <ele>1536.4</ele>
        <time>2015-03-12T12:47:15Z</time>
      </trkpt>
      <trkpt lat="42.98888" lon="-0.2188">
        <ele>1536</ele>
        <time>2015-03-12T12:47:16Z</time>
      </trkpt>
      <trkpt lat="42.98889" lon="-0.21873">
        <ele>1535.8</ele>
        <time>2015-03-12T12:47:17Z</time>
      </trkpt>
      <trkpt lat="42.98889" lon="-0.21866">
        <ele>1535.6</ele>
        <time>2015-03-12T12:47:18Z</time>
      </trkpt>
      <trkpt lat="42.98889" lon="-0.21859">
        <ele>1535</ele>
        <time>2015-03-12T12:47:19Z</time>
      </trkpt>
      <trkpt lat="42.98889" lon="-0.21853">
        <ele>1534.6</ele>
        <time>2015-03-12T12:47:20Z</time>
      </trkpt>
      <trkpt lat="42.98888" lon="-0.21841">
        <ele>1533.9</ele>
        <time>2015-03-12T12:47:22Z</time>
      </trkpt>
      <trkpt lat="42.98887" lon="-0.2183">
        <ele>1533.5</ele>
        <time>2015-03-12T12:47:24Z</time>
      </trkpt>
      <trkpt lat="42.98885" lon="-0.21821">
        <ele>1533.1</ele>
        <time>2015-03-12T12:47:26Z</time>
      </trkpt>
      <trkpt lat="42.98885" lon="-0.21811">
        <ele>1532.6</ele>
        <time>2015-03-12T12:47:28Z</time>
      </trkpt>
      <trkpt lat="42.98885" lon="-0.21801">
        <ele>1532.2</ele>
        <time>2015-03-12T12:47:30Z</time>
      </trkpt>
      <trkpt lat="42.98885" lon="-0.2179">
        <ele>1531.6</ele>
        <time>2015-03-12T12:47:32Z</time>
      </trkpt>
      <trkpt lat="42.98884" lon="-0.21778">
        <ele>1530.6</ele>
        <time>2015-03-12T12:47:34Z</time>
      </trkpt>
      <trkpt lat="42.98885" lon="-0.21766">
        <ele>1529.5</ele>
        <time>2015-03-12T12:47:36Z</time>
      </trkpt>
      <trkpt lat="42.98884" lon="-0.21754">
        <ele>1528.2</ele>
        <time>2015-03-12T12:47:38Z</time>
      </trkpt>
      <trkpt lat="42.98884" lon="-0.21743">
        <ele>1526.9</ele>
        <time>2015-03-12T12:47:40Z</time>
      </trkpt>
      <trkpt lat="42.98882" lon="-0.21733">
        <ele>1527.5</ele>
        <time>2015-03-12T12:47:42Z</time>
      </trkpt>
      <trkpt lat="42.98879" lon="-0.21722">
        <ele>1526.7</ele>
        <time>2015-03-12T12:47:44Z</time>
      </trkpt>
      <trkpt lat="42.98877" lon="-0.21711">
        <ele>1525.5</ele>
        <time>2015-03-12T12:47:46Z</time>
      </trkpt>
      <trkpt lat="42.98875" lon="-0.21702">
        <ele>1525.2</ele>
        <time>2015-03-12T12:47:48Z</time>
      </trkpt>
      <trkpt lat="42.98871" lon="-0.21691">
        <ele>1524.6</ele>
        <time>2015-03-12T12:47:51Z</time>
      </trkpt>
      <trkpt lat="42.98867" lon="-0.21681">
        <ele>1524.3</ele>
        <time>2015-03-12T12:47:54Z</time>
      </trkpt>
      <trkpt lat="42.98862" lon="-0.21672">
        <ele>1524.3</ele>
        <time>2015-03-12T12:47:57Z</time>
      </trkpt>
      <trkpt lat="42.98856" lon="-0.21667">
        <ele>1524.3</ele>
        <time>2015-03-12T12:48:00Z</time>
      </trkpt>
      <trkpt lat="42.98849" lon="-0.21665">
        <ele>1523.8</ele>
        <time>2015-03-12T12:48:03Z</time>
      </trkpt>
      <trkpt lat="42.98841" lon="-0.21665">
        <ele>1523.3</ele>
        <time>2015-03-12T12:48:06Z</time>
      </trkpt>
      <trkpt lat="42.98835" lon="-0.21666">
        <ele>1523.2</ele>
        <time>2015-03-12T12:48:08Z</time>
      </trkpt>
      <trkpt lat="42.98828" lon="-0.21669">
        <ele>1522.8</ele>
        <time>2015-03-12T12:48:10Z</time>
      </trkpt>
      <trkpt lat="42.98819" lon="-0.21671">
        <ele>1522.3</ele>
        <time>2015-03-12T12:48:13Z</time>
      </trkpt>
      <trkpt lat="42.98817" lon="-0.21671">
        <ele>1522.2</ele>
        <time>2015-03-12T12:48:14Z</time>
      </trkpt>
      <trkpt lat="42.98802" lon="-0.21676">
        <ele>1520.7</ele>
        <time>2015-03-12T12:48:19Z</time>
      </trkpt>
      <trkpt lat="42.98794" lon="-0.21676">
        <ele>1520.6</ele>
        <time>2015-03-12T12:48:21Z</time>
      </trkpt>
      <trkpt lat="42.98786" lon="-0.21676">
        <ele>1519.1</ele>
        <time>2015-03-12T12:48:23Z</time>
      </trkpt>
      <trkpt lat="42.9878" lon="-0.21675">
        <ele>1518.2</ele>
        <time>2015-03-12T12:48:25Z</time>
      </trkpt>
      <trkpt lat="42.98773" lon="-0.21674">
        <ele>1518.7</ele>
        <time>2015-03-12T12:48:27Z</time>
      </trkpt>
      <trkpt lat="42.98766" lon="-0.21674">
        <ele>1518.3</ele>
        <time>2015-03-12T12:48:29Z</time>
      </trkpt>
      <trkpt lat="42.98758" lon="-0.21673">
        <ele>1517.2</ele>
        <time>2015-03-12T12:48:32Z</time>
      </trkpt>
      <trkpt lat="42.98751" lon="-0.21671">
        <ele>1516.6</ele>
        <time>2015-03-12T12:48:34Z</time>
      </trkpt>
      <trkpt lat="42.98744" lon="-0.21668">
        <ele>1515.8</ele>
        <time>2015-03-12T12:48:36Z</time>
      </trkpt>
      <trkpt lat="42.98737" lon="-0.21663">
        <ele>1515.6</ele>
        <time>2015-03-12T12:48:38Z</time>
      </trkpt>
      <trkpt lat="42.98731" lon="-0.21659">
        <ele>1515.5</ele>
        <time>2015-03-12T12:48:40Z</time>
      </trkpt>
      <trkpt lat="42.98724" lon="-0.21653">
        <ele>1515.2</ele>
        <time>2015-03-12T12:48:42Z</time>
      </trkpt>
      <trkpt lat="42.98717" lon="-0.21648">
        <ele>1515</ele>
        <time>2015-03-12T12:48:44Z</time>
      </trkpt>
      <trkpt lat="42.9871" lon="-0.21647">
        <ele>1514.1</ele>
        <time>2015-03-12T12:48:46Z</time>
      </trkpt>
      <trkpt lat="42.98703" lon="-0.21645">
        <ele>1513.2</ele>
        <time>2015-03-12T12:48:48Z</time>
      </trkpt>
      <trkpt lat="42.98695" lon="-0.21644">
        <ele>1512.4</ele>
        <time>2015-03-12T12:48:50Z</time>
      </trkpt>
      <trkpt lat="42.98687" lon="-0.21644">
        <ele>1512</ele>
        <time>2015-03-12T12:48:52Z</time>
      </trkpt>
      <trkpt lat="42.9868" lon="-0.21645">
        <ele>1511.5</ele>
        <time>2015-03-12T12:48:54Z</time>
      </trkpt>
      <trkpt lat="42.98673" lon="-0.21646">
        <ele>1511.1</ele>
        <time>2015-03-12T12:48:56Z</time>
      </trkpt>
      <trkpt lat="42.98666" lon="-0.21648">
        <ele>1510.1</ele>
        <time>2015-03-12T12:48:58Z</time>
      </trkpt>
      <trkpt lat="42.98659" lon="-0.2165">
        <ele>1509.7</ele>
        <time>2015-03-12T12:49:01Z</time>
      </trkpt>
      <trkpt lat="42.9865" lon="-0.21651">
        <ele>1509.2</ele>
        <time>2015-03-12T12:49:05Z</time>
      </trkpt>
      <trkpt lat="42.98643" lon="-0.21649">
        <ele>1509</ele>
        <time>2015-03-12T12:49:08Z</time>
      </trkpt>
      <trkpt lat="42.98636" lon="-0.21645">
        <ele>1508.3</ele>
        <time>2015-03-12T12:49:12Z</time>
      </trkpt>
      <trkpt lat="42.98636" lon="-0.21634">
        <ele>1507.7</ele>
        <time>2015-03-12T12:49:17Z</time>
      </trkpt>
      <trkpt lat="42.98637" lon="-0.21632">
        <ele>1507.2</ele>
        <time>2015-03-12T12:49:18Z</time>
      </trkpt>
      <trkpt lat="42.9865" lon="-0.21625">
        <ele>1505.9</ele>
        <time>2015-03-12T12:49:25Z</time>
      </trkpt>
      <trkpt lat="42.98658" lon="-0.21623">
        <ele>1505.5</ele>
        <time>2015-03-12T12:49:31Z</time>
      </trkpt>
      <trkpt lat="42.98667" lon="-0.21622">
        <ele>1505.9</ele>
        <time>2015-03-12T12:49:39Z</time>
      </trkpt>
      <trkpt lat="42.98676" lon="-0.21622">
        <ele>1506.5</ele>
        <time>2015-03-12T12:49:45Z</time>
      </trkpt>
      <trkpt lat="42.98684" lon="-0.21624">
        <ele>1507.1</ele>
        <time>2015-03-12T12:49:51Z</time>
      </trkpt>
      <trkpt lat="42.98692" lon="-0.21626">
        <ele>1507.6</ele>
        <time>2015-03-12T12:49:54Z</time>
      </trkpt>
      <trkpt lat="42.987" lon="-0.21629">
        <ele>1506.3</ele>
        <time>2015-03-12T12:49:57Z</time>
      </trkpt>
      <trkpt lat="42.98709" lon="-0.2163">
        <ele>1506.7</ele>
        <time>2015-03-12T12:50:00Z</time>
      </trkpt>
      <trkpt lat="42.98717" lon="-0.21631">
        <ele>1506.5</ele>
        <time>2015-03-12T12:50:03Z</time>
      </trkpt>
      <trkpt lat="42.98726" lon="-0.21633">
        <ele>1505.4</ele>
        <time>2015-03-12T12:50:06Z</time>
      </trkpt>
      <trkpt lat="42.98735" lon="-0.21634">
        <ele>1504.9</ele>
        <time>2015-03-12T12:50:09Z</time>
      </trkpt>
      <trkpt lat="42.98743" lon="-0.21634">
        <ele>1505.1</ele>
        <time>2015-03-12T12:50:12Z</time>
      </trkpt>
      <trkpt lat="42.98751" lon="-0.21632">
        <ele>1504.3</ele>
        <time>2015-03-12T12:50:15Z</time>
      </trkpt>
      <trkpt lat="42.98758" lon="-0.21631">
        <ele>1503.6</ele>
        <time>2015-03-12T12:50:18Z</time>
      </trkpt>
      <trkpt lat="42.9876" lon="-0.2163">
        <ele>1503.5</ele>
        <time>2015-03-12T12:50:19Z</time>
      </trkpt>
      <trkpt lat="42.98774" lon="-0.21626">
        <ele>1502.6</ele>
        <time>2015-03-12T12:50:26Z</time>
      </trkpt>
      <trkpt lat="42.98781" lon="-0.21625">
        <ele>1502.7</ele>
        <time>2015-03-12T12:50:29Z</time>
      </trkpt>
      <trkpt lat="42.98789" lon="-0.21622">
        <ele>1503.2</ele>
        <time>2015-03-12T12:50:32Z</time>
      </trkpt>
      <trkpt lat="42.98796" lon="-0.21617">
        <ele>1501.3</ele>
        <time>2015-03-12T12:50:35Z</time>
      </trkpt>
      <trkpt lat="42.98802" lon="-0.21613">
        <ele>1501.2</ele>
        <time>2015-03-12T12:50:37Z</time>
      </trkpt>
      <trkpt lat="42.98807" lon="-0.21607">
        <ele>1501.1</ele>
        <time>2015-03-12T12:50:39Z</time>
      </trkpt>
      <trkpt lat="42.98812" lon="-0.21601">
        <ele>1500.8</ele>
        <time>2015-03-12T12:50:41Z</time>
      </trkpt>
      <trkpt lat="42.98818" lon="-0.21596">
        <ele>1500.4</ele>
        <time>2015-03-12T12:50:43Z</time>
      </trkpt>
      <trkpt lat="42.98823" lon="-0.21591">
        <ele>1499.9</ele>
        <time>2015-03-12T12:50:45Z</time>
      </trkpt>
      <trkpt lat="42.98828" lon="-0.21587">
        <ele>1498.9</ele>
        <time>2015-03-12T12:50:47Z</time>
      </trkpt>
      <trkpt lat="42.98834" lon="-0.21583">
        <ele>1498.4</ele>
        <time>2015-03-12T12:50:49Z</time>
      </trkpt>
      <trkpt lat="42.9884" lon="-0.21579">
        <ele>1498.4</ele>
        <time>2015-03-12T12:50:51Z</time>
      </trkpt>
      <trkpt lat="42.98844" lon="-0.21573">
        <ele>1497.8</ele>
        <time>2015-03-12T12:50:53Z</time>
      </trkpt>
      <trkpt lat="42.98851" lon="-0.21568">
        <ele>1497.5</ele>
        <time>2015-03-12T12:50:55Z</time>
      </trkpt>
      <trkpt lat="42.98857" lon="-0.21561">
        <ele>1495.7</ele>
        <time>2015-03-12T12:50:57Z</time>
      </trkpt>
      <trkpt lat="42.98862" lon="-0.21554">
        <ele>1495.1</ele>
        <time>2015-03-12T12:50:59Z</time>
      </trkpt>
      <trkpt lat="42.98865" lon="-0.21549">
        <ele>1495</ele>
        <time>2015-03-12T12:51:00Z</time>
      </trkpt>
      <trkpt lat="42.98871" lon="-0.21539">
        <ele>1494.4</ele>
        <time>2015-03-12T12:51:02Z</time>
      </trkpt>
      <trkpt lat="42.98875" lon="-0.21531">
        <ele>1493.6</ele>
        <time>2015-03-12T12:51:04Z</time>
      </trkpt>
      <trkpt lat="42.98879" lon="-0.21523">
        <ele>1493</ele>
        <time>2015-03-12T12:51:07Z</time>
      </trkpt>
      <trkpt lat="42.98884" lon="-0.21515">
        <ele>1492.2</ele>
        <time>2015-03-12T12:51:11Z</time>
      </trkpt>
      <trkpt lat="42.98889" lon="-0.21508">
        <ele>1491.4</ele>
        <time>2015-03-12T12:51:14Z</time>
      </trkpt>
      <trkpt lat="42.98894" lon="-0.215">
        <ele>1491.1</ele>
        <time>2015-03-12T12:51:17Z</time>
      </trkpt>
      <trkpt lat="42.98897" lon="-0.21491">
        <ele>1491.3</ele>
        <time>2015-03-12T12:51:20Z</time>
      </trkpt>
      <trkpt lat="42.98899" lon="-0.21488">
        <ele>1491</ele>
        <time>2015-03-12T12:51:21Z</time>
      </trkpt>
      <trkpt lat="42.98906" lon="-0.21472">
        <ele>1490.1</ele>
        <time>2015-03-12T12:51:27Z</time>
      </trkpt>
      <trkpt lat="42.9891" lon="-0.21462">
        <ele>1490</ele>
        <time>2015-03-12T12:51:30Z</time>
      </trkpt>
      <trkpt lat="42.98914" lon="-0.21453">
        <ele>1489.3</ele>
        <time>2015-03-12T12:51:33Z</time>
      </trkpt>
      <trkpt lat="42.98916" lon="-0.21444">
        <ele>1488.3</ele>
        <time>2015-03-12T12:51:36Z</time>
      </trkpt>
      <trkpt lat="42.98919" lon="-0.21435">
        <ele>1488.5</ele>
        <time>2015-03-12T12:51:39Z</time>
      </trkpt>
      <trkpt lat="42.98922" lon="-0.21424">
        <ele>1488.2</ele>
        <time>2015-03-12T12:51:42Z</time>
      </trkpt>
      <trkpt lat="42.98923" lon="-0.21415">
        <ele>1487.8</ele>
        <time>2015-03-12T12:51:44Z</time>
      </trkpt>
      <trkpt lat="42.98925" lon="-0.21407">
        <ele>1487.6</ele>
        <time>2015-03-12T12:51:46Z</time>
      </trkpt>
      <trkpt lat="42.98928" lon="-0.21399">
        <ele>1486.7</ele>
        <time>2015-03-12T12:51:48Z</time>
      </trkpt>
      <trkpt lat="42.98932" lon="-0.21392">
        <ele>1486.2</ele>
        <time>2015-03-12T12:51:50Z</time>
      </trkpt>
      <trkpt lat="42.98936" lon="-0.21387">
        <ele>1485.9</ele>
        <time>2015-03-12T12:51:52Z</time>
      </trkpt>
      <trkpt lat="42.98942" lon="-0.21382">
        <ele>1485.1</ele>
        <time>2015-03-12T12:51:54Z</time>
      </trkpt>
      <trkpt lat="42.98948" lon="-0.21379">
        <ele>1484.7</ele>
        <time>2015-03-12T12:51:56Z</time>
      </trkpt>
      <trkpt lat="42.98955" lon="-0.21377">
        <ele>1484.5</ele>
        <time>2015-03-12T12:51:58Z</time>
      </trkpt>
      <trkpt lat="42.98962" lon="-0.21374">
        <ele>1483.9</ele>
        <time>2015-03-12T12:52:00Z</time>
      </trkpt>
      <trkpt lat="42.98968" lon="-0.2137">
        <ele>1483.6</ele>
        <time>2015-03-12T12:52:02Z</time>
      </trkpt>
      <trkpt lat="42.98976" lon="-0.21366">
        <ele>1482.9</ele>
        <time>2015-03-12T12:52:04Z</time>
      </trkpt>
      <trkpt lat="42.98981" lon="-0.21357">
        <ele>1482.4</ele>
        <time>2015-03-12T12:52:06Z</time>
      </trkpt>
      <trkpt lat="42.98983" lon="-0.21352">
        <ele>1482.1</ele>
        <time>2015-03-12T12:52:07Z</time>
      </trkpt>
      <trkpt lat="42.98985" lon="-0.21346">
        <ele>1481.9</ele>
        <time>2015-03-12T12:52:08Z</time>
      </trkpt>
      <trkpt lat="42.98988" lon="-0.21339">
        <ele>1480.9</ele>
        <time>2015-03-12T12:52:09Z</time>
      </trkpt>
      <trkpt lat="42.9899" lon="-0.21332">
        <ele>1480.2</ele>
        <time>2015-03-12T12:52:10Z</time>
      </trkpt>
      <trkpt lat="42.98992" lon="-0.21324">
        <ele>1479.6</ele>
        <time>2015-03-12T12:52:11Z</time>
      </trkpt>
      <trkpt lat="42.98995" lon="-0.21316">
        <ele>1478.9</ele>
        <time>2015-03-12T12:52:12Z</time>
      </trkpt>
      <trkpt lat="42.98998" lon="-0.21309">
        <ele>1478.3</ele>
        <time>2015-03-12T12:52:13Z</time>
      </trkpt>
      <trkpt lat="42.99" lon="-0.21302">
        <ele>1477.9</ele>
        <time>2015-03-12T12:52:14Z</time>
      </trkpt>
      <trkpt lat="42.99003" lon="-0.2129">
        <ele>1477.2</ele>
        <time>2015-03-12T12:52:16Z</time>
      </trkpt>
      <trkpt lat="42.99007" lon="-0.2128">
        <ele>1477.1</ele>
        <time>2015-03-12T12:52:19Z</time>
      </trkpt>
      <trkpt lat="42.9901" lon="-0.21273">
        <ele>1477.4</ele>
        <time>2015-03-12T12:52:21Z</time>
      </trkpt>
      <trkpt lat="42.99011" lon="-0.21269">
        <ele>1476.9</ele>
        <time>2015-03-12T12:52:22Z</time>
      </trkpt>
      <trkpt lat="42.99017" lon="-0.21256">
        <ele>1475.8</ele>
        <time>2015-03-12T12:52:26Z</time>
      </trkpt>
      <trkpt lat="42.99022" lon="-0.21248">
        <ele>1475.2</ele>
        <time>2015-03-12T12:52:29Z</time>
      </trkpt>
      <trkpt lat="42.99026" lon="-0.2124">
        <ele>1476.2</ele>
        <time>2015-03-12T12:52:33Z</time>
      </trkpt>
      <trkpt lat="42.99032" lon="-0.21231">
        <ele>1476.1</ele>
        <time>2015-03-12T12:52:37Z</time>
      </trkpt>
      <trkpt lat="42.99036" lon="-0.21224">
        <ele>1475.9</ele>
        <time>2015-03-12T12:52:39Z</time>
      </trkpt>
      <trkpt lat="42.9904" lon="-0.21218">
        <ele>1475.4</ele>
        <time>2015-03-12T12:52:41Z</time>
      </trkpt>
      <trkpt lat="42.99044" lon="-0.21211">
        <ele>1474.9</ele>
        <time>2015-03-12T12:52:43Z</time>
      </trkpt>
      <trkpt lat="42.99049" lon="-0.21202">
        <ele>1474.3</ele>
        <time>2015-03-12T12:52:45Z</time>
      </trkpt>
      <trkpt lat="42.99054" lon="-0.21192">
        <ele>1473.2</ele>
        <time>2015-03-12T12:52:47Z</time>
      </trkpt>
      <trkpt lat="42.99057" lon="-0.21187">
        <ele>1472.6</ele>
        <time>2015-03-12T12:52:48Z</time>
      </trkpt>
      <trkpt lat="42.9906" lon="-0.21182">
        <ele>1472.1</ele>
        <time>2015-03-12T12:52:49Z</time>
      </trkpt>
      <trkpt lat="42.99063" lon="-0.21176">
        <ele>1471.4</ele>
        <time>2015-03-12T12:52:50Z</time>
      </trkpt>
      <trkpt lat="42.99065" lon="-0.2117">
        <ele>1470.9</ele>
        <time>2015-03-12T12:52:51Z</time>
      </trkpt>
      <trkpt lat="42.99069" lon="-0.21164">
        <ele>1470.5</ele>
        <time>2015-03-12T12:52:52Z</time>
      </trkpt>
      <trkpt lat="42.99072" lon="-0.21157">
        <ele>1470.2</ele>
        <time>2015-03-12T12:52:53Z</time>
      </trkpt>
      <trkpt lat="42.99076" lon="-0.2115">
        <ele>1469.5</ele>
        <time>2015-03-12T12:52:54Z</time>
      </trkpt>
      <trkpt lat="42.9908" lon="-0.21144">
        <ele>1469</ele>
        <time>2015-03-12T12:52:55Z</time>
      </trkpt>
      <trkpt lat="42.99085" lon="-0.21137">
        <ele>1468.6</ele>
        <time>2015-03-12T12:52:56Z</time>
      </trkpt>
      <trkpt lat="42.99089" lon="-0.21131">
        <ele>1467.8</ele>
        <time>2015-03-12T12:52:57Z</time>
      </trkpt>
      <trkpt lat="42.99094" lon="-0.21126">
        <ele>1467.2</ele>
        <time>2015-03-12T12:52:58Z</time>
      </trkpt>
      <trkpt lat="42.99098" lon="-0.21121">
        <ele>1466.8</ele>
        <time>2015-03-12T12:52:59Z</time>
      </trkpt>
      <trkpt lat="42.99104" lon="-0.21113">
        <ele>1466.3</ele>
        <time>2015-03-12T12:53:01Z</time>
      </trkpt>
      <trkpt lat="42.9911" lon="-0.21105">
        <ele>1465.8</ele>
        <time>2015-03-12T12:53:03Z</time>
      </trkpt>
      <trkpt lat="42.99117" lon="-0.21099">
        <ele>1465.2</ele>
        <time>2015-03-12T12:53:05Z</time>
      </trkpt>
      <trkpt lat="42.99124" lon="-0.21094">
        <ele>1464.7</ele>
        <time>2015-03-12T12:53:07Z</time>
      </trkpt>
      <trkpt lat="42.99132" lon="-0.21089">
        <ele>1464.3</ele>
        <time>2015-03-12T12:53:09Z</time>
      </trkpt>
      <trkpt lat="42.99138" lon="-0.21085">
        <ele>1463.1</ele>
        <time>2015-03-12T12:53:11Z</time>
      </trkpt>
      <trkpt lat="42.99144" lon="-0.21081">
        <ele>1462.9</ele>
        <time>2015-03-12T12:53:13Z</time>
      </trkpt>
      <trkpt lat="42.99151" lon="-0.21078">
        <ele>1463.1</ele>
        <time>2015-03-12T12:53:15Z</time>
      </trkpt>
      <trkpt lat="42.99158" lon="-0.21074">
        <ele>1463</ele>
        <time>2015-03-12T12:53:17Z</time>
      </trkpt>
      <trkpt lat="42.99165" lon="-0.2107">
        <ele>1462.5</ele>
        <time>2015-03-12T12:53:19Z</time>
      </trkpt>
      <trkpt lat="42.99171" lon="-0.21065">
        <ele>1462</ele>
        <time>2015-03-12T12:53:21Z</time>
      </trkpt>
      <trkpt lat="42.99178" lon="-0.21062">
        <ele>1462.2</ele>
        <time>2015-03-12T12:53:23Z</time>
      </trkpt>
      <trkpt lat="42.99182" lon="-0.21061">
        <ele>1462.2</ele>
        <time>2015-03-12T12:53:24Z</time>
      </trkpt>
      <trkpt lat="42.99193" lon="-0.21057">
        <ele>1461</ele>
        <time>2015-03-12T12:53:27Z</time>
      </trkpt>
      <trkpt lat="42.99201" lon="-0.21054">
        <ele>1460.3</ele>
        <time>2015-03-12T12:53:30Z</time>
      </trkpt>
      <trkpt lat="42.99208" lon="-0.21053">
        <ele>1459.7</ele>
        <time>2015-03-12T12:53:32Z</time>
      </trkpt>
      <trkpt lat="42.99214" lon="-0.21053">
        <ele>1459.2</ele>
        <time>2015-03-12T12:53:34Z</time>
      </trkpt>
      <trkpt lat="42.99221" lon="-0.21054">
        <ele>1459.2</ele>
        <time>2015-03-12T12:53:36Z</time>
      </trkpt>
      <trkpt lat="42.99228" lon="-0.21056">
        <ele>1458.9</ele>
        <time>2015-03-12T12:53:38Z</time>
      </trkpt>
      <trkpt lat="42.99237" lon="-0.21057">
        <ele>1458.4</ele>
        <time>2015-03-12T12:53:40Z</time>
      </trkpt>
      <trkpt lat="42.99241" lon="-0.21059">
        <ele>1458.2</ele>
        <time>2015-03-12T12:53:41Z</time>
      </trkpt>
      <trkpt lat="42.99246" lon="-0.2106">
        <ele>1458</ele>
        <time>2015-03-12T12:53:42Z</time>
      </trkpt>
      <trkpt lat="42.99251" lon="-0.21061">
        <ele>1457.8</ele>
        <time>2015-03-12T12:53:43Z</time>
      </trkpt>
      <trkpt lat="42.99256" lon="-0.21062">
        <ele>1457.7</ele>
        <time>2015-03-12T12:53:44Z</time>
      </trkpt>
      <trkpt lat="42.99261" lon="-0.21063">
        <ele>1456.8</ele>
        <time>2015-03-12T12:53:45Z</time>
      </trkpt>
      <trkpt lat="42.99266" lon="-0.21065">
        <ele>1456.1</ele>
        <time>2015-03-12T12:53:46Z</time>
      </trkpt>
      <trkpt lat="42.99271" lon="-0.21066">
        <ele>1455.6</ele>
        <time>2015-03-12T12:53:47Z</time>
      </trkpt>
      <trkpt lat="42.99276" lon="-0.21066">
        <ele>1454.9</ele>
        <time>2015-03-12T12:53:48Z</time>
      </trkpt>
      <trkpt lat="42.99281" lon="-0.21067">
        <ele>1454.4</ele>
        <time>2015-03-12T12:53:49Z</time>
      </trkpt>
      <trkpt lat="42.99286" lon="-0.21068">
        <ele>1453.9</ele>
        <time>2015-03-12T12:53:50Z</time>
      </trkpt>
      <trkpt lat="42.99291" lon="-0.2107">
        <ele>1452.9</ele>
        <time>2015-03-12T12:53:51Z</time>
      </trkpt>
      <trkpt lat="42.99297" lon="-0.21071">
        <ele>1452.1</ele>
        <time>2015-03-12T12:53:52Z</time>
      </trkpt>
      <trkpt lat="42.99301" lon="-0.21072">
        <ele>1451.5</ele>
        <time>2015-03-12T12:53:53Z</time>
      </trkpt>
      <trkpt lat="42.99306" lon="-0.21073">
        <ele>1450.9</ele>
        <time>2015-03-12T12:53:54Z</time>
      </trkpt>
      <trkpt lat="42.99314" lon="-0.21077">
        <ele>1450.1</ele>
        <time>2015-03-12T12:53:56Z</time>
      </trkpt>
      <trkpt lat="42.99322" lon="-0.2108">
        <ele>1449.3</ele>
        <time>2015-03-12T12:53:58Z</time>
      </trkpt>
      <trkpt lat="42.99326" lon="-0.21082">
        <ele>1449</ele>
        <time>2015-03-12T12:53:59Z</time>
      </trkpt>
      <trkpt lat="42.99331" lon="-0.21084">
        <ele>1448.8</ele>
        <time>2015-03-12T12:54:00Z</time>
      </trkpt>
      <trkpt lat="42.99336" lon="-0.21086">
        <ele>1448</ele>
        <time>2015-03-12T12:54:01Z</time>
      </trkpt>
      <trkpt lat="42.99341" lon="-0.21088">
        <ele>1447.4</ele>
        <time>2015-03-12T12:54:02Z</time>
      </trkpt>
      <trkpt lat="42.99346" lon="-0.21089">
        <ele>1447</ele>
        <time>2015-03-12T12:54:03Z</time>
      </trkpt>
      <trkpt lat="42.99352" lon="-0.21091">
        <ele>1446.2</ele>
        <time>2015-03-12T12:54:04Z</time>
      </trkpt>
      <trkpt lat="42.99357" lon="-0.21093">
        <ele>1445.6</ele>
        <time>2015-03-12T12:54:05Z</time>
      </trkpt>
      <trkpt lat="42.99362" lon="-0.21095">
        <ele>1445.1</ele>
        <time>2015-03-12T12:54:06Z</time>
      </trkpt>
      <trkpt lat="42.99371" lon="-0.21098">
        <ele>1443.6</ele>
        <time>2015-03-12T12:54:08Z</time>
      </trkpt>
      <trkpt lat="42.99378" lon="-0.211">
        <ele>1442.7</ele>
        <time>2015-03-12T12:54:10Z</time>
      </trkpt>
      <trkpt lat="42.99385" lon="-0.21102">
        <ele>1442.2</ele>
        <time>2015-03-12T12:54:12Z</time>
      </trkpt>
      <trkpt lat="42.99392" lon="-0.21105">
        <ele>1441.3</ele>
        <time>2015-03-12T12:54:15Z</time>
      </trkpt>
      <trkpt lat="42.994" lon="-0.21109">
        <ele>1440.5</ele>
        <time>2015-03-12T12:54:18Z</time>
      </trkpt>
      <trkpt lat="42.99407" lon="-0.21111">
        <ele>1440.4</ele>
        <time>2015-03-12T12:54:21Z</time>
      </trkpt>
      <trkpt lat="42.99413" lon="-0.21113">
        <ele>1440.2</ele>
        <time>2015-03-12T12:54:23Z</time>
      </trkpt>
      <trkpt lat="42.9942" lon="-0.21115">
        <ele>1439.9</ele>
        <time>2015-03-12T12:54:25Z</time>
      </trkpt>
      <trkpt lat="42.99424" lon="-0.21116">
        <ele>1439.3</ele>
        <time>2015-03-12T12:54:26Z</time>
      </trkpt>
      <trkpt lat="42.99434" lon="-0.21118">
        <ele>1437.9</ele>
        <time>2015-03-12T12:54:29Z</time>
      </trkpt>
      <trkpt lat="42.99441" lon="-0.2112">
        <ele>1437.1</ele>
        <time>2015-03-12T12:54:31Z</time>
      </trkpt>
      <trkpt lat="42.99448" lon="-0.21122">
        <ele>1436.4</ele>
        <time>2015-03-12T12:54:34Z</time>
      </trkpt>
      <trkpt lat="42.99454" lon="-0.21123">
        <ele>1436</ele>
        <time>2015-03-12T12:54:36Z</time>
      </trkpt>
      <trkpt lat="42.9946" lon="-0.21123">
        <ele>1435.8</ele>
        <time>2015-03-12T12:54:38Z</time>
      </trkpt>
      <trkpt lat="42.99466" lon="-0.21126">
        <ele>1436.3</ele>
        <time>2015-03-12T12:54:40Z</time>
      </trkpt>
      <trkpt lat="42.99472" lon="-0.21129">
        <ele>1435.8</ele>
        <time>2015-03-12T12:54:42Z</time>
      </trkpt>
      <trkpt lat="42.99478" lon="-0.21132">
        <ele>1434.9</ele>
        <time>2015-03-12T12:54:44Z</time>
      </trkpt>
      <trkpt lat="42.99486" lon="-0.21136">
        <ele>1434.6</ele>
        <time>2015-03-12T12:54:46Z</time>
      </trkpt>
      <trkpt lat="42.9949" lon="-0.21139">
        <ele>1434.4</ele>
        <time>2015-03-12T12:54:47Z</time>
      </trkpt>
      <trkpt lat="42.99494" lon="-0.21142">
        <ele>1434.4</ele>
        <time>2015-03-12T12:54:48Z</time>
      </trkpt>
      <trkpt lat="42.99499" lon="-0.21144">
        <ele>1433.5</ele>
        <time>2015-03-12T12:54:49Z</time>
      </trkpt>
      <trkpt lat="42.99503" lon="-0.21146">
        <ele>1432.9</ele>
        <time>2015-03-12T12:54:50Z</time>
      </trkpt>
      <trkpt lat="42.99508" lon="-0.21149">
        <ele>1432.4</ele>
        <time>2015-03-12T12:54:51Z</time>
      </trkpt>
      <trkpt lat="42.99512" lon="-0.21151">
        <ele>1431.7</ele>
        <time>2015-03-12T12:54:52Z</time>
      </trkpt>
      <trkpt lat="42.99517" lon="-0.21152">
        <ele>1431.1</ele>
        <time>2015-03-12T12:54:53Z</time>
      </trkpt>
      <trkpt lat="42.99525" lon="-0.21155">
        <ele>1430</ele>
        <time>2015-03-12T12:54:55Z</time>
      </trkpt>
      <trkpt lat="42.99533" lon="-0.21156">
        <ele>1429.2</ele>
        <time>2015-03-12T12:54:57Z</time>
      </trkpt>
      <trkpt lat="42.99541" lon="-0.21159">
        <ele>1428.3</ele>
        <time>2015-03-12T12:54:59Z</time>
      </trkpt>
      <trkpt lat="42.99547" lon="-0.21161">
        <ele>1427.7</ele>
        <time>2015-03-12T12:55:01Z</time>
      </trkpt>
      <trkpt lat="42.99553" lon="-0.21163">
        <ele>1427.2</ele>
        <time>2015-03-12T12:55:03Z</time>
      </trkpt>
      <trkpt lat="42.9956" lon="-0.21163">
        <ele>1426.9</ele>
        <time>2015-03-12T12:55:05Z</time>
      </trkpt>
      <trkpt lat="42.99567" lon="-0.21165">
        <ele>1426.6</ele>
        <time>2015-03-12T12:55:07Z</time>
      </trkpt>
      <trkpt lat="42.99574" lon="-0.21167">
        <ele>1426.2</ele>
        <time>2015-03-12T12:55:09Z</time>
      </trkpt>
      <trkpt lat="42.99582" lon="-0.21169">
        <ele>1425.7</ele>
        <time>2015-03-12T12:55:11Z</time>
      </trkpt>
      <trkpt lat="42.9959" lon="-0.2117">
        <ele>1425.2</ele>
        <time>2015-03-12T12:55:13Z</time>
      </trkpt>
      <trkpt lat="42.99597" lon="-0.21172">
        <ele>1424.9</ele>
        <time>2015-03-12T12:55:15Z</time>
      </trkpt>
      <trkpt lat="42.99605" lon="-0.21173">
        <ele>1424.5</ele>
        <time>2015-03-12T12:55:17Z</time>
      </trkpt>
      <trkpt lat="42.99614" lon="-0.21173">
        <ele>1424</ele>
        <time>2015-03-12T12:55:19Z</time>
      </trkpt>
      <trkpt lat="42.99621" lon="-0.21173">
        <ele>1423.1</ele>
        <time>2015-03-12T12:55:21Z</time>
      </trkpt>
      <trkpt lat="42.99629" lon="-0.21171">
        <ele>1422</ele>
        <time>2015-03-12T12:55:23Z</time>
      </trkpt>
      <trkpt lat="42.99637" lon="-0.2117">
        <ele>1421.6</ele>
        <time>2015-03-12T12:55:25Z</time>
      </trkpt>
      <trkpt lat="42.99644" lon="-0.21168">
        <ele>1421.2</ele>
        <time>2015-03-12T12:55:27Z</time>
      </trkpt>
      <trkpt lat="42.99647" lon="-0.21166">
        <ele>1421</ele>
        <time>2015-03-12T12:55:28Z</time>
      </trkpt>
      <trkpt lat="42.99656" lon="-0.21161">
        <ele>1421</ele>
        <time>2015-03-12T12:55:31Z</time>
      </trkpt>
      <trkpt lat="42.99661" lon="-0.21156">
        <ele>1420.5</ele>
        <time>2015-03-12T12:55:33Z</time>
      </trkpt>
      <trkpt lat="42.99666" lon="-0.21149">
        <ele>1419.8</ele>
        <time>2015-03-12T12:55:35Z</time>
      </trkpt>
      <trkpt lat="42.99671" lon="-0.21143">
        <ele>1419.7</ele>
        <time>2015-03-12T12:55:37Z</time>
      </trkpt>
      <trkpt lat="42.99677" lon="-0.21134">
        <ele>1419.8</ele>
        <time>2015-03-12T12:55:40Z</time>
      </trkpt>
      <trkpt lat="42.99683" lon="-0.21125">
        <ele>1419.8</ele>
        <time>2015-03-12T12:55:44Z</time>
      </trkpt>
      <trkpt lat="42.99689" lon="-0.21119">
        <ele>1419</ele>
        <time>2015-03-12T12:55:47Z</time>
      </trkpt>
      <trkpt lat="42.99694" lon="-0.21114">
        <ele>1418.9</ele>
        <time>2015-03-12T12:55:50Z</time>
      </trkpt>
      <trkpt lat="42.99701" lon="-0.21108">
        <ele>1419.3</ele>
        <time>2015-03-12T12:55:53Z</time>
      </trkpt>
      <trkpt lat="42.99708" lon="-0.21101">
        <ele>1419.8</ele>
        <time>2015-03-12T12:55:56Z</time>
      </trkpt>
      <trkpt lat="42.99713" lon="-0.21096">
        <ele>1420.2</ele>
        <time>2015-03-12T12:55:58Z</time>
      </trkpt>
      <trkpt lat="42.9972" lon="-0.21091">
        <ele>1420.2</ele>
        <time>2015-03-12T12:56:00Z</time>
      </trkpt>
      <trkpt lat="42.99727" lon="-0.21086">
        <ele>1419.5</ele>
        <time>2015-03-12T12:56:02Z</time>
      </trkpt>
      <trkpt lat="42.99734" lon="-0.2108">
        <ele>1418.5</ele>
        <time>2015-03-12T12:56:04Z</time>
      </trkpt>
      <trkpt lat="42.99742" lon="-0.21074">
        <ele>1417.9</ele>
        <time>2015-03-12T12:56:06Z</time>
      </trkpt>
      <trkpt lat="42.9975" lon="-0.2107">
        <ele>1417.2</ele>
        <time>2015-03-12T12:56:08Z</time>
      </trkpt>
      <trkpt lat="42.99758" lon="-0.21068">
        <ele>1416.5</ele>
        <time>2015-03-12T12:56:10Z</time>
      </trkpt>
      <trkpt lat="42.99767" lon="-0.21065">
        <ele>1416</ele>
        <time>2015-03-12T12:56:12Z</time>
      </trkpt>
      <trkpt lat="42.99775" lon="-0.21062">
        <ele>1415.5</ele>
        <time>2015-03-12T12:56:14Z</time>
      </trkpt>
      <trkpt lat="42.99783" lon="-0.21058">
        <ele>1413.9</ele>
        <time>2015-03-12T12:56:16Z</time>
      </trkpt>
      <trkpt lat="42.99787" lon="-0.21056">
        <ele>1413.4</ele>
        <time>2015-03-12T12:56:17Z</time>
      </trkpt>
      <trkpt lat="42.99791" lon="-0.21054">
        <ele>1412.9</ele>
        <time>2015-03-12T12:56:18Z</time>
      </trkpt>
      <trkpt lat="42.99799" lon="-0.2105">
        <ele>1412.2</ele>
        <time>2015-03-12T12:56:20Z</time>
      </trkpt>
      <trkpt lat="42.99807" lon="-0.21046">
        <ele>1412.1</ele>
        <time>2015-03-12T12:56:22Z</time>
      </trkpt>
      <trkpt lat="42.99814" lon="-0.21044">
        <ele>1411.6</ele>
        <time>2015-03-12T12:56:24Z</time>
      </trkpt>
      <trkpt lat="42.99822" lon="-0.2104">
        <ele>1411</ele>
        <time>2015-03-12T12:56:27Z</time>
      </trkpt>
      <trkpt lat="42.99829" lon="-0.21038">
        <ele>1411.2</ele>
        <time>2015-03-12T12:56:31Z</time>
      </trkpt>
      <trkpt lat="42.99831" lon="-0.21038">
        <ele>1411.2</ele>
        <time>2015-03-12T12:56:32Z</time>
      </trkpt>
      <trkpt lat="42.99844" lon="-0.2103">
        <ele>1413.1</ele>
        <time>2015-03-12T12:56:39Z</time>
      </trkpt>
      <trkpt lat="42.9985" lon="-0.21023">
        <ele>1412.3</ele>
        <time>2015-03-12T12:56:43Z</time>
      </trkpt>
      <trkpt lat="42.99857" lon="-0.21016">
        <ele>1412.7</ele>
        <time>2015-03-12T12:56:48Z</time>
      </trkpt>
      <trkpt lat="42.99863" lon="-0.21008">
        <ele>1412.6</ele>
        <time>2015-03-12T12:56:53Z</time>
      </trkpt>
      <trkpt lat="42.99869" lon="-0.21">
        <ele>1411.5</ele>
        <time>2015-03-12T12:56:58Z</time>
      </trkpt>
      <trkpt lat="42.99873" lon="-0.20992">
        <ele>1411.4</ele>
        <time>2015-03-12T12:57:02Z</time>
      </trkpt>
      <trkpt lat="42.9988" lon="-0.20986">
        <ele>1412.7</ele>
        <time>2015-03-12T12:57:05Z</time>
      </trkpt>
      <trkpt lat="42.99886" lon="-0.20978">
        <ele>1412.7</ele>
        <time>2015-03-12T12:57:08Z</time>
      </trkpt>
      <trkpt lat="42.9989" lon="-0.20969">
        <ele>1412.8</ele>
        <time>2015-03-12T12:57:11Z</time>
      </trkpt>
      <trkpt lat="42.99892" lon="-0.20959">
        <ele>1412.5</ele>
        <time>2015-03-12T12:57:14Z</time>
      </trkpt>
      <trkpt lat="42.99892" lon="-0.20949">
        <ele>1412</ele>
        <time>2015-03-12T12:57:17Z</time>
      </trkpt>
      <trkpt lat="42.9989" lon="-0.20939">
        <ele>1412.1</ele>
        <time>2015-03-12T12:57:19Z</time>
      </trkpt>
      <trkpt lat="42.99888" lon="-0.20933">
        <ele>1412.3</ele>
        <time>2015-03-12T12:57:20Z</time>
      </trkpt>
      <trkpt lat="42.99887" lon="-0.20926">
        <ele>1412.5</ele>
        <time>2015-03-12T12:57:21Z</time>
      </trkpt>
      <trkpt lat="42.99885" lon="-0.20919">
        <ele>1411.3</ele>
        <time>2015-03-12T12:57:22Z</time>
      </trkpt>
      <trkpt lat="42.99884" lon="-0.20911">
        <ele>1410.5</ele>
        <time>2015-03-12T12:57:23Z</time>
      </trkpt>
      <trkpt lat="42.99882" lon="-0.20903">
        <ele>1409.8</ele>
        <time>2015-03-12T12:57:24Z</time>
      </trkpt>
      <trkpt lat="42.9988" lon="-0.20894">
        <ele>1408.1</ele>
        <time>2015-03-12T12:57:25Z</time>
      </trkpt>
      <trkpt lat="42.99878" lon="-0.20884">
        <ele>1406.7</ele>
        <time>2015-03-12T12:57:26Z</time>
      </trkpt>
      <trkpt lat="42.99877" lon="-0.20875">
        <ele>1405.7</ele>
        <time>2015-03-12T12:57:27Z</time>
      </trkpt>
      <trkpt lat="42.99875" lon="-0.20865">
        <ele>1404.7</ele>
        <time>2015-03-12T12:57:28Z</time>
      </trkpt>
      <trkpt lat="42.99874" lon="-0.20856">
        <ele>1403.9</ele>
        <time>2015-03-12T12:57:29Z</time>
      </trkpt>
      <trkpt lat="42.99872" lon="-0.20847">
        <ele>1403.3</ele>
        <time>2015-03-12T12:57:30Z</time>
      </trkpt>
      <trkpt lat="42.99871" lon="-0.20838">
        <ele>1402.7</ele>
        <time>2015-03-12T12:57:31Z</time>
      </trkpt>
      <trkpt lat="42.9987" lon="-0.2083">
        <ele>1402.3</ele>
        <time>2015-03-12T12:57:32Z</time>
      </trkpt>
      <trkpt lat="42.99869" lon="-0.20823">
        <ele>1401.9</ele>
        <time>2015-03-12T12:57:33Z</time>
      </trkpt>
      <trkpt lat="42.99868" lon="-0.20816">
        <ele>1401.7</ele>
        <time>2015-03-12T12:57:34Z</time>
      </trkpt>
      <trkpt lat="42.99867" lon="-0.2081">
        <ele>1401.3</ele>
        <time>2015-03-12T12:57:35Z</time>
      </trkpt>
      <trkpt lat="42.99866" lon="-0.20803">
        <ele>1401</ele>
        <time>2015-03-12T12:57:36Z</time>
      </trkpt>
      <trkpt lat="42.99865" lon="-0.20796">
        <ele>1400.8</ele>
        <time>2015-03-12T12:57:37Z</time>
      </trkpt>
      <trkpt lat="42.99865" lon="-0.2079">
        <ele>1401.1</ele>
        <time>2015-03-12T12:57:38Z</time>
      </trkpt>
      <trkpt lat="42.99864" lon="-0.20778">
        <ele>1401.5</ele>
        <time>2015-03-12T12:57:40Z</time>
      </trkpt>
      <trkpt lat="42.99864" lon="-0.20766">
        <ele>1401</ele>
        <time>2015-03-12T12:57:42Z</time>
      </trkpt>
      <trkpt lat="42.99864" lon="-0.20756">
        <ele>1400.1</ele>
        <time>2015-03-12T12:57:44Z</time>
      </trkpt>
      <trkpt lat="42.99864" lon="-0.20746">
        <ele>1399.4</ele>
        <time>2015-03-12T12:57:47Z</time>
      </trkpt>
      <trkpt lat="42.99864" lon="-0.20736">
        <ele>1400.2</ele>
        <time>2015-03-12T12:57:50Z</time>
      </trkpt>
      <trkpt lat="42.99863" lon="-0.20725">
        <ele>1401.3</ele>
        <time>2015-03-12T12:57:54Z</time>
      </trkpt>
      <trkpt lat="42.99862" lon="-0.20714">
        <ele>1402</ele>
        <time>2015-03-12T12:57:58Z</time>
      </trkpt>
      <trkpt lat="42.99862" lon="-0.20704">
        <ele>1402.7</ele>
        <time>2015-03-12T12:58:02Z</time>
      </trkpt>
      <trkpt lat="42.99862" lon="-0.20693">
        <ele>1402.2</ele>
        <time>2015-03-12T12:58:06Z</time>
      </trkpt>
      <trkpt lat="42.99864" lon="-0.20683">
        <ele>1402.5</ele>
        <time>2015-03-12T12:58:10Z</time>
      </trkpt>
      <trkpt lat="42.99867" lon="-0.20673">
        <ele>1402.7</ele>
        <time>2015-03-12T12:58:14Z</time>
      </trkpt>
      <trkpt lat="42.9987" lon="-0.20663">
        <ele>1403.5</ele>
        <time>2015-03-12T12:58:18Z</time>
      </trkpt>
      <trkpt lat="42.99872" lon="-0.20652">
        <ele>1404.5</ele>
        <time>2015-03-12T12:58:23Z</time>
      </trkpt>
      <trkpt lat="42.99873" lon="-0.20642">
        <ele>1403.8</ele>
        <time>2015-03-12T12:58:28Z</time>
      </trkpt>
      <trkpt lat="42.99874" lon="-0.20632">
        <ele>1405.3</ele>
        <time>2015-03-12T12:58:32Z</time>
      </trkpt>
      <trkpt lat="42.99876" lon="-0.20622">
        <ele>1405.8</ele>
        <time>2015-03-12T12:58:36Z</time>
      </trkpt>
      <trkpt lat="42.99876" lon="-0.20619">
        <ele>1405.9</ele>
        <time>2015-03-12T12:58:37Z</time>
      </trkpt>
      <trkpt lat="42.9988" lon="-0.20602">
        <ele>1405.9</ele>
        <time>2015-03-12T12:58:44Z</time>
      </trkpt>
      <trkpt lat="42.99881" lon="-0.20591">
        <ele>1407</ele>
        <time>2015-03-12T12:58:48Z</time>
      </trkpt>
      <trkpt lat="42.99884" lon="-0.20581">
        <ele>1407.6</ele>
        <time>2015-03-12T12:58:52Z</time>
      </trkpt>
      <trkpt lat="42.99886" lon="-0.2057">
        <ele>1408.1</ele>
        <time>2015-03-12T12:58:56Z</time>
      </trkpt>
      <trkpt lat="42.99888" lon="-0.20559">
        <ele>1408</ele>
        <time>2015-03-12T12:58:59Z</time>
      </trkpt>
      <trkpt lat="42.99891" lon="-0.20551">
        <ele>1407.7</ele>
        <time>2015-03-12T12:59:01Z</time>
      </trkpt>
      <trkpt lat="42.99894" lon="-0.20542">
        <ele>1407.4</ele>
        <time>2015-03-12T12:59:03Z</time>
      </trkpt>
      <trkpt lat="42.99897" lon="-0.20532">
        <ele>1407.2</ele>
        <time>2015-03-12T12:59:05Z</time>
      </trkpt>
      <trkpt lat="42.99897" lon="-0.20521">
        <ele>1406.7</ele>
        <time>2015-03-12T12:59:07Z</time>
      </trkpt>
      <trkpt lat="42.99893" lon="-0.20511">
        <ele>1405.9</ele>
        <time>2015-03-12T12:59:10Z</time>
      </trkpt>
      <trkpt lat="42.99885" lon="-0.20507">
        <ele>1405</ele>
        <time>2015-03-12T12:59:14Z</time>
      </trkpt>
      <trkpt lat="42.99879" lon="-0.20514">
        <ele>1404.2</ele>
        <time>2015-03-12T12:59:18Z</time>
      </trkpt>
      <trkpt lat="42.99871" lon="-0.20519">
        <ele>1404.2</ele>
        <time>2015-03-12T12:59:22Z</time>
      </trkpt>
      <trkpt lat="42.99863" lon="-0.20519">
        <ele>1403.5</ele>
        <time>2015-03-12T12:59:27Z</time>
      </trkpt>
      <trkpt lat="42.99855" lon="-0.20518">
        <ele>1403.9</ele>
        <time>2015-03-12T12:59:31Z</time>
      </trkpt>
      <trkpt lat="42.99847" lon="-0.20516">
        <ele>1403.4</ele>
        <time>2015-03-12T12:59:35Z</time>
      </trkpt>
      <trkpt lat="42.9984" lon="-0.20515">
        <ele>1403.6</ele>
        <time>2015-03-12T12:59:39Z</time>
      </trkpt>
      <trkpt lat="42.99838" lon="-0.20515">
        <ele>1403.4</ele>
        <time>2015-03-12T12:59:40Z</time>
      </trkpt>
      <trkpt lat="42.99824" lon="-0.2051">
        <ele>1402.8</ele>
        <time>2015-03-12T12:59:47Z</time>
      </trkpt>
      <trkpt lat="42.99817" lon="-0.20508">
        <ele>1402.4</ele>
        <time>2015-03-12T12:59:50Z</time>
      </trkpt>
      <trkpt lat="42.99808" lon="-0.20506">
        <ele>1401.7</ele>
        <time>2015-03-12T12:59:54Z</time>
      </trkpt>
      <trkpt lat="42.99801" lon="-0.20504">
        <ele>1401.6</ele>
        <time>2015-03-12T12:59:57Z</time>
      </trkpt>
      <trkpt lat="42.99793" lon="-0.205">
        <ele>1402.2</ele>
        <time>2015-03-12T13:00:00Z</time>
      </trkpt>
      <trkpt lat="42.99786" lon="-0.20499">
        <ele>1402.4</ele>
        <time>2015-03-12T13:00:03Z</time>
      </trkpt>
      <trkpt lat="42.99779" lon="-0.20498">
        <ele>1402.4</ele>
        <time>2015-03-12T13:00:06Z</time>
      </trkpt>
      <trkpt lat="42.99772" lon="-0.20496">
        <ele>1402.5</ele>
        <time>2015-03-12T13:00:09Z</time>
      </trkpt>
      <trkpt lat="42.99765" lon="-0.20494">
        <ele>1402.5</ele>
        <time>2015-03-12T13:00:12Z</time>
      </trkpt>
      <trkpt lat="42.99759" lon="-0.20491">
        <ele>1402.2</ele>
        <time>2015-03-12T13:00:14Z</time>
      </trkpt>
      <trkpt lat="42.99753" lon="-0.20488">
        <ele>1401.9</ele>
        <time>2015-03-12T13:00:16Z</time>
      </trkpt>
      <trkpt lat="42.99746" lon="-0.20484">
        <ele>1401.3</ele>
        <time>2015-03-12T13:00:19Z</time>
      </trkpt>
      <trkpt lat="42.99739" lon="-0.20481">
        <ele>1401.8</ele>
        <time>2015-03-12T13:00:22Z</time>
      </trkpt>
      <trkpt lat="42.99732" lon="-0.20477">
        <ele>1401.9</ele>
        <time>2015-03-12T13:00:25Z</time>
      </trkpt>
      <trkpt lat="42.99725" lon="-0.20473">
        <ele>1400.6</ele>
        <time>2015-03-12T13:00:28Z</time>
      </trkpt>
      <trkpt lat="42.99717" lon="-0.20469">
        <ele>1400.7</ele>
        <time>2015-03-12T13:00:31Z</time>
      </trkpt>
      <trkpt lat="42.9971" lon="-0.20464">
        <ele>1400.8</ele>
        <time>2015-03-12T13:00:34Z</time>
      </trkpt>
      <trkpt lat="42.99701" lon="-0.2046">
        <ele>1402</ele>
        <time>2015-03-12T13:00:39Z</time>
      </trkpt>
      <trkpt lat="42.99694" lon="-0.20456">
        <ele>1402.3</ele>
        <time>2015-03-12T13:00:44Z</time>
      </trkpt>
      <trkpt lat="42.99692" lon="-0.20455">
        <ele>1402.2</ele>
        <time>2015-03-12T13:00:45Z</time>
      </trkpt>
      <trkpt lat="42.99678" lon="-0.20446">
        <ele>1402.7</ele>
        <time>2015-03-12T13:00:53Z</time>
      </trkpt>
      <trkpt lat="42.9967" lon="-0.2044">
        <ele>1403</ele>
        <time>2015-03-12T13:00:56Z</time>
      </trkpt>
      <trkpt lat="42.99664" lon="-0.20436">
        <ele>1403.2</ele>
        <time>2015-03-12T13:00:58Z</time>
      </trkpt>
      <trkpt lat="42.99656" lon="-0.20432">
        <ele>1403.2</ele>
        <time>2015-03-12T13:01:01Z</time>
      </trkpt>
      <trkpt lat="42.99649" lon="-0.20438">
        <ele>1402.5</ele>
        <time>2015-03-12T13:01:06Z</time>
      </trkpt>
      <trkpt lat="42.99642" lon="-0.20446">
        <ele>1403</ele>
        <time>2015-03-12T13:01:12Z</time>
      </trkpt>
      <trkpt lat="42.99635" lon="-0.20452">
        <ele>1403.1</ele>
        <time>2015-03-12T13:01:17Z</time>
      </trkpt>
      <trkpt lat="42.99629" lon="-0.20457">
        <ele>1403.1</ele>
        <time>2015-03-12T13:01:21Z</time>
      </trkpt>
      <trkpt lat="42.99622" lon="-0.20461">
        <ele>1403.7</ele>
        <time>2015-03-12T13:01:25Z</time>
      </trkpt>
      <trkpt lat="42.99615" lon="-0.20464">
        <ele>1404.5</ele>
        <time>2015-03-12T13:01:29Z</time>
      </trkpt>
      <trkpt lat="42.99607" lon="-0.2047">
        <ele>1404.1</ele>
        <time>2015-03-12T13:01:34Z</time>
      </trkpt>
      <trkpt lat="42.99601" lon="-0.20478">
        <ele>1403.9</ele>
        <time>2015-03-12T13:01:39Z</time>
      </trkpt>
      <trkpt lat="42.99595" lon="-0.20486">
        <ele>1405.2</ele>
        <time>2015-03-12T13:01:44Z</time>
      </trkpt>
      <trkpt lat="42.99588" lon="-0.20493">
        <ele>1405.7</ele>
        <time>2015-03-12T13:01:49Z</time>
      </trkpt>
      <trkpt lat="42.99587" lon="-0.20494">
        <ele>1405.8</ele>
        <time>2015-03-12T13:01:50Z</time>
      </trkpt>
      <trkpt lat="42.99575" lon="-0.20504">
        <ele>1407.4</ele>
        <time>2015-03-12T13:01:59Z</time>
      </trkpt>
      <trkpt lat="42.9957" lon="-0.20512">
        <ele>1407.8</ele>
        <time>2015-03-12T13:02:03Z</time>
      </trkpt>
      <trkpt lat="42.99567" lon="-0.20523">
        <ele>1407.9</ele>
        <time>2015-03-12T13:02:09Z</time>
      </trkpt>
      <trkpt lat="42.99563" lon="-0.20533">
        <ele>1409</ele>
        <time>2015-03-12T13:02:14Z</time>
      </trkpt>
      <trkpt lat="42.99559" lon="-0.20543">
        <ele>1408.8</ele>
        <time>2015-03-12T13:02:19Z</time>
      </trkpt>
      <trkpt lat="42.99554" lon="-0.20552">
        <ele>1409</ele>
        <time>2015-03-12T13:02:23Z</time>
      </trkpt>
      <trkpt lat="42.99549" lon="-0.20559">
        <ele>1408.9</ele>
        <time>2015-03-12T13:02:26Z</time>
      </trkpt>
      <trkpt lat="42.99543" lon="-0.20568">
        <ele>1408.3</ele>
        <time>2015-03-12T13:02:29Z</time>
      </trkpt>
      <trkpt lat="42.99537" lon="-0.20575">
        <ele>1407.9</ele>
        <time>2015-03-12T13:02:32Z</time>
      </trkpt>
      <trkpt lat="42.99531" lon="-0.20582">
        <ele>1407.7</ele>
        <time>2015-03-12T13:02:35Z</time>
      </trkpt>
      <trkpt lat="42.99523" lon="-0.20586">
        <ele>1407.5</ele>
        <time>2015-03-12T13:02:39Z</time>
      </trkpt>
      <trkpt lat="42.99515" lon="-0.20588">
        <ele>1407.4</ele>
        <time>2015-03-12T13:02:42Z</time>
      </trkpt>
      <trkpt lat="42.99507" lon="-0.2059">
        <ele>1407</ele>
        <time>2015-03-12T13:02:45Z</time>
      </trkpt>
      <trkpt lat="42.99499" lon="-0.20594">
        <ele>1405.5</ele>
        <time>2015-03-12T13:02:48Z</time>
      </trkpt>
      <trkpt lat="42.9949" lon="-0.20595">
        <ele>1404.8</ele>
        <time>2015-03-12T13:02:51Z</time>
      </trkpt>
      <trkpt lat="42.99486" lon="-0.20595">
        <ele>1404.8</ele>
        <time>2015-03-12T13:02:52Z</time>
      </trkpt>
      <trkpt lat="42.99476" lon="-0.20592">
        <ele>1404.2</ele>
        <time>2015-03-12T13:02:55Z</time>
      </trkpt>
      <trkpt lat="42.99469" lon="-0.20591">
        <ele>1403.7</ele>
        <time>2015-03-12T13:02:57Z</time>
      </trkpt>
      <trkpt lat="42.99462" lon="-0.20589">
        <ele>1403.3</ele>
        <time>2015-03-12T13:03:00Z</time>
      </trkpt>
      <trkpt lat="42.99454" lon="-0.20584">
        <ele>1403.5</ele>
        <time>2015-03-12T13:03:03Z</time>
      </trkpt>
      <trkpt lat="42.99447" lon="-0.2058">
        <ele>1403.7</ele>
        <time>2015-03-12T13:03:06Z</time>
      </trkpt>
      <trkpt lat="42.99438" lon="-0.20575">
        <ele>1402.5</ele>
        <time>2015-03-12T13:03:10Z</time>
      </trkpt>
      <trkpt lat="42.99431" lon="-0.2057">
        <ele>1402.9</ele>
        <time>2015-03-12T13:03:14Z</time>
      </trkpt>
      <trkpt lat="42.99425" lon="-0.20562">
        <ele>1402.6</ele>
        <time>2015-03-12T13:03:18Z</time>
      </trkpt>
      <trkpt lat="42.99418" lon="-0.20554">
        <ele>1403.4</ele>
        <time>2015-03-12T13:03:22Z</time>
      </trkpt>
      <trkpt lat="42.99411" lon="-0.20548">
        <ele>1402.5</ele>
        <time>2015-03-12T13:03:26Z</time>
      </trkpt>
      <trkpt lat="42.99405" lon="-0.20541">
        <ele>1402.5</ele>
        <time>2015-03-12T13:03:30Z</time>
      </trkpt>
      <trkpt lat="42.994" lon="-0.20532">
        <ele>1401.9</ele>
        <time>2015-03-12T13:03:34Z</time>
      </trkpt>
      <trkpt lat="42.99396" lon="-0.20524">
        <ele>1402.6</ele>
        <time>2015-03-12T13:03:37Z</time>
      </trkpt>
      <trkpt lat="42.99392" lon="-0.20515">
        <ele>1402.2</ele>
        <time>2015-03-12T13:03:41Z</time>
      </trkpt>
      <trkpt lat="42.99388" lon="-0.20505">
        <ele>1401.6</ele>
        <time>2015-03-12T13:03:45Z</time>
      </trkpt>
      <trkpt lat="42.99383" lon="-0.20497">
        <ele>1401.3</ele>
        <time>2015-03-12T13:03:50Z</time>
      </trkpt>
      <trkpt lat="42.99377" lon="-0.2049">
        <ele>1401.4</ele>
        <time>2015-03-12T13:03:55Z</time>
      </trkpt>
      <trkpt lat="42.99375" lon="-0.20488">
        <ele>1401.2</ele>
        <time>2015-03-12T13:03:56Z</time>
      </trkpt>
      <trkpt lat="42.99363" lon="-0.20478">
        <ele>1402.7</ele>
        <time>2015-03-12T13:04:04Z</time>
      </trkpt>
      <trkpt lat="42.99355" lon="-0.20475">
        <ele>1402.6</ele>
        <time>2015-03-12T13:04:08Z</time>
      </trkpt>
      <trkpt lat="42.99347" lon="-0.20473">
        <ele>1402.9</ele>
        <time>2015-03-12T13:04:12Z</time>
      </trkpt>
      <trkpt lat="42.99338" lon="-0.20471">
        <ele>1403.5</ele>
        <time>2015-03-12T13:04:16Z</time>
      </trkpt>
      <trkpt lat="42.99329" lon="-0.20469">
        <ele>1402.9</ele>
        <time>2015-03-12T13:04:20Z</time>
      </trkpt>
      <trkpt lat="42.99322" lon="-0.20467">
        <ele>1402.7</ele>
        <time>2015-03-12T13:04:23Z</time>
      </trkpt>
      <trkpt lat="42.99314" lon="-0.20464">
        <ele>1402.7</ele>
        <time>2015-03-12T13:04:26Z</time>
      </trkpt>
      <trkpt lat="42.99308" lon="-0.20463">
        <ele>1402.2</ele>
        <time>2015-03-12T13:04:28Z</time>
      </trkpt>
      <trkpt lat="42.99301" lon="-0.20461">
        <ele>1401.5</ele>
        <time>2015-03-12T13:04:30Z</time>
      </trkpt>
      <trkpt lat="42.99295" lon="-0.20459">
        <ele>1400.8</ele>
        <time>2015-03-12T13:04:32Z</time>
      </trkpt>
      <trkpt lat="42.99288" lon="-0.20456">
        <ele>1400.3</ele>
        <time>2015-03-12T13:04:34Z</time>
      </trkpt>
      <trkpt lat="42.99282" lon="-0.20452">
        <ele>1399.8</ele>
        <time>2015-03-12T13:04:36Z</time>
      </trkpt>
      <trkpt lat="42.99276" lon="-0.20447">
        <ele>1399.4</ele>
        <time>2015-03-12T13:04:38Z</time>
      </trkpt>
      <trkpt lat="42.99271" lon="-0.20441">
        <ele>1398.7</ele>
        <time>2015-03-12T13:04:40Z</time>
      </trkpt>
      <trkpt lat="42.99266" lon="-0.20435">
        <ele>1397.9</ele>
        <time>2015-03-12T13:04:42Z</time>
      </trkpt>
      <trkpt lat="42.9926" lon="-0.20426">
        <ele>1397.4</ele>
        <time>2015-03-12T13:04:45Z</time>
      </trkpt>
      <trkpt lat="42.99256" lon="-0.2042">
        <ele>1397.7</ele>
        <time>2015-03-12T13:04:47Z</time>
      </trkpt>
      <trkpt lat="42.99252" lon="-0.20412">
        <ele>1397</ele>
        <time>2015-03-12T13:04:49Z</time>
      </trkpt>
      <trkpt lat="42.99246" lon="-0.20405">
        <ele>1395.9</ele>
        <time>2015-03-12T13:04:51Z</time>
      </trkpt>
      <trkpt lat="42.99239" lon="-0.204">
        <ele>1394.9</ele>
        <time>2015-03-12T13:04:53Z</time>
      </trkpt>
      <trkpt lat="42.99236" lon="-0.20397">
        <ele>1394.6</ele>
        <time>2015-03-12T13:04:54Z</time>
      </trkpt>
      <trkpt lat="42.99231" lon="-0.20394">
        <ele>1393.7</ele>
        <time>2015-03-12T13:04:55Z</time>
      </trkpt>
      <trkpt lat="42.99227" lon="-0.20392">
        <ele>1393.1</ele>
        <time>2015-03-12T13:04:56Z</time>
      </trkpt>
      <trkpt lat="42.99223" lon="-0.20389">
        <ele>1392.6</ele>
        <time>2015-03-12T13:04:57Z</time>
      </trkpt>
      <trkpt lat="42.99218" lon="-0.20386">
        <ele>1391.9</ele>
        <time>2015-03-12T13:04:58Z</time>
      </trkpt>
      <trkpt lat="42.99211" lon="-0.2038">
        <ele>1391.1</ele>
        <time>2015-03-12T13:05:00Z</time>
      </trkpt>
      <trkpt lat="42.99204" lon="-0.20376">
        <ele>1389.5</ele>
        <time>2015-03-12T13:05:02Z</time>
      </trkpt>
      <trkpt lat="42.99198" lon="-0.20371">
        <ele>1388.6</ele>
        <time>2015-03-12T13:05:04Z</time>
      </trkpt>
      <trkpt lat="42.99191" lon="-0.20367">
        <ele>1388.2</ele>
        <time>2015-03-12T13:05:06Z</time>
      </trkpt>
      <trkpt lat="42.99184" lon="-0.20361">
        <ele>1387.5</ele>
        <time>2015-03-12T13:05:08Z</time>
      </trkpt>
      <trkpt lat="42.9918" lon="-0.20358">
        <ele>1387.1</ele>
        <time>2015-03-12T13:05:09Z</time>
      </trkpt>
      <trkpt lat="42.99176" lon="-0.20355">
        <ele>1386.8</ele>
        <time>2015-03-12T13:05:10Z</time>
      </trkpt>
      <trkpt lat="42.99168" lon="-0.2035">
        <ele>1386</ele>
        <time>2015-03-12T13:05:12Z</time>
      </trkpt>
      <trkpt lat="42.99162" lon="-0.20347">
        <ele>1385.4</ele>
        <time>2015-03-12T13:05:14Z</time>
      </trkpt>
      <trkpt lat="42.99154" lon="-0.20344">
        <ele>1384.5</ele>
        <time>2015-03-12T13:05:17Z</time>
      </trkpt>
      <trkpt lat="42.99146" lon="-0.20342">
        <ele>1384.2</ele>
        <time>2015-03-12T13:05:21Z</time>
      </trkpt>
      <trkpt lat="42.99139" lon="-0.20337">
        <ele>1384.2</ele>
        <time>2015-03-12T13:05:26Z</time>
      </trkpt>
      <trkpt lat="42.99135" lon="-0.20329">
        <ele>1384.1</ele>
        <time>2015-03-12T13:05:29Z</time>
      </trkpt>
      <trkpt lat="42.99133" lon="-0.20321">
        <ele>1382.6</ele>
        <time>2015-03-12T13:05:31Z</time>
      </trkpt>
      <trkpt lat="42.99127" lon="-0.20312">
        <ele>1381.2</ele>
        <time>2015-03-12T13:05:34Z</time>
      </trkpt>
      <trkpt lat="42.9912" lon="-0.20307">
        <ele>1380.8</ele>
        <time>2015-03-12T13:05:38Z</time>
      </trkpt>
      <trkpt lat="42.99112" lon="-0.20302">
        <ele>1379.9</ele>
        <time>2015-03-12T13:06:10Z</time>
      </trkpt>
      <trkpt lat="42.99112" lon="-0.20302">
        <ele>1380.1</ele>
        <time>2015-03-12T13:06:11Z</time>
      </trkpt>
      <trkpt lat="42.99101" lon="-0.20288">
        <ele>1379.2</ele>
        <time>2015-03-12T13:06:33Z</time>
      </trkpt>
      <trkpt lat="42.99096" lon="-0.20278">
        <ele>1378</ele>
        <time>2015-03-12T13:06:40Z</time>
      </trkpt>
      <trkpt lat="42.9909" lon="-0.20271">
        <ele>1377.7</ele>
        <time>2015-03-12T13:06:46Z</time>
      </trkpt>
      <trkpt lat="42.99084" lon="-0.20266">
        <ele>1379.2</ele>
        <time>2015-03-12T13:06:52Z</time>
      </trkpt>
      <trkpt lat="42.99077" lon="-0.2026">
        <ele>1378.9</ele>
        <time>2015-03-12T13:06:59Z</time>
      </trkpt>
      <trkpt lat="42.99072" lon="-0.20251">
        <ele>1378.6</ele>
        <time>2015-03-12T13:07:06Z</time>
      </trkpt>
      <trkpt lat="42.9907" lon="-0.20241">
        <ele>1378.7</ele>
        <time>2015-03-12T13:07:12Z</time>
      </trkpt>
      <trkpt lat="42.99069" lon="-0.20239">
        <ele>1378.8</ele>
        <time>2015-03-12T13:07:13Z</time>
      </trkpt>
      <trkpt lat="42.99066" lon="-0.20224">
        <ele>1380</ele>
        <time>2015-03-12T13:07:51Z</time>
      </trkpt>
      <trkpt lat="42.99066" lon="-0.20224">
        <ele>1380.2</ele>
        <time>2015-03-12T13:07:52Z</time>
      </trkpt>
    </trkseg>
  </trk>
</gpx>